<?xml version="1.0" encoding="UTF-8" standalone="no" ?>
<gpx xmlns="http://www.topografix.com/GPX/1/1" xmlns:xsi="http://www.w3.org/2001/XMLSchema-instance" xsi:schemaLocation="http://www.topografix.com/GPX/1/1 http://www.topografix.com/GPX/1/1/gpx.xsd" version="1.1" creator="VisuGPX - https://www.visugpx.com">
  <metadata>
    <name>Chamousillon</name>
    <desc><![CDATA[St Martin / Trente Souches / Chamousillon]]></desc>
  </metadata>
  <trk>
    <name><![CDATA[Chamousillon_1]]></name>
    <trkseg>
      <trkpt lat="44.13666" lon="6.76706">
        <ele>955.4</ele>
        <time>2022-07-10T06:03:46.000Z</time>
      </trkpt>
      <trkpt lat="44.13666" lon="6.76705">
        <ele>955.4</ele>
        <time>2022-07-10T06:03:47.000Z</time>
      </trkpt>
      <trkpt lat="44.13666" lon="6.76701">
        <ele>955.4</ele>
        <time>2022-07-10T06:03:49.000Z</time>
      </trkpt>
      <trkpt lat="44.13668" lon="6.76696">
        <ele>955.6</ele>
        <time>2022-07-10T06:03:52.000Z</time>
      </trkpt>
      <trkpt lat="44.13674" lon="6.76686">
        <ele>955.6</ele>
        <time>2022-07-10T06:03:58.000Z</time>
      </trkpt>
      <trkpt lat="44.13689" lon="6.76645">
        <ele>956.6</ele>
        <time>2022-07-10T06:04:16.000Z</time>
      </trkpt>
      <trkpt lat="44.13705" lon="6.76618">
        <ele>957.8</ele>
        <time>2022-07-10T06:04:27.000Z</time>
      </trkpt>
      <trkpt lat="44.13717" lon="6.766">
        <ele>957.8</ele>
        <time>2022-07-10T06:04:34.000Z</time>
      </trkpt>
      <trkpt lat="44.13721" lon="6.76594">
        <ele>958.2</ele>
        <time>2022-07-10T06:04:37.000Z</time>
      </trkpt>
      <trkpt lat="44.13728" lon="6.76589">
        <ele>958.2</ele>
        <time>2022-07-10T06:04:40.000Z</time>
      </trkpt>
      <trkpt lat="44.13751" lon="6.76569">
        <ele>958.8</ele>
        <time>2022-07-10T06:04:51.000Z</time>
      </trkpt>
      <trkpt lat="44.13757" lon="6.76561">
        <ele>959.2</ele>
        <time>2022-07-10T06:04:55.000Z</time>
      </trkpt>
      <trkpt lat="44.13769" lon="6.76545">
        <ele>959.4</ele>
        <time>2022-07-10T06:05:02.000Z</time>
      </trkpt>
      <trkpt lat="44.13775" lon="6.76537">
        <ele>959.8</ele>
        <time>2022-07-10T06:05:06.000Z</time>
      </trkpt>
      <trkpt lat="44.1379" lon="6.76521">
        <ele>961</ele>
        <time>2022-07-10T06:05:14.000Z</time>
      </trkpt>
      <trkpt lat="44.13824" lon="6.76495">
        <ele>962</ele>
        <time>2022-07-10T06:05:28.000Z</time>
      </trkpt>
      <trkpt lat="44.13864" lon="6.76464">
        <ele>963</ele>
        <time>2022-07-10T06:05:45.000Z</time>
      </trkpt>
      <trkpt lat="44.13866" lon="6.76462">
        <ele>963.2</ele>
        <time>2022-07-10T06:05:46.000Z</time>
      </trkpt>
      <trkpt lat="44.13903" lon="6.76433">
        <ele>964</ele>
        <time>2022-07-10T06:06:01.000Z</time>
      </trkpt>
      <trkpt lat="44.1391" lon="6.76428">
        <ele>964.2</ele>
        <time>2022-07-10T06:06:04.000Z</time>
      </trkpt>
      <trkpt lat="44.13945" lon="6.76388">
        <ele>965.2</ele>
        <time>2022-07-10T06:06:21.000Z</time>
      </trkpt>
      <trkpt lat="44.13953" lon="6.7638">
        <ele>965.4</ele>
        <time>2022-07-10T06:06:25.000Z</time>
      </trkpt>
      <trkpt lat="44.13976" lon="6.76358">
        <ele>966.2</ele>
        <time>2022-07-10T06:06:36.000Z</time>
      </trkpt>
      <trkpt lat="44.13999" lon="6.76343">
        <ele>967.4</ele>
        <time>2022-07-10T06:06:46.000Z</time>
      </trkpt>
      <trkpt lat="44.14023" lon="6.76331">
        <ele>968.4</ele>
        <time>2022-07-10T06:06:57.000Z</time>
      </trkpt>
      <trkpt lat="44.14036" lon="6.76319">
        <ele>969</ele>
        <time>2022-07-10T06:07:05.000Z</time>
      </trkpt>
      <trkpt lat="44.14038" lon="6.76314">
        <ele>969.4</ele>
        <time>2022-07-10T06:07:07.000Z</time>
      </trkpt>
      <trkpt lat="44.1404" lon="6.76284">
        <ele>970.4</ele>
        <time>2022-07-10T06:07:18.000Z</time>
      </trkpt>
      <trkpt lat="44.14035" lon="6.76252">
        <ele>971.4</ele>
        <time>2022-07-10T06:07:30.000Z</time>
      </trkpt>
      <trkpt lat="44.14033" lon="6.76231">
        <ele>972.2</ele>
        <time>2022-07-10T06:07:38.000Z</time>
      </trkpt>
      <trkpt lat="44.14033" lon="6.76224">
        <ele>972.6</ele>
        <time>2022-07-10T06:07:40.000Z</time>
      </trkpt>
      <trkpt lat="44.14034" lon="6.76214">
        <ele>973</ele>
        <time>2022-07-10T06:07:44.000Z</time>
      </trkpt>
      <trkpt lat="44.14036" lon="6.76197">
        <ele>973.6</ele>
        <time>2022-07-10T06:07:50.000Z</time>
      </trkpt>
      <trkpt lat="44.14046" lon="6.76181">
        <ele>974.4</ele>
        <time>2022-07-10T06:07:57.000Z</time>
      </trkpt>
      <trkpt lat="44.14049" lon="6.76177">
        <ele>974.8</ele>
        <time>2022-07-10T06:07:59.000Z</time>
      </trkpt>
      <trkpt lat="44.14063" lon="6.76158">
        <ele>975.8</ele>
        <time>2022-07-10T06:08:09.000Z</time>
      </trkpt>
      <trkpt lat="44.1408" lon="6.76141">
        <ele>977</ele>
        <time>2022-07-10T06:08:20.000Z</time>
      </trkpt>
      <trkpt lat="44.141" lon="6.76128">
        <ele>978</ele>
        <time>2022-07-10T06:08:31.000Z</time>
      </trkpt>
      <trkpt lat="44.14119" lon="6.76118">
        <ele>979.2</ele>
        <time>2022-07-10T06:08:40.000Z</time>
      </trkpt>
      <trkpt lat="44.14135" lon="6.76109">
        <ele>980.2</ele>
        <time>2022-07-10T06:08:48.000Z</time>
      </trkpt>
      <trkpt lat="44.14155" lon="6.76094">
        <ele>981.2</ele>
        <time>2022-07-10T06:08:59.000Z</time>
      </trkpt>
      <trkpt lat="44.14172" lon="6.76073">
        <ele>982.4</ele>
        <time>2022-07-10T06:09:10.000Z</time>
      </trkpt>
      <trkpt lat="44.14185" lon="6.76057">
        <ele>983.4</ele>
        <time>2022-07-10T06:09:19.000Z</time>
      </trkpt>
      <trkpt lat="44.14194" lon="6.76049">
        <ele>984</ele>
        <time>2022-07-10T06:09:24.000Z</time>
      </trkpt>
      <trkpt lat="44.14209" lon="6.76048">
        <ele>984.6</ele>
        <time>2022-07-10T06:09:31.000Z</time>
      </trkpt>
      <trkpt lat="44.14221" lon="6.7605">
        <ele>985</ele>
        <time>2022-07-10T06:09:35.000Z</time>
      </trkpt>
      <trkpt lat="44.14239" lon="6.76094">
        <ele>985.6</ele>
        <time>2022-07-10T06:09:49.000Z</time>
      </trkpt>
      <trkpt lat="44.1423" lon="6.76118">
        <ele>986.6</ele>
        <time>2022-07-10T06:09:56.000Z</time>
      </trkpt>
      <trkpt lat="44.14224" lon="6.76127">
        <ele>987.2</ele>
        <time>2022-07-10T06:09:59.000Z</time>
      </trkpt>
      <trkpt lat="44.1422" lon="6.76134">
        <ele>987.6</ele>
        <time>2022-07-10T06:10:02.000Z</time>
      </trkpt>
      <trkpt lat="44.14211" lon="6.76147">
        <ele>988.4</ele>
        <time>2022-07-10T06:10:07.000Z</time>
      </trkpt>
      <trkpt lat="44.1421" lon="6.7615">
        <ele>988.6</ele>
        <time>2022-07-10T06:10:08.000Z</time>
      </trkpt>
      <trkpt lat="44.14201" lon="6.76162">
        <ele>989.6</ele>
        <time>2022-07-10T06:10:13.000Z</time>
      </trkpt>
      <trkpt lat="44.14184" lon="6.76182">
        <ele>990.8</ele>
        <time>2022-07-10T06:10:21.000Z</time>
      </trkpt>
      <trkpt lat="44.14168" lon="6.76203">
        <ele>992</ele>
        <time>2022-07-10T06:10:29.000Z</time>
      </trkpt>
      <trkpt lat="44.14161" lon="6.76215">
        <ele>992.6</ele>
        <time>2022-07-10T06:10:33.000Z</time>
      </trkpt>
      <trkpt lat="44.14148" lon="6.76232">
        <ele>993</ele>
        <time>2022-07-10T06:10:39.000Z</time>
      </trkpt>
      <trkpt lat="44.14142" lon="6.76252">
        <ele>993.8</ele>
        <time>2022-07-10T06:10:44.000Z</time>
      </trkpt>
      <trkpt lat="44.14147" lon="6.76257">
        <ele>993.8</ele>
        <time>2022-07-10T06:10:46.000Z</time>
      </trkpt>
      <trkpt lat="44.14157" lon="6.76251">
        <ele>994</ele>
        <time>2022-07-10T06:10:50.000Z</time>
      </trkpt>
      <trkpt lat="44.14164" lon="6.76244">
        <ele>994</ele>
        <time>2022-07-10T06:10:53.000Z</time>
      </trkpt>
      <trkpt lat="44.14173" lon="6.76224">
        <ele>994.2</ele>
        <time>2022-07-10T06:10:59.000Z</time>
      </trkpt>
      <trkpt lat="44.14198" lon="6.76187">
        <ele>994.2</ele>
        <time>2022-07-10T06:11:09.000Z</time>
      </trkpt>
      <trkpt lat="44.14224" lon="6.7616">
        <ele>995</ele>
        <time>2022-07-10T06:11:18.000Z</time>
      </trkpt>
      <trkpt lat="44.14238" lon="6.76144">
        <ele>995.6</ele>
        <time>2022-07-10T06:11:23.000Z</time>
      </trkpt>
      <trkpt lat="44.14267" lon="6.76126">
        <ele>995</ele>
        <time>2022-07-10T06:11:31.000Z</time>
      </trkpt>
      <trkpt lat="44.14283" lon="6.7612">
        <ele>995</ele>
        <time>2022-07-10T06:11:35.000Z</time>
      </trkpt>
      <trkpt lat="44.1431" lon="6.76101">
        <ele>995.8</ele>
        <time>2022-07-10T06:11:44.000Z</time>
      </trkpt>
      <trkpt lat="44.14314" lon="6.76092">
        <ele>996.2</ele>
        <time>2022-07-10T06:11:47.000Z</time>
      </trkpt>
      <trkpt lat="44.14316" lon="6.76082">
        <ele>996.4</ele>
        <time>2022-07-10T06:11:51.000Z</time>
      </trkpt>
      <trkpt lat="44.14315" lon="6.76079">
        <ele>996.6</ele>
        <time>2022-07-10T06:11:53.000Z</time>
      </trkpt>
      <trkpt lat="44.14316" lon="6.76079">
        <ele>996.8</ele>
        <time>2022-07-10T06:11:58.000Z</time>
      </trkpt>
      <trkpt lat="44.14325" lon="6.76079">
        <ele>996.2</ele>
        <time>2022-07-10T06:12:16.000Z</time>
      </trkpt>
      <trkpt lat="44.14326" lon="6.76079">
        <ele>996.2</ele>
        <time>2022-07-10T06:12:17.000Z</time>
      </trkpt>
      <trkpt lat="44.14326" lon="6.76077">
        <ele>996</ele>
        <time>2022-07-10T06:12:22.000Z</time>
      </trkpt>
      <trkpt lat="44.14324" lon="6.76074">
        <ele>995.4</ele>
        <time>2022-07-10T06:12:32.000Z</time>
      </trkpt>
      <trkpt lat="44.14324" lon="6.76074">
        <ele>995.4</ele>
        <time>2022-07-10T06:12:35.000Z</time>
      </trkpt>
      <trkpt lat="44.14324" lon="6.76075">
        <ele>995.6</ele>
        <time>2022-07-10T06:12:37.000Z</time>
      </trkpt>
      <trkpt lat="44.14328" lon="6.76078">
        <ele>995.8</ele>
        <time>2022-07-10T06:12:47.000Z</time>
      </trkpt>
      <trkpt lat="44.14328" lon="6.76078">
        <ele>995.8</ele>
        <time>2022-07-10T06:12:49.000Z</time>
      </trkpt>
      <trkpt lat="44.14327" lon="6.76077">
        <ele>995.8</ele>
        <time>2022-07-10T06:12:53.000Z</time>
      </trkpt>
      <trkpt lat="44.14325" lon="6.76078">
        <ele>996</ele>
        <time>2022-07-10T06:13:01.000Z</time>
      </trkpt>
      <trkpt lat="44.14327" lon="6.76071">
        <ele>996.2</ele>
        <time>2022-07-10T06:13:10.000Z</time>
      </trkpt>
      <trkpt lat="44.1433" lon="6.76066">
        <ele>996</ele>
        <time>2022-07-10T06:13:12.000Z</time>
      </trkpt>
      <trkpt lat="44.14337" lon="6.76059">
        <ele>996.2</ele>
        <time>2022-07-10T06:13:15.000Z</time>
      </trkpt>
      <trkpt lat="44.14346" lon="6.76048">
        <ele>997.2</ele>
        <time>2022-07-10T06:13:20.000Z</time>
      </trkpt>
      <trkpt lat="44.14349" lon="6.76045">
        <ele>997.6</ele>
        <time>2022-07-10T06:13:23.000Z</time>
      </trkpt>
      <trkpt lat="44.14367" lon="6.76027">
        <ele>998.4</ele>
        <time>2022-07-10T06:13:33.000Z</time>
      </trkpt>
      <trkpt lat="44.14373" lon="6.76023">
        <ele>998.6</ele>
        <time>2022-07-10T06:13:35.000Z</time>
      </trkpt>
      <trkpt lat="44.14382" lon="6.76012">
        <ele>999</ele>
        <time>2022-07-10T06:13:39.000Z</time>
      </trkpt>
      <trkpt lat="44.14393" lon="6.76002">
        <ele>999.2</ele>
        <time>2022-07-10T06:13:43.000Z</time>
      </trkpt>
      <trkpt lat="44.14398" lon="6.75996">
        <ele>999.4</ele>
        <time>2022-07-10T06:13:45.000Z</time>
      </trkpt>
      <trkpt lat="44.14419" lon="6.7597">
        <ele>1000.6</ele>
        <time>2022-07-10T06:13:54.000Z</time>
      </trkpt>
      <trkpt lat="44.14434" lon="6.75953">
        <ele>1001.4</ele>
        <time>2022-07-10T06:14:00.000Z</time>
      </trkpt>
      <trkpt lat="44.14442" lon="6.75943">
        <ele>1001.6</ele>
        <time>2022-07-10T06:14:03.000Z</time>
      </trkpt>
      <trkpt lat="44.14455" lon="6.75925">
        <ele>1002</ele>
        <time>2022-07-10T06:14:08.000Z</time>
      </trkpt>
      <trkpt lat="44.14461" lon="6.75915">
        <ele>1002.4</ele>
        <time>2022-07-10T06:14:11.000Z</time>
      </trkpt>
      <trkpt lat="44.14463" lon="6.75912">
        <ele>1002.6</ele>
        <time>2022-07-10T06:14:12.000Z</time>
      </trkpt>
      <trkpt lat="44.14482" lon="6.75885">
        <ele>1003.6</ele>
        <time>2022-07-10T06:14:20.000Z</time>
      </trkpt>
      <trkpt lat="44.145" lon="6.75858">
        <ele>1004.8</ele>
        <time>2022-07-10T06:14:29.000Z</time>
      </trkpt>
      <trkpt lat="44.14508" lon="6.75835">
        <ele>1005.8</ele>
        <time>2022-07-10T06:14:36.000Z</time>
      </trkpt>
      <trkpt lat="44.14527" lon="6.75809">
        <ele>1006.8</ele>
        <time>2022-07-10T06:14:46.000Z</time>
      </trkpt>
      <trkpt lat="44.14542" lon="6.758">
        <ele>1007.8</ele>
        <time>2022-07-10T06:14:51.000Z</time>
      </trkpt>
      <trkpt lat="44.14559" lon="6.75791">
        <ele>1008.6</ele>
        <time>2022-07-10T06:15:00.000Z</time>
      </trkpt>
      <trkpt lat="44.14566" lon="6.75788">
        <ele>1009</ele>
        <time>2022-07-10T06:15:03.000Z</time>
      </trkpt>
      <trkpt lat="44.14594" lon="6.75774">
        <ele>1009.6</ele>
        <time>2022-07-10T06:15:11.000Z</time>
      </trkpt>
      <trkpt lat="44.14608" lon="6.75769">
        <ele>1010</ele>
        <time>2022-07-10T06:15:15.000Z</time>
      </trkpt>
      <trkpt lat="44.14623" lon="6.75758">
        <ele>1010.6</ele>
        <time>2022-07-10T06:15:21.000Z</time>
      </trkpt>
      <trkpt lat="44.14633" lon="6.75753">
        <ele>1011</ele>
        <time>2022-07-10T06:15:25.000Z</time>
      </trkpt>
      <trkpt lat="44.14655" lon="6.75745">
        <ele>1011.6</ele>
        <time>2022-07-10T06:15:34.000Z</time>
      </trkpt>
      <trkpt lat="44.14678" lon="6.75733">
        <ele>1012.2</ele>
        <time>2022-07-10T06:15:43.000Z</time>
      </trkpt>
      <trkpt lat="44.14696" lon="6.75727">
        <ele>1013.2</ele>
        <time>2022-07-10T06:15:50.000Z</time>
      </trkpt>
      <trkpt lat="44.14716" lon="6.75723">
        <ele>1014.2</ele>
        <time>2022-07-10T06:15:58.000Z</time>
      </trkpt>
      <trkpt lat="44.14727" lon="6.75727">
        <ele>1014.6</ele>
        <time>2022-07-10T06:16:04.000Z</time>
      </trkpt>
      <trkpt lat="44.14739" lon="6.75731">
        <ele>1015.2</ele>
        <time>2022-07-10T06:16:09.000Z</time>
      </trkpt>
      <trkpt lat="44.14774" lon="6.75737">
        <ele>1016.2</ele>
        <time>2022-07-10T06:16:24.000Z</time>
      </trkpt>
      <trkpt lat="44.14795" lon="6.75729">
        <ele>1016.8</ele>
        <time>2022-07-10T06:16:33.000Z</time>
      </trkpt>
      <trkpt lat="44.14803" lon="6.75727">
        <ele>1017.2</ele>
        <time>2022-07-10T06:16:37.000Z</time>
      </trkpt>
      <trkpt lat="44.14806" lon="6.75727">
        <ele>1017.2</ele>
        <time>2022-07-10T06:16:38.000Z</time>
      </trkpt>
      <trkpt lat="44.14836" lon="6.75717">
        <ele>1018.2</ele>
        <time>2022-07-10T06:16:52.000Z</time>
      </trkpt>
      <trkpt lat="44.14866" lon="6.757">
        <ele>1019.4</ele>
        <time>2022-07-10T06:17:06.000Z</time>
      </trkpt>
      <trkpt lat="44.14891" lon="6.75687">
        <ele>1020.4</ele>
        <time>2022-07-10T06:17:18.000Z</time>
      </trkpt>
      <trkpt lat="44.14928" lon="6.75663">
        <ele>1021.6</ele>
        <time>2022-07-10T06:17:36.000Z</time>
      </trkpt>
      <trkpt lat="44.14951" lon="6.75651">
        <ele>1022.6</ele>
        <time>2022-07-10T06:17:46.000Z</time>
      </trkpt>
      <trkpt lat="44.14978" lon="6.75644">
        <ele>1023.8</ele>
        <time>2022-07-10T06:17:57.000Z</time>
      </trkpt>
      <trkpt lat="44.15005" lon="6.7564">
        <ele>1024.8</ele>
        <time>2022-07-10T06:18:08.000Z</time>
      </trkpt>
      <trkpt lat="44.15038" lon="6.75641">
        <ele>1025.8</ele>
        <time>2022-07-10T06:18:21.000Z</time>
      </trkpt>
      <trkpt lat="44.15052" lon="6.75649">
        <ele>1026.2</ele>
        <time>2022-07-10T06:18:27.000Z</time>
      </trkpt>
      <trkpt lat="44.15065" lon="6.7566">
        <ele>1026.8</ele>
        <time>2022-07-10T06:18:33.000Z</time>
      </trkpt>
      <trkpt lat="44.15067" lon="6.75662">
        <ele>1026.8</ele>
        <time>2022-07-10T06:18:34.000Z</time>
      </trkpt>
      <trkpt lat="44.15082" lon="6.75672">
        <ele>1027.2</ele>
        <time>2022-07-10T06:18:41.000Z</time>
      </trkpt>
      <trkpt lat="44.1509" lon="6.75672">
        <ele>1027.4</ele>
        <time>2022-07-10T06:18:44.000Z</time>
      </trkpt>
      <trkpt lat="44.15102" lon="6.75671">
        <ele>1027.8</ele>
        <time>2022-07-10T06:18:48.000Z</time>
      </trkpt>
      <trkpt lat="44.15132" lon="6.75663">
        <ele>1029</ele>
        <time>2022-07-10T06:19:00.000Z</time>
      </trkpt>
      <trkpt lat="44.1516" lon="6.75663">
        <ele>1030</ele>
        <time>2022-07-10T06:19:13.000Z</time>
      </trkpt>
      <trkpt lat="44.15197" lon="6.75653">
        <ele>1031</ele>
        <time>2022-07-10T06:19:26.000Z</time>
      </trkpt>
      <trkpt lat="44.15219" lon="6.75646">
        <ele>1031.8</ele>
        <time>2022-07-10T06:19:33.000Z</time>
      </trkpt>
      <trkpt lat="44.15229" lon="6.75642">
        <ele>1032.2</ele>
        <time>2022-07-10T06:19:36.000Z</time>
      </trkpt>
      <trkpt lat="44.15261" lon="6.75634">
        <ele>1032.8</ele>
        <time>2022-07-10T06:19:46.000Z</time>
      </trkpt>
      <trkpt lat="44.15271" lon="6.75635">
        <ele>1033.2</ele>
        <time>2022-07-10T06:19:50.000Z</time>
      </trkpt>
      <trkpt lat="44.15297" lon="6.75641">
        <ele>1034.4</ele>
        <time>2022-07-10T06:20:05.000Z</time>
      </trkpt>
      <trkpt lat="44.15316" lon="6.75642">
        <ele>1035.4</ele>
        <time>2022-07-10T06:20:14.000Z</time>
      </trkpt>
      <trkpt lat="44.15331" lon="6.75637">
        <ele>1036</ele>
        <time>2022-07-10T06:20:21.000Z</time>
      </trkpt>
      <trkpt lat="44.15353" lon="6.75636">
        <ele>1036.4</ele>
        <time>2022-07-10T06:20:30.000Z</time>
      </trkpt>
      <trkpt lat="44.15394" lon="6.7567">
        <ele>1037.6</ele>
        <time>2022-07-10T06:20:54.000Z</time>
      </trkpt>
      <trkpt lat="44.15415" lon="6.75683">
        <ele>1038.6</ele>
        <time>2022-07-10T06:21:06.000Z</time>
      </trkpt>
      <trkpt lat="44.15466" lon="6.75695">
        <ele>1039.6</ele>
        <time>2022-07-10T06:21:24.000Z</time>
      </trkpt>
      <trkpt lat="44.15468" lon="6.75697">
        <ele>1039.6</ele>
        <time>2022-07-10T06:21:25.000Z</time>
      </trkpt>
      <trkpt lat="44.15496" lon="6.75714">
        <ele>1040.6</ele>
        <time>2022-07-10T06:21:38.000Z</time>
      </trkpt>
      <trkpt lat="44.15548" lon="6.75709">
        <ele>1041.8</ele>
        <time>2022-07-10T06:21:56.000Z</time>
      </trkpt>
      <trkpt lat="44.15576" lon="6.75702">
        <ele>1042.4</ele>
        <time>2022-07-10T06:22:11.000Z</time>
      </trkpt>
      <trkpt lat="44.15591" lon="6.75697">
        <ele>1043</ele>
        <time>2022-07-10T06:22:18.000Z</time>
      </trkpt>
      <trkpt lat="44.15839" lon="6.75725">
        <ele>1056</ele>
        <time>2022-07-10T06:24:23.000Z</time>
      </trkpt>
      <trkpt lat="44.15839" lon="6.75731">
        <ele>1056.4</ele>
        <time>2022-07-10T06:24:26.000Z</time>
      </trkpt>
      <trkpt lat="44.15844" lon="6.75733">
        <ele>1056.8</ele>
        <time>2022-07-10T06:24:31.000Z</time>
      </trkpt>
      <trkpt lat="44.15865" lon="6.75732">
        <ele>1057.8</ele>
        <time>2022-07-10T06:24:46.000Z</time>
      </trkpt>
      <trkpt lat="44.15871" lon="6.75734">
        <ele>1058.2</ele>
        <time>2022-07-10T06:24:51.000Z</time>
      </trkpt>
      <trkpt lat="44.15879" lon="6.75738">
        <ele>1058.8</ele>
        <time>2022-07-10T06:24:57.000Z</time>
      </trkpt>
      <trkpt lat="44.159" lon="6.75743">
        <ele>1060</ele>
        <time>2022-07-10T06:25:09.000Z</time>
      </trkpt>
      <trkpt lat="44.15915" lon="6.75744">
        <ele>1061.2</ele>
        <time>2022-07-10T06:25:19.000Z</time>
      </trkpt>
      <trkpt lat="44.15935" lon="6.75747">
        <ele>1062.4</ele>
        <time>2022-07-10T06:25:30.000Z</time>
      </trkpt>
      <trkpt lat="44.15952" lon="6.75744">
        <ele>1063.4</ele>
        <time>2022-07-10T06:25:39.000Z</time>
      </trkpt>
      <trkpt lat="44.15963" lon="6.75742">
        <ele>1064.4</ele>
        <time>2022-07-10T06:25:46.000Z</time>
      </trkpt>
      <trkpt lat="44.15971" lon="6.75742">
        <ele>1065</ele>
        <time>2022-07-10T06:25:51.000Z</time>
      </trkpt>
      <trkpt lat="44.15979" lon="6.75743">
        <ele>1065.4</ele>
        <time>2022-07-10T06:25:56.000Z</time>
      </trkpt>
      <trkpt lat="44.16002" lon="6.75749">
        <ele>1066.6</ele>
        <time>2022-07-10T06:26:07.000Z</time>
      </trkpt>
      <trkpt lat="44.16023" lon="6.75744">
        <ele>1067.6</ele>
        <time>2022-07-10T06:26:19.000Z</time>
      </trkpt>
      <trkpt lat="44.16038" lon="6.75733">
        <ele>1068.4</ele>
        <time>2022-07-10T06:26:28.000Z</time>
      </trkpt>
      <trkpt lat="44.1604" lon="6.7573">
        <ele>1068.6</ele>
        <time>2022-07-10T06:26:30.000Z</time>
      </trkpt>
      <trkpt lat="44.16048" lon="6.75702">
        <ele>1069.6</ele>
        <time>2022-07-10T06:26:42.000Z</time>
      </trkpt>
      <trkpt lat="44.16059" lon="6.75678">
        <ele>1070.6</ele>
        <time>2022-07-10T06:26:53.000Z</time>
      </trkpt>
      <trkpt lat="44.16076" lon="6.75663">
        <ele>1071.6</ele>
        <time>2022-07-10T06:27:04.000Z</time>
      </trkpt>
      <trkpt lat="44.1612" lon="6.75628">
        <ele>1072.8</ele>
        <time>2022-07-10T06:27:27.000Z</time>
      </trkpt>
      <trkpt lat="44.16146" lon="6.75605">
        <ele>1073.8</ele>
        <time>2022-07-10T06:27:41.000Z</time>
      </trkpt>
      <trkpt lat="44.16161" lon="6.75588">
        <ele>1074.8</ele>
        <time>2022-07-10T06:27:51.000Z</time>
      </trkpt>
      <trkpt lat="44.16189" lon="6.75581">
        <ele>1076</ele>
        <time>2022-07-10T06:28:08.000Z</time>
      </trkpt>
      <trkpt lat="44.16211" lon="6.75572">
        <ele>1077</ele>
        <time>2022-07-10T06:28:19.000Z</time>
      </trkpt>
      <trkpt lat="44.16247" lon="6.75556">
        <ele>1078</ele>
        <time>2022-07-10T06:28:36.000Z</time>
      </trkpt>
      <trkpt lat="44.16266" lon="6.7554">
        <ele>1079</ele>
        <time>2022-07-10T06:28:47.000Z</time>
      </trkpt>
      <trkpt lat="44.16279" lon="6.7552">
        <ele>1080</ele>
        <time>2022-07-10T06:28:58.000Z</time>
      </trkpt>
      <trkpt lat="44.16281" lon="6.75468">
        <ele>1081.2</ele>
        <time>2022-07-10T06:29:19.000Z</time>
      </trkpt>
      <trkpt lat="44.16278" lon="6.75449">
        <ele>1081.6</ele>
        <time>2022-07-10T06:29:26.000Z</time>
      </trkpt>
      <trkpt lat="44.16277" lon="6.75434">
        <ele>1082.2</ele>
        <time>2022-07-10T06:29:32.000Z</time>
      </trkpt>
      <trkpt lat="44.16269" lon="6.75375">
        <ele>1083.2</ele>
        <time>2022-07-10T06:29:52.000Z</time>
      </trkpt>
      <trkpt lat="44.16274" lon="6.75359">
        <ele>1083.6</ele>
        <time>2022-07-10T06:29:57.000Z</time>
      </trkpt>
      <trkpt lat="44.16298" lon="6.75339">
        <ele>1084.4</ele>
        <time>2022-07-10T06:30:10.000Z</time>
      </trkpt>
      <trkpt lat="44.16325" lon="6.75357">
        <ele>1085.4</ele>
        <time>2022-07-10T06:30:25.000Z</time>
      </trkpt>
      <trkpt lat="44.1634" lon="6.75376">
        <ele>1086.4</ele>
        <time>2022-07-10T06:30:35.000Z</time>
      </trkpt>
      <trkpt lat="44.16348" lon="6.75386">
        <ele>1086.8</ele>
        <time>2022-07-10T06:30:40.000Z</time>
      </trkpt>
      <trkpt lat="44.16362" lon="6.75399">
        <ele>1087.4</ele>
        <time>2022-07-10T06:30:49.000Z</time>
      </trkpt>
      <trkpt lat="44.16377" lon="6.75395">
        <ele>1088.6</ele>
        <time>2022-07-10T06:30:58.000Z</time>
      </trkpt>
      <trkpt lat="44.16384" lon="6.75391">
        <ele>1089</ele>
        <time>2022-07-10T06:31:02.000Z</time>
      </trkpt>
      <trkpt lat="44.16392" lon="6.75386">
        <ele>1089.4</ele>
        <time>2022-07-10T06:31:06.000Z</time>
      </trkpt>
      <trkpt lat="44.16403" lon="6.75381">
        <ele>1089.6</ele>
        <time>2022-07-10T06:31:12.000Z</time>
      </trkpt>
      <trkpt lat="44.16432" lon="6.75368">
        <ele>1090.6</ele>
        <time>2022-07-10T06:31:27.000Z</time>
      </trkpt>
      <trkpt lat="44.16441" lon="6.75367">
        <ele>1091.2</ele>
        <time>2022-07-10T06:31:33.000Z</time>
      </trkpt>
      <trkpt lat="44.16447" lon="6.75366">
        <ele>1091.8</ele>
        <time>2022-07-10T06:31:37.000Z</time>
      </trkpt>
      <trkpt lat="44.16466" lon="6.75357">
        <ele>1092.8</ele>
        <time>2022-07-10T06:31:47.000Z</time>
      </trkpt>
      <trkpt lat="44.16482" lon="6.75349">
        <ele>1093.8</ele>
        <time>2022-07-10T06:31:56.000Z</time>
      </trkpt>
      <trkpt lat="44.16502" lon="6.7534">
        <ele>1094.8</ele>
        <time>2022-07-10T06:32:08.000Z</time>
      </trkpt>
      <trkpt lat="44.16513" lon="6.75336">
        <ele>1095.4</ele>
        <time>2022-07-10T06:32:14.000Z</time>
      </trkpt>
      <trkpt lat="44.16517" lon="6.75334">
        <ele>1096</ele>
        <time>2022-07-10T06:32:17.000Z</time>
      </trkpt>
      <trkpt lat="44.16528" lon="6.75328">
        <ele>1096.6</ele>
        <time>2022-07-10T06:32:24.000Z</time>
      </trkpt>
      <trkpt lat="44.16537" lon="6.75326">
        <ele>1097</ele>
        <time>2022-07-10T06:32:29.000Z</time>
      </trkpt>
      <trkpt lat="44.16538" lon="6.75325">
        <ele>1097</ele>
        <time>2022-07-10T06:32:30.000Z</time>
      </trkpt>
      <trkpt lat="44.16573" lon="6.75323">
        <ele>1098</ele>
        <time>2022-07-10T06:32:46.000Z</time>
      </trkpt>
      <trkpt lat="44.16579" lon="6.75322">
        <ele>1098.6</ele>
        <time>2022-07-10T06:32:51.000Z</time>
      </trkpt>
      <trkpt lat="44.16584" lon="6.75322">
        <ele>1098.6</ele>
        <time>2022-07-10T06:32:54.000Z</time>
      </trkpt>
      <trkpt lat="44.1659" lon="6.75322">
        <ele>1099</ele>
        <time>2022-07-10T06:32:59.000Z</time>
      </trkpt>
      <trkpt lat="44.16591" lon="6.75322">
        <ele>1099.2</ele>
        <time>2022-07-10T06:33:18.000Z</time>
      </trkpt>
      <trkpt lat="44.16583" lon="6.75323">
        <ele>1099</ele>
        <time>2022-07-10T06:33:30.000Z</time>
      </trkpt>
      <trkpt lat="44.1658" lon="6.75324">
        <ele>1098.8</ele>
        <time>2022-07-10T06:33:33.000Z</time>
      </trkpt>
      <trkpt lat="44.16579" lon="6.75327">
        <ele>1098.6</ele>
        <time>2022-07-10T06:33:36.000Z</time>
      </trkpt>
      <trkpt lat="44.16579" lon="6.75325">
        <ele>1098</ele>
        <time>2022-07-10T06:33:41.000Z</time>
      </trkpt>
      <trkpt lat="44.16578" lon="6.75324">
        <ele>1098</ele>
        <time>2022-07-10T06:33:45.000Z</time>
      </trkpt>
      <trkpt lat="44.16578" lon="6.75324">
        <ele>1098</ele>
        <time>2022-07-10T06:33:48.000Z</time>
      </trkpt>
      <trkpt lat="44.16581" lon="6.75324">
        <ele>1098.2</ele>
        <time>2022-07-10T06:34:04.000Z</time>
      </trkpt>
      <trkpt lat="44.16577" lon="6.75325">
        <ele>1098</ele>
        <time>2022-07-10T06:34:21.000Z</time>
      </trkpt>
      <trkpt lat="44.16582" lon="6.75323">
        <ele>1098</ele>
        <time>2022-07-10T06:34:28.000Z</time>
      </trkpt>
      <trkpt lat="44.1659" lon="6.75321">
        <ele>1099.4</ele>
        <time>2022-07-10T06:34:32.000Z</time>
      </trkpt>
      <trkpt lat="44.16592" lon="6.75318">
        <ele>1099.6</ele>
        <time>2022-07-10T06:34:34.000Z</time>
      </trkpt>
      <trkpt lat="44.16613" lon="6.753">
        <ele>1100.4</ele>
        <time>2022-07-10T06:34:47.000Z</time>
      </trkpt>
      <trkpt lat="44.16626" lon="6.75284">
        <ele>1101.4</ele>
        <time>2022-07-10T06:34:59.000Z</time>
      </trkpt>
      <trkpt lat="44.16649" lon="6.75267">
        <ele>1102.2</ele>
        <time>2022-07-10T06:35:13.000Z</time>
      </trkpt>
      <trkpt lat="44.16655" lon="6.75263">
        <ele>1102.6</ele>
        <time>2022-07-10T06:35:15.000Z</time>
      </trkpt>
      <trkpt lat="44.16663" lon="6.75259">
        <ele>1103</ele>
        <time>2022-07-10T06:35:18.000Z</time>
      </trkpt>
      <trkpt lat="44.16668" lon="6.75255">
        <ele>1103.2</ele>
        <time>2022-07-10T06:35:20.000Z</time>
      </trkpt>
      <trkpt lat="44.16673" lon="6.75251">
        <ele>1103.8</ele>
        <time>2022-07-10T06:35:22.000Z</time>
      </trkpt>
      <trkpt lat="44.16681" lon="6.75245">
        <ele>1104.4</ele>
        <time>2022-07-10T06:35:25.000Z</time>
      </trkpt>
      <trkpt lat="44.16687" lon="6.75241">
        <ele>1104.8</ele>
        <time>2022-07-10T06:35:27.000Z</time>
      </trkpt>
      <trkpt lat="44.16699" lon="6.75233">
        <ele>1105.2</ele>
        <time>2022-07-10T06:35:32.000Z</time>
      </trkpt>
      <trkpt lat="44.16709" lon="6.75227">
        <ele>1105.8</ele>
        <time>2022-07-10T06:35:36.000Z</time>
      </trkpt>
      <trkpt lat="44.1672" lon="6.75221">
        <ele>1106</ele>
        <time>2022-07-10T06:35:40.000Z</time>
      </trkpt>
      <trkpt lat="44.16729" lon="6.75213">
        <ele>1107</ele>
        <time>2022-07-10T06:35:44.000Z</time>
      </trkpt>
      <trkpt lat="44.1674" lon="6.75204">
        <ele>1107.6</ele>
        <time>2022-07-10T06:35:49.000Z</time>
      </trkpt>
      <trkpt lat="44.16745" lon="6.75202">
        <ele>1108</ele>
        <time>2022-07-10T06:35:51.000Z</time>
      </trkpt>
      <trkpt lat="44.16759" lon="6.75195">
        <ele>1109</ele>
        <time>2022-07-10T06:35:57.000Z</time>
      </trkpt>
      <trkpt lat="44.16782" lon="6.7519">
        <ele>1110.2</ele>
        <time>2022-07-10T06:36:06.000Z</time>
      </trkpt>
      <trkpt lat="44.16814" lon="6.75177">
        <ele>1111.2</ele>
        <time>2022-07-10T06:36:19.000Z</time>
      </trkpt>
      <trkpt lat="44.16823" lon="6.75171">
        <ele>1111.4</ele>
        <time>2022-07-10T06:36:23.000Z</time>
      </trkpt>
      <trkpt lat="44.16834" lon="6.75165">
        <ele>1111.8</ele>
        <time>2022-07-10T06:36:28.000Z</time>
      </trkpt>
      <trkpt lat="44.1684" lon="6.75164">
        <ele>1112</ele>
        <time>2022-07-10T06:36:31.000Z</time>
      </trkpt>
      <trkpt lat="44.16845" lon="6.75163">
        <ele>1112.2</ele>
        <time>2022-07-10T06:36:33.000Z</time>
      </trkpt>
      <trkpt lat="44.1687" lon="6.75162">
        <ele>1113</ele>
        <time>2022-07-10T06:36:44.000Z</time>
      </trkpt>
      <trkpt lat="44.16874" lon="6.75162">
        <ele>1113.2</ele>
        <time>2022-07-10T06:36:46.000Z</time>
      </trkpt>
      <trkpt lat="44.16901" lon="6.75159">
        <ele>1114.2</ele>
        <time>2022-07-10T06:36:57.000Z</time>
      </trkpt>
      <trkpt lat="44.16927" lon="6.75156">
        <ele>1115.4</ele>
        <time>2022-07-10T06:37:07.000Z</time>
      </trkpt>
      <trkpt lat="44.16954" lon="6.75158">
        <ele>1116.6</ele>
        <time>2022-07-10T06:37:18.000Z</time>
      </trkpt>
      <trkpt lat="44.16976" lon="6.75161">
        <ele>1117.6</ele>
        <time>2022-07-10T06:37:26.000Z</time>
      </trkpt>
      <trkpt lat="44.16995" lon="6.7516">
        <ele>1118</ele>
        <time>2022-07-10T06:37:34.000Z</time>
      </trkpt>
      <trkpt lat="44.17005" lon="6.75156">
        <ele>1118.6</ele>
        <time>2022-07-10T06:37:38.000Z</time>
      </trkpt>
      <trkpt lat="44.17019" lon="6.75144">
        <ele>1119.8</ele>
        <time>2022-07-10T06:37:46.000Z</time>
      </trkpt>
      <trkpt lat="44.17028" lon="6.75141">
        <ele>1120.4</ele>
        <time>2022-07-10T06:37:51.000Z</time>
      </trkpt>
      <trkpt lat="44.17038" lon="6.75138">
        <ele>1121</ele>
        <time>2022-07-10T06:37:57.000Z</time>
      </trkpt>
      <trkpt lat="44.17054" lon="6.75132">
        <ele>1121.8</ele>
        <time>2022-07-10T06:38:06.000Z</time>
      </trkpt>
      <trkpt lat="44.17058" lon="6.7513">
        <ele>1122</ele>
        <time>2022-07-10T06:38:08.000Z</time>
      </trkpt>
      <trkpt lat="44.17071" lon="6.75122">
        <ele>1122.8</ele>
        <time>2022-07-10T06:38:16.000Z</time>
      </trkpt>
      <trkpt lat="44.17074" lon="6.75121">
        <ele>1123</ele>
        <time>2022-07-10T06:38:17.000Z</time>
      </trkpt>
      <trkpt lat="44.17083" lon="6.75114">
        <ele>1123.4</ele>
        <time>2022-07-10T06:38:22.000Z</time>
      </trkpt>
      <trkpt lat="44.17097" lon="6.75108">
        <ele>1124</ele>
        <time>2022-07-10T06:38:29.000Z</time>
      </trkpt>
      <trkpt lat="44.17113" lon="6.75109">
        <ele>1125</ele>
        <time>2022-07-10T06:38:38.000Z</time>
      </trkpt>
      <trkpt lat="44.17117" lon="6.75112">
        <ele>1125.4</ele>
        <time>2022-07-10T06:38:42.000Z</time>
      </trkpt>
      <trkpt lat="44.17118" lon="6.75113">
        <ele>1125.8</ele>
        <time>2022-07-10T06:38:45.000Z</time>
      </trkpt>
      <trkpt lat="44.17119" lon="6.75111">
        <ele>1125.8</ele>
        <time>2022-07-10T06:38:48.000Z</time>
      </trkpt>
      <trkpt lat="44.17117" lon="6.75109">
        <ele>1125.6</ele>
        <time>2022-07-10T06:38:52.000Z</time>
      </trkpt>
      <trkpt lat="44.17118" lon="6.75111">
        <ele>1125.4</ele>
        <time>2022-07-10T06:38:55.000Z</time>
      </trkpt>
      <trkpt lat="44.17118" lon="6.75113">
        <ele>1125.4</ele>
        <time>2022-07-10T06:39:11.000Z</time>
      </trkpt>
      <trkpt lat="44.17116" lon="6.75112">
        <ele>1125.4</ele>
        <time>2022-07-10T06:39:15.000Z</time>
      </trkpt>
      <trkpt lat="44.1712" lon="6.75112">
        <ele>1124.6</ele>
        <time>2022-07-10T06:39:51.000Z</time>
      </trkpt>
      <trkpt lat="44.17121" lon="6.75113">
        <ele>1124.4</ele>
        <time>2022-07-10T06:39:58.000Z</time>
      </trkpt>
      <trkpt lat="44.17118" lon="6.75115">
        <ele>1124.8</ele>
        <time>2022-07-10T06:40:03.000Z</time>
      </trkpt>
      <trkpt lat="44.17116" lon="6.75115">
        <ele>1124.8</ele>
        <time>2022-07-10T06:40:07.000Z</time>
      </trkpt>
      <trkpt lat="44.17117" lon="6.75115">
        <ele>1124.8</ele>
        <time>2022-07-10T06:40:11.000Z</time>
      </trkpt>
      <trkpt lat="44.17118" lon="6.75114">
        <ele>1124.6</ele>
        <time>2022-07-10T06:40:12.000Z</time>
      </trkpt>
      <trkpt lat="44.17119" lon="6.75113">
        <ele>1124.6</ele>
        <time>2022-07-10T06:40:13.000Z</time>
      </trkpt>
      <trkpt lat="44.17122" lon="6.7511">
        <ele>1124.6</ele>
        <time>2022-07-10T06:40:15.000Z</time>
      </trkpt>
      <trkpt lat="44.17126" lon="6.75108">
        <ele>1124.6</ele>
        <time>2022-07-10T06:40:17.000Z</time>
      </trkpt>
      <trkpt lat="44.17142" lon="6.75091">
        <ele>1125.2</ele>
        <time>2022-07-10T06:40:29.000Z</time>
      </trkpt>
      <trkpt lat="44.17156" lon="6.75073">
        <ele>1125.8</ele>
        <time>2022-07-10T06:40:41.000Z</time>
      </trkpt>
      <trkpt lat="44.1716" lon="6.75068">
        <ele>1126</ele>
        <time>2022-07-10T06:40:44.000Z</time>
      </trkpt>
      <trkpt lat="44.17168" lon="6.75048">
        <ele>1127.2</ele>
        <time>2022-07-10T06:40:54.000Z</time>
      </trkpt>
      <trkpt lat="44.17181" lon="6.75033">
        <ele>1128</ele>
        <time>2022-07-10T06:41:05.000Z</time>
      </trkpt>
      <trkpt lat="44.17186" lon="6.75028">
        <ele>1128.2</ele>
        <time>2022-07-10T06:41:09.000Z</time>
      </trkpt>
      <trkpt lat="44.17206" lon="6.75017">
        <ele>1129.2</ele>
        <time>2022-07-10T06:41:22.000Z</time>
      </trkpt>
      <trkpt lat="44.17214" lon="6.75012">
        <ele>1129.6</ele>
        <time>2022-07-10T06:41:28.000Z</time>
      </trkpt>
      <trkpt lat="44.17227" lon="6.75003">
        <ele>1130.2</ele>
        <time>2022-07-10T06:41:39.000Z</time>
      </trkpt>
      <trkpt lat="44.1724" lon="6.74997">
        <ele>1130.8</ele>
        <time>2022-07-10T06:41:48.000Z</time>
      </trkpt>
      <trkpt lat="44.17248" lon="6.74996">
        <ele>1131.2</ele>
        <time>2022-07-10T06:41:54.000Z</time>
      </trkpt>
      <trkpt lat="44.17262" lon="6.74997">
        <ele>1132</ele>
        <time>2022-07-10T06:42:02.000Z</time>
      </trkpt>
      <trkpt lat="44.1728" lon="6.74995">
        <ele>1132.4</ele>
        <time>2022-07-10T06:42:11.000Z</time>
      </trkpt>
      <trkpt lat="44.17291" lon="6.74996">
        <ele>1132.8</ele>
        <time>2022-07-10T06:42:17.000Z</time>
      </trkpt>
      <trkpt lat="44.17301" lon="6.74996">
        <ele>1133.2</ele>
        <time>2022-07-10T06:42:23.000Z</time>
      </trkpt>
      <trkpt lat="44.17305" lon="6.74998">
        <ele>1133.2</ele>
        <time>2022-07-10T06:42:26.000Z</time>
      </trkpt>
      <trkpt lat="44.17309" lon="6.74997">
        <ele>1133.4</ele>
        <time>2022-07-10T06:42:28.000Z</time>
      </trkpt>
      <trkpt lat="44.17317" lon="6.75003">
        <ele>1134</ele>
        <time>2022-07-10T06:42:34.000Z</time>
      </trkpt>
      <trkpt lat="44.17321" lon="6.75007">
        <ele>1134.6</ele>
        <time>2022-07-10T06:42:37.000Z</time>
      </trkpt>
      <trkpt lat="44.17323" lon="6.7501">
        <ele>1134.8</ele>
        <time>2022-07-10T06:42:39.000Z</time>
      </trkpt>
      <trkpt lat="44.17333" lon="6.75019">
        <ele>1135.6</ele>
        <time>2022-07-10T06:42:47.000Z</time>
      </trkpt>
      <trkpt lat="44.17339" lon="6.75025">
        <ele>1136</ele>
        <time>2022-07-10T06:42:52.000Z</time>
      </trkpt>
      <trkpt lat="44.17344" lon="6.7503">
        <ele>1136.6</ele>
        <time>2022-07-10T06:42:56.000Z</time>
      </trkpt>
      <trkpt lat="44.1735" lon="6.75033">
        <ele>1137.2</ele>
        <time>2022-07-10T06:43:01.000Z</time>
      </trkpt>
      <trkpt lat="44.17354" lon="6.75032">
        <ele>1137.6</ele>
        <time>2022-07-10T06:43:05.000Z</time>
      </trkpt>
      <trkpt lat="44.17355" lon="6.75032">
        <ele>1137.8</ele>
        <time>2022-07-10T06:43:06.000Z</time>
      </trkpt>
      <trkpt lat="44.17364" lon="6.75031">
        <ele>1138.8</ele>
        <time>2022-07-10T06:43:13.000Z</time>
      </trkpt>
      <trkpt lat="44.17375" lon="6.75026">
        <ele>1139.6</ele>
        <time>2022-07-10T06:43:21.000Z</time>
      </trkpt>
      <trkpt lat="44.17381" lon="6.75023">
        <ele>1139.8</ele>
        <time>2022-07-10T06:43:25.000Z</time>
      </trkpt>
      <trkpt lat="44.17404" lon="6.7502">
        <ele>1140.8</ele>
        <time>2022-07-10T06:43:38.000Z</time>
      </trkpt>
      <trkpt lat="44.17407" lon="6.7502">
        <ele>1140.8</ele>
        <time>2022-07-10T06:43:40.000Z</time>
      </trkpt>
      <trkpt lat="44.17414" lon="6.75017">
        <ele>1141.4</ele>
        <time>2022-07-10T06:43:45.000Z</time>
      </trkpt>
      <trkpt lat="44.17422" lon="6.75012">
        <ele>1141.8</ele>
        <time>2022-07-10T06:43:51.000Z</time>
      </trkpt>
      <trkpt lat="44.17429" lon="6.75005">
        <ele>1142.2</ele>
        <time>2022-07-10T06:43:58.000Z</time>
      </trkpt>
      <trkpt lat="44.17439" lon="6.7499">
        <ele>1142.4</ele>
        <time>2022-07-10T06:44:06.000Z</time>
      </trkpt>
      <trkpt lat="44.17442" lon="6.74985">
        <ele>1143</ele>
        <time>2022-07-10T06:44:09.000Z</time>
      </trkpt>
      <trkpt lat="44.17459" lon="6.74959">
        <ele>1144</ele>
        <time>2022-07-10T06:44:24.000Z</time>
      </trkpt>
      <trkpt lat="44.17478" lon="6.7495">
        <ele>1145.2</ele>
        <time>2022-07-10T06:44:36.000Z</time>
      </trkpt>
      <trkpt lat="44.17489" lon="6.74948">
        <ele>1146.2</ele>
        <time>2022-07-10T06:44:44.000Z</time>
      </trkpt>
      <trkpt lat="44.17503" lon="6.74952">
        <ele>1147</ele>
        <time>2022-07-10T06:44:53.000Z</time>
      </trkpt>
      <trkpt lat="44.17508" lon="6.74952">
        <ele>1147.2</ele>
        <time>2022-07-10T06:44:56.000Z</time>
      </trkpt>
      <trkpt lat="44.17526" lon="6.74951">
        <ele>1148.2</ele>
        <time>2022-07-10T06:45:05.000Z</time>
      </trkpt>
      <trkpt lat="44.17543" lon="6.74939">
        <ele>1149.2</ele>
        <time>2022-07-10T06:45:15.000Z</time>
      </trkpt>
      <trkpt lat="44.17559" lon="6.74933">
        <ele>1149.4</ele>
        <time>2022-07-10T06:45:23.000Z</time>
      </trkpt>
      <trkpt lat="44.17567" lon="6.7493">
        <ele>1149.2</ele>
        <time>2022-07-10T06:45:27.000Z</time>
      </trkpt>
      <trkpt lat="44.17571" lon="6.7493">
        <ele>1149.2</ele>
        <time>2022-07-10T06:45:29.000Z</time>
      </trkpt>
      <trkpt lat="44.17575" lon="6.7493">
        <ele>1149.4</ele>
        <time>2022-07-10T06:45:31.000Z</time>
      </trkpt>
      <trkpt lat="44.17592" lon="6.74924">
        <ele>1149.4</ele>
        <time>2022-07-10T06:45:40.000Z</time>
      </trkpt>
      <trkpt lat="44.17598" lon="6.74921">
        <ele>1149.6</ele>
        <time>2022-07-10T06:45:44.000Z</time>
      </trkpt>
      <trkpt lat="44.17619" lon="6.74902">
        <ele>1150.4</ele>
        <time>2022-07-10T06:45:58.000Z</time>
      </trkpt>
      <trkpt lat="44.1762" lon="6.74901">
        <ele>1150.4</ele>
        <time>2022-07-10T06:45:59.000Z</time>
      </trkpt>
      <trkpt lat="44.1763" lon="6.74891">
        <ele>1151.4</ele>
        <time>2022-07-10T06:46:07.000Z</time>
      </trkpt>
      <trkpt lat="44.17644" lon="6.74883">
        <ele>1152.4</ele>
        <time>2022-07-10T06:46:16.000Z</time>
      </trkpt>
      <trkpt lat="44.17666" lon="6.74866">
        <ele>1153.6</ele>
        <time>2022-07-10T06:46:29.000Z</time>
      </trkpt>
      <trkpt lat="44.17685" lon="6.74854">
        <ele>1154.6</ele>
        <time>2022-07-10T06:46:41.000Z</time>
      </trkpt>
      <trkpt lat="44.17698" lon="6.74852">
        <ele>1155.2</ele>
        <time>2022-07-10T06:46:50.000Z</time>
      </trkpt>
      <trkpt lat="44.17703" lon="6.74851">
        <ele>1155.6</ele>
        <time>2022-07-10T06:46:53.000Z</time>
      </trkpt>
      <trkpt lat="44.17712" lon="6.74849">
        <ele>1156.2</ele>
        <time>2022-07-10T06:46:58.000Z</time>
      </trkpt>
      <trkpt lat="44.17722" lon="6.74846">
        <ele>1156.6</ele>
        <time>2022-07-10T06:47:04.000Z</time>
      </trkpt>
      <trkpt lat="44.17728" lon="6.74844">
        <ele>1156.8</ele>
        <time>2022-07-10T06:47:07.000Z</time>
      </trkpt>
      <trkpt lat="44.17757" lon="6.74835">
        <ele>1157.8</ele>
        <time>2022-07-10T06:47:24.000Z</time>
      </trkpt>
      <trkpt lat="44.17784" lon="6.74848">
        <ele>1158</ele>
        <time>2022-07-10T06:47:41.000Z</time>
      </trkpt>
      <trkpt lat="44.17806" lon="6.74898">
        <ele>1158.8</ele>
        <time>2022-07-10T06:48:03.000Z</time>
      </trkpt>
      <trkpt lat="44.17812" lon="6.74901">
        <ele>1158.8</ele>
        <time>2022-07-10T06:48:06.000Z</time>
      </trkpt>
      <trkpt lat="44.17866" lon="6.74902">
        <ele>1159.8</ele>
        <time>2022-07-10T06:48:37.000Z</time>
      </trkpt>
      <trkpt lat="44.179" lon="6.74901">
        <ele>1160.8</ele>
        <time>2022-07-10T06:48:55.000Z</time>
      </trkpt>
      <trkpt lat="44.17934" lon="6.74897">
        <ele>1162</ele>
        <time>2022-07-10T06:49:12.000Z</time>
      </trkpt>
      <trkpt lat="44.17954" lon="6.74898">
        <ele>1162.2</ele>
        <time>2022-07-10T06:49:21.000Z</time>
      </trkpt>
      <trkpt lat="44.17972" lon="6.74903">
        <ele>1163</ele>
        <time>2022-07-10T06:49:30.000Z</time>
      </trkpt>
      <trkpt lat="44.17999" lon="6.74908">
        <ele>1164</ele>
        <time>2022-07-10T06:49:44.000Z</time>
      </trkpt>
      <trkpt lat="44.18023" lon="6.749">
        <ele>1165</ele>
        <time>2022-07-10T06:49:58.000Z</time>
      </trkpt>
      <trkpt lat="44.18059" lon="6.74888">
        <ele>1166.2</ele>
        <time>2022-07-10T06:50:14.000Z</time>
      </trkpt>
      <trkpt lat="44.18083" lon="6.74873">
        <ele>1167</ele>
        <time>2022-07-10T06:50:25.000Z</time>
      </trkpt>
      <trkpt lat="44.18087" lon="6.74871">
        <ele>1167.2</ele>
        <time>2022-07-10T06:50:27.000Z</time>
      </trkpt>
      <trkpt lat="44.18124" lon="6.74857">
        <ele>1168.2</ele>
        <time>2022-07-10T06:50:42.000Z</time>
      </trkpt>
      <trkpt lat="44.18137" lon="6.74843">
        <ele>1169.4</ele>
        <time>2022-07-10T06:50:50.000Z</time>
      </trkpt>
      <trkpt lat="44.18149" lon="6.74832">
        <ele>1169.8</ele>
        <time>2022-07-10T06:50:56.000Z</time>
      </trkpt>
      <trkpt lat="44.18184" lon="6.74819">
        <ele>1170.4</ele>
        <time>2022-07-10T06:51:10.000Z</time>
      </trkpt>
      <trkpt lat="44.18233" lon="6.7484">
        <ele>1171.2</ele>
        <time>2022-07-10T06:51:31.000Z</time>
      </trkpt>
      <trkpt lat="44.1824" lon="6.74849">
        <ele>1171.4</ele>
        <time>2022-07-10T06:51:36.000Z</time>
      </trkpt>
      <trkpt lat="44.18242" lon="6.74851">
        <ele>1171.6</ele>
        <time>2022-07-10T06:51:37.000Z</time>
      </trkpt>
      <trkpt lat="44.18261" lon="6.7487">
        <ele>1172.6</ele>
        <time>2022-07-10T06:51:50.000Z</time>
      </trkpt>
      <trkpt lat="44.18288" lon="6.74889">
        <ele>1173.6</ele>
        <time>2022-07-10T06:52:03.000Z</time>
      </trkpt>
      <trkpt lat="44.18318" lon="6.74906">
        <ele>1174.6</ele>
        <time>2022-07-10T06:52:19.000Z</time>
      </trkpt>
      <trkpt lat="44.18341" lon="6.74907">
        <ele>1175.2</ele>
        <time>2022-07-10T06:52:29.000Z</time>
      </trkpt>
      <trkpt lat="44.18351" lon="6.74909">
        <ele>1175.8</ele>
        <time>2022-07-10T06:52:34.000Z</time>
      </trkpt>
      <trkpt lat="44.18367" lon="6.74913">
        <ele>1176.8</ele>
        <time>2022-07-10T06:52:43.000Z</time>
      </trkpt>
      <trkpt lat="44.18401" lon="6.74913">
        <ele>1177.8</ele>
        <time>2022-07-10T06:53:02.000Z</time>
      </trkpt>
      <trkpt lat="44.18423" lon="6.7491">
        <ele>1179</ele>
        <time>2022-07-10T06:53:13.000Z</time>
      </trkpt>
      <trkpt lat="44.18439" lon="6.74903">
        <ele>1180.2</ele>
        <time>2022-07-10T06:53:22.000Z</time>
      </trkpt>
      <trkpt lat="44.18455" lon="6.74894">
        <ele>1181.2</ele>
        <time>2022-07-10T06:53:31.000Z</time>
      </trkpt>
      <trkpt lat="44.18473" lon="6.74886">
        <ele>1182.4</ele>
        <time>2022-07-10T06:53:41.000Z</time>
      </trkpt>
      <trkpt lat="44.18493" lon="6.74879">
        <ele>1183.4</ele>
        <time>2022-07-10T06:53:52.000Z</time>
      </trkpt>
      <trkpt lat="44.18514" lon="6.74872">
        <ele>1184.6</ele>
        <time>2022-07-10T06:54:04.000Z</time>
      </trkpt>
      <trkpt lat="44.1853" lon="6.74866">
        <ele>1185.6</ele>
        <time>2022-07-10T06:54:13.000Z</time>
      </trkpt>
      <trkpt lat="44.18554" lon="6.74854">
        <ele>1186.6</ele>
        <time>2022-07-10T06:54:27.000Z</time>
      </trkpt>
      <trkpt lat="44.18572" lon="6.74846">
        <ele>1187.6</ele>
        <time>2022-07-10T06:54:36.000Z</time>
      </trkpt>
      <trkpt lat="44.18601" lon="6.7483">
        <ele>1188.6</ele>
        <time>2022-07-10T06:54:51.000Z</time>
      </trkpt>
      <trkpt lat="44.18622" lon="6.74822">
        <ele>1189.6</ele>
        <time>2022-07-10T06:55:02.000Z</time>
      </trkpt>
      <trkpt lat="44.1864" lon="6.74811">
        <ele>1190.6</ele>
        <time>2022-07-10T06:55:12.000Z</time>
      </trkpt>
      <trkpt lat="44.18663" lon="6.74796">
        <ele>1191.8</ele>
        <time>2022-07-10T06:55:25.000Z</time>
      </trkpt>
      <trkpt lat="44.18692" lon="6.74783">
        <ele>1192.8</ele>
        <time>2022-07-10T06:55:39.000Z</time>
      </trkpt>
      <trkpt lat="44.18704" lon="6.74783">
        <ele>1193.2</ele>
        <time>2022-07-10T06:55:45.000Z</time>
      </trkpt>
      <trkpt lat="44.18713" lon="6.74785">
        <ele>1193.4</ele>
        <time>2022-07-10T06:55:49.000Z</time>
      </trkpt>
      <trkpt lat="44.18736" lon="6.74796">
        <ele>1193.8</ele>
        <time>2022-07-10T06:55:59.000Z</time>
      </trkpt>
      <trkpt lat="44.18769" lon="6.74823">
        <ele>1195</ele>
        <time>2022-07-10T06:56:15.000Z</time>
      </trkpt>
      <trkpt lat="44.18788" lon="6.74829">
        <ele>1196</ele>
        <time>2022-07-10T06:56:28.000Z</time>
      </trkpt>
      <trkpt lat="44.18788" lon="6.74827">
        <ele>1195.6</ele>
        <time>2022-07-10T06:56:45.000Z</time>
      </trkpt>
      <trkpt lat="44.18786" lon="6.74827">
        <ele>1195</ele>
        <time>2022-07-10T06:56:47.000Z</time>
      </trkpt>
      <trkpt lat="44.18784" lon="6.74827">
        <ele>1195</ele>
        <time>2022-07-10T06:56:49.000Z</time>
      </trkpt>
      <trkpt lat="44.18786" lon="6.74833">
        <ele>1195</ele>
        <time>2022-07-10T06:57:22.000Z</time>
      </trkpt>
      <trkpt lat="44.18784" lon="6.74833">
        <ele>1195</ele>
        <time>2022-07-10T06:57:25.000Z</time>
      </trkpt>
      <trkpt lat="44.18784" lon="6.74827">
        <ele>1195.2</ele>
        <time>2022-07-10T06:57:37.000Z</time>
      </trkpt>
      <trkpt lat="44.18784" lon="6.74827">
        <ele>1195.2</ele>
        <time>2022-07-10T06:57:41.000Z</time>
      </trkpt>
      <trkpt lat="44.18788" lon="6.74827">
        <ele>1194.8</ele>
        <time>2022-07-10T06:57:58.000Z</time>
      </trkpt>
      <trkpt lat="44.18789" lon="6.74829">
        <ele>1195.2</ele>
        <time>2022-07-10T06:58:08.000Z</time>
      </trkpt>
      <trkpt lat="44.18787" lon="6.74829">
        <ele>1195.4</ele>
        <time>2022-07-10T06:58:11.000Z</time>
      </trkpt>
      <trkpt lat="44.18786" lon="6.74829">
        <ele>1195.4</ele>
        <time>2022-07-10T06:58:14.000Z</time>
      </trkpt>
      <trkpt lat="44.18785" lon="6.74828">
        <ele>1195.4</ele>
        <time>2022-07-10T06:58:17.000Z</time>
      </trkpt>
      <trkpt lat="44.18784" lon="6.7483">
        <ele>1195.4</ele>
        <time>2022-07-10T06:58:24.000Z</time>
      </trkpt>
      <trkpt lat="44.18784" lon="6.7483">
        <ele>1195.4</ele>
        <time>2022-07-10T06:58:25.000Z</time>
      </trkpt>
      <trkpt lat="44.1879" lon="6.7483">
        <ele>1194.6</ele>
        <time>2022-07-10T06:58:49.000Z</time>
      </trkpt>
      <trkpt lat="44.18787" lon="6.74831">
        <ele>1194.6</ele>
        <time>2022-07-10T06:58:55.000Z</time>
      </trkpt>
      <trkpt lat="44.18788" lon="6.74832">
        <ele>1194.6</ele>
        <time>2022-07-10T06:59:06.000Z</time>
      </trkpt>
      <trkpt lat="44.1879" lon="6.74834">
        <ele>1194.6</ele>
        <time>2022-07-10T06:59:16.000Z</time>
      </trkpt>
      <trkpt lat="44.18785" lon="6.7483">
        <ele>1194.6</ele>
        <time>2022-07-10T06:59:29.000Z</time>
      </trkpt>
      <trkpt lat="44.18784" lon="6.74831">
        <ele>1194.6</ele>
        <time>2022-07-10T06:59:54.000Z</time>
      </trkpt>
      <trkpt lat="44.18787" lon="6.74826">
        <ele>1194.6</ele>
        <time>2022-07-10T07:00:15.000Z</time>
      </trkpt>
      <trkpt lat="44.18787" lon="6.74827">
        <ele>1194.6</ele>
        <time>2022-07-10T07:00:22.000Z</time>
      </trkpt>
      <trkpt lat="44.18788" lon="6.74828">
        <ele>1194.6</ele>
        <time>2022-07-10T07:00:25.000Z</time>
      </trkpt>
      <trkpt lat="44.18789" lon="6.74829">
        <ele>1194.6</ele>
        <time>2022-07-10T07:00:28.000Z</time>
      </trkpt>
      <trkpt lat="44.18787" lon="6.74831">
        <ele>1194.6</ele>
        <time>2022-07-10T07:00:31.000Z</time>
      </trkpt>
      <trkpt lat="44.18787" lon="6.74831">
        <ele>1194.6</ele>
        <time>2022-07-10T07:00:33.000Z</time>
      </trkpt>
      <trkpt lat="44.18786" lon="6.74832">
        <ele>1194.6</ele>
        <time>2022-07-10T07:00:35.000Z</time>
      </trkpt>
      <trkpt lat="44.18786" lon="6.74832">
        <ele>1194.6</ele>
        <time>2022-07-10T07:00:37.000Z</time>
      </trkpt>
      <trkpt lat="44.18785" lon="6.74831">
        <ele>1194.6</ele>
        <time>2022-07-10T07:00:41.000Z</time>
      </trkpt>
      <trkpt lat="44.18785" lon="6.74833">
        <ele>1194.6</ele>
        <time>2022-07-10T07:00:48.000Z</time>
      </trkpt>
      <trkpt lat="44.18785" lon="6.74836">
        <ele>1194.6</ele>
        <time>2022-07-10T07:00:54.000Z</time>
      </trkpt>
      <trkpt lat="44.18784" lon="6.74836">
        <ele>1194.6</ele>
        <time>2022-07-10T07:00:57.000Z</time>
      </trkpt>
      <trkpt lat="44.18784" lon="6.74836">
        <ele>1194.6</ele>
        <time>2022-07-10T07:01:01.000Z</time>
      </trkpt>
      <trkpt lat="44.18781" lon="6.74837">
        <ele>1194.6</ele>
        <time>2022-07-10T07:01:09.000Z</time>
      </trkpt>
      <trkpt lat="44.18781" lon="6.74835">
        <ele>1194.6</ele>
        <time>2022-07-10T07:01:20.000Z</time>
      </trkpt>
      <trkpt lat="44.18784" lon="6.74832">
        <ele>1194.6</ele>
        <time>2022-07-10T07:01:26.000Z</time>
      </trkpt>
      <trkpt lat="44.18788" lon="6.74826">
        <ele>1194.6</ele>
        <time>2022-07-10T07:01:33.000Z</time>
      </trkpt>
      <trkpt lat="44.18788" lon="6.74823">
        <ele>1194.6</ele>
        <time>2022-07-10T07:01:38.000Z</time>
      </trkpt>
      <trkpt lat="44.18789" lon="6.74822">
        <ele>1194.6</ele>
        <time>2022-07-10T07:01:41.000Z</time>
      </trkpt>
      <trkpt lat="44.1879" lon="6.74823">
        <ele>1194.6</ele>
        <time>2022-07-10T07:01:45.000Z</time>
      </trkpt>
      <trkpt lat="44.18791" lon="6.74825">
        <ele>1194.6</ele>
        <time>2022-07-10T07:01:49.000Z</time>
      </trkpt>
      <trkpt lat="44.18788" lon="6.7483">
        <ele>1194.6</ele>
        <time>2022-07-10T07:01:59.000Z</time>
      </trkpt>
      <trkpt lat="44.18788" lon="6.7483">
        <ele>1194.6</ele>
        <time>2022-07-10T07:02:02.000Z</time>
      </trkpt>
      <trkpt lat="44.18787" lon="6.7483">
        <ele>1194.6</ele>
        <time>2022-07-10T07:02:04.000Z</time>
      </trkpt>
      <trkpt lat="44.18787" lon="6.7483">
        <ele>1194.6</ele>
        <time>2022-07-10T07:02:07.000Z</time>
      </trkpt>
      <trkpt lat="44.18787" lon="6.7483">
        <ele>1194.6</ele>
        <time>2022-07-10T07:02:09.000Z</time>
      </trkpt>
      <trkpt lat="44.18787" lon="6.7483">
        <ele>1194.6</ele>
        <time>2022-07-10T07:02:12.000Z</time>
      </trkpt>
      <trkpt lat="44.18788" lon="6.74831">
        <ele>1194.6</ele>
        <time>2022-07-10T07:02:15.000Z</time>
      </trkpt>
      <trkpt lat="44.18787" lon="6.7483">
        <ele>1194.6</ele>
        <time>2022-07-10T07:02:19.000Z</time>
      </trkpt>
      <trkpt lat="44.18787" lon="6.74829">
        <ele>1194.6</ele>
        <time>2022-07-10T07:02:26.000Z</time>
      </trkpt>
      <trkpt lat="44.18792" lon="6.74832">
        <ele>1194.6</ele>
        <time>2022-07-10T07:02:55.000Z</time>
      </trkpt>
      <trkpt lat="44.18788" lon="6.74828">
        <ele>1194.6</ele>
        <time>2022-07-10T07:03:03.000Z</time>
      </trkpt>
      <trkpt lat="44.18792" lon="6.74844">
        <ele>1194.6</ele>
        <time>2022-07-10T07:03:47.000Z</time>
      </trkpt>
      <trkpt lat="44.18792" lon="6.74846">
        <ele>1194.6</ele>
        <time>2022-07-10T07:03:53.000Z</time>
      </trkpt>
      <trkpt lat="44.18792" lon="6.74843">
        <ele>1194.6</ele>
        <time>2022-07-10T07:04:01.000Z</time>
      </trkpt>
      <trkpt lat="44.1879" lon="6.74833">
        <ele>1194.6</ele>
        <time>2022-07-10T07:04:10.000Z</time>
      </trkpt>
      <trkpt lat="44.1879" lon="6.74832">
        <ele>1194.6</ele>
        <time>2022-07-10T07:04:14.000Z</time>
      </trkpt>
      <trkpt lat="44.18789" lon="6.74826">
        <ele>1194.6</ele>
        <time>2022-07-10T07:04:36.000Z</time>
      </trkpt>
      <trkpt lat="44.18786" lon="6.74827">
        <ele>1194.6</ele>
        <time>2022-07-10T07:04:42.000Z</time>
      </trkpt>
      <trkpt lat="44.18786" lon="6.74827">
        <ele>1194.6</ele>
        <time>2022-07-10T07:04:44.000Z</time>
      </trkpt>
      <trkpt lat="44.18785" lon="6.74827">
        <ele>1194.6</ele>
        <time>2022-07-10T07:04:48.000Z</time>
      </trkpt>
      <trkpt lat="44.18786" lon="6.74826">
        <ele>1194.6</ele>
        <time>2022-07-10T07:04:52.000Z</time>
      </trkpt>
      <trkpt lat="44.18786" lon="6.74827">
        <ele>1194.6</ele>
        <time>2022-07-10T07:04:56.000Z</time>
      </trkpt>
      <trkpt lat="44.18786" lon="6.74827">
        <ele>1194.6</ele>
        <time>2022-07-10T07:05:06.000Z</time>
      </trkpt>
      <trkpt lat="44.18788" lon="6.74829">
        <ele>1194.6</ele>
        <time>2022-07-10T07:05:14.000Z</time>
      </trkpt>
      <trkpt lat="44.18787" lon="6.74829">
        <ele>1194.6</ele>
        <time>2022-07-10T07:05:17.000Z</time>
      </trkpt>
      <trkpt lat="44.18786" lon="6.74827">
        <ele>1194.6</ele>
        <time>2022-07-10T07:05:26.000Z</time>
      </trkpt>
      <trkpt lat="44.18786" lon="6.74826">
        <ele>1194.6</ele>
        <time>2022-07-10T07:05:30.000Z</time>
      </trkpt>
      <trkpt lat="44.18786" lon="6.74824">
        <ele>1194.6</ele>
        <time>2022-07-10T07:05:34.000Z</time>
      </trkpt>
      <trkpt lat="44.18786" lon="6.74824">
        <ele>1194.6</ele>
        <time>2022-07-10T07:05:36.000Z</time>
      </trkpt>
      <trkpt lat="44.18787" lon="6.74825">
        <ele>1194.6</ele>
        <time>2022-07-10T07:05:38.000Z</time>
      </trkpt>
      <trkpt lat="44.18787" lon="6.74824">
        <ele>1194.6</ele>
        <time>2022-07-10T07:05:41.000Z</time>
      </trkpt>
      <trkpt lat="44.18788" lon="6.74824">
        <ele>1194.6</ele>
        <time>2022-07-10T07:05:43.000Z</time>
      </trkpt>
      <trkpt lat="44.18788" lon="6.74825">
        <ele>1194.6</ele>
        <time>2022-07-10T07:05:46.000Z</time>
      </trkpt>
      <trkpt lat="44.18788" lon="6.74826">
        <ele>1194.6</ele>
        <time>2022-07-10T07:06:04.000Z</time>
      </trkpt>
      <trkpt lat="44.18788" lon="6.74825">
        <ele>1194.6</ele>
        <time>2022-07-10T07:06:05.000Z</time>
      </trkpt>
      <trkpt lat="44.18787" lon="6.74826">
        <ele>1194.6</ele>
        <time>2022-07-10T07:06:08.000Z</time>
      </trkpt>
      <trkpt lat="44.18787" lon="6.74829">
        <ele>1194.6</ele>
        <time>2022-07-10T07:06:14.000Z</time>
      </trkpt>
      <trkpt lat="44.18787" lon="6.74829">
        <ele>1194.6</ele>
        <time>2022-07-10T07:06:16.000Z</time>
      </trkpt>
      <trkpt lat="44.18787" lon="6.74829">
        <ele>1194.6</ele>
        <time>2022-07-10T07:06:20.000Z</time>
      </trkpt>
      <trkpt lat="44.18785" lon="6.74828">
        <ele>1194.6</ele>
        <time>2022-07-10T07:06:26.000Z</time>
      </trkpt>
      <trkpt lat="44.18785" lon="6.74829">
        <ele>1194.6</ele>
        <time>2022-07-10T07:06:33.000Z</time>
      </trkpt>
      <trkpt lat="44.18785" lon="6.7483">
        <ele>1194.6</ele>
        <time>2022-07-10T07:06:36.000Z</time>
      </trkpt>
      <trkpt lat="44.18785" lon="6.74829">
        <ele>1194.6</ele>
        <time>2022-07-10T07:06:39.000Z</time>
      </trkpt>
      <trkpt lat="44.18786" lon="6.74829">
        <ele>1194.6</ele>
        <time>2022-07-10T07:06:42.000Z</time>
      </trkpt>
      <trkpt lat="44.18789" lon="6.74828">
        <ele>1194.6</ele>
        <time>2022-07-10T07:06:46.000Z</time>
      </trkpt>
      <trkpt lat="44.18794" lon="6.74825">
        <ele>1194.6</ele>
        <time>2022-07-10T07:06:52.000Z</time>
      </trkpt>
      <trkpt lat="44.18791" lon="6.74824">
        <ele>1194.6</ele>
        <time>2022-07-10T07:06:56.000Z</time>
      </trkpt>
      <trkpt lat="44.18788" lon="6.74826">
        <ele>1194.6</ele>
        <time>2022-07-10T07:07:06.000Z</time>
      </trkpt>
      <trkpt lat="44.18787" lon="6.74827">
        <ele>1194.6</ele>
        <time>2022-07-10T07:07:10.000Z</time>
      </trkpt>
      <trkpt lat="44.18787" lon="6.74827">
        <ele>1194.6</ele>
        <time>2022-07-10T07:07:15.000Z</time>
      </trkpt>
      <trkpt lat="44.18787" lon="6.74827">
        <ele>1194.6</ele>
        <time>2022-07-10T07:07:18.000Z</time>
      </trkpt>
      <trkpt lat="44.18787" lon="6.74826">
        <ele>1194.6</ele>
        <time>2022-07-10T07:07:20.000Z</time>
      </trkpt>
      <trkpt lat="44.18788" lon="6.74826">
        <ele>1194.6</ele>
        <time>2022-07-10T07:07:26.000Z</time>
      </trkpt>
      <trkpt lat="44.18788" lon="6.7483">
        <ele>1194.6</ele>
        <time>2022-07-10T07:07:32.000Z</time>
      </trkpt>
      <trkpt lat="44.18787" lon="6.74832">
        <ele>1194.6</ele>
        <time>2022-07-10T07:07:34.000Z</time>
      </trkpt>
      <trkpt lat="44.18787" lon="6.74832">
        <ele>1194.6</ele>
        <time>2022-07-10T07:07:36.000Z</time>
      </trkpt>
      <trkpt lat="44.18784" lon="6.74835">
        <ele>1194.6</ele>
        <time>2022-07-10T07:07:43.000Z</time>
      </trkpt>
      <trkpt lat="44.18784" lon="6.74832">
        <ele>1194.6</ele>
        <time>2022-07-10T07:07:55.000Z</time>
      </trkpt>
      <trkpt lat="44.18785" lon="6.74831">
        <ele>1194.6</ele>
        <time>2022-07-10T07:07:58.000Z</time>
      </trkpt>
      <trkpt lat="44.18782" lon="6.74832">
        <ele>1194.6</ele>
        <time>2022-07-10T07:08:07.000Z</time>
      </trkpt>
      <trkpt lat="44.18781" lon="6.74829">
        <ele>1194.6</ele>
        <time>2022-07-10T07:08:11.000Z</time>
      </trkpt>
      <trkpt lat="44.18789" lon="6.74823">
        <ele>1194.6</ele>
        <time>2022-07-10T07:08:25.000Z</time>
      </trkpt>
      <trkpt lat="44.1879" lon="6.74822">
        <ele>1194.6</ele>
        <time>2022-07-10T07:08:31.000Z</time>
      </trkpt>
      <trkpt lat="44.18789" lon="6.7483">
        <ele>1194.6</ele>
        <time>2022-07-10T07:08:51.000Z</time>
      </trkpt>
      <trkpt lat="44.18793" lon="6.74831">
        <ele>1194.6</ele>
        <time>2022-07-10T07:09:09.000Z</time>
      </trkpt>
      <trkpt lat="44.1879" lon="6.74828">
        <ele>1194.6</ele>
        <time>2022-07-10T07:09:17.000Z</time>
      </trkpt>
      <trkpt lat="44.18788" lon="6.74827">
        <ele>1194.6</ele>
        <time>2022-07-10T07:09:34.000Z</time>
      </trkpt>
      <trkpt lat="44.18785" lon="6.7483">
        <ele>1194.6</ele>
        <time>2022-07-10T07:09:54.000Z</time>
      </trkpt>
      <trkpt lat="44.1878" lon="6.74826">
        <ele>1194.6</ele>
        <time>2022-07-10T07:10:16.000Z</time>
      </trkpt>
      <trkpt lat="44.18781" lon="6.74825">
        <ele>1194.6</ele>
        <time>2022-07-10T07:10:22.000Z</time>
      </trkpt>
      <trkpt lat="44.18782" lon="6.74824">
        <ele>1194.6</ele>
        <time>2022-07-10T07:10:29.000Z</time>
      </trkpt>
      <trkpt lat="44.18781" lon="6.74822">
        <ele>1194.6</ele>
        <time>2022-07-10T07:10:44.000Z</time>
      </trkpt>
      <trkpt lat="44.18782" lon="6.74821">
        <ele>1194.6</ele>
        <time>2022-07-10T07:11:02.000Z</time>
      </trkpt>
      <trkpt lat="44.18775" lon="6.74821">
        <ele>1194.6</ele>
        <time>2022-07-10T07:11:13.000Z</time>
      </trkpt>
      <trkpt lat="44.18779" lon="6.74823">
        <ele>1194.6</ele>
        <time>2022-07-10T07:11:24.000Z</time>
      </trkpt>
      <trkpt lat="44.18779" lon="6.74823">
        <ele>1194.6</ele>
        <time>2022-07-10T07:11:28.000Z</time>
      </trkpt>
      <trkpt lat="44.18779" lon="6.74823">
        <ele>1194.6</ele>
        <time>2022-07-10T07:11:31.000Z</time>
      </trkpt>
      <trkpt lat="44.18778" lon="6.74827">
        <ele>1194.6</ele>
        <time>2022-07-10T07:11:38.000Z</time>
      </trkpt>
      <trkpt lat="44.18782" lon="6.74827">
        <ele>1194.6</ele>
        <time>2022-07-10T07:11:42.000Z</time>
      </trkpt>
      <trkpt lat="44.18788" lon="6.74825">
        <ele>1194.6</ele>
        <time>2022-07-10T07:12:08.000Z</time>
      </trkpt>
      <trkpt lat="44.18779" lon="6.74821">
        <ele>1194.6</ele>
        <time>2022-07-10T07:12:30.000Z</time>
      </trkpt>
      <trkpt lat="44.18779" lon="6.74823">
        <ele>1194.6</ele>
        <time>2022-07-10T07:12:36.000Z</time>
      </trkpt>
      <trkpt lat="44.1878" lon="6.74825">
        <ele>1194.6</ele>
        <time>2022-07-10T07:12:45.000Z</time>
      </trkpt>
      <trkpt lat="44.18784" lon="6.74827">
        <ele>1194.6</ele>
        <time>2022-07-10T07:13:11.000Z</time>
      </trkpt>
      <trkpt lat="44.18784" lon="6.74828">
        <ele>1194.6</ele>
        <time>2022-07-10T07:13:18.000Z</time>
      </trkpt>
      <trkpt lat="44.18787" lon="6.74828">
        <ele>1194.6</ele>
        <time>2022-07-10T07:13:38.000Z</time>
      </trkpt>
      <trkpt lat="44.18785" lon="6.7483">
        <ele>1194.6</ele>
        <time>2022-07-10T07:13:43.000Z</time>
      </trkpt>
      <trkpt lat="44.18787" lon="6.7483">
        <ele>1194.6</ele>
        <time>2022-07-10T07:13:47.000Z</time>
      </trkpt>
      <trkpt lat="44.18786" lon="6.74833">
        <ele>1194.6</ele>
        <time>2022-07-10T07:14:00.000Z</time>
      </trkpt>
      <trkpt lat="44.1879" lon="6.7483">
        <ele>1194.6</ele>
        <time>2022-07-10T07:14:10.000Z</time>
      </trkpt>
      <trkpt lat="44.18783" lon="6.74839">
        <ele>1194.6</ele>
        <time>2022-07-10T07:14:17.000Z</time>
      </trkpt>
      <trkpt lat="44.1879" lon="6.74834">
        <ele>1194.6</ele>
        <time>2022-07-10T07:14:36.000Z</time>
      </trkpt>
      <trkpt lat="44.1879" lon="6.74831">
        <ele>1194.6</ele>
        <time>2022-07-10T07:14:39.000Z</time>
      </trkpt>
      <trkpt lat="44.18789" lon="6.74827">
        <ele>1194.6</ele>
        <time>2022-07-10T07:14:49.000Z</time>
      </trkpt>
      <trkpt lat="44.18787" lon="6.74828">
        <ele>1194.6</ele>
        <time>2022-07-10T07:14:52.000Z</time>
      </trkpt>
      <trkpt lat="44.18784" lon="6.74828">
        <ele>1194.6</ele>
        <time>2022-07-10T07:14:55.000Z</time>
      </trkpt>
      <trkpt lat="44.18785" lon="6.74829">
        <ele>1194.6</ele>
        <time>2022-07-10T07:15:02.000Z</time>
      </trkpt>
      <trkpt lat="44.18786" lon="6.74831">
        <ele>1194.6</ele>
        <time>2022-07-10T07:15:07.000Z</time>
      </trkpt>
      <trkpt lat="44.18788" lon="6.7483">
        <ele>1194.6</ele>
        <time>2022-07-10T07:15:19.000Z</time>
      </trkpt>
      <trkpt lat="44.18789" lon="6.74829">
        <ele>1194.6</ele>
        <time>2022-07-10T07:15:24.000Z</time>
      </trkpt>
      <trkpt lat="44.18789" lon="6.74829">
        <ele>1194.6</ele>
        <time>2022-07-10T07:15:27.000Z</time>
      </trkpt>
      <trkpt lat="44.18786" lon="6.74831">
        <ele>1194.6</ele>
        <time>2022-07-10T07:15:33.000Z</time>
      </trkpt>
      <trkpt lat="44.18787" lon="6.74831">
        <ele>1194.6</ele>
        <time>2022-07-10T07:15:42.000Z</time>
      </trkpt>
      <trkpt lat="44.18792" lon="6.7483">
        <ele>1194.6</ele>
        <time>2022-07-10T07:15:52.000Z</time>
      </trkpt>
      <trkpt lat="44.18789" lon="6.74833">
        <ele>1194.6</ele>
        <time>2022-07-10T07:16:07.000Z</time>
      </trkpt>
      <trkpt lat="44.18792" lon="6.74836">
        <ele>1194.6</ele>
        <time>2022-07-10T07:16:14.000Z</time>
      </trkpt>
      <trkpt lat="44.18792" lon="6.74834">
        <ele>1194.6</ele>
        <time>2022-07-10T07:16:20.000Z</time>
      </trkpt>
      <trkpt lat="44.18793" lon="6.74822">
        <ele>1194.6</ele>
        <time>2022-07-10T07:16:27.000Z</time>
      </trkpt>
      <trkpt lat="44.18795" lon="6.74822">
        <ele>1194.6</ele>
        <time>2022-07-10T07:16:32.000Z</time>
      </trkpt>
      <trkpt lat="44.18793" lon="6.74833">
        <ele>1194.6</ele>
        <time>2022-07-10T07:16:40.000Z</time>
      </trkpt>
      <trkpt lat="44.18791" lon="6.7483">
        <ele>1194.6</ele>
        <time>2022-07-10T07:16:53.000Z</time>
      </trkpt>
      <trkpt lat="44.18789" lon="6.74829">
        <ele>1194.6</ele>
        <time>2022-07-10T07:17:00.000Z</time>
      </trkpt>
      <trkpt lat="44.1879" lon="6.74827">
        <ele>1195.2</ele>
        <time>2022-07-10T07:17:18.000Z</time>
      </trkpt>
      <trkpt lat="44.18792" lon="6.74828">
        <ele>1195.2</ele>
        <time>2022-07-10T07:17:23.000Z</time>
      </trkpt>
      <trkpt lat="44.18792" lon="6.74829">
        <ele>1195.2</ele>
        <time>2022-07-10T07:17:42.000Z</time>
      </trkpt>
      <trkpt lat="44.1879" lon="6.74827">
        <ele>1195.2</ele>
        <time>2022-07-10T07:17:52.000Z</time>
      </trkpt>
      <trkpt lat="44.1879" lon="6.7483">
        <ele>1194.8</ele>
        <time>2022-07-10T07:18:10.000Z</time>
      </trkpt>
      <trkpt lat="44.18789" lon="6.7483">
        <ele>1194.8</ele>
        <time>2022-07-10T07:18:21.000Z</time>
      </trkpt>
      <trkpt lat="44.18791" lon="6.74828">
        <ele>1194.8</ele>
        <time>2022-07-10T07:18:40.000Z</time>
      </trkpt>
      <trkpt lat="44.18788" lon="6.74829">
        <ele>1194.2</ele>
        <time>2022-07-10T07:19:24.000Z</time>
      </trkpt>
      <trkpt lat="44.18789" lon="6.7483">
        <ele>1194.2</ele>
        <time>2022-07-10T07:19:33.000Z</time>
      </trkpt>
      <trkpt lat="44.18789" lon="6.74829">
        <ele>1194.2</ele>
        <time>2022-07-10T07:19:47.000Z</time>
      </trkpt>
      <trkpt lat="44.1879" lon="6.74833">
        <ele>1194.2</ele>
        <time>2022-07-10T07:19:55.000Z</time>
      </trkpt>
      <trkpt lat="44.18787" lon="6.74832">
        <ele>1194.2</ele>
        <time>2022-07-10T07:20:01.000Z</time>
      </trkpt>
      <trkpt lat="44.18783" lon="6.74824">
        <ele>1194.2</ele>
        <time>2022-07-10T07:20:16.000Z</time>
      </trkpt>
      <trkpt lat="44.18784" lon="6.74822">
        <ele>1194.2</ele>
        <time>2022-07-10T07:20:39.000Z</time>
      </trkpt>
      <trkpt lat="44.18784" lon="6.74826">
        <ele>1194.2</ele>
        <time>2022-07-10T07:21:12.000Z</time>
      </trkpt>
      <trkpt lat="44.18782" lon="6.74826">
        <ele>1194.2</ele>
        <time>2022-07-10T07:21:32.000Z</time>
      </trkpt>
      <trkpt lat="44.18785" lon="6.74826">
        <ele>1194.2</ele>
        <time>2022-07-10T07:21:43.000Z</time>
      </trkpt>
      <trkpt lat="44.18785" lon="6.74827">
        <ele>1194.2</ele>
        <time>2022-07-10T07:21:46.000Z</time>
      </trkpt>
      <trkpt lat="44.18785" lon="6.74825">
        <ele>1194.2</ele>
        <time>2022-07-10T07:21:49.000Z</time>
      </trkpt>
      <trkpt lat="44.18785" lon="6.74825">
        <ele>1194.2</ele>
        <time>2022-07-10T07:21:52.000Z</time>
      </trkpt>
      <trkpt lat="44.18787" lon="6.74822">
        <ele>1194.2</ele>
        <time>2022-07-10T07:21:55.000Z</time>
      </trkpt>
      <trkpt lat="44.18787" lon="6.74821">
        <ele>1194.2</ele>
        <time>2022-07-10T07:21:59.000Z</time>
      </trkpt>
      <trkpt lat="44.1879" lon="6.74818">
        <ele>1194.2</ele>
        <time>2022-07-10T07:22:18.000Z</time>
      </trkpt>
      <trkpt lat="44.18789" lon="6.74812">
        <ele>1194.2</ele>
        <time>2022-07-10T07:22:27.000Z</time>
      </trkpt>
      <trkpt lat="44.18793" lon="6.7481">
        <ele>1194.2</ele>
        <time>2022-07-10T07:22:34.000Z</time>
      </trkpt>
      <trkpt lat="44.18796" lon="6.74809">
        <ele>1194.2</ele>
        <time>2022-07-10T07:22:37.000Z</time>
      </trkpt>
      <trkpt lat="44.18797" lon="6.7481">
        <ele>1194.2</ele>
        <time>2022-07-10T07:22:41.000Z</time>
      </trkpt>
      <trkpt lat="44.188" lon="6.74809">
        <ele>1194.2</ele>
        <time>2022-07-10T07:22:45.000Z</time>
      </trkpt>
      <trkpt lat="44.18808" lon="6.74797">
        <ele>1194.2</ele>
        <time>2022-07-10T07:22:51.000Z</time>
      </trkpt>
      <trkpt lat="44.18811" lon="6.74792">
        <ele>1194.2</ele>
        <time>2022-07-10T07:22:53.000Z</time>
      </trkpt>
      <trkpt lat="44.18814" lon="6.74789">
        <ele>1193.8</ele>
        <time>2022-07-10T07:22:54.000Z</time>
      </trkpt>
      <trkpt lat="44.18811" lon="6.7481">
        <ele>1192.8</ele>
        <time>2022-07-10T07:23:08.000Z</time>
      </trkpt>
      <trkpt lat="44.18815" lon="6.74806">
        <ele>1192.8</ele>
        <time>2022-07-10T07:23:09.000Z</time>
      </trkpt>
      <trkpt lat="44.18803" lon="6.74819">
        <ele>1193</ele>
        <time>2022-07-10T07:23:17.000Z</time>
      </trkpt>
      <trkpt lat="44.188" lon="6.74816">
        <ele>1192.8</ele>
        <time>2022-07-10T07:23:20.000Z</time>
      </trkpt>
      <trkpt lat="44.18797" lon="6.74817">
        <ele>1192.8</ele>
        <time>2022-07-10T07:23:23.000Z</time>
      </trkpt>
      <trkpt lat="44.18797" lon="6.74817">
        <ele>1193</ele>
        <time>2022-07-10T07:23:31.000Z</time>
      </trkpt>
      <trkpt lat="44.18796" lon="6.74818">
        <ele>1193.2</ele>
        <time>2022-07-10T07:23:34.000Z</time>
      </trkpt>
      <trkpt lat="44.18792" lon="6.74824">
        <ele>1193.2</ele>
        <time>2022-07-10T07:23:45.000Z</time>
      </trkpt>
      <trkpt lat="44.18789" lon="6.74826">
        <ele>1194.6</ele>
        <time>2022-07-10T07:23:48.000Z</time>
      </trkpt>
      <trkpt lat="44.18787" lon="6.74831">
        <ele>1195.8</ele>
        <time>2022-07-10T07:24:00.000Z</time>
      </trkpt>
      <trkpt lat="44.18787" lon="6.74832">
        <ele>1195.6</ele>
        <time>2022-07-10T07:24:03.000Z</time>
      </trkpt>
      <trkpt lat="44.18798" lon="6.7482">
        <ele>1195.8</ele>
        <time>2022-07-10T07:24:05.000Z</time>
      </trkpt>
      <trkpt lat="44.18806" lon="6.74811">
        <ele>1195.2</ele>
        <time>2022-07-10T07:24:27.000Z</time>
      </trkpt>
      <trkpt lat="44.18806" lon="6.74812">
        <ele>1195.2</ele>
        <time>2022-07-10T07:24:30.000Z</time>
      </trkpt>
      <trkpt lat="44.18798" lon="6.74817">
        <ele>1195.2</ele>
        <time>2022-07-10T07:24:34.000Z</time>
      </trkpt>
      <trkpt lat="44.18795" lon="6.74822">
        <ele>1195.2</ele>
        <time>2022-07-10T07:24:36.000Z</time>
      </trkpt>
      <trkpt lat="44.18793" lon="6.74825">
        <ele>1195.2</ele>
        <time>2022-07-10T07:24:38.000Z</time>
      </trkpt>
      <trkpt lat="44.18792" lon="6.74829">
        <ele>1195.4</ele>
        <time>2022-07-10T07:24:44.000Z</time>
      </trkpt>
      <trkpt lat="44.18791" lon="6.7483">
        <ele>1195.4</ele>
        <time>2022-07-10T07:24:47.000Z</time>
      </trkpt>
      <trkpt lat="44.18788" lon="6.74832">
        <ele>1195.2</ele>
        <time>2022-07-10T07:24:59.000Z</time>
      </trkpt>
      <trkpt lat="44.18788" lon="6.74829">
        <ele>1195.2</ele>
        <time>2022-07-10T07:25:07.000Z</time>
      </trkpt>
      <trkpt lat="44.18788" lon="6.74828">
        <ele>1194.6</ele>
        <time>2022-07-10T07:25:09.000Z</time>
      </trkpt>
      <trkpt lat="44.18788" lon="6.74828">
        <ele>1194.6</ele>
        <time>2022-07-10T07:25:16.000Z</time>
      </trkpt>
      <trkpt lat="44.18788" lon="6.74829">
        <ele>1195.2</ele>
        <time>2022-07-10T07:25:18.000Z</time>
      </trkpt>
      <trkpt lat="44.18788" lon="6.7483">
        <ele>1195.2</ele>
        <time>2022-07-10T07:25:21.000Z</time>
      </trkpt>
      <trkpt lat="44.18784" lon="6.74832">
        <ele>1195</ele>
        <time>2022-07-10T07:25:30.000Z</time>
      </trkpt>
      <trkpt lat="44.18786" lon="6.74833">
        <ele>1195.2</ele>
        <time>2022-07-10T07:25:36.000Z</time>
      </trkpt>
      <trkpt lat="44.18787" lon="6.74835">
        <ele>1195.2</ele>
        <time>2022-07-10T07:25:44.000Z</time>
      </trkpt>
      <trkpt lat="44.18787" lon="6.74832">
        <ele>1195.2</ele>
        <time>2022-07-10T07:25:59.000Z</time>
      </trkpt>
      <trkpt lat="44.18789" lon="6.74833">
        <ele>1195.2</ele>
        <time>2022-07-10T07:26:11.000Z</time>
      </trkpt>
      <trkpt lat="44.1879" lon="6.74832">
        <ele>1195.2</ele>
        <time>2022-07-10T07:26:17.000Z</time>
      </trkpt>
      <trkpt lat="44.18791" lon="6.7483">
        <ele>1195.2</ele>
        <time>2022-07-10T07:26:29.000Z</time>
      </trkpt>
      <trkpt lat="44.18792" lon="6.74828">
        <ele>1195.2</ele>
        <time>2022-07-10T07:26:33.000Z</time>
      </trkpt>
      <trkpt lat="44.18794" lon="6.74831">
        <ele>1195.2</ele>
        <time>2022-07-10T07:26:41.000Z</time>
      </trkpt>
      <trkpt lat="44.18794" lon="6.74829">
        <ele>1195.2</ele>
        <time>2022-07-10T07:26:44.000Z</time>
      </trkpt>
      <trkpt lat="44.18792" lon="6.74829">
        <ele>1195.2</ele>
        <time>2022-07-10T07:26:47.000Z</time>
      </trkpt>
      <trkpt lat="44.18791" lon="6.74829">
        <ele>1195.2</ele>
        <time>2022-07-10T07:26:49.000Z</time>
      </trkpt>
      <trkpt lat="44.1879" lon="6.74827">
        <ele>1195.2</ele>
        <time>2022-07-10T07:26:51.000Z</time>
      </trkpt>
      <trkpt lat="44.18785" lon="6.74828">
        <ele>1195.2</ele>
        <time>2022-07-10T07:27:03.000Z</time>
      </trkpt>
      <trkpt lat="44.18784" lon="6.74828">
        <ele>1195.2</ele>
        <time>2022-07-10T07:27:08.000Z</time>
      </trkpt>
      <trkpt lat="44.18784" lon="6.74827">
        <ele>1195.2</ele>
        <time>2022-07-10T07:27:11.000Z</time>
      </trkpt>
      <trkpt lat="44.18788" lon="6.74827">
        <ele>1195.2</ele>
        <time>2022-07-10T07:27:19.000Z</time>
      </trkpt>
      <trkpt lat="44.18788" lon="6.74828">
        <ele>1195.2</ele>
        <time>2022-07-10T07:27:29.000Z</time>
      </trkpt>
      <trkpt lat="44.18782" lon="6.7483">
        <ele>1195.2</ele>
        <time>2022-07-10T07:27:35.000Z</time>
      </trkpt>
      <trkpt lat="44.1878" lon="6.74834">
        <ele>1194.8</ele>
        <time>2022-07-10T07:27:38.000Z</time>
      </trkpt>
      <trkpt lat="44.18787" lon="6.74839">
        <ele>1195</ele>
        <time>2022-07-10T07:27:42.000Z</time>
      </trkpt>
      <trkpt lat="44.18801" lon="6.74847">
        <ele>1195.8</ele>
        <time>2022-07-10T07:27:49.000Z</time>
      </trkpt>
      <trkpt lat="44.18812" lon="6.7485">
        <ele>1196.4</ele>
        <time>2022-07-10T07:27:53.000Z</time>
      </trkpt>
      <trkpt lat="44.18819" lon="6.74852">
        <ele>1196.8</ele>
        <time>2022-07-10T07:27:56.000Z</time>
      </trkpt>
      <trkpt lat="44.18823" lon="6.74854">
        <ele>1197.2</ele>
        <time>2022-07-10T07:27:58.000Z</time>
      </trkpt>
      <trkpt lat="44.18833" lon="6.74857">
        <ele>1197.8</ele>
        <time>2022-07-10T07:28:01.000Z</time>
      </trkpt>
      <trkpt lat="44.18836" lon="6.74859">
        <ele>1198</ele>
        <time>2022-07-10T07:28:02.000Z</time>
      </trkpt>
      <trkpt lat="44.18844" lon="6.74862">
        <ele>1198.8</ele>
        <time>2022-07-10T07:28:05.000Z</time>
      </trkpt>
      <trkpt lat="44.18852" lon="6.74866">
        <ele>1199.2</ele>
        <time>2022-07-10T07:28:08.000Z</time>
      </trkpt>
      <trkpt lat="44.1886" lon="6.74871">
        <ele>1199.6</ele>
        <time>2022-07-10T07:28:11.000Z</time>
      </trkpt>
      <trkpt lat="44.18878" lon="6.74876">
        <ele>1200</ele>
        <time>2022-07-10T07:28:18.000Z</time>
      </trkpt>
      <trkpt lat="44.18881" lon="6.74877">
        <ele>1200.2</ele>
        <time>2022-07-10T07:28:19.000Z</time>
      </trkpt>
      <trkpt lat="44.18897" lon="6.74887">
        <ele>1201.2</ele>
        <time>2022-07-10T07:28:26.000Z</time>
      </trkpt>
      <trkpt lat="44.18917" lon="6.74904">
        <ele>1202.4</ele>
        <time>2022-07-10T07:28:35.000Z</time>
      </trkpt>
      <trkpt lat="44.18922" lon="6.74915">
        <ele>1203.6</ele>
        <time>2022-07-10T07:28:39.000Z</time>
      </trkpt>
      <trkpt lat="44.18917" lon="6.7496">
        <ele>1203.8</ele>
        <time>2022-07-10T07:28:51.000Z</time>
      </trkpt>
      <trkpt lat="44.1892" lon="6.74975">
        <ele>1203.2</ele>
        <time>2022-07-10T07:28:54.000Z</time>
      </trkpt>
      <trkpt lat="44.18922" lon="6.74993">
        <ele>1202.4</ele>
        <time>2022-07-10T07:28:57.000Z</time>
      </trkpt>
      <trkpt lat="44.18923" lon="6.75007">
        <ele>1202</ele>
        <time>2022-07-10T07:28:59.000Z</time>
      </trkpt>
      <trkpt lat="44.1892" lon="6.75018">
        <ele>1202</ele>
        <time>2022-07-10T07:29:01.000Z</time>
      </trkpt>
      <trkpt lat="44.18914" lon="6.75025">
        <ele>1202</ele>
        <time>2022-07-10T07:29:03.000Z</time>
      </trkpt>
      <trkpt lat="44.18906" lon="6.75029">
        <ele>1202</ele>
        <time>2022-07-10T07:29:05.000Z</time>
      </trkpt>
      <trkpt lat="44.18898" lon="6.75028">
        <ele>1202</ele>
        <time>2022-07-10T07:29:07.000Z</time>
      </trkpt>
      <trkpt lat="44.18882" lon="6.75018">
        <ele>1201.2</ele>
        <time>2022-07-10T07:29:10.000Z</time>
      </trkpt>
      <trkpt lat="44.18877" lon="6.75015">
        <ele>1200.4</ele>
        <time>2022-07-10T07:29:11.000Z</time>
      </trkpt>
      <trkpt lat="44.18872" lon="6.75012">
        <ele>1200</ele>
        <time>2022-07-10T07:29:12.000Z</time>
      </trkpt>
      <trkpt lat="44.18867" lon="6.7501">
        <ele>1199.8</ele>
        <time>2022-07-10T07:29:13.000Z</time>
      </trkpt>
      <trkpt lat="44.18858" lon="6.7501">
        <ele>1199.6</ele>
        <time>2022-07-10T07:29:15.000Z</time>
      </trkpt>
      <trkpt lat="44.18849" lon="6.75015">
        <ele>1201.4</ele>
        <time>2022-07-10T07:29:19.000Z</time>
      </trkpt>
      <trkpt lat="44.18844" lon="6.75018">
        <ele>1202.4</ele>
        <time>2022-07-10T07:29:22.000Z</time>
      </trkpt>
      <trkpt lat="44.18831" lon="6.7502">
        <ele>1203.6</ele>
        <time>2022-07-10T07:29:29.000Z</time>
      </trkpt>
      <trkpt lat="44.18826" lon="6.75016">
        <ele>1204</ele>
        <time>2022-07-10T07:29:34.000Z</time>
      </trkpt>
      <trkpt lat="44.18823" lon="6.75018">
        <ele>1204</ele>
        <time>2022-07-10T07:29:41.000Z</time>
      </trkpt>
      <trkpt lat="44.18823" lon="6.7502">
        <ele>1204</ele>
        <time>2022-07-10T07:29:47.000Z</time>
      </trkpt>
      <trkpt lat="44.18825" lon="6.7502">
        <ele>1204.2</ele>
        <time>2022-07-10T07:30:01.000Z</time>
      </trkpt>
      <trkpt lat="44.18825" lon="6.75019">
        <ele>1204.2</ele>
        <time>2022-07-10T07:30:03.000Z</time>
      </trkpt>
      <trkpt lat="44.18818" lon="6.75023">
        <ele>1204.4</ele>
        <time>2022-07-10T07:30:14.000Z</time>
      </trkpt>
      <trkpt lat="44.18814" lon="6.75024">
        <ele>1204.4</ele>
        <time>2022-07-10T07:30:16.000Z</time>
      </trkpt>
      <trkpt lat="44.18813" lon="6.75024">
        <ele>1204.6</ele>
        <time>2022-07-10T07:30:17.000Z</time>
      </trkpt>
      <trkpt lat="44.18811" lon="6.75024">
        <ele>1205</ele>
        <time>2022-07-10T07:30:19.000Z</time>
      </trkpt>
      <trkpt lat="44.18808" lon="6.75025">
        <ele>1205.6</ele>
        <time>2022-07-10T07:30:22.000Z</time>
      </trkpt>
      <trkpt lat="44.18801" lon="6.75025">
        <ele>1206.8</ele>
        <time>2022-07-10T07:30:29.000Z</time>
      </trkpt>
      <trkpt lat="44.18794" lon="6.75026">
        <ele>1207.6</ele>
        <time>2022-07-10T07:30:34.000Z</time>
      </trkpt>
      <trkpt lat="44.18791" lon="6.75028">
        <ele>1207.8</ele>
        <time>2022-07-10T07:30:36.000Z</time>
      </trkpt>
      <trkpt lat="44.18784" lon="6.7503">
        <ele>1208.8</ele>
        <time>2022-07-10T07:30:41.000Z</time>
      </trkpt>
      <trkpt lat="44.18783" lon="6.7503">
        <ele>1208.8</ele>
        <time>2022-07-10T07:30:42.000Z</time>
      </trkpt>
      <trkpt lat="44.18777" lon="6.75031">
        <ele>1209.2</ele>
        <time>2022-07-10T07:30:47.000Z</time>
      </trkpt>
      <trkpt lat="44.18771" lon="6.75034">
        <ele>1210</ele>
        <time>2022-07-10T07:30:51.000Z</time>
      </trkpt>
      <trkpt lat="44.18755" lon="6.75048">
        <ele>1210.2</ele>
        <time>2022-07-10T07:31:01.000Z</time>
      </trkpt>
      <trkpt lat="44.18749" lon="6.75051">
        <ele>1210.2</ele>
        <time>2022-07-10T07:31:05.000Z</time>
      </trkpt>
      <trkpt lat="44.18743" lon="6.75057">
        <ele>1210.2</ele>
        <time>2022-07-10T07:31:10.000Z</time>
      </trkpt>
      <trkpt lat="44.18736" lon="6.75069">
        <ele>1210.4</ele>
        <time>2022-07-10T07:31:16.000Z</time>
      </trkpt>
      <trkpt lat="44.18733" lon="6.7507">
        <ele>1210.6</ele>
        <time>2022-07-10T07:31:18.000Z</time>
      </trkpt>
      <trkpt lat="44.18721" lon="6.75075">
        <ele>1211</ele>
        <time>2022-07-10T07:31:24.000Z</time>
      </trkpt>
      <trkpt lat="44.18703" lon="6.75081">
        <ele>1211.2</ele>
        <time>2022-07-10T07:31:33.000Z</time>
      </trkpt>
      <trkpt lat="44.18701" lon="6.75082">
        <ele>1211.4</ele>
        <time>2022-07-10T07:31:34.000Z</time>
      </trkpt>
      <trkpt lat="44.1869" lon="6.75084">
        <ele>1211.8</ele>
        <time>2022-07-10T07:31:40.000Z</time>
      </trkpt>
      <trkpt lat="44.18685" lon="6.75084">
        <ele>1212</ele>
        <time>2022-07-10T07:31:42.000Z</time>
      </trkpt>
      <trkpt lat="44.18658" lon="6.75088">
        <ele>1213</ele>
        <time>2022-07-10T07:31:55.000Z</time>
      </trkpt>
      <trkpt lat="44.18621" lon="6.75094">
        <ele>1213.6</ele>
        <time>2022-07-10T07:32:11.000Z</time>
      </trkpt>
      <trkpt lat="44.18607" lon="6.75102">
        <ele>1214</ele>
        <time>2022-07-10T07:32:18.000Z</time>
      </trkpt>
      <trkpt lat="44.18562" lon="6.7513">
        <ele>1214.8</ele>
        <time>2022-07-10T07:32:38.000Z</time>
      </trkpt>
      <trkpt lat="44.18543" lon="6.75137">
        <ele>1215</ele>
        <time>2022-07-10T07:32:46.000Z</time>
      </trkpt>
      <trkpt lat="44.18533" lon="6.75143">
        <ele>1215.4</ele>
        <time>2022-07-10T07:32:50.000Z</time>
      </trkpt>
      <trkpt lat="44.18525" lon="6.75149">
        <ele>1215.8</ele>
        <time>2022-07-10T07:32:54.000Z</time>
      </trkpt>
      <trkpt lat="44.18515" lon="6.75154">
        <ele>1216.2</ele>
        <time>2022-07-10T07:33:00.000Z</time>
      </trkpt>
      <trkpt lat="44.18506" lon="6.75158">
        <ele>1216.4</ele>
        <time>2022-07-10T07:33:05.000Z</time>
      </trkpt>
      <trkpt lat="44.18502" lon="6.75156">
        <ele>1216.8</ele>
        <time>2022-07-10T07:33:08.000Z</time>
      </trkpt>
      <trkpt lat="44.18499" lon="6.75158">
        <ele>1217.4</ele>
        <time>2022-07-10T07:33:10.000Z</time>
      </trkpt>
      <trkpt lat="44.18483" lon="6.7517">
        <ele>1218.4</ele>
        <time>2022-07-10T07:33:18.000Z</time>
      </trkpt>
      <trkpt lat="44.18481" lon="6.75171">
        <ele>1218.4</ele>
        <time>2022-07-10T07:33:19.000Z</time>
      </trkpt>
      <trkpt lat="44.18464" lon="6.75179">
        <ele>1219.6</ele>
        <time>2022-07-10T07:33:29.000Z</time>
      </trkpt>
      <trkpt lat="44.18453" lon="6.75186">
        <ele>1220.4</ele>
        <time>2022-07-10T07:33:35.000Z</time>
      </trkpt>
      <trkpt lat="44.18451" lon="6.75187">
        <ele>1220.6</ele>
        <time>2022-07-10T07:33:36.000Z</time>
      </trkpt>
      <trkpt lat="44.18448" lon="6.75189">
        <ele>1221.4</ele>
        <time>2022-07-10T07:33:39.000Z</time>
      </trkpt>
      <trkpt lat="44.18447" lon="6.75193">
        <ele>1221.6</ele>
        <time>2022-07-10T07:33:41.000Z</time>
      </trkpt>
      <trkpt lat="44.18448" lon="6.752">
        <ele>1222.2</ele>
        <time>2022-07-10T07:33:45.000Z</time>
      </trkpt>
      <trkpt lat="44.18452" lon="6.75202">
        <ele>1222.6</ele>
        <time>2022-07-10T07:33:48.000Z</time>
      </trkpt>
      <trkpt lat="44.18455" lon="6.75203">
        <ele>1222.8</ele>
        <time>2022-07-10T07:33:50.000Z</time>
      </trkpt>
      <trkpt lat="44.18465" lon="6.75204">
        <ele>1223.8</ele>
        <time>2022-07-10T07:33:56.000Z</time>
      </trkpt>
      <trkpt lat="44.18479" lon="6.75202">
        <ele>1224.8</ele>
        <time>2022-07-10T07:34:06.000Z</time>
      </trkpt>
      <trkpt lat="44.18489" lon="6.75199">
        <ele>1226</ele>
        <time>2022-07-10T07:34:15.000Z</time>
      </trkpt>
      <trkpt lat="44.18494" lon="6.75198">
        <ele>1226.8</ele>
        <time>2022-07-10T07:34:19.000Z</time>
      </trkpt>
      <trkpt lat="44.18496" lon="6.75196">
        <ele>1227</ele>
        <time>2022-07-10T07:34:21.000Z</time>
      </trkpt>
      <trkpt lat="44.18505" lon="6.75194">
        <ele>1228.2</ele>
        <time>2022-07-10T07:34:29.000Z</time>
      </trkpt>
      <trkpt lat="44.18514" lon="6.75193">
        <ele>1229.2</ele>
        <time>2022-07-10T07:34:36.000Z</time>
      </trkpt>
      <trkpt lat="44.1852" lon="6.75194">
        <ele>1229.8</ele>
        <time>2022-07-10T07:34:40.000Z</time>
      </trkpt>
      <trkpt lat="44.18523" lon="6.75194">
        <ele>1230.4</ele>
        <time>2022-07-10T07:34:42.000Z</time>
      </trkpt>
      <trkpt lat="44.18534" lon="6.75193">
        <ele>1231.4</ele>
        <time>2022-07-10T07:34:52.000Z</time>
      </trkpt>
      <trkpt lat="44.18544" lon="6.75195">
        <ele>1232.6</ele>
        <time>2022-07-10T07:34:59.000Z</time>
      </trkpt>
      <trkpt lat="44.18549" lon="6.75195">
        <ele>1233.2</ele>
        <time>2022-07-10T07:35:02.000Z</time>
      </trkpt>
      <trkpt lat="44.18552" lon="6.75195">
        <ele>1233.8</ele>
        <time>2022-07-10T07:35:04.000Z</time>
      </trkpt>
      <trkpt lat="44.18561" lon="6.75196">
        <ele>1234.8</ele>
        <time>2022-07-10T07:35:12.000Z</time>
      </trkpt>
      <trkpt lat="44.18566" lon="6.75196">
        <ele>1235.6</ele>
        <time>2022-07-10T07:35:16.000Z</time>
      </trkpt>
      <trkpt lat="44.18569" lon="6.75196">
        <ele>1235.8</ele>
        <time>2022-07-10T07:35:18.000Z</time>
      </trkpt>
      <trkpt lat="44.18577" lon="6.75192">
        <ele>1236.8</ele>
        <time>2022-07-10T07:35:26.000Z</time>
      </trkpt>
      <trkpt lat="44.18584" lon="6.75193">
        <ele>1238</ele>
        <time>2022-07-10T07:35:31.000Z</time>
      </trkpt>
      <trkpt lat="44.18595" lon="6.75194">
        <ele>1239</ele>
        <time>2022-07-10T07:35:38.000Z</time>
      </trkpt>
      <trkpt lat="44.18597" lon="6.75192">
        <ele>1239.4</ele>
        <time>2022-07-10T07:35:40.000Z</time>
      </trkpt>
      <trkpt lat="44.18605" lon="6.75188">
        <ele>1240</ele>
        <time>2022-07-10T07:35:46.000Z</time>
      </trkpt>
      <trkpt lat="44.18608" lon="6.75186">
        <ele>1240.2</ele>
        <time>2022-07-10T07:35:49.000Z</time>
      </trkpt>
      <trkpt lat="44.18616" lon="6.75185">
        <ele>1241.2</ele>
        <time>2022-07-10T07:35:55.000Z</time>
      </trkpt>
      <trkpt lat="44.18623" lon="6.75187">
        <ele>1242.2</ele>
        <time>2022-07-10T07:36:00.000Z</time>
      </trkpt>
      <trkpt lat="44.1863" lon="6.75182">
        <ele>1243.4</ele>
        <time>2022-07-10T07:36:07.000Z</time>
      </trkpt>
      <trkpt lat="44.1864" lon="6.75177">
        <ele>1244.4</ele>
        <time>2022-07-10T07:36:17.000Z</time>
      </trkpt>
      <trkpt lat="44.1865" lon="6.75181">
        <ele>1245.6</ele>
        <time>2022-07-10T07:36:25.000Z</time>
      </trkpt>
      <trkpt lat="44.18656" lon="6.75181">
        <ele>1246.4</ele>
        <time>2022-07-10T07:36:30.000Z</time>
      </trkpt>
      <trkpt lat="44.18662" lon="6.75186">
        <ele>1246.6</ele>
        <time>2022-07-10T07:36:35.000Z</time>
      </trkpt>
      <trkpt lat="44.18666" lon="6.75185">
        <ele>1247.4</ele>
        <time>2022-07-10T07:36:39.000Z</time>
      </trkpt>
      <trkpt lat="44.18668" lon="6.75183">
        <ele>1247.8</ele>
        <time>2022-07-10T07:36:42.000Z</time>
      </trkpt>
      <trkpt lat="44.18674" lon="6.75181">
        <ele>1248.8</ele>
        <time>2022-07-10T07:36:47.000Z</time>
      </trkpt>
      <trkpt lat="44.18678" lon="6.75183">
        <ele>1249.4</ele>
        <time>2022-07-10T07:36:50.000Z</time>
      </trkpt>
      <trkpt lat="44.18681" lon="6.75184">
        <ele>1249.8</ele>
        <time>2022-07-10T07:36:52.000Z</time>
      </trkpt>
      <trkpt lat="44.1869" lon="6.75188">
        <ele>1250.8</ele>
        <time>2022-07-10T07:36:59.000Z</time>
      </trkpt>
      <trkpt lat="44.18697" lon="6.75191">
        <ele>1251.2</ele>
        <time>2022-07-10T07:37:06.000Z</time>
      </trkpt>
      <trkpt lat="44.18703" lon="6.75189">
        <ele>1251.8</ele>
        <time>2022-07-10T07:37:12.000Z</time>
      </trkpt>
      <trkpt lat="44.18707" lon="6.75189">
        <ele>1252.4</ele>
        <time>2022-07-10T07:37:14.000Z</time>
      </trkpt>
      <trkpt lat="44.18713" lon="6.75187">
        <ele>1252.8</ele>
        <time>2022-07-10T07:37:18.000Z</time>
      </trkpt>
      <trkpt lat="44.18728" lon="6.75187">
        <ele>1254</ele>
        <time>2022-07-10T07:37:29.000Z</time>
      </trkpt>
      <trkpt lat="44.18736" lon="6.75181">
        <ele>1255</ele>
        <time>2022-07-10T07:37:36.000Z</time>
      </trkpt>
      <trkpt lat="44.18742" lon="6.75179">
        <ele>1256</ele>
        <time>2022-07-10T07:37:42.000Z</time>
      </trkpt>
      <trkpt lat="44.18747" lon="6.75176">
        <ele>1256.6</ele>
        <time>2022-07-10T07:37:48.000Z</time>
      </trkpt>
      <trkpt lat="44.18749" lon="6.75176">
        <ele>1257.2</ele>
        <time>2022-07-10T07:37:50.000Z</time>
      </trkpt>
      <trkpt lat="44.18754" lon="6.75174">
        <ele>1257.6</ele>
        <time>2022-07-10T07:37:55.000Z</time>
      </trkpt>
      <trkpt lat="44.18757" lon="6.75174">
        <ele>1258</ele>
        <time>2022-07-10T07:37:58.000Z</time>
      </trkpt>
      <trkpt lat="44.18759" lon="6.75174">
        <ele>1258.2</ele>
        <time>2022-07-10T07:38:00.000Z</time>
      </trkpt>
      <trkpt lat="44.18771" lon="6.75175">
        <ele>1259.2</ele>
        <time>2022-07-10T07:38:07.000Z</time>
      </trkpt>
      <trkpt lat="44.1878" lon="6.7517">
        <ele>1260.2</ele>
        <time>2022-07-10T07:38:15.000Z</time>
      </trkpt>
      <trkpt lat="44.18788" lon="6.75166">
        <ele>1261.2</ele>
        <time>2022-07-10T07:38:23.000Z</time>
      </trkpt>
      <trkpt lat="44.18798" lon="6.75162">
        <ele>1262.4</ele>
        <time>2022-07-10T07:38:31.000Z</time>
      </trkpt>
      <trkpt lat="44.18806" lon="6.7516">
        <ele>1263.4</ele>
        <time>2022-07-10T07:38:38.000Z</time>
      </trkpt>
      <trkpt lat="44.18808" lon="6.75159">
        <ele>1263.6</ele>
        <time>2022-07-10T07:38:41.000Z</time>
      </trkpt>
      <trkpt lat="44.1881" lon="6.75159">
        <ele>1264</ele>
        <time>2022-07-10T07:38:43.000Z</time>
      </trkpt>
      <trkpt lat="44.18812" lon="6.7516">
        <ele>1264.4</ele>
        <time>2022-07-10T07:38:45.000Z</time>
      </trkpt>
      <trkpt lat="44.18818" lon="6.75162">
        <ele>1265.4</ele>
        <time>2022-07-10T07:38:52.000Z</time>
      </trkpt>
      <trkpt lat="44.18827" lon="6.75164">
        <ele>1266.8</ele>
        <time>2022-07-10T07:38:59.000Z</time>
      </trkpt>
      <trkpt lat="44.18836" lon="6.75169">
        <ele>1267.8</ele>
        <time>2022-07-10T07:39:06.000Z</time>
      </trkpt>
      <trkpt lat="44.18841" lon="6.75175">
        <ele>1268.8</ele>
        <time>2022-07-10T07:39:13.000Z</time>
      </trkpt>
      <trkpt lat="44.18841" lon="6.75176">
        <ele>1269.2</ele>
        <time>2022-07-10T07:39:18.000Z</time>
      </trkpt>
      <trkpt lat="44.18841" lon="6.75177">
        <ele>1269.2</ele>
        <time>2022-07-10T07:39:21.000Z</time>
      </trkpt>
      <trkpt lat="44.18839" lon="6.75181">
        <ele>1269.2</ele>
        <time>2022-07-10T07:39:32.000Z</time>
      </trkpt>
      <trkpt lat="44.18839" lon="6.75182">
        <ele>1269.2</ele>
        <time>2022-07-10T07:39:36.000Z</time>
      </trkpt>
      <trkpt lat="44.18839" lon="6.75182">
        <ele>1269</ele>
        <time>2022-07-10T07:39:39.000Z</time>
      </trkpt>
      <trkpt lat="44.18839" lon="6.75182">
        <ele>1269</ele>
        <time>2022-07-10T07:39:42.000Z</time>
      </trkpt>
      <trkpt lat="44.1884" lon="6.75182">
        <ele>1269.2</ele>
        <time>2022-07-10T07:39:45.000Z</time>
      </trkpt>
      <trkpt lat="44.18839" lon="6.75182">
        <ele>1269.2</ele>
        <time>2022-07-10T07:39:47.000Z</time>
      </trkpt>
      <trkpt lat="44.18837" lon="6.75183">
        <ele>1269.2</ele>
        <time>2022-07-10T07:39:50.000Z</time>
      </trkpt>
      <trkpt lat="44.1884" lon="6.75189">
        <ele>1269.2</ele>
        <time>2022-07-10T07:40:06.000Z</time>
      </trkpt>
      <trkpt lat="44.1884" lon="6.75192">
        <ele>1269.4</ele>
        <time>2022-07-10T07:40:08.000Z</time>
      </trkpt>
      <trkpt lat="44.18841" lon="6.75196">
        <ele>1269.6</ele>
        <time>2022-07-10T07:40:11.000Z</time>
      </trkpt>
      <trkpt lat="44.18842" lon="6.75203">
        <ele>1270</ele>
        <time>2022-07-10T07:40:15.000Z</time>
      </trkpt>
      <trkpt lat="44.18835" lon="6.75217">
        <ele>1271</ele>
        <time>2022-07-10T07:40:28.000Z</time>
      </trkpt>
      <trkpt lat="44.18833" lon="6.7525">
        <ele>1271.8</ele>
        <time>2022-07-10T07:40:46.000Z</time>
      </trkpt>
      <trkpt lat="44.18833" lon="6.75256">
        <ele>1272</ele>
        <time>2022-07-10T07:40:49.000Z</time>
      </trkpt>
      <trkpt lat="44.18835" lon="6.75258">
        <ele>1272</ele>
        <time>2022-07-10T07:40:51.000Z</time>
      </trkpt>
      <trkpt lat="44.18842" lon="6.75275">
        <ele>1273</ele>
        <time>2022-07-10T07:41:03.000Z</time>
      </trkpt>
      <trkpt lat="44.18851" lon="6.75294">
        <ele>1274</ele>
        <time>2022-07-10T07:41:20.000Z</time>
      </trkpt>
      <trkpt lat="44.18857" lon="6.753">
        <ele>1274.8</ele>
        <time>2022-07-10T07:41:30.000Z</time>
      </trkpt>
      <trkpt lat="44.18858" lon="6.75302">
        <ele>1274.8</ele>
        <time>2022-07-10T07:41:31.000Z</time>
      </trkpt>
      <trkpt lat="44.18863" lon="6.75306">
        <ele>1275.2</ele>
        <time>2022-07-10T07:41:35.000Z</time>
      </trkpt>
      <trkpt lat="44.18875" lon="6.7531">
        <ele>1276.2</ele>
        <time>2022-07-10T07:41:44.000Z</time>
      </trkpt>
      <trkpt lat="44.18876" lon="6.75311">
        <ele>1276.2</ele>
        <time>2022-07-10T07:41:45.000Z</time>
      </trkpt>
      <trkpt lat="44.18897" lon="6.7533">
        <ele>1277.4</ele>
        <time>2022-07-10T07:42:00.000Z</time>
      </trkpt>
      <trkpt lat="44.18912" lon="6.75342">
        <ele>1278.4</ele>
        <time>2022-07-10T07:42:13.000Z</time>
      </trkpt>
      <trkpt lat="44.1892" lon="6.7535">
        <ele>1278.8</ele>
        <time>2022-07-10T07:42:21.000Z</time>
      </trkpt>
      <trkpt lat="44.1893" lon="6.75362">
        <ele>1279.4</ele>
        <time>2022-07-10T07:42:30.000Z</time>
      </trkpt>
      <trkpt lat="44.18934" lon="6.75367">
        <ele>1279.6</ele>
        <time>2022-07-10T07:42:33.000Z</time>
      </trkpt>
      <trkpt lat="44.18948" lon="6.75368">
        <ele>1280.6</ele>
        <time>2022-07-10T07:42:47.000Z</time>
      </trkpt>
      <trkpt lat="44.18966" lon="6.75369">
        <ele>1281.6</ele>
        <time>2022-07-10T07:43:02.000Z</time>
      </trkpt>
      <trkpt lat="44.18972" lon="6.7537">
        <ele>1282</ele>
        <time>2022-07-10T07:43:07.000Z</time>
      </trkpt>
      <trkpt lat="44.18974" lon="6.75373">
        <ele>1282.2</ele>
        <time>2022-07-10T07:43:09.000Z</time>
      </trkpt>
      <trkpt lat="44.18975" lon="6.75376">
        <ele>1282.4</ele>
        <time>2022-07-10T07:43:11.000Z</time>
      </trkpt>
      <trkpt lat="44.18974" lon="6.75382">
        <ele>1282.6</ele>
        <time>2022-07-10T07:43:14.000Z</time>
      </trkpt>
      <trkpt lat="44.18973" lon="6.75388">
        <ele>1282.8</ele>
        <time>2022-07-10T07:43:17.000Z</time>
      </trkpt>
      <trkpt lat="44.18965" lon="6.75391">
        <ele>1283.6</ele>
        <time>2022-07-10T07:43:23.000Z</time>
      </trkpt>
      <trkpt lat="44.18962" lon="6.75391">
        <ele>1283.6</ele>
        <time>2022-07-10T07:43:25.000Z</time>
      </trkpt>
      <trkpt lat="44.18951" lon="6.75387">
        <ele>1284.4</ele>
        <time>2022-07-10T07:43:34.000Z</time>
      </trkpt>
      <trkpt lat="44.18948" lon="6.75387">
        <ele>1285</ele>
        <time>2022-07-10T07:43:37.000Z</time>
      </trkpt>
      <trkpt lat="44.18945" lon="6.75388">
        <ele>1285.4</ele>
        <time>2022-07-10T07:43:40.000Z</time>
      </trkpt>
      <trkpt lat="44.18944" lon="6.7539">
        <ele>1285.8</ele>
        <time>2022-07-10T07:43:42.000Z</time>
      </trkpt>
      <trkpt lat="44.18939" lon="6.7539">
        <ele>1286</ele>
        <time>2022-07-10T07:43:47.000Z</time>
      </trkpt>
      <trkpt lat="44.18932" lon="6.75389">
        <ele>1286.4</ele>
        <time>2022-07-10T07:43:54.000Z</time>
      </trkpt>
      <trkpt lat="44.18928" lon="6.75389">
        <ele>1286.6</ele>
        <time>2022-07-10T07:43:58.000Z</time>
      </trkpt>
      <trkpt lat="44.18925" lon="6.75386">
        <ele>1287</ele>
        <time>2022-07-10T07:44:02.000Z</time>
      </trkpt>
      <trkpt lat="44.1892" lon="6.75388">
        <ele>1287.4</ele>
        <time>2022-07-10T07:44:08.000Z</time>
      </trkpt>
      <trkpt lat="44.18917" lon="6.75385">
        <ele>1288</ele>
        <time>2022-07-10T07:44:13.000Z</time>
      </trkpt>
      <trkpt lat="44.18915" lon="6.75383">
        <ele>1288.2</ele>
        <time>2022-07-10T07:44:15.000Z</time>
      </trkpt>
      <trkpt lat="44.18915" lon="6.75382">
        <ele>1288.2</ele>
        <time>2022-07-10T07:44:16.000Z</time>
      </trkpt>
      <trkpt lat="44.18904" lon="6.75376">
        <ele>1289.2</ele>
        <time>2022-07-10T07:44:26.000Z</time>
      </trkpt>
      <trkpt lat="44.18903" lon="6.75376">
        <ele>1289.4</ele>
        <time>2022-07-10T07:44:28.000Z</time>
      </trkpt>
      <trkpt lat="44.18891" lon="6.75372">
        <ele>1290.2</ele>
        <time>2022-07-10T07:44:38.000Z</time>
      </trkpt>
      <trkpt lat="44.18889" lon="6.75373">
        <ele>1290.2</ele>
        <time>2022-07-10T07:44:40.000Z</time>
      </trkpt>
      <trkpt lat="44.18878" lon="6.75371">
        <ele>1291.2</ele>
        <time>2022-07-10T07:44:52.000Z</time>
      </trkpt>
      <trkpt lat="44.18867" lon="6.75369">
        <ele>1292</ele>
        <time>2022-07-10T07:45:01.000Z</time>
      </trkpt>
      <trkpt lat="44.18866" lon="6.75366">
        <ele>1292.4</ele>
        <time>2022-07-10T07:45:03.000Z</time>
      </trkpt>
      <trkpt lat="44.18856" lon="6.75361">
        <ele>1293.2</ele>
        <time>2022-07-10T07:45:11.000Z</time>
      </trkpt>
      <trkpt lat="44.18855" lon="6.75362">
        <ele>1293.4</ele>
        <time>2022-07-10T07:45:13.000Z</time>
      </trkpt>
      <trkpt lat="44.18851" lon="6.75363">
        <ele>1293.4</ele>
        <time>2022-07-10T07:45:16.000Z</time>
      </trkpt>
      <trkpt lat="44.18836" lon="6.75361">
        <ele>1294.4</ele>
        <time>2022-07-10T07:45:26.000Z</time>
      </trkpt>
      <trkpt lat="44.18819" lon="6.75358">
        <ele>1295.2</ele>
        <time>2022-07-10T07:45:39.000Z</time>
      </trkpt>
      <trkpt lat="44.18818" lon="6.75355">
        <ele>1295.6</ele>
        <time>2022-07-10T07:45:43.000Z</time>
      </trkpt>
      <trkpt lat="44.18817" lon="6.75355">
        <ele>1295.6</ele>
        <time>2022-07-10T07:45:44.000Z</time>
      </trkpt>
      <trkpt lat="44.18808" lon="6.75343">
        <ele>1296.6</ele>
        <time>2022-07-10T07:45:54.000Z</time>
      </trkpt>
      <trkpt lat="44.18806" lon="6.75339">
        <ele>1296.8</ele>
        <time>2022-07-10T07:45:57.000Z</time>
      </trkpt>
      <trkpt lat="44.18804" lon="6.75337">
        <ele>1297.2</ele>
        <time>2022-07-10T07:45:59.000Z</time>
      </trkpt>
      <trkpt lat="44.18797" lon="6.75331">
        <ele>1297.6</ele>
        <time>2022-07-10T07:46:09.000Z</time>
      </trkpt>
      <trkpt lat="44.1879" lon="6.75322">
        <ele>1298.6</ele>
        <time>2022-07-10T07:46:17.000Z</time>
      </trkpt>
      <trkpt lat="44.18776" lon="6.75311">
        <ele>1299.8</ele>
        <time>2022-07-10T07:46:30.000Z</time>
      </trkpt>
      <trkpt lat="44.18767" lon="6.7531">
        <ele>1300.4</ele>
        <time>2022-07-10T07:46:37.000Z</time>
      </trkpt>
      <trkpt lat="44.18764" lon="6.7531">
        <ele>1300.8</ele>
        <time>2022-07-10T07:46:42.000Z</time>
      </trkpt>
      <trkpt lat="44.18742" lon="6.75313">
        <ele>1301.8</ele>
        <time>2022-07-10T07:46:56.000Z</time>
      </trkpt>
      <trkpt lat="44.18729" lon="6.7532">
        <ele>1302.8</ele>
        <time>2022-07-10T07:47:06.000Z</time>
      </trkpt>
      <trkpt lat="44.18728" lon="6.75319">
        <ele>1302.8</ele>
        <time>2022-07-10T07:47:07.000Z</time>
      </trkpt>
      <trkpt lat="44.18721" lon="6.75325">
        <ele>1303.6</ele>
        <time>2022-07-10T07:47:14.000Z</time>
      </trkpt>
      <trkpt lat="44.18718" lon="6.75326">
        <ele>1303.8</ele>
        <time>2022-07-10T07:47:17.000Z</time>
      </trkpt>
      <trkpt lat="44.18705" lon="6.7533">
        <ele>1304.8</ele>
        <time>2022-07-10T07:47:30.000Z</time>
      </trkpt>
      <trkpt lat="44.18703" lon="6.75333">
        <ele>1305</ele>
        <time>2022-07-10T07:47:32.000Z</time>
      </trkpt>
      <trkpt lat="44.18701" lon="6.75334">
        <ele>1305.2</ele>
        <time>2022-07-10T07:47:35.000Z</time>
      </trkpt>
      <trkpt lat="44.18692" lon="6.75339">
        <ele>1306</ele>
        <time>2022-07-10T07:47:42.000Z</time>
      </trkpt>
      <trkpt lat="44.18679" lon="6.75346">
        <ele>1307</ele>
        <time>2022-07-10T07:47:53.000Z</time>
      </trkpt>
      <trkpt lat="44.1867" lon="6.75351">
        <ele>1307.8</ele>
        <time>2022-07-10T07:48:01.000Z</time>
      </trkpt>
      <trkpt lat="44.18666" lon="6.75354">
        <ele>1308</ele>
        <time>2022-07-10T07:48:05.000Z</time>
      </trkpt>
      <trkpt lat="44.18662" lon="6.75357">
        <ele>1308.2</ele>
        <time>2022-07-10T07:48:09.000Z</time>
      </trkpt>
      <trkpt lat="44.18661" lon="6.75363">
        <ele>1308.6</ele>
        <time>2022-07-10T07:48:14.000Z</time>
      </trkpt>
      <trkpt lat="44.18658" lon="6.75367">
        <ele>1309</ele>
        <time>2022-07-10T07:48:18.000Z</time>
      </trkpt>
      <trkpt lat="44.1864" lon="6.75368">
        <ele>1310.2</ele>
        <time>2022-07-10T07:48:29.000Z</time>
      </trkpt>
      <trkpt lat="44.18637" lon="6.7537">
        <ele>1310.4</ele>
        <time>2022-07-10T07:48:31.000Z</time>
      </trkpt>
      <trkpt lat="44.18631" lon="6.75372">
        <ele>1311.2</ele>
        <time>2022-07-10T07:48:37.000Z</time>
      </trkpt>
      <trkpt lat="44.1863" lon="6.75373">
        <ele>1311.2</ele>
        <time>2022-07-10T07:48:38.000Z</time>
      </trkpt>
      <trkpt lat="44.18623" lon="6.75377">
        <ele>1312</ele>
        <time>2022-07-10T07:48:43.000Z</time>
      </trkpt>
      <trkpt lat="44.1862" lon="6.75378">
        <ele>1312.4</ele>
        <time>2022-07-10T07:48:46.000Z</time>
      </trkpt>
      <trkpt lat="44.18604" lon="6.75389">
        <ele>1313.4</ele>
        <time>2022-07-10T07:48:58.000Z</time>
      </trkpt>
      <trkpt lat="44.186" lon="6.75391">
        <ele>1314</ele>
        <time>2022-07-10T07:49:01.000Z</time>
      </trkpt>
      <trkpt lat="44.18584" lon="6.75395">
        <ele>1314.4</ele>
        <time>2022-07-10T07:49:07.000Z</time>
      </trkpt>
      <trkpt lat="44.18578" lon="6.75395">
        <ele>1315.4</ele>
        <time>2022-07-10T07:49:12.000Z</time>
      </trkpt>
      <trkpt lat="44.18573" lon="6.75395">
        <ele>1316.4</ele>
        <time>2022-07-10T07:49:17.000Z</time>
      </trkpt>
      <trkpt lat="44.18571" lon="6.75395">
        <ele>1316.6</ele>
        <time>2022-07-10T07:49:20.000Z</time>
      </trkpt>
      <trkpt lat="44.18569" lon="6.75397">
        <ele>1316.6</ele>
        <time>2022-07-10T07:49:24.000Z</time>
      </trkpt>
      <trkpt lat="44.18568" lon="6.75402">
        <ele>1316.8</ele>
        <time>2022-07-10T07:49:28.000Z</time>
      </trkpt>
      <trkpt lat="44.18573" lon="6.75411">
        <ele>1317.2</ele>
        <time>2022-07-10T07:49:32.000Z</time>
      </trkpt>
      <trkpt lat="44.18579" lon="6.75417">
        <ele>1317.4</ele>
        <time>2022-07-10T07:49:36.000Z</time>
      </trkpt>
      <trkpt lat="44.18583" lon="6.75418">
        <ele>1317.6</ele>
        <time>2022-07-10T07:49:38.000Z</time>
      </trkpt>
      <trkpt lat="44.18587" lon="6.7541">
        <ele>1318.2</ele>
        <time>2022-07-10T07:49:43.000Z</time>
      </trkpt>
      <trkpt lat="44.18579" lon="6.75404">
        <ele>1318.6</ele>
        <time>2022-07-10T07:49:55.000Z</time>
      </trkpt>
      <trkpt lat="44.18583" lon="6.75406">
        <ele>1318.4</ele>
        <time>2022-07-10T07:50:00.000Z</time>
      </trkpt>
      <trkpt lat="44.18582" lon="6.75406">
        <ele>1318.4</ele>
        <time>2022-07-10T07:50:13.000Z</time>
      </trkpt>
      <trkpt lat="44.18584" lon="6.75408">
        <ele>1318.4</ele>
        <time>2022-07-10T07:50:15.000Z</time>
      </trkpt>
      <trkpt lat="44.18584" lon="6.75407">
        <ele>1318.4</ele>
        <time>2022-07-10T07:50:16.000Z</time>
      </trkpt>
      <trkpt lat="44.18585" lon="6.75408">
        <ele>1318.4</ele>
        <time>2022-07-10T07:50:18.000Z</time>
      </trkpt>
      <trkpt lat="44.18586" lon="6.75409">
        <ele>1318.6</ele>
        <time>2022-07-10T07:50:24.000Z</time>
      </trkpt>
      <trkpt lat="44.18586" lon="6.7541">
        <ele>1318.8</ele>
        <time>2022-07-10T07:50:26.000Z</time>
      </trkpt>
      <trkpt lat="44.18588" lon="6.75414">
        <ele>1318.8</ele>
        <time>2022-07-10T07:50:42.000Z</time>
      </trkpt>
      <trkpt lat="44.18588" lon="6.75414">
        <ele>1319</ele>
        <time>2022-07-10T07:50:45.000Z</time>
      </trkpt>
      <trkpt lat="44.18586" lon="6.75417">
        <ele>1318.4</ele>
        <time>2022-07-10T07:51:01.000Z</time>
      </trkpt>
      <trkpt lat="44.18585" lon="6.75417">
        <ele>1318.4</ele>
        <time>2022-07-10T07:51:10.000Z</time>
      </trkpt>
      <trkpt lat="44.18587" lon="6.75416">
        <ele>1318.4</ele>
        <time>2022-07-10T07:51:33.000Z</time>
      </trkpt>
      <trkpt lat="44.18587" lon="6.75418">
        <ele>1318.4</ele>
        <time>2022-07-10T07:51:35.000Z</time>
      </trkpt>
      <trkpt lat="44.18593" lon="6.75422">
        <ele>1318.4</ele>
        <time>2022-07-10T07:51:43.000Z</time>
      </trkpt>
      <trkpt lat="44.18592" lon="6.75419">
        <ele>1318.4</ele>
        <time>2022-07-10T07:51:55.000Z</time>
      </trkpt>
      <trkpt lat="44.1859" lon="6.75418">
        <ele>1318.4</ele>
        <time>2022-07-10T07:52:00.000Z</time>
      </trkpt>
      <trkpt lat="44.18586" lon="6.75414">
        <ele>1318.4</ele>
        <time>2022-07-10T07:52:11.000Z</time>
      </trkpt>
      <trkpt lat="44.18594" lon="6.75411">
        <ele>1318.4</ele>
        <time>2022-07-10T07:52:29.000Z</time>
      </trkpt>
      <trkpt lat="44.18601" lon="6.75415">
        <ele>1319.8</ele>
        <time>2022-07-10T07:52:34.000Z</time>
      </trkpt>
      <trkpt lat="44.18607" lon="6.75414">
        <ele>1320</ele>
        <time>2022-07-10T07:52:38.000Z</time>
      </trkpt>
      <trkpt lat="44.1861" lon="6.75415">
        <ele>1320.2</ele>
        <time>2022-07-10T07:52:45.000Z</time>
      </trkpt>
      <trkpt lat="44.18617" lon="6.75421">
        <ele>1320.8</ele>
        <time>2022-07-10T07:52:53.000Z</time>
      </trkpt>
      <trkpt lat="44.18623" lon="6.75423">
        <ele>1321.2</ele>
        <time>2022-07-10T07:52:56.000Z</time>
      </trkpt>
      <trkpt lat="44.1864" lon="6.75424">
        <ele>1322.2</ele>
        <time>2022-07-10T07:53:05.000Z</time>
      </trkpt>
      <trkpt lat="44.18643" lon="6.75425">
        <ele>1322.4</ele>
        <time>2022-07-10T07:53:07.000Z</time>
      </trkpt>
      <trkpt lat="44.1865" lon="6.75418">
        <ele>1323</ele>
        <time>2022-07-10T07:53:16.000Z</time>
      </trkpt>
      <trkpt lat="44.18652" lon="6.75418">
        <ele>1323.2</ele>
        <time>2022-07-10T07:53:18.000Z</time>
      </trkpt>
      <trkpt lat="44.18658" lon="6.75409">
        <ele>1324</ele>
        <time>2022-07-10T07:53:29.000Z</time>
      </trkpt>
      <trkpt lat="44.1866" lon="6.75409">
        <ele>1324.2</ele>
        <time>2022-07-10T07:53:31.000Z</time>
      </trkpt>
      <trkpt lat="44.18661" lon="6.75409">
        <ele>1324.6</ele>
        <time>2022-07-10T07:53:33.000Z</time>
      </trkpt>
      <trkpt lat="44.18665" lon="6.75411">
        <ele>1324.8</ele>
        <time>2022-07-10T07:53:36.000Z</time>
      </trkpt>
      <trkpt lat="44.18678" lon="6.75421">
        <ele>1325.4</ele>
        <time>2022-07-10T07:53:46.000Z</time>
      </trkpt>
      <trkpt lat="44.18682" lon="6.75424">
        <ele>1325.6</ele>
        <time>2022-07-10T07:53:48.000Z</time>
      </trkpt>
      <trkpt lat="44.18696" lon="6.75418">
        <ele>1326.4</ele>
        <time>2022-07-10T07:54:05.000Z</time>
      </trkpt>
      <trkpt lat="44.18697" lon="6.75419">
        <ele>1326.6</ele>
        <time>2022-07-10T07:54:06.000Z</time>
      </trkpt>
      <trkpt lat="44.18699" lon="6.75418">
        <ele>1326.6</ele>
        <time>2022-07-10T07:54:07.000Z</time>
      </trkpt>
      <trkpt lat="44.18706" lon="6.75421">
        <ele>1326.8</ele>
        <time>2022-07-10T07:54:11.000Z</time>
      </trkpt>
      <trkpt lat="44.18718" lon="6.75427">
        <ele>1327.6</ele>
        <time>2022-07-10T07:54:19.000Z</time>
      </trkpt>
      <trkpt lat="44.18719" lon="6.75427">
        <ele>1327.6</ele>
        <time>2022-07-10T07:54:20.000Z</time>
      </trkpt>
      <trkpt lat="44.1872" lon="6.75426">
        <ele>1327.6</ele>
        <time>2022-07-10T07:54:21.000Z</time>
      </trkpt>
      <trkpt lat="44.18735" lon="6.75426">
        <ele>1328.6</ele>
        <time>2022-07-10T07:54:37.000Z</time>
      </trkpt>
      <trkpt lat="44.18736" lon="6.75426">
        <ele>1328.6</ele>
        <time>2022-07-10T07:54:38.000Z</time>
      </trkpt>
      <trkpt lat="44.18747" lon="6.75424">
        <ele>1329.6</ele>
        <time>2022-07-10T07:54:48.000Z</time>
      </trkpt>
      <trkpt lat="44.18749" lon="6.75421">
        <ele>1329.6</ele>
        <time>2022-07-10T07:54:51.000Z</time>
      </trkpt>
      <trkpt lat="44.18751" lon="6.7542">
        <ele>1329.8</ele>
        <time>2022-07-10T07:54:53.000Z</time>
      </trkpt>
      <trkpt lat="44.18757" lon="6.75417">
        <ele>1330.4</ele>
        <time>2022-07-10T07:54:58.000Z</time>
      </trkpt>
      <trkpt lat="44.1876" lon="6.75414">
        <ele>1330.8</ele>
        <time>2022-07-10T07:55:02.000Z</time>
      </trkpt>
      <trkpt lat="44.18763" lon="6.75411">
        <ele>1330.8</ele>
        <time>2022-07-10T07:55:04.000Z</time>
      </trkpt>
      <trkpt lat="44.18768" lon="6.75414">
        <ele>1331.4</ele>
        <time>2022-07-10T07:55:09.000Z</time>
      </trkpt>
      <trkpt lat="44.18768" lon="6.75421">
        <ele>1331.6</ele>
        <time>2022-07-10T07:55:14.000Z</time>
      </trkpt>
      <trkpt lat="44.18768" lon="6.75424">
        <ele>1331.8</ele>
        <time>2022-07-10T07:55:16.000Z</time>
      </trkpt>
      <trkpt lat="44.18771" lon="6.75434">
        <ele>1332.6</ele>
        <time>2022-07-10T07:55:23.000Z</time>
      </trkpt>
      <trkpt lat="44.1877" lon="6.75441">
        <ele>1332.8</ele>
        <time>2022-07-10T07:55:28.000Z</time>
      </trkpt>
      <trkpt lat="44.1877" lon="6.75447">
        <ele>1333.2</ele>
        <time>2022-07-10T07:55:32.000Z</time>
      </trkpt>
      <trkpt lat="44.1878" lon="6.75461">
        <ele>1333.8</ele>
        <time>2022-07-10T07:55:43.000Z</time>
      </trkpt>
      <trkpt lat="44.18784" lon="6.75474">
        <ele>1334.8</ele>
        <time>2022-07-10T07:55:54.000Z</time>
      </trkpt>
      <trkpt lat="44.18788" lon="6.75479">
        <ele>1335.6</ele>
        <time>2022-07-10T07:56:03.000Z</time>
      </trkpt>
      <trkpt lat="44.18791" lon="6.75481">
        <ele>1335.8</ele>
        <time>2022-07-10T07:56:05.000Z</time>
      </trkpt>
      <trkpt lat="44.18792" lon="6.75482">
        <ele>1336</ele>
        <time>2022-07-10T07:56:06.000Z</time>
      </trkpt>
      <trkpt lat="44.18803" lon="6.75492">
        <ele>1337</ele>
        <time>2022-07-10T07:56:19.000Z</time>
      </trkpt>
      <trkpt lat="44.18804" lon="6.75494">
        <ele>1337.2</ele>
        <time>2022-07-10T07:56:21.000Z</time>
      </trkpt>
      <trkpt lat="44.18807" lon="6.75497">
        <ele>1337.8</ele>
        <time>2022-07-10T07:56:28.000Z</time>
      </trkpt>
      <trkpt lat="44.18808" lon="6.75498">
        <ele>1338</ele>
        <time>2022-07-10T07:56:29.000Z</time>
      </trkpt>
      <trkpt lat="44.18809" lon="6.75498">
        <ele>1338.4</ele>
        <time>2022-07-10T07:56:31.000Z</time>
      </trkpt>
      <trkpt lat="44.18812" lon="6.75499">
        <ele>1338.4</ele>
        <time>2022-07-10T07:56:34.000Z</time>
      </trkpt>
      <trkpt lat="44.18816" lon="6.75502">
        <ele>1338.8</ele>
        <time>2022-07-10T07:56:38.000Z</time>
      </trkpt>
      <trkpt lat="44.18818" lon="6.75505">
        <ele>1339</ele>
        <time>2022-07-10T07:56:41.000Z</time>
      </trkpt>
      <trkpt lat="44.18826" lon="6.75518">
        <ele>1340.2</ele>
        <time>2022-07-10T07:56:53.000Z</time>
      </trkpt>
      <trkpt lat="44.18836" lon="6.75526">
        <ele>1341.2</ele>
        <time>2022-07-10T07:57:07.000Z</time>
      </trkpt>
      <trkpt lat="44.18838" lon="6.75527">
        <ele>1341.4</ele>
        <time>2022-07-10T07:57:09.000Z</time>
      </trkpt>
      <trkpt lat="44.18849" lon="6.75533">
        <ele>1342.2</ele>
        <time>2022-07-10T07:57:17.000Z</time>
      </trkpt>
      <trkpt lat="44.18849" lon="6.75533">
        <ele>1342.2</ele>
        <time>2022-07-10T07:57:18.000Z</time>
      </trkpt>
      <trkpt lat="44.18852" lon="6.75537">
        <ele>1342.8</ele>
        <time>2022-07-10T07:57:22.000Z</time>
      </trkpt>
      <trkpt lat="44.18855" lon="6.7554">
        <ele>1343.4</ele>
        <time>2022-07-10T07:57:29.000Z</time>
      </trkpt>
      <trkpt lat="44.1886" lon="6.75543">
        <ele>1344</ele>
        <time>2022-07-10T07:57:35.000Z</time>
      </trkpt>
      <trkpt lat="44.18864" lon="6.75547">
        <ele>1344.4</ele>
        <time>2022-07-10T07:57:39.000Z</time>
      </trkpt>
      <trkpt lat="44.18876" lon="6.75555">
        <ele>1345.4</ele>
        <time>2022-07-10T07:57:52.000Z</time>
      </trkpt>
      <trkpt lat="44.1888" lon="6.75557">
        <ele>1345.6</ele>
        <time>2022-07-10T07:57:56.000Z</time>
      </trkpt>
      <trkpt lat="44.18887" lon="6.75562">
        <ele>1346.4</ele>
        <time>2022-07-10T07:58:04.000Z</time>
      </trkpt>
      <trkpt lat="44.18891" lon="6.75566">
        <ele>1346.6</ele>
        <time>2022-07-10T07:58:08.000Z</time>
      </trkpt>
      <trkpt lat="44.18892" lon="6.75564">
        <ele>1346.6</ele>
        <time>2022-07-10T07:58:09.000Z</time>
      </trkpt>
      <trkpt lat="44.18896" lon="6.75564">
        <ele>1347</ele>
        <time>2022-07-10T07:58:13.000Z</time>
      </trkpt>
      <trkpt lat="44.18903" lon="6.75566">
        <ele>1347.6</ele>
        <time>2022-07-10T07:58:19.000Z</time>
      </trkpt>
      <trkpt lat="44.18906" lon="6.75565">
        <ele>1347.8</ele>
        <time>2022-07-10T07:58:21.000Z</time>
      </trkpt>
      <trkpt lat="44.18917" lon="6.75567">
        <ele>1348.4</ele>
        <time>2022-07-10T07:58:28.000Z</time>
      </trkpt>
      <trkpt lat="44.18918" lon="6.75568">
        <ele>1348.6</ele>
        <time>2022-07-10T07:58:30.000Z</time>
      </trkpt>
      <trkpt lat="44.1892" lon="6.75568">
        <ele>1348.8</ele>
        <time>2022-07-10T07:58:33.000Z</time>
      </trkpt>
      <trkpt lat="44.18933" lon="6.75573">
        <ele>1349.6</ele>
        <time>2022-07-10T07:58:45.000Z</time>
      </trkpt>
      <trkpt lat="44.18944" lon="6.75589">
        <ele>1350.4</ele>
        <time>2022-07-10T07:59:02.000Z</time>
      </trkpt>
      <trkpt lat="44.18944" lon="6.75591">
        <ele>1350.6</ele>
        <time>2022-07-10T07:59:04.000Z</time>
      </trkpt>
      <trkpt lat="44.18948" lon="6.75598">
        <ele>1351</ele>
        <time>2022-07-10T07:59:09.000Z</time>
      </trkpt>
      <trkpt lat="44.18943" lon="6.75606">
        <ele>1351.6</ele>
        <time>2022-07-10T07:59:15.000Z</time>
      </trkpt>
      <trkpt lat="44.18941" lon="6.75607">
        <ele>1351.8</ele>
        <time>2022-07-10T07:59:17.000Z</time>
      </trkpt>
      <trkpt lat="44.18935" lon="6.75611">
        <ele>1352.4</ele>
        <time>2022-07-10T07:59:21.000Z</time>
      </trkpt>
      <trkpt lat="44.1893" lon="6.75613">
        <ele>1352.8</ele>
        <time>2022-07-10T07:59:24.000Z</time>
      </trkpt>
      <trkpt lat="44.18913" lon="6.75612">
        <ele>1353.8</ele>
        <time>2022-07-10T07:59:33.000Z</time>
      </trkpt>
      <trkpt lat="44.18902" lon="6.75608">
        <ele>1354.8</ele>
        <time>2022-07-10T07:59:45.000Z</time>
      </trkpt>
      <trkpt lat="44.18899" lon="6.75607">
        <ele>1355</ele>
        <time>2022-07-10T07:59:47.000Z</time>
      </trkpt>
      <trkpt lat="44.18894" lon="6.75603">
        <ele>1355.6</ele>
        <time>2022-07-10T07:59:52.000Z</time>
      </trkpt>
      <trkpt lat="44.18893" lon="6.75601">
        <ele>1356</ele>
        <time>2022-07-10T07:59:54.000Z</time>
      </trkpt>
      <trkpt lat="44.18886" lon="6.75595">
        <ele>1357</ele>
        <time>2022-07-10T08:00:01.000Z</time>
      </trkpt>
      <trkpt lat="44.18884" lon="6.75595">
        <ele>1357.4</ele>
        <time>2022-07-10T08:00:07.000Z</time>
      </trkpt>
      <trkpt lat="44.18884" lon="6.75597">
        <ele>1357.2</ele>
        <time>2022-07-10T08:00:11.000Z</time>
      </trkpt>
      <trkpt lat="44.18884" lon="6.75594">
        <ele>1357.2</ele>
        <time>2022-07-10T08:00:16.000Z</time>
      </trkpt>
      <trkpt lat="44.18884" lon="6.75594">
        <ele>1357</ele>
        <time>2022-07-10T08:00:20.000Z</time>
      </trkpt>
      <trkpt lat="44.18885" lon="6.75592">
        <ele>1356.8</ele>
        <time>2022-07-10T08:00:27.000Z</time>
      </trkpt>
      <trkpt lat="44.18885" lon="6.75589">
        <ele>1356.8</ele>
        <time>2022-07-10T08:00:30.000Z</time>
      </trkpt>
      <trkpt lat="44.18885" lon="6.75588">
        <ele>1357</ele>
        <time>2022-07-10T08:00:36.000Z</time>
      </trkpt>
      <trkpt lat="44.18886" lon="6.75587">
        <ele>1357</ele>
        <time>2022-07-10T08:00:40.000Z</time>
      </trkpt>
      <trkpt lat="44.18886" lon="6.75586">
        <ele>1357.2</ele>
        <time>2022-07-10T08:00:44.000Z</time>
      </trkpt>
      <trkpt lat="44.18884" lon="6.75579">
        <ele>1357.2</ele>
        <time>2022-07-10T08:00:52.000Z</time>
      </trkpt>
      <trkpt lat="44.18885" lon="6.7558">
        <ele>1357.2</ele>
        <time>2022-07-10T08:00:55.000Z</time>
      </trkpt>
      <trkpt lat="44.18885" lon="6.75581">
        <ele>1357.4</ele>
        <time>2022-07-10T08:00:59.000Z</time>
      </trkpt>
      <trkpt lat="44.18884" lon="6.75583">
        <ele>1357.6</ele>
        <time>2022-07-10T08:01:06.000Z</time>
      </trkpt>
      <trkpt lat="44.18885" lon="6.75585">
        <ele>1357.6</ele>
        <time>2022-07-10T08:01:09.000Z</time>
      </trkpt>
      <trkpt lat="44.18884" lon="6.75585">
        <ele>1357.6</ele>
        <time>2022-07-10T08:01:17.000Z</time>
      </trkpt>
      <trkpt lat="44.18884" lon="6.75586">
        <ele>1357.6</ele>
        <time>2022-07-10T08:01:31.000Z</time>
      </trkpt>
      <trkpt lat="44.18887" lon="6.75585">
        <ele>1357.6</ele>
        <time>2022-07-10T08:01:38.000Z</time>
      </trkpt>
      <trkpt lat="44.18884" lon="6.75579">
        <ele>1357.6</ele>
        <time>2022-07-10T08:01:54.000Z</time>
      </trkpt>
      <trkpt lat="44.18883" lon="6.75578">
        <ele>1357.6</ele>
        <time>2022-07-10T08:01:55.000Z</time>
      </trkpt>
      <trkpt lat="44.18881" lon="6.75583">
        <ele>1358</ele>
        <time>2022-07-10T08:01:58.000Z</time>
      </trkpt>
      <trkpt lat="44.18881" lon="6.75583">
        <ele>1358</ele>
        <time>2022-07-10T08:01:59.000Z</time>
      </trkpt>
      <trkpt lat="44.18873" lon="6.75583">
        <ele>1358.8</ele>
        <time>2022-07-10T08:02:12.000Z</time>
      </trkpt>
      <trkpt lat="44.18871" lon="6.75582">
        <ele>1359.2</ele>
        <time>2022-07-10T08:02:14.000Z</time>
      </trkpt>
      <trkpt lat="44.18868" lon="6.75583">
        <ele>1359.4</ele>
        <time>2022-07-10T08:02:17.000Z</time>
      </trkpt>
      <trkpt lat="44.18867" lon="6.75583">
        <ele>1359.4</ele>
        <time>2022-07-10T08:02:19.000Z</time>
      </trkpt>
      <trkpt lat="44.18863" lon="6.75586">
        <ele>1360.2</ele>
        <time>2022-07-10T08:02:25.000Z</time>
      </trkpt>
      <trkpt lat="44.18851" lon="6.75593">
        <ele>1361.2</ele>
        <time>2022-07-10T08:02:39.000Z</time>
      </trkpt>
      <trkpt lat="44.18843" lon="6.75602">
        <ele>1362.4</ele>
        <time>2022-07-10T08:02:52.000Z</time>
      </trkpt>
      <trkpt lat="44.18837" lon="6.75605">
        <ele>1363</ele>
        <time>2022-07-10T08:02:59.000Z</time>
      </trkpt>
      <trkpt lat="44.18836" lon="6.75606">
        <ele>1363.2</ele>
        <time>2022-07-10T08:03:01.000Z</time>
      </trkpt>
      <trkpt lat="44.18831" lon="6.75606">
        <ele>1363.4</ele>
        <time>2022-07-10T08:03:07.000Z</time>
      </trkpt>
      <trkpt lat="44.18821" lon="6.75606">
        <ele>1364</ele>
        <time>2022-07-10T08:03:15.000Z</time>
      </trkpt>
      <trkpt lat="44.18815" lon="6.75608">
        <ele>1364.4</ele>
        <time>2022-07-10T08:03:19.000Z</time>
      </trkpt>
      <trkpt lat="44.18809" lon="6.75606">
        <ele>1364.6</ele>
        <time>2022-07-10T08:03:26.000Z</time>
      </trkpt>
      <trkpt lat="44.18804" lon="6.75605">
        <ele>1365</ele>
        <time>2022-07-10T08:03:29.000Z</time>
      </trkpt>
      <trkpt lat="44.18798" lon="6.756">
        <ele>1365.4</ele>
        <time>2022-07-10T08:03:34.000Z</time>
      </trkpt>
      <trkpt lat="44.18793" lon="6.75592">
        <ele>1365.8</ele>
        <time>2022-07-10T08:03:39.000Z</time>
      </trkpt>
      <trkpt lat="44.1878" lon="6.75582">
        <ele>1366.4</ele>
        <time>2022-07-10T08:03:48.000Z</time>
      </trkpt>
      <trkpt lat="44.18777" lon="6.75581">
        <ele>1366.8</ele>
        <time>2022-07-10T08:03:51.000Z</time>
      </trkpt>
      <trkpt lat="44.18773" lon="6.75578">
        <ele>1367.4</ele>
        <time>2022-07-10T08:03:56.000Z</time>
      </trkpt>
      <trkpt lat="44.18767" lon="6.7557">
        <ele>1368.6</ele>
        <time>2022-07-10T08:04:09.000Z</time>
      </trkpt>
      <trkpt lat="44.18767" lon="6.75568">
        <ele>1368.8</ele>
        <time>2022-07-10T08:04:10.000Z</time>
      </trkpt>
      <trkpt lat="44.18767" lon="6.7556">
        <ele>1369.6</ele>
        <time>2022-07-10T08:04:16.000Z</time>
      </trkpt>
      <trkpt lat="44.18753" lon="6.7555">
        <ele>1370.4</ele>
        <time>2022-07-10T08:04:24.000Z</time>
      </trkpt>
      <trkpt lat="44.18748" lon="6.75548">
        <ele>1370.8</ele>
        <time>2022-07-10T08:04:27.000Z</time>
      </trkpt>
      <trkpt lat="44.18745" lon="6.75537">
        <ele>1372</ele>
        <time>2022-07-10T08:04:34.000Z</time>
      </trkpt>
      <trkpt lat="44.18741" lon="6.75534">
        <ele>1372.4</ele>
        <time>2022-07-10T08:04:38.000Z</time>
      </trkpt>
      <trkpt lat="44.18731" lon="6.75525">
        <ele>1373</ele>
        <time>2022-07-10T08:04:49.000Z</time>
      </trkpt>
      <trkpt lat="44.18729" lon="6.75525">
        <ele>1373.4</ele>
        <time>2022-07-10T08:04:51.000Z</time>
      </trkpt>
      <trkpt lat="44.18723" lon="6.75526">
        <ele>1374</ele>
        <time>2022-07-10T08:04:57.000Z</time>
      </trkpt>
      <trkpt lat="44.18721" lon="6.75528">
        <ele>1374.2</ele>
        <time>2022-07-10T08:05:00.000Z</time>
      </trkpt>
      <trkpt lat="44.18714" lon="6.75531">
        <ele>1375</ele>
        <time>2022-07-10T08:05:07.000Z</time>
      </trkpt>
      <trkpt lat="44.1871" lon="6.75531">
        <ele>1375.6</ele>
        <time>2022-07-10T08:05:10.000Z</time>
      </trkpt>
      <trkpt lat="44.18706" lon="6.75533">
        <ele>1376.2</ele>
        <time>2022-07-10T08:05:14.000Z</time>
      </trkpt>
      <trkpt lat="44.187" lon="6.75535">
        <ele>1377.2</ele>
        <time>2022-07-10T08:05:21.000Z</time>
      </trkpt>
      <trkpt lat="44.1869" lon="6.75542">
        <ele>1378</ele>
        <time>2022-07-10T08:05:28.000Z</time>
      </trkpt>
      <trkpt lat="44.18686" lon="6.75544">
        <ele>1378</ele>
        <time>2022-07-10T08:05:30.000Z</time>
      </trkpt>
      <trkpt lat="44.18683" lon="6.75546">
        <ele>1378.2</ele>
        <time>2022-07-10T08:05:33.000Z</time>
      </trkpt>
      <trkpt lat="44.18674" lon="6.75555">
        <ele>1379.4</ele>
        <time>2022-07-10T08:05:42.000Z</time>
      </trkpt>
      <trkpt lat="44.18666" lon="6.75566">
        <ele>1380.4</ele>
        <time>2022-07-10T08:05:50.000Z</time>
      </trkpt>
      <trkpt lat="44.18657" lon="6.75572">
        <ele>1381.4</ele>
        <time>2022-07-10T08:05:58.000Z</time>
      </trkpt>
      <trkpt lat="44.18656" lon="6.75574">
        <ele>1381.4</ele>
        <time>2022-07-10T08:06:00.000Z</time>
      </trkpt>
      <trkpt lat="44.18655" lon="6.75575">
        <ele>1381.6</ele>
        <time>2022-07-10T08:06:02.000Z</time>
      </trkpt>
      <trkpt lat="44.18648" lon="6.75583">
        <ele>1382.6</ele>
        <time>2022-07-10T08:06:09.000Z</time>
      </trkpt>
      <trkpt lat="44.18638" lon="6.75582">
        <ele>1383.8</ele>
        <time>2022-07-10T08:06:16.000Z</time>
      </trkpt>
      <trkpt lat="44.18627" lon="6.75583">
        <ele>1384.6</ele>
        <time>2022-07-10T08:06:23.000Z</time>
      </trkpt>
      <trkpt lat="44.18626" lon="6.75583">
        <ele>1384.8</ele>
        <time>2022-07-10T08:06:24.000Z</time>
      </trkpt>
      <trkpt lat="44.18611" lon="6.75586">
        <ele>1385.8</ele>
        <time>2022-07-10T08:06:35.000Z</time>
      </trkpt>
      <trkpt lat="44.18601" lon="6.75586">
        <ele>1387</ele>
        <time>2022-07-10T08:06:42.000Z</time>
      </trkpt>
      <trkpt lat="44.18596" lon="6.75588">
        <ele>1388</ele>
        <time>2022-07-10T08:06:47.000Z</time>
      </trkpt>
      <trkpt lat="44.18594" lon="6.7559">
        <ele>1388.4</ele>
        <time>2022-07-10T08:06:49.000Z</time>
      </trkpt>
      <trkpt lat="44.18592" lon="6.75598">
        <ele>1389</ele>
        <time>2022-07-10T08:06:53.000Z</time>
      </trkpt>
      <trkpt lat="44.18592" lon="6.75599">
        <ele>1389.2</ele>
        <time>2022-07-10T08:06:54.000Z</time>
      </trkpt>
      <trkpt lat="44.18593" lon="6.75602">
        <ele>1389.2</ele>
        <time>2022-07-10T08:06:56.000Z</time>
      </trkpt>
      <trkpt lat="44.18594" lon="6.75602">
        <ele>1389.4</ele>
        <time>2022-07-10T08:07:02.000Z</time>
      </trkpt>
      <trkpt lat="44.18593" lon="6.75602">
        <ele>1389.6</ele>
        <time>2022-07-10T08:07:05.000Z</time>
      </trkpt>
      <trkpt lat="44.18591" lon="6.75602">
        <ele>1389.4</ele>
        <time>2022-07-10T08:07:08.000Z</time>
      </trkpt>
      <trkpt lat="44.18591" lon="6.75602">
        <ele>1389.4</ele>
        <time>2022-07-10T08:07:10.000Z</time>
      </trkpt>
      <trkpt lat="44.1859" lon="6.75603">
        <ele>1389.4</ele>
        <time>2022-07-10T08:07:13.000Z</time>
      </trkpt>
      <trkpt lat="44.18595" lon="6.75609">
        <ele>1389.4</ele>
        <time>2022-07-10T08:07:16.000Z</time>
      </trkpt>
      <trkpt lat="44.18597" lon="6.7561">
        <ele>1389.4</ele>
        <time>2022-07-10T08:07:22.000Z</time>
      </trkpt>
      <trkpt lat="44.18597" lon="6.75609">
        <ele>1389.4</ele>
        <time>2022-07-10T08:07:24.000Z</time>
      </trkpt>
      <trkpt lat="44.18596" lon="6.75609">
        <ele>1389.4</ele>
        <time>2022-07-10T08:07:28.000Z</time>
      </trkpt>
      <trkpt lat="44.18598" lon="6.75612">
        <ele>1389</ele>
        <time>2022-07-10T08:07:34.000Z</time>
      </trkpt>
      <trkpt lat="44.18597" lon="6.75612">
        <ele>1389</ele>
        <time>2022-07-10T08:07:36.000Z</time>
      </trkpt>
      <trkpt lat="44.18593" lon="6.75602">
        <ele>1389.2</ele>
        <time>2022-07-10T08:07:44.000Z</time>
      </trkpt>
      <trkpt lat="44.18592" lon="6.75602">
        <ele>1389.2</ele>
        <time>2022-07-10T08:07:59.000Z</time>
      </trkpt>
      <trkpt lat="44.18594" lon="6.75602">
        <ele>1389</ele>
        <time>2022-07-10T08:08:09.000Z</time>
      </trkpt>
      <trkpt lat="44.18591" lon="6.75597">
        <ele>1389.2</ele>
        <time>2022-07-10T08:08:36.000Z</time>
      </trkpt>
      <trkpt lat="44.1859" lon="6.75598">
        <ele>1389.4</ele>
        <time>2022-07-10T08:08:42.000Z</time>
      </trkpt>
      <trkpt lat="44.18594" lon="6.75601">
        <ele>1389.4</ele>
        <time>2022-07-10T08:08:56.000Z</time>
      </trkpt>
      <trkpt lat="44.18594" lon="6.75601">
        <ele>1389.6</ele>
        <time>2022-07-10T08:08:58.000Z</time>
      </trkpt>
      <trkpt lat="44.18597" lon="6.75601">
        <ele>1389.6</ele>
        <time>2022-07-10T08:09:01.000Z</time>
      </trkpt>
      <trkpt lat="44.18604" lon="6.75603">
        <ele>1389.6</ele>
        <time>2022-07-10T08:09:05.000Z</time>
      </trkpt>
      <trkpt lat="44.18611" lon="6.75602">
        <ele>1390.2</ele>
        <time>2022-07-10T08:09:11.000Z</time>
      </trkpt>
      <trkpt lat="44.18621" lon="6.75608">
        <ele>1391</ele>
        <time>2022-07-10T08:09:21.000Z</time>
      </trkpt>
      <trkpt lat="44.18623" lon="6.75609">
        <ele>1391.2</ele>
        <time>2022-07-10T08:09:22.000Z</time>
      </trkpt>
      <trkpt lat="44.18624" lon="6.7561">
        <ele>1391.4</ele>
        <time>2022-07-10T08:09:23.000Z</time>
      </trkpt>
      <trkpt lat="44.18629" lon="6.75614">
        <ele>1391.6</ele>
        <time>2022-07-10T08:09:27.000Z</time>
      </trkpt>
      <trkpt lat="44.18636" lon="6.7562">
        <ele>1392.2</ele>
        <time>2022-07-10T08:09:35.000Z</time>
      </trkpt>
      <trkpt lat="44.18645" lon="6.75626">
        <ele>1393.2</ele>
        <time>2022-07-10T08:09:43.000Z</time>
      </trkpt>
      <trkpt lat="44.18648" lon="6.75627">
        <ele>1393.6</ele>
        <time>2022-07-10T08:09:47.000Z</time>
      </trkpt>
      <trkpt lat="44.18662" lon="6.7563">
        <ele>1394.4</ele>
        <time>2022-07-10T08:09:57.000Z</time>
      </trkpt>
      <trkpt lat="44.1867" lon="6.75633">
        <ele>1395.4</ele>
        <time>2022-07-10T08:10:04.000Z</time>
      </trkpt>
      <trkpt lat="44.1868" lon="6.75635">
        <ele>1396.2</ele>
        <time>2022-07-10T08:10:14.000Z</time>
      </trkpt>
      <trkpt lat="44.18683" lon="6.75634">
        <ele>1396.4</ele>
        <time>2022-07-10T08:10:17.000Z</time>
      </trkpt>
      <trkpt lat="44.18692" lon="6.75636">
        <ele>1397.2</ele>
        <time>2022-07-10T08:10:23.000Z</time>
      </trkpt>
      <trkpt lat="44.18694" lon="6.75635">
        <ele>1397.6</ele>
        <time>2022-07-10T08:10:25.000Z</time>
      </trkpt>
      <trkpt lat="44.187" lon="6.75637">
        <ele>1398.6</ele>
        <time>2022-07-10T08:10:33.000Z</time>
      </trkpt>
      <trkpt lat="44.18704" lon="6.75638">
        <ele>1399</ele>
        <time>2022-07-10T08:10:36.000Z</time>
      </trkpt>
      <trkpt lat="44.18709" lon="6.75638">
        <ele>1399.8</ele>
        <time>2022-07-10T08:10:40.000Z</time>
      </trkpt>
      <trkpt lat="44.18721" lon="6.75636">
        <ele>1400.6</ele>
        <time>2022-07-10T08:10:47.000Z</time>
      </trkpt>
      <trkpt lat="44.18722" lon="6.75636">
        <ele>1400.8</ele>
        <time>2022-07-10T08:10:48.000Z</time>
      </trkpt>
      <trkpt lat="44.18723" lon="6.75636">
        <ele>1401</ele>
        <time>2022-07-10T08:10:49.000Z</time>
      </trkpt>
      <trkpt lat="44.18729" lon="6.75635">
        <ele>1401.8</ele>
        <time>2022-07-10T08:10:56.000Z</time>
      </trkpt>
      <trkpt lat="44.18731" lon="6.75636">
        <ele>1402</ele>
        <time>2022-07-10T08:10:57.000Z</time>
      </trkpt>
      <trkpt lat="44.18735" lon="6.75638">
        <ele>1402.4</ele>
        <time>2022-07-10T08:11:00.000Z</time>
      </trkpt>
      <trkpt lat="44.18741" lon="6.75639">
        <ele>1403</ele>
        <time>2022-07-10T08:11:04.000Z</time>
      </trkpt>
      <trkpt lat="44.18749" lon="6.75642">
        <ele>1404.2</ele>
        <time>2022-07-10T08:11:12.000Z</time>
      </trkpt>
      <trkpt lat="44.18752" lon="6.75648">
        <ele>1404.8</ele>
        <time>2022-07-10T08:11:17.000Z</time>
      </trkpt>
      <trkpt lat="44.18752" lon="6.75654">
        <ele>1405.2</ele>
        <time>2022-07-10T08:11:21.000Z</time>
      </trkpt>
      <trkpt lat="44.18749" lon="6.75664">
        <ele>1405.8</ele>
        <time>2022-07-10T08:11:28.000Z</time>
      </trkpt>
      <trkpt lat="44.18748" lon="6.75666">
        <ele>1405.8</ele>
        <time>2022-07-10T08:11:30.000Z</time>
      </trkpt>
      <trkpt lat="44.18744" lon="6.75669">
        <ele>1406.2</ele>
        <time>2022-07-10T08:11:34.000Z</time>
      </trkpt>
      <trkpt lat="44.18743" lon="6.75669">
        <ele>1406.2</ele>
        <time>2022-07-10T08:11:35.000Z</time>
      </trkpt>
      <trkpt lat="44.18742" lon="6.75669">
        <ele>1406.4</ele>
        <time>2022-07-10T08:11:36.000Z</time>
      </trkpt>
      <trkpt lat="44.18738" lon="6.75668">
        <ele>1406.6</ele>
        <time>2022-07-10T08:11:40.000Z</time>
      </trkpt>
      <trkpt lat="44.18735" lon="6.75669">
        <ele>1406.8</ele>
        <time>2022-07-10T08:11:42.000Z</time>
      </trkpt>
      <trkpt lat="44.18734" lon="6.7567">
        <ele>1407</ele>
        <time>2022-07-10T08:11:43.000Z</time>
      </trkpt>
      <trkpt lat="44.18731" lon="6.75671">
        <ele>1407.4</ele>
        <time>2022-07-10T08:11:48.000Z</time>
      </trkpt>
      <trkpt lat="44.18734" lon="6.75673">
        <ele>1407.4</ele>
        <time>2022-07-10T08:11:59.000Z</time>
      </trkpt>
      <trkpt lat="44.18733" lon="6.75674">
        <ele>1407.4</ele>
        <time>2022-07-10T08:12:02.000Z</time>
      </trkpt>
      <trkpt lat="44.18733" lon="6.75674">
        <ele>1407.2</ele>
        <time>2022-07-10T08:12:05.000Z</time>
      </trkpt>
      <trkpt lat="44.18733" lon="6.75674">
        <ele>1407.2</ele>
        <time>2022-07-10T08:12:08.000Z</time>
      </trkpt>
      <trkpt lat="44.18733" lon="6.75673">
        <ele>1407.2</ele>
        <time>2022-07-10T08:12:10.000Z</time>
      </trkpt>
      <trkpt lat="44.18733" lon="6.75673">
        <ele>1407.2</ele>
        <time>2022-07-10T08:12:12.000Z</time>
      </trkpt>
      <trkpt lat="44.1873" lon="6.7567">
        <ele>1407.8</ele>
        <time>2022-07-10T08:12:28.000Z</time>
      </trkpt>
      <trkpt lat="44.1873" lon="6.7567">
        <ele>1407.6</ele>
        <time>2022-07-10T08:12:32.000Z</time>
      </trkpt>
      <trkpt lat="44.1873" lon="6.75671">
        <ele>1407.6</ele>
        <time>2022-07-10T08:12:37.000Z</time>
      </trkpt>
      <trkpt lat="44.18731" lon="6.75671">
        <ele>1407.8</ele>
        <time>2022-07-10T08:12:44.000Z</time>
      </trkpt>
      <trkpt lat="44.1873" lon="6.75671">
        <ele>1408</ele>
        <time>2022-07-10T08:12:51.000Z</time>
      </trkpt>
      <trkpt lat="44.1873" lon="6.75671">
        <ele>1408</ele>
        <time>2022-07-10T08:12:53.000Z</time>
      </trkpt>
      <trkpt lat="44.18727" lon="6.75674">
        <ele>1407.8</ele>
        <time>2022-07-10T08:12:58.000Z</time>
      </trkpt>
      <trkpt lat="44.18726" lon="6.75675">
        <ele>1407.8</ele>
        <time>2022-07-10T08:13:00.000Z</time>
      </trkpt>
      <trkpt lat="44.18725" lon="6.75678">
        <ele>1407.8</ele>
        <time>2022-07-10T08:13:02.000Z</time>
      </trkpt>
      <trkpt lat="44.18722" lon="6.75685">
        <ele>1408.4</ele>
        <time>2022-07-10T08:13:06.000Z</time>
      </trkpt>
      <trkpt lat="44.18712" lon="6.75695">
        <ele>1409</ele>
        <time>2022-07-10T08:13:16.000Z</time>
      </trkpt>
      <trkpt lat="44.1871" lon="6.75698">
        <ele>1409.2</ele>
        <time>2022-07-10T08:13:18.000Z</time>
      </trkpt>
      <trkpt lat="44.18708" lon="6.757">
        <ele>1409.6</ele>
        <time>2022-07-10T08:13:20.000Z</time>
      </trkpt>
      <trkpt lat="44.18705" lon="6.75704">
        <ele>1409.8</ele>
        <time>2022-07-10T08:13:24.000Z</time>
      </trkpt>
      <trkpt lat="44.18698" lon="6.75707">
        <ele>1410</ele>
        <time>2022-07-10T08:13:30.000Z</time>
      </trkpt>
      <trkpt lat="44.18691" lon="6.75712">
        <ele>1410.6</ele>
        <time>2022-07-10T08:13:36.000Z</time>
      </trkpt>
      <trkpt lat="44.18681" lon="6.75724">
        <ele>1411.6</ele>
        <time>2022-07-10T08:13:48.000Z</time>
      </trkpt>
      <trkpt lat="44.1868" lon="6.75725">
        <ele>1411.6</ele>
        <time>2022-07-10T08:13:49.000Z</time>
      </trkpt>
      <trkpt lat="44.18665" lon="6.75734">
        <ele>1412.8</ele>
        <time>2022-07-10T08:14:00.000Z</time>
      </trkpt>
      <trkpt lat="44.18655" lon="6.75746">
        <ele>1413.4</ele>
        <time>2022-07-10T08:14:09.000Z</time>
      </trkpt>
      <trkpt lat="44.18645" lon="6.75747">
        <ele>1413.8</ele>
        <time>2022-07-10T08:14:15.000Z</time>
      </trkpt>
      <trkpt lat="44.18632" lon="6.75754">
        <ele>1414.8</ele>
        <time>2022-07-10T08:14:28.000Z</time>
      </trkpt>
      <trkpt lat="44.18603" lon="6.75772">
        <ele>1415.8</ele>
        <time>2022-07-10T08:14:47.000Z</time>
      </trkpt>
      <trkpt lat="44.18587" lon="6.75776">
        <ele>1416.4</ele>
        <time>2022-07-10T08:14:57.000Z</time>
      </trkpt>
      <trkpt lat="44.18586" lon="6.75779">
        <ele>1416.6</ele>
        <time>2022-07-10T08:14:59.000Z</time>
      </trkpt>
      <trkpt lat="44.18587" lon="6.75782">
        <ele>1416.6</ele>
        <time>2022-07-10T08:15:01.000Z</time>
      </trkpt>
      <trkpt lat="44.18589" lon="6.75785">
        <ele>1416.6</ele>
        <time>2022-07-10T08:15:03.000Z</time>
      </trkpt>
      <trkpt lat="44.18591" lon="6.75788">
        <ele>1416.8</ele>
        <time>2022-07-10T08:15:05.000Z</time>
      </trkpt>
      <trkpt lat="44.18601" lon="6.75789">
        <ele>1418</ele>
        <time>2022-07-10T08:15:13.000Z</time>
      </trkpt>
      <trkpt lat="44.18614" lon="6.75784">
        <ele>1419</ele>
        <time>2022-07-10T08:15:23.000Z</time>
      </trkpt>
      <trkpt lat="44.18621" lon="6.75781">
        <ele>1419.8</ele>
        <time>2022-07-10T08:15:30.000Z</time>
      </trkpt>
      <trkpt lat="44.18626" lon="6.75779">
        <ele>1420</ele>
        <time>2022-07-10T08:15:34.000Z</time>
      </trkpt>
      <trkpt lat="44.18633" lon="6.75778">
        <ele>1420.8</ele>
        <time>2022-07-10T08:15:39.000Z</time>
      </trkpt>
      <trkpt lat="44.18637" lon="6.75774">
        <ele>1421</ele>
        <time>2022-07-10T08:15:42.000Z</time>
      </trkpt>
      <trkpt lat="44.18648" lon="6.75765">
        <ele>1422</ele>
        <time>2022-07-10T08:15:52.000Z</time>
      </trkpt>
      <trkpt lat="44.18656" lon="6.75766">
        <ele>1422.8</ele>
        <time>2022-07-10T08:15:58.000Z</time>
      </trkpt>
      <trkpt lat="44.18658" lon="6.75765">
        <ele>1423</ele>
        <time>2022-07-10T08:16:00.000Z</time>
      </trkpt>
      <trkpt lat="44.18669" lon="6.75763">
        <ele>1423.6</ele>
        <time>2022-07-10T08:16:09.000Z</time>
      </trkpt>
      <trkpt lat="44.18673" lon="6.75763">
        <ele>1423.8</ele>
        <time>2022-07-10T08:16:12.000Z</time>
      </trkpt>
      <trkpt lat="44.18678" lon="6.75759">
        <ele>1424.2</ele>
        <time>2022-07-10T08:16:15.000Z</time>
      </trkpt>
      <trkpt lat="44.18699" lon="6.7575">
        <ele>1425.2</ele>
        <time>2022-07-10T08:16:28.000Z</time>
      </trkpt>
      <trkpt lat="44.18719" lon="6.75743">
        <ele>1425.6</ele>
        <time>2022-07-10T08:16:40.000Z</time>
      </trkpt>
      <trkpt lat="44.18731" lon="6.75734">
        <ele>1426.2</ele>
        <time>2022-07-10T08:16:49.000Z</time>
      </trkpt>
      <trkpt lat="44.18741" lon="6.75728">
        <ele>1427.2</ele>
        <time>2022-07-10T08:16:57.000Z</time>
      </trkpt>
      <trkpt lat="44.18758" lon="6.75726">
        <ele>1428.4</ele>
        <time>2022-07-10T08:17:08.000Z</time>
      </trkpt>
      <trkpt lat="44.1876" lon="6.7574">
        <ele>1429.2</ele>
        <time>2022-07-10T08:17:15.000Z</time>
      </trkpt>
      <trkpt lat="44.18759" lon="6.75743">
        <ele>1429.4</ele>
        <time>2022-07-10T08:17:17.000Z</time>
      </trkpt>
      <trkpt lat="44.18753" lon="6.75747">
        <ele>1430.4</ele>
        <time>2022-07-10T08:17:22.000Z</time>
      </trkpt>
      <trkpt lat="44.18752" lon="6.75747">
        <ele>1430.6</ele>
        <time>2022-07-10T08:17:23.000Z</time>
      </trkpt>
      <trkpt lat="44.18744" lon="6.75748">
        <ele>1431.2</ele>
        <time>2022-07-10T08:17:42.000Z</time>
      </trkpt>
      <trkpt lat="44.18742" lon="6.75749">
        <ele>1431.2</ele>
        <time>2022-07-10T08:17:46.000Z</time>
      </trkpt>
      <trkpt lat="44.18744" lon="6.7575">
        <ele>1431</ele>
        <time>2022-07-10T08:17:51.000Z</time>
      </trkpt>
      <trkpt lat="44.18745" lon="6.7575">
        <ele>1431</ele>
        <time>2022-07-10T08:17:53.000Z</time>
      </trkpt>
      <trkpt lat="44.18744" lon="6.75751">
        <ele>1431</ele>
        <time>2022-07-10T08:17:56.000Z</time>
      </trkpt>
      <trkpt lat="44.18744" lon="6.75751">
        <ele>1431.2</ele>
        <time>2022-07-10T08:18:00.000Z</time>
      </trkpt>
      <trkpt lat="44.18744" lon="6.75752">
        <ele>1431.2</ele>
        <time>2022-07-10T08:18:03.000Z</time>
      </trkpt>
      <trkpt lat="44.18744" lon="6.75753">
        <ele>1431.4</ele>
        <time>2022-07-10T08:18:12.000Z</time>
      </trkpt>
      <trkpt lat="44.18744" lon="6.75753">
        <ele>1431.4</ele>
        <time>2022-07-10T08:18:17.000Z</time>
      </trkpt>
      <trkpt lat="44.18744" lon="6.75753">
        <ele>1431.4</ele>
        <time>2022-07-10T08:18:20.000Z</time>
      </trkpt>
      <trkpt lat="44.18743" lon="6.75753">
        <ele>1431.4</ele>
        <time>2022-07-10T08:18:29.000Z</time>
      </trkpt>
      <trkpt lat="44.18742" lon="6.75752">
        <ele>1431.6</ele>
        <time>2022-07-10T08:18:36.000Z</time>
      </trkpt>
      <trkpt lat="44.18744" lon="6.7575">
        <ele>1431.6</ele>
        <time>2022-07-10T08:18:49.000Z</time>
      </trkpt>
      <trkpt lat="44.18744" lon="6.75751">
        <ele>1431.6</ele>
        <time>2022-07-10T08:18:56.000Z</time>
      </trkpt>
      <trkpt lat="44.18743" lon="6.7575">
        <ele>1431.6</ele>
        <time>2022-07-10T08:19:12.000Z</time>
      </trkpt>
      <trkpt lat="44.18735" lon="6.75746">
        <ele>1431.6</ele>
        <time>2022-07-10T08:19:36.000Z</time>
      </trkpt>
      <trkpt lat="44.18734" lon="6.75749">
        <ele>1431.6</ele>
        <time>2022-07-10T08:19:46.000Z</time>
      </trkpt>
      <trkpt lat="44.18733" lon="6.7575">
        <ele>1431.6</ele>
        <time>2022-07-10T08:19:50.000Z</time>
      </trkpt>
      <trkpt lat="44.18734" lon="6.75753">
        <ele>1431.6</ele>
        <time>2022-07-10T08:20:05.000Z</time>
      </trkpt>
      <trkpt lat="44.18733" lon="6.75754">
        <ele>1431.6</ele>
        <time>2022-07-10T08:20:08.000Z</time>
      </trkpt>
      <trkpt lat="44.18731" lon="6.75753">
        <ele>1431.6</ele>
        <time>2022-07-10T08:20:13.000Z</time>
      </trkpt>
      <trkpt lat="44.1874" lon="6.75746">
        <ele>1431.6</ele>
        <time>2022-07-10T08:20:50.000Z</time>
      </trkpt>
      <trkpt lat="44.18738" lon="6.75747">
        <ele>1431.6</ele>
        <time>2022-07-10T08:21:01.000Z</time>
      </trkpt>
      <trkpt lat="44.18737" lon="6.75749">
        <ele>1431.8</ele>
        <time>2022-07-10T08:21:03.000Z</time>
      </trkpt>
      <trkpt lat="44.18737" lon="6.7575">
        <ele>1431.8</ele>
        <time>2022-07-10T08:21:04.000Z</time>
      </trkpt>
      <trkpt lat="44.18735" lon="6.75755">
        <ele>1432.4</ele>
        <time>2022-07-10T08:21:07.000Z</time>
      </trkpt>
      <trkpt lat="44.18734" lon="6.75757">
        <ele>1432.2</ele>
        <time>2022-07-10T08:21:09.000Z</time>
      </trkpt>
      <trkpt lat="44.18731" lon="6.75759">
        <ele>1432.6</ele>
        <time>2022-07-10T08:21:12.000Z</time>
      </trkpt>
      <trkpt lat="44.18724" lon="6.75764">
        <ele>1433.4</ele>
        <time>2022-07-10T08:21:21.000Z</time>
      </trkpt>
      <trkpt lat="44.18721" lon="6.75766">
        <ele>1433.6</ele>
        <time>2022-07-10T08:21:24.000Z</time>
      </trkpt>
      <trkpt lat="44.1872" lon="6.75767">
        <ele>1433.8</ele>
        <time>2022-07-10T08:21:25.000Z</time>
      </trkpt>
      <trkpt lat="44.18718" lon="6.75769">
        <ele>1434</ele>
        <time>2022-07-10T08:21:27.000Z</time>
      </trkpt>
      <trkpt lat="44.18715" lon="6.7577">
        <ele>1434.4</ele>
        <time>2022-07-10T08:21:30.000Z</time>
      </trkpt>
      <trkpt lat="44.18712" lon="6.75772">
        <ele>1434.8</ele>
        <time>2022-07-10T08:21:34.000Z</time>
      </trkpt>
      <trkpt lat="44.18703" lon="6.75775">
        <ele>1435.8</ele>
        <time>2022-07-10T08:21:43.000Z</time>
      </trkpt>
      <trkpt lat="44.18702" lon="6.75776">
        <ele>1436</ele>
        <time>2022-07-10T08:21:45.000Z</time>
      </trkpt>
      <trkpt lat="44.18693" lon="6.75783">
        <ele>1437</ele>
        <time>2022-07-10T08:21:53.000Z</time>
      </trkpt>
      <trkpt lat="44.18678" lon="6.75797">
        <ele>1438</ele>
        <time>2022-07-10T08:22:06.000Z</time>
      </trkpt>
      <trkpt lat="44.18675" lon="6.75798">
        <ele>1438.2</ele>
        <time>2022-07-10T08:22:09.000Z</time>
      </trkpt>
      <trkpt lat="44.18673" lon="6.75799">
        <ele>1438.4</ele>
        <time>2022-07-10T08:22:11.000Z</time>
      </trkpt>
      <trkpt lat="44.1867" lon="6.758">
        <ele>1438.6</ele>
        <time>2022-07-10T08:22:13.000Z</time>
      </trkpt>
      <trkpt lat="44.18668" lon="6.75802">
        <ele>1438.8</ele>
        <time>2022-07-10T08:22:15.000Z</time>
      </trkpt>
      <trkpt lat="44.18668" lon="6.75803">
        <ele>1439</ele>
        <time>2022-07-10T08:22:16.000Z</time>
      </trkpt>
      <trkpt lat="44.18658" lon="6.75813">
        <ele>1440</ele>
        <time>2022-07-10T08:22:26.000Z</time>
      </trkpt>
      <trkpt lat="44.18647" lon="6.75825">
        <ele>1440.6</ele>
        <time>2022-07-10T08:22:39.000Z</time>
      </trkpt>
      <trkpt lat="44.1864" lon="6.75828">
        <ele>1440.8</ele>
        <time>2022-07-10T08:22:45.000Z</time>
      </trkpt>
      <trkpt lat="44.18631" lon="6.75833">
        <ele>1441.2</ele>
        <time>2022-07-10T08:22:52.000Z</time>
      </trkpt>
      <trkpt lat="44.18626" lon="6.7584">
        <ele>1442</ele>
        <time>2022-07-10T08:22:57.000Z</time>
      </trkpt>
      <trkpt lat="44.1862" lon="6.75846">
        <ele>1442.2</ele>
        <time>2022-07-10T08:23:02.000Z</time>
      </trkpt>
      <trkpt lat="44.18608" lon="6.75857">
        <ele>1443.4</ele>
        <time>2022-07-10T08:23:11.000Z</time>
      </trkpt>
      <trkpt lat="44.18599" lon="6.75864">
        <ele>1444</ele>
        <time>2022-07-10T08:23:19.000Z</time>
      </trkpt>
      <trkpt lat="44.18597" lon="6.75865">
        <ele>1444.6</ele>
        <time>2022-07-10T08:23:21.000Z</time>
      </trkpt>
      <trkpt lat="44.18593" lon="6.75867">
        <ele>1445.4</ele>
        <time>2022-07-10T08:23:25.000Z</time>
      </trkpt>
      <trkpt lat="44.18591" lon="6.75868">
        <ele>1445.8</ele>
        <time>2022-07-10T08:23:27.000Z</time>
      </trkpt>
      <trkpt lat="44.18587" lon="6.7587">
        <ele>1446.2</ele>
        <time>2022-07-10T08:23:31.000Z</time>
      </trkpt>
      <trkpt lat="44.1858" lon="6.75871">
        <ele>1446.8</ele>
        <time>2022-07-10T08:23:35.000Z</time>
      </trkpt>
      <trkpt lat="44.18573" lon="6.75872">
        <ele>1447.4</ele>
        <time>2022-07-10T08:23:40.000Z</time>
      </trkpt>
      <trkpt lat="44.18566" lon="6.75869">
        <ele>1448</ele>
        <time>2022-07-10T08:23:45.000Z</time>
      </trkpt>
      <trkpt lat="44.18565" lon="6.75869">
        <ele>1448.2</ele>
        <time>2022-07-10T08:23:46.000Z</time>
      </trkpt>
      <trkpt lat="44.18561" lon="6.75872">
        <ele>1448.6</ele>
        <time>2022-07-10T08:23:50.000Z</time>
      </trkpt>
      <trkpt lat="44.1856" lon="6.75878">
        <ele>1449</ele>
        <time>2022-07-10T08:23:54.000Z</time>
      </trkpt>
      <trkpt lat="44.1856" lon="6.75879">
        <ele>1449.2</ele>
        <time>2022-07-10T08:23:55.000Z</time>
      </trkpt>
      <trkpt lat="44.18562" lon="6.75881">
        <ele>1449.4</ele>
        <time>2022-07-10T08:23:57.000Z</time>
      </trkpt>
      <trkpt lat="44.18571" lon="6.7588">
        <ele>1450</ele>
        <time>2022-07-10T08:24:06.000Z</time>
      </trkpt>
      <trkpt lat="44.18571" lon="6.7588">
        <ele>1450.2</ele>
        <time>2022-07-10T08:24:07.000Z</time>
      </trkpt>
      <trkpt lat="44.18571" lon="6.7588">
        <ele>1450.2</ele>
        <time>2022-07-10T08:24:15.000Z</time>
      </trkpt>
      <trkpt lat="44.18572" lon="6.75878">
        <ele>1450.2</ele>
        <time>2022-07-10T08:24:19.000Z</time>
      </trkpt>
      <trkpt lat="44.18572" lon="6.75877">
        <ele>1450.2</ele>
        <time>2022-07-10T08:24:23.000Z</time>
      </trkpt>
      <trkpt lat="44.18572" lon="6.75877">
        <ele>1450.2</ele>
        <time>2022-07-10T08:24:25.000Z</time>
      </trkpt>
      <trkpt lat="44.18572" lon="6.75878">
        <ele>1450.2</ele>
        <time>2022-07-10T08:24:28.000Z</time>
      </trkpt>
      <trkpt lat="44.18571" lon="6.75879">
        <ele>1450.2</ele>
        <time>2022-07-10T08:24:31.000Z</time>
      </trkpt>
      <trkpt lat="44.18572" lon="6.75879">
        <ele>1450.4</ele>
        <time>2022-07-10T08:24:35.000Z</time>
      </trkpt>
      <trkpt lat="44.18572" lon="6.75879">
        <ele>1450.4</ele>
        <time>2022-07-10T08:24:38.000Z</time>
      </trkpt>
      <trkpt lat="44.18573" lon="6.7588">
        <ele>1450.6</ele>
        <time>2022-07-10T08:24:43.000Z</time>
      </trkpt>
      <trkpt lat="44.18573" lon="6.75881">
        <ele>1451.2</ele>
        <time>2022-07-10T08:24:49.000Z</time>
      </trkpt>
      <trkpt lat="44.18577" lon="6.75881">
        <ele>1451.4</ele>
        <time>2022-07-10T08:25:05.000Z</time>
      </trkpt>
      <trkpt lat="44.18578" lon="6.75881">
        <ele>1451.2</ele>
        <time>2022-07-10T08:25:08.000Z</time>
      </trkpt>
      <trkpt lat="44.18576" lon="6.75878">
        <ele>1451</ele>
        <time>2022-07-10T08:25:21.000Z</time>
      </trkpt>
      <trkpt lat="44.18578" lon="6.75881">
        <ele>1451</ele>
        <time>2022-07-10T08:25:36.000Z</time>
      </trkpt>
      <trkpt lat="44.18575" lon="6.7588">
        <ele>1451</ele>
        <time>2022-07-10T08:25:42.000Z</time>
      </trkpt>
      <trkpt lat="44.18574" lon="6.7588">
        <ele>1451</ele>
        <time>2022-07-10T08:25:47.000Z</time>
      </trkpt>
      <trkpt lat="44.18573" lon="6.75881">
        <ele>1451</ele>
        <time>2022-07-10T08:25:54.000Z</time>
      </trkpt>
      <trkpt lat="44.18571" lon="6.75878">
        <ele>1451.2</ele>
        <time>2022-07-10T08:26:33.000Z</time>
      </trkpt>
      <trkpt lat="44.18576" lon="6.75879">
        <ele>1451.2</ele>
        <time>2022-07-10T08:26:46.000Z</time>
      </trkpt>
      <trkpt lat="44.18578" lon="6.7588">
        <ele>1451.2</ele>
        <time>2022-07-10T08:26:48.000Z</time>
      </trkpt>
      <trkpt lat="44.18579" lon="6.7588">
        <ele>1451.2</ele>
        <time>2022-07-10T08:26:49.000Z</time>
      </trkpt>
      <trkpt lat="44.18587" lon="6.75879">
        <ele>1452.4</ele>
        <time>2022-07-10T08:26:55.000Z</time>
      </trkpt>
      <trkpt lat="44.186" lon="6.7588">
        <ele>1452.6</ele>
        <time>2022-07-10T08:27:07.000Z</time>
      </trkpt>
      <trkpt lat="44.18603" lon="6.75881">
        <ele>1453.4</ele>
        <time>2022-07-10T08:27:10.000Z</time>
      </trkpt>
      <trkpt lat="44.18604" lon="6.75881">
        <ele>1453.6</ele>
        <time>2022-07-10T08:27:11.000Z</time>
      </trkpt>
      <trkpt lat="44.18607" lon="6.75882">
        <ele>1454</ele>
        <time>2022-07-10T08:27:14.000Z</time>
      </trkpt>
      <trkpt lat="44.1861" lon="6.75882">
        <ele>1454.4</ele>
        <time>2022-07-10T08:27:17.000Z</time>
      </trkpt>
      <trkpt lat="44.18613" lon="6.75882">
        <ele>1454.6</ele>
        <time>2022-07-10T08:27:19.000Z</time>
      </trkpt>
      <trkpt lat="44.18614" lon="6.75882">
        <ele>1454.6</ele>
        <time>2022-07-10T08:27:20.000Z</time>
      </trkpt>
      <trkpt lat="44.18617" lon="6.75881">
        <ele>1455</ele>
        <time>2022-07-10T08:27:23.000Z</time>
      </trkpt>
      <trkpt lat="44.18621" lon="6.7588">
        <ele>1455.6</ele>
        <time>2022-07-10T08:27:27.000Z</time>
      </trkpt>
      <trkpt lat="44.18623" lon="6.7588">
        <ele>1455.6</ele>
        <time>2022-07-10T08:27:29.000Z</time>
      </trkpt>
      <trkpt lat="44.1863" lon="6.75879">
        <ele>1456.4</ele>
        <time>2022-07-10T08:27:34.000Z</time>
      </trkpt>
      <trkpt lat="44.18631" lon="6.75879">
        <ele>1456.6</ele>
        <time>2022-07-10T08:27:35.000Z</time>
      </trkpt>
      <trkpt lat="44.1864" lon="6.75872">
        <ele>1457.8</ele>
        <time>2022-07-10T08:27:44.000Z</time>
      </trkpt>
      <trkpt lat="44.18649" lon="6.75874">
        <ele>1458.6</ele>
        <time>2022-07-10T08:27:51.000Z</time>
      </trkpt>
      <trkpt lat="44.18651" lon="6.75883">
        <ele>1459</ele>
        <time>2022-07-10T08:27:56.000Z</time>
      </trkpt>
      <trkpt lat="44.18645" lon="6.75893">
        <ele>1460</ele>
        <time>2022-07-10T08:28:04.000Z</time>
      </trkpt>
      <trkpt lat="44.18638" lon="6.75897">
        <ele>1461.2</ele>
        <time>2022-07-10T08:28:10.000Z</time>
      </trkpt>
      <trkpt lat="44.18618" lon="6.75925">
        <ele>1462.2</ele>
        <time>2022-07-10T08:28:31.000Z</time>
      </trkpt>
      <trkpt lat="44.18617" lon="6.75927">
        <ele>1462.2</ele>
        <time>2022-07-10T08:28:32.000Z</time>
      </trkpt>
      <trkpt lat="44.18614" lon="6.75929">
        <ele>1462.2</ele>
        <time>2022-07-10T08:28:34.000Z</time>
      </trkpt>
      <trkpt lat="44.1861" lon="6.75933">
        <ele>1462</ele>
        <time>2022-07-10T08:28:37.000Z</time>
      </trkpt>
      <trkpt lat="44.18607" lon="6.75937">
        <ele>1461.8</ele>
        <time>2022-07-10T08:28:39.000Z</time>
      </trkpt>
      <trkpt lat="44.18603" lon="6.75941">
        <ele>1462</ele>
        <time>2022-07-10T08:28:42.000Z</time>
      </trkpt>
      <trkpt lat="44.18595" lon="6.7595">
        <ele>1462.4</ele>
        <time>2022-07-10T08:28:49.000Z</time>
      </trkpt>
      <trkpt lat="44.1859" lon="6.75951">
        <ele>1462.6</ele>
        <time>2022-07-10T08:28:53.000Z</time>
      </trkpt>
      <trkpt lat="44.18582" lon="6.75958">
        <ele>1463.2</ele>
        <time>2022-07-10T08:28:59.000Z</time>
      </trkpt>
      <trkpt lat="44.18574" lon="6.75968">
        <ele>1464.2</ele>
        <time>2022-07-10T08:29:06.000Z</time>
      </trkpt>
      <trkpt lat="44.1857" lon="6.75973">
        <ele>1464.8</ele>
        <time>2022-07-10T08:29:11.000Z</time>
      </trkpt>
      <trkpt lat="44.18566" lon="6.75977">
        <ele>1465.2</ele>
        <time>2022-07-10T08:29:15.000Z</time>
      </trkpt>
      <trkpt lat="44.1856" lon="6.7598">
        <ele>1466</ele>
        <time>2022-07-10T08:29:19.000Z</time>
      </trkpt>
      <trkpt lat="44.18558" lon="6.75981">
        <ele>1466.2</ele>
        <time>2022-07-10T08:29:20.000Z</time>
      </trkpt>
      <trkpt lat="44.18551" lon="6.75987">
        <ele>1467</ele>
        <time>2022-07-10T08:29:25.000Z</time>
      </trkpt>
      <trkpt lat="44.18549" lon="6.7599">
        <ele>1467.4</ele>
        <time>2022-07-10T08:29:27.000Z</time>
      </trkpt>
      <trkpt lat="44.18542" lon="6.76003">
        <ele>1468.4</ele>
        <time>2022-07-10T08:29:35.000Z</time>
      </trkpt>
      <trkpt lat="44.18541" lon="6.76005">
        <ele>1468.4</ele>
        <time>2022-07-10T08:29:36.000Z</time>
      </trkpt>
      <trkpt lat="44.18534" lon="6.76022">
        <ele>1468.8</ele>
        <time>2022-07-10T08:29:47.000Z</time>
      </trkpt>
      <trkpt lat="44.18534" lon="6.76028">
        <ele>1469.2</ele>
        <time>2022-07-10T08:29:52.000Z</time>
      </trkpt>
      <trkpt lat="44.18535" lon="6.76028">
        <ele>1469.4</ele>
        <time>2022-07-10T08:29:54.000Z</time>
      </trkpt>
      <trkpt lat="44.18534" lon="6.76028">
        <ele>1469.6</ele>
        <time>2022-07-10T08:29:56.000Z</time>
      </trkpt>
      <trkpt lat="44.18534" lon="6.76028">
        <ele>1469.8</ele>
        <time>2022-07-10T08:29:59.000Z</time>
      </trkpt>
      <trkpt lat="44.18537" lon="6.76028">
        <ele>1469.6</ele>
        <time>2022-07-10T08:30:02.000Z</time>
      </trkpt>
      <trkpt lat="44.18536" lon="6.76028">
        <ele>1469.6</ele>
        <time>2022-07-10T08:30:04.000Z</time>
      </trkpt>
      <trkpt lat="44.18537" lon="6.76028">
        <ele>1469.6</ele>
        <time>2022-07-10T08:30:07.000Z</time>
      </trkpt>
      <trkpt lat="44.18538" lon="6.76026">
        <ele>1469.6</ele>
        <time>2022-07-10T08:30:15.000Z</time>
      </trkpt>
      <trkpt lat="44.18535" lon="6.76022">
        <ele>1469.2</ele>
        <time>2022-07-10T08:30:26.000Z</time>
      </trkpt>
      <trkpt lat="44.18535" lon="6.76023">
        <ele>1469.4</ele>
        <time>2022-07-10T08:30:31.000Z</time>
      </trkpt>
      <trkpt lat="44.18535" lon="6.76024">
        <ele>1469</ele>
        <time>2022-07-10T08:30:39.000Z</time>
      </trkpt>
      <trkpt lat="44.18535" lon="6.76025">
        <ele>1469.8</ele>
        <time>2022-07-10T08:30:56.000Z</time>
      </trkpt>
      <trkpt lat="44.18536" lon="6.7603">
        <ele>1470</ele>
        <time>2022-07-10T08:31:00.000Z</time>
      </trkpt>
      <trkpt lat="44.18538" lon="6.76035">
        <ele>1470</ele>
        <time>2022-07-10T08:31:03.000Z</time>
      </trkpt>
      <trkpt lat="44.18543" lon="6.76041">
        <ele>1470</ele>
        <time>2022-07-10T08:31:07.000Z</time>
      </trkpt>
      <trkpt lat="44.18554" lon="6.76053">
        <ele>1470.6</ele>
        <time>2022-07-10T08:31:16.000Z</time>
      </trkpt>
      <trkpt lat="44.18559" lon="6.76058">
        <ele>1471</ele>
        <time>2022-07-10T08:31:20.000Z</time>
      </trkpt>
      <trkpt lat="44.18561" lon="6.7606">
        <ele>1471.4</ele>
        <time>2022-07-10T08:31:22.000Z</time>
      </trkpt>
      <trkpt lat="44.18565" lon="6.76063">
        <ele>1471.6</ele>
        <time>2022-07-10T08:31:25.000Z</time>
      </trkpt>
      <trkpt lat="44.18569" lon="6.76066">
        <ele>1472.2</ele>
        <time>2022-07-10T08:31:28.000Z</time>
      </trkpt>
      <trkpt lat="44.18573" lon="6.7607">
        <ele>1472.4</ele>
        <time>2022-07-10T08:31:31.000Z</time>
      </trkpt>
      <trkpt lat="44.18577" lon="6.76074">
        <ele>1472.6</ele>
        <time>2022-07-10T08:31:34.000Z</time>
      </trkpt>
      <trkpt lat="44.18583" lon="6.76078">
        <ele>1473.6</ele>
        <time>2022-07-10T08:31:38.000Z</time>
      </trkpt>
      <trkpt lat="44.18585" lon="6.76078">
        <ele>1473.8</ele>
        <time>2022-07-10T08:31:39.000Z</time>
      </trkpt>
      <trkpt lat="44.18592" lon="6.76084">
        <ele>1474.2</ele>
        <time>2022-07-10T08:31:43.000Z</time>
      </trkpt>
      <trkpt lat="44.18605" lon="6.76087">
        <ele>1474.8</ele>
        <time>2022-07-10T08:31:51.000Z</time>
      </trkpt>
      <trkpt lat="44.18612" lon="6.76086">
        <ele>1475.4</ele>
        <time>2022-07-10T08:31:57.000Z</time>
      </trkpt>
      <trkpt lat="44.18618" lon="6.76091">
        <ele>1475.6</ele>
        <time>2022-07-10T08:32:01.000Z</time>
      </trkpt>
      <trkpt lat="44.1863" lon="6.76102">
        <ele>1475.2</ele>
        <time>2022-07-10T08:32:07.000Z</time>
      </trkpt>
      <trkpt lat="44.18634" lon="6.76106">
        <ele>1475.2</ele>
        <time>2022-07-10T08:32:09.000Z</time>
      </trkpt>
      <trkpt lat="44.18651" lon="6.76117">
        <ele>1476</ele>
        <time>2022-07-10T08:32:19.000Z</time>
      </trkpt>
      <trkpt lat="44.18655" lon="6.76125">
        <ele>1476</ele>
        <time>2022-07-10T08:32:24.000Z</time>
      </trkpt>
      <trkpt lat="44.18661" lon="6.76155">
        <ele>1477</ele>
        <time>2022-07-10T08:32:39.000Z</time>
      </trkpt>
      <trkpt lat="44.18673" lon="6.7617">
        <ele>1477.6</ele>
        <time>2022-07-10T08:32:50.000Z</time>
      </trkpt>
      <trkpt lat="44.18678" lon="6.76175">
        <ele>1478</ele>
        <time>2022-07-10T08:32:54.000Z</time>
      </trkpt>
      <trkpt lat="44.18685" lon="6.76192">
        <ele>1479.2</ele>
        <time>2022-07-10T08:33:04.000Z</time>
      </trkpt>
      <trkpt lat="44.18689" lon="6.76206">
        <ele>1480</ele>
        <time>2022-07-10T08:33:13.000Z</time>
      </trkpt>
      <trkpt lat="44.18689" lon="6.76208">
        <ele>1480</ele>
        <time>2022-07-10T08:33:14.000Z</time>
      </trkpt>
      <trkpt lat="44.18689" lon="6.7621">
        <ele>1480.2</ele>
        <time>2022-07-10T08:33:15.000Z</time>
      </trkpt>
      <trkpt lat="44.18689" lon="6.76223">
        <ele>1481.2</ele>
        <time>2022-07-10T08:33:24.000Z</time>
      </trkpt>
      <trkpt lat="44.18689" lon="6.76233">
        <ele>1482</ele>
        <time>2022-07-10T08:33:31.000Z</time>
      </trkpt>
      <trkpt lat="44.18689" lon="6.76237">
        <ele>1482.4</ele>
        <time>2022-07-10T08:33:34.000Z</time>
      </trkpt>
      <trkpt lat="44.18681" lon="6.76248">
        <ele>1483.6</ele>
        <time>2022-07-10T08:33:42.000Z</time>
      </trkpt>
      <trkpt lat="44.18681" lon="6.76249">
        <ele>1483.6</ele>
        <time>2022-07-10T08:33:43.000Z</time>
      </trkpt>
      <trkpt lat="44.18679" lon="6.76257">
        <ele>1484.4</ele>
        <time>2022-07-10T08:33:48.000Z</time>
      </trkpt>
      <trkpt lat="44.18679" lon="6.7626">
        <ele>1484.6</ele>
        <time>2022-07-10T08:33:50.000Z</time>
      </trkpt>
      <trkpt lat="44.18675" lon="6.76269">
        <ele>1485.2</ele>
        <time>2022-07-10T08:33:59.000Z</time>
      </trkpt>
      <trkpt lat="44.18674" lon="6.76277">
        <ele>1485.4</ele>
        <time>2022-07-10T08:34:04.000Z</time>
      </trkpt>
      <trkpt lat="44.18673" lon="6.76279">
        <ele>1485.6</ele>
        <time>2022-07-10T08:34:05.000Z</time>
      </trkpt>
      <trkpt lat="44.1867" lon="6.76282">
        <ele>1485.6</ele>
        <time>2022-07-10T08:34:08.000Z</time>
      </trkpt>
      <trkpt lat="44.18667" lon="6.7629">
        <ele>1486</ele>
        <time>2022-07-10T08:34:14.000Z</time>
      </trkpt>
      <trkpt lat="44.18664" lon="6.76301">
        <ele>1486.8</ele>
        <time>2022-07-10T08:34:21.000Z</time>
      </trkpt>
      <trkpt lat="44.18663" lon="6.76303">
        <ele>1487</ele>
        <time>2022-07-10T08:34:23.000Z</time>
      </trkpt>
      <trkpt lat="44.18661" lon="6.76312">
        <ele>1487.4</ele>
        <time>2022-07-10T08:34:28.000Z</time>
      </trkpt>
      <trkpt lat="44.18661" lon="6.76317">
        <ele>1487.8</ele>
        <time>2022-07-10T08:34:31.000Z</time>
      </trkpt>
      <trkpt lat="44.18661" lon="6.7632">
        <ele>1488</ele>
        <time>2022-07-10T08:34:33.000Z</time>
      </trkpt>
      <trkpt lat="44.18663" lon="6.7633">
        <ele>1488.2</ele>
        <time>2022-07-10T08:34:40.000Z</time>
      </trkpt>
      <trkpt lat="44.18663" lon="6.76331">
        <ele>1488.2</ele>
        <time>2022-07-10T08:34:43.000Z</time>
      </trkpt>
      <trkpt lat="44.18661" lon="6.7633">
        <ele>1488.2</ele>
        <time>2022-07-10T08:34:45.000Z</time>
      </trkpt>
      <trkpt lat="44.18661" lon="6.7633">
        <ele>1488.2</ele>
        <time>2022-07-10T08:34:46.000Z</time>
      </trkpt>
      <trkpt lat="44.18661" lon="6.7633">
        <ele>1488.2</ele>
        <time>2022-07-10T08:34:47.000Z</time>
      </trkpt>
      <trkpt lat="44.1866" lon="6.76328">
        <ele>1488.2</ele>
        <time>2022-07-10T08:34:50.000Z</time>
      </trkpt>
      <trkpt lat="44.1866" lon="6.76328">
        <ele>1488</ele>
        <time>2022-07-10T08:34:55.000Z</time>
      </trkpt>
      <trkpt lat="44.18659" lon="6.76325">
        <ele>1487.8</ele>
        <time>2022-07-10T08:35:03.000Z</time>
      </trkpt>
      <trkpt lat="44.18659" lon="6.76325">
        <ele>1488</ele>
        <time>2022-07-10T08:35:07.000Z</time>
      </trkpt>
      <trkpt lat="44.18658" lon="6.76323">
        <ele>1488</ele>
        <time>2022-07-10T08:35:16.000Z</time>
      </trkpt>
      <trkpt lat="44.18657" lon="6.76322">
        <ele>1488</ele>
        <time>2022-07-10T08:35:27.000Z</time>
      </trkpt>
      <trkpt lat="44.18659" lon="6.76323">
        <ele>1488.2</ele>
        <time>2022-07-10T08:35:57.000Z</time>
      </trkpt>
      <trkpt lat="44.18658" lon="6.76324">
        <ele>1488.2</ele>
        <time>2022-07-10T08:36:04.000Z</time>
      </trkpt>
      <trkpt lat="44.18658" lon="6.76325">
        <ele>1488.2</ele>
        <time>2022-07-10T08:36:06.000Z</time>
      </trkpt>
      <trkpt lat="44.18658" lon="6.76326">
        <ele>1488.2</ele>
        <time>2022-07-10T08:36:10.000Z</time>
      </trkpt>
      <trkpt lat="44.18656" lon="6.76317">
        <ele>1488.2</ele>
        <time>2022-07-10T08:36:20.000Z</time>
      </trkpt>
      <trkpt lat="44.18657" lon="6.76326">
        <ele>1488.2</ele>
        <time>2022-07-10T08:37:09.000Z</time>
      </trkpt>
      <trkpt lat="44.18658" lon="6.76324">
        <ele>1488.2</ele>
        <time>2022-07-10T08:37:22.000Z</time>
      </trkpt>
      <trkpt lat="44.18659" lon="6.76319">
        <ele>1488.2</ele>
        <time>2022-07-10T08:37:43.000Z</time>
      </trkpt>
      <trkpt lat="44.18674" lon="6.76315">
        <ele>1488.2</ele>
        <time>2022-07-10T08:38:08.000Z</time>
      </trkpt>
      <trkpt lat="44.18669" lon="6.76318">
        <ele>1488.2</ele>
        <time>2022-07-10T08:38:13.000Z</time>
      </trkpt>
      <trkpt lat="44.18665" lon="6.76322">
        <ele>1488.2</ele>
        <time>2022-07-10T08:38:21.000Z</time>
      </trkpt>
      <trkpt lat="44.18662" lon="6.76312">
        <ele>1488.2</ele>
        <time>2022-07-10T08:38:47.000Z</time>
      </trkpt>
      <trkpt lat="44.18668" lon="6.76317">
        <ele>1488.2</ele>
        <time>2022-07-10T08:39:06.000Z</time>
      </trkpt>
      <trkpt lat="44.18677" lon="6.76317">
        <ele>1488.2</ele>
        <time>2022-07-10T08:39:18.000Z</time>
      </trkpt>
      <trkpt lat="44.1866" lon="6.76321">
        <ele>1488.2</ele>
        <time>2022-07-10T08:39:42.000Z</time>
      </trkpt>
      <trkpt lat="44.1867" lon="6.76328">
        <ele>1488.2</ele>
        <time>2022-07-10T08:39:55.000Z</time>
      </trkpt>
      <trkpt lat="44.18674" lon="6.76333">
        <ele>1488.2</ele>
        <time>2022-07-10T08:40:00.000Z</time>
      </trkpt>
      <trkpt lat="44.18666" lon="6.76327">
        <ele>1488.2</ele>
        <time>2022-07-10T08:40:05.000Z</time>
      </trkpt>
      <trkpt lat="44.18654" lon="6.76319">
        <ele>1488.2</ele>
        <time>2022-07-10T08:40:13.000Z</time>
      </trkpt>
      <trkpt lat="44.18661" lon="6.76321">
        <ele>1488.2</ele>
        <time>2022-07-10T08:40:31.000Z</time>
      </trkpt>
      <trkpt lat="44.18657" lon="6.76316">
        <ele>1488.2</ele>
        <time>2022-07-10T08:40:36.000Z</time>
      </trkpt>
      <trkpt lat="44.18654" lon="6.76315">
        <ele>1488.2</ele>
        <time>2022-07-10T08:40:45.000Z</time>
      </trkpt>
      <trkpt lat="44.18671" lon="6.7633">
        <ele>1488.2</ele>
        <time>2022-07-10T08:40:57.000Z</time>
      </trkpt>
      <trkpt lat="44.18688" lon="6.76331">
        <ele>1488.2</ele>
        <time>2022-07-10T08:41:22.000Z</time>
      </trkpt>
      <trkpt lat="44.18657" lon="6.76319">
        <ele>1487.4</ele>
        <time>2022-07-10T08:41:43.000Z</time>
      </trkpt>
      <trkpt lat="44.18656" lon="6.76319">
        <ele>1487.4</ele>
        <time>2022-07-10T08:41:56.000Z</time>
      </trkpt>
      <trkpt lat="44.18658" lon="6.76321">
        <ele>1487.4</ele>
        <time>2022-07-10T08:42:02.000Z</time>
      </trkpt>
      <trkpt lat="44.18657" lon="6.76319">
        <ele>1488</ele>
        <time>2022-07-10T08:42:05.000Z</time>
      </trkpt>
      <trkpt lat="44.1865" lon="6.76319">
        <ele>1487.8</ele>
        <time>2022-07-10T08:42:08.000Z</time>
      </trkpt>
      <trkpt lat="44.18657" lon="6.76328">
        <ele>1487.6</ele>
        <time>2022-07-10T08:42:16.000Z</time>
      </trkpt>
      <trkpt lat="44.18659" lon="6.76328">
        <ele>1487.4</ele>
        <time>2022-07-10T08:42:19.000Z</time>
      </trkpt>
      <trkpt lat="44.18661" lon="6.76329">
        <ele>1487.4</ele>
        <time>2022-07-10T08:42:22.000Z</time>
      </trkpt>
      <trkpt lat="44.18662" lon="6.76329">
        <ele>1487.4</ele>
        <time>2022-07-10T08:42:24.000Z</time>
      </trkpt>
      <trkpt lat="44.18663" lon="6.7633">
        <ele>1487.2</ele>
        <time>2022-07-10T08:42:26.000Z</time>
      </trkpt>
      <trkpt lat="44.18661" lon="6.76327">
        <ele>1487.6</ele>
        <time>2022-07-10T08:42:49.000Z</time>
      </trkpt>
      <trkpt lat="44.18659" lon="6.76328">
        <ele>1487.8</ele>
        <time>2022-07-10T08:42:51.000Z</time>
      </trkpt>
      <trkpt lat="44.18657" lon="6.76329">
        <ele>1487.8</ele>
        <time>2022-07-10T08:42:53.000Z</time>
      </trkpt>
      <trkpt lat="44.18655" lon="6.76331">
        <ele>1487.8</ele>
        <time>2022-07-10T08:42:55.000Z</time>
      </trkpt>
      <trkpt lat="44.18652" lon="6.76335">
        <ele>1488.2</ele>
        <time>2022-07-10T08:42:59.000Z</time>
      </trkpt>
      <trkpt lat="44.18651" lon="6.76341">
        <ele>1488.6</ele>
        <time>2022-07-10T08:43:02.000Z</time>
      </trkpt>
      <trkpt lat="44.18651" lon="6.76345">
        <ele>1489</ele>
        <time>2022-07-10T08:43:04.000Z</time>
      </trkpt>
      <trkpt lat="44.18652" lon="6.76353">
        <ele>1489.6</ele>
        <time>2022-07-10T08:43:09.000Z</time>
      </trkpt>
      <trkpt lat="44.18651" lon="6.76357">
        <ele>1489.8</ele>
        <time>2022-07-10T08:43:11.000Z</time>
      </trkpt>
      <trkpt lat="44.18651" lon="6.76359">
        <ele>1490</ele>
        <time>2022-07-10T08:43:12.000Z</time>
      </trkpt>
      <trkpt lat="44.18651" lon="6.76362">
        <ele>1490</ele>
        <time>2022-07-10T08:43:14.000Z</time>
      </trkpt>
      <trkpt lat="44.18652" lon="6.76366">
        <ele>1490.2</ele>
        <time>2022-07-10T08:43:17.000Z</time>
      </trkpt>
      <trkpt lat="44.18653" lon="6.76368">
        <ele>1490.4</ele>
        <time>2022-07-10T08:43:18.000Z</time>
      </trkpt>
      <trkpt lat="44.18656" lon="6.76371">
        <ele>1490.8</ele>
        <time>2022-07-10T08:43:21.000Z</time>
      </trkpt>
      <trkpt lat="44.18658" lon="6.76373">
        <ele>1491</ele>
        <time>2022-07-10T08:43:23.000Z</time>
      </trkpt>
      <trkpt lat="44.18667" lon="6.7638">
        <ele>1492</ele>
        <time>2022-07-10T08:43:31.000Z</time>
      </trkpt>
      <trkpt lat="44.1867" lon="6.76392">
        <ele>1492.8</ele>
        <time>2022-07-10T08:43:41.000Z</time>
      </trkpt>
      <trkpt lat="44.18671" lon="6.76395">
        <ele>1493.2</ele>
        <time>2022-07-10T08:43:44.000Z</time>
      </trkpt>
      <trkpt lat="44.18678" lon="6.76405">
        <ele>1494.2</ele>
        <time>2022-07-10T08:43:52.000Z</time>
      </trkpt>
      <trkpt lat="44.18683" lon="6.76416">
        <ele>1495.2</ele>
        <time>2022-07-10T08:43:59.000Z</time>
      </trkpt>
      <trkpt lat="44.18684" lon="6.76417">
        <ele>1495.4</ele>
        <time>2022-07-10T08:44:00.000Z</time>
      </trkpt>
      <trkpt lat="44.18691" lon="6.76429">
        <ele>1496.4</ele>
        <time>2022-07-10T08:44:08.000Z</time>
      </trkpt>
      <trkpt lat="44.18693" lon="6.7645">
        <ele>1497.2</ele>
        <time>2022-07-10T08:44:21.000Z</time>
      </trkpt>
      <trkpt lat="44.18693" lon="6.76454">
        <ele>1497.4</ele>
        <time>2022-07-10T08:44:24.000Z</time>
      </trkpt>
      <trkpt lat="44.18696" lon="6.76468">
        <ele>1498</ele>
        <time>2022-07-10T08:44:33.000Z</time>
      </trkpt>
      <trkpt lat="44.18696" lon="6.76473">
        <ele>1498.4</ele>
        <time>2022-07-10T08:44:36.000Z</time>
      </trkpt>
      <trkpt lat="44.18692" lon="6.76489">
        <ele>1499.4</ele>
        <time>2022-07-10T08:44:47.000Z</time>
      </trkpt>
      <trkpt lat="44.18693" lon="6.76493">
        <ele>1499.8</ele>
        <time>2022-07-10T08:44:50.000Z</time>
      </trkpt>
      <trkpt lat="44.18695" lon="6.76498">
        <ele>1500</ele>
        <time>2022-07-10T08:44:54.000Z</time>
      </trkpt>
      <trkpt lat="44.18696" lon="6.76503">
        <ele>1500.6</ele>
        <time>2022-07-10T08:44:57.000Z</time>
      </trkpt>
      <trkpt lat="44.187" lon="6.76509">
        <ele>1501</ele>
        <time>2022-07-10T08:45:01.000Z</time>
      </trkpt>
      <trkpt lat="44.18701" lon="6.76512">
        <ele>1501.2</ele>
        <time>2022-07-10T08:45:04.000Z</time>
      </trkpt>
      <trkpt lat="44.18703" lon="6.76521">
        <ele>1501.8</ele>
        <time>2022-07-10T08:45:10.000Z</time>
      </trkpt>
      <trkpt lat="44.18709" lon="6.7653">
        <ele>1502.8</ele>
        <time>2022-07-10T08:45:18.000Z</time>
      </trkpt>
      <trkpt lat="44.1871" lon="6.76532">
        <ele>1502.8</ele>
        <time>2022-07-10T08:45:20.000Z</time>
      </trkpt>
      <trkpt lat="44.18711" lon="6.76534">
        <ele>1503</ele>
        <time>2022-07-10T08:45:22.000Z</time>
      </trkpt>
      <trkpt lat="44.18714" lon="6.76538">
        <ele>1503.8</ele>
        <time>2022-07-10T08:45:27.000Z</time>
      </trkpt>
      <trkpt lat="44.18719" lon="6.76543">
        <ele>1504.8</ele>
        <time>2022-07-10T08:45:32.000Z</time>
      </trkpt>
      <trkpt lat="44.1872" lon="6.76544">
        <ele>1505</ele>
        <time>2022-07-10T08:45:33.000Z</time>
      </trkpt>
      <trkpt lat="44.18723" lon="6.76547">
        <ele>1505.4</ele>
        <time>2022-07-10T08:45:36.000Z</time>
      </trkpt>
      <trkpt lat="44.18725" lon="6.76553">
        <ele>1506.2</ele>
        <time>2022-07-10T08:45:40.000Z</time>
      </trkpt>
      <trkpt lat="44.18727" lon="6.76555">
        <ele>1506.6</ele>
        <time>2022-07-10T08:45:43.000Z</time>
      </trkpt>
      <trkpt lat="44.1873" lon="6.76559">
        <ele>1507.2</ele>
        <time>2022-07-10T08:45:46.000Z</time>
      </trkpt>
      <trkpt lat="44.1873" lon="6.76565">
        <ele>1508</ele>
        <time>2022-07-10T08:45:51.000Z</time>
      </trkpt>
      <trkpt lat="44.1873" lon="6.7657">
        <ele>1508.2</ele>
        <time>2022-07-10T08:45:54.000Z</time>
      </trkpt>
      <trkpt lat="44.18729" lon="6.76575">
        <ele>1508.6</ele>
        <time>2022-07-10T08:45:58.000Z</time>
      </trkpt>
      <trkpt lat="44.18728" lon="6.76578">
        <ele>1509</ele>
        <time>2022-07-10T08:46:00.000Z</time>
      </trkpt>
      <trkpt lat="44.18727" lon="6.76583">
        <ele>1509.4</ele>
        <time>2022-07-10T08:46:04.000Z</time>
      </trkpt>
      <trkpt lat="44.18723" lon="6.76586">
        <ele>1510</ele>
        <time>2022-07-10T08:46:13.000Z</time>
      </trkpt>
      <trkpt lat="44.18722" lon="6.76586">
        <ele>1510</ele>
        <time>2022-07-10T08:46:16.000Z</time>
      </trkpt>
      <trkpt lat="44.18721" lon="6.76587">
        <ele>1510</ele>
        <time>2022-07-10T08:46:18.000Z</time>
      </trkpt>
      <trkpt lat="44.18721" lon="6.76587">
        <ele>1509.8</ele>
        <time>2022-07-10T08:46:22.000Z</time>
      </trkpt>
      <trkpt lat="44.18721" lon="6.76587">
        <ele>1509.8</ele>
        <time>2022-07-10T08:46:26.000Z</time>
      </trkpt>
      <trkpt lat="44.18721" lon="6.76586">
        <ele>1509.8</ele>
        <time>2022-07-10T08:46:28.000Z</time>
      </trkpt>
      <trkpt lat="44.1872" lon="6.76587">
        <ele>1509.8</ele>
        <time>2022-07-10T08:46:31.000Z</time>
      </trkpt>
      <trkpt lat="44.18719" lon="6.76589">
        <ele>1509.8</ele>
        <time>2022-07-10T08:46:33.000Z</time>
      </trkpt>
      <trkpt lat="44.18719" lon="6.76591">
        <ele>1510</ele>
        <time>2022-07-10T08:46:38.000Z</time>
      </trkpt>
      <trkpt lat="44.18719" lon="6.76591">
        <ele>1509.8</ele>
        <time>2022-07-10T08:46:41.000Z</time>
      </trkpt>
      <trkpt lat="44.18719" lon="6.76592">
        <ele>1509.8</ele>
        <time>2022-07-10T08:46:43.000Z</time>
      </trkpt>
      <trkpt lat="44.18719" lon="6.76591">
        <ele>1509.8</ele>
        <time>2022-07-10T08:46:44.000Z</time>
      </trkpt>
      <trkpt lat="44.18719" lon="6.76591">
        <ele>1509.8</ele>
        <time>2022-07-10T08:46:47.000Z</time>
      </trkpt>
      <trkpt lat="44.18719" lon="6.76589">
        <ele>1509.8</ele>
        <time>2022-07-10T08:46:54.000Z</time>
      </trkpt>
      <trkpt lat="44.18719" lon="6.76589">
        <ele>1509.6</ele>
        <time>2022-07-10T08:46:59.000Z</time>
      </trkpt>
      <trkpt lat="44.18721" lon="6.76585">
        <ele>1509.6</ele>
        <time>2022-07-10T08:47:13.000Z</time>
      </trkpt>
      <trkpt lat="44.18722" lon="6.76588">
        <ele>1509.6</ele>
        <time>2022-07-10T08:47:17.000Z</time>
      </trkpt>
      <trkpt lat="44.18721" lon="6.76592">
        <ele>1509.6</ele>
        <time>2022-07-10T08:47:20.000Z</time>
      </trkpt>
      <trkpt lat="44.18721" lon="6.76594">
        <ele>1509.6</ele>
        <time>2022-07-10T08:47:21.000Z</time>
      </trkpt>
      <trkpt lat="44.1872" lon="6.76597">
        <ele>1509.8</ele>
        <time>2022-07-10T08:47:23.000Z</time>
      </trkpt>
      <trkpt lat="44.1872" lon="6.76599">
        <ele>1510.2</ele>
        <time>2022-07-10T08:47:25.000Z</time>
      </trkpt>
      <trkpt lat="44.18719" lon="6.76601">
        <ele>1510.4</ele>
        <time>2022-07-10T08:47:27.000Z</time>
      </trkpt>
      <trkpt lat="44.18719" lon="6.76602">
        <ele>1510.4</ele>
        <time>2022-07-10T08:47:28.000Z</time>
      </trkpt>
      <trkpt lat="44.18718" lon="6.76606">
        <ele>1510.8</ele>
        <time>2022-07-10T08:47:31.000Z</time>
      </trkpt>
      <trkpt lat="44.18717" lon="6.7661">
        <ele>1511</ele>
        <time>2022-07-10T08:47:34.000Z</time>
      </trkpt>
      <trkpt lat="44.18715" lon="6.76615">
        <ele>1511.4</ele>
        <time>2022-07-10T08:47:37.000Z</time>
      </trkpt>
      <trkpt lat="44.18715" lon="6.76616">
        <ele>1511.6</ele>
        <time>2022-07-10T08:47:38.000Z</time>
      </trkpt>
      <trkpt lat="44.18715" lon="6.76621">
        <ele>1512</ele>
        <time>2022-07-10T08:47:41.000Z</time>
      </trkpt>
      <trkpt lat="44.18716" lon="6.76623">
        <ele>1512.6</ele>
        <time>2022-07-10T08:47:43.000Z</time>
      </trkpt>
      <trkpt lat="44.18717" lon="6.76625">
        <ele>1512.8</ele>
        <time>2022-07-10T08:47:44.000Z</time>
      </trkpt>
      <trkpt lat="44.18718" lon="6.76628">
        <ele>1513.2</ele>
        <time>2022-07-10T08:47:47.000Z</time>
      </trkpt>
      <trkpt lat="44.1872" lon="6.76633">
        <ele>1513.8</ele>
        <time>2022-07-10T08:47:50.000Z</time>
      </trkpt>
      <trkpt lat="44.18724" lon="6.76645">
        <ele>1515</ele>
        <time>2022-07-10T08:47:57.000Z</time>
      </trkpt>
      <trkpt lat="44.18731" lon="6.76652">
        <ele>1516</ele>
        <time>2022-07-10T08:48:04.000Z</time>
      </trkpt>
      <trkpt lat="44.18731" lon="6.76653">
        <ele>1516</ele>
        <time>2022-07-10T08:48:05.000Z</time>
      </trkpt>
      <trkpt lat="44.18731" lon="6.7666">
        <ele>1516.8</ele>
        <time>2022-07-10T08:48:09.000Z</time>
      </trkpt>
      <trkpt lat="44.18729" lon="6.76664">
        <ele>1517.2</ele>
        <time>2022-07-10T08:48:12.000Z</time>
      </trkpt>
      <trkpt lat="44.18729" lon="6.76665">
        <ele>1517.4</ele>
        <time>2022-07-10T08:48:13.000Z</time>
      </trkpt>
      <trkpt lat="44.18724" lon="6.76673">
        <ele>1518</ele>
        <time>2022-07-10T08:48:18.000Z</time>
      </trkpt>
      <trkpt lat="44.18721" lon="6.76678">
        <ele>1518.4</ele>
        <time>2022-07-10T08:48:21.000Z</time>
      </trkpt>
      <trkpt lat="44.18716" lon="6.76697">
        <ele>1519.4</ele>
        <time>2022-07-10T08:48:32.000Z</time>
      </trkpt>
      <trkpt lat="44.18716" lon="6.76711">
        <ele>1520.6</ele>
        <time>2022-07-10T08:48:41.000Z</time>
      </trkpt>
      <trkpt lat="44.18725" lon="6.76726">
        <ele>1521.8</ele>
        <time>2022-07-10T08:48:52.000Z</time>
      </trkpt>
      <trkpt lat="44.1873" lon="6.7674">
        <ele>1522.8</ele>
        <time>2022-07-10T08:49:01.000Z</time>
      </trkpt>
      <trkpt lat="44.18734" lon="6.76755">
        <ele>1523.8</ele>
        <time>2022-07-10T08:49:11.000Z</time>
      </trkpt>
      <trkpt lat="44.18739" lon="6.76768">
        <ele>1525</ele>
        <time>2022-07-10T08:49:22.000Z</time>
      </trkpt>
      <trkpt lat="44.18749" lon="6.76781">
        <ele>1526</ele>
        <time>2022-07-10T08:49:32.000Z</time>
      </trkpt>
      <trkpt lat="44.18754" lon="6.76788">
        <ele>1527</ele>
        <time>2022-07-10T08:49:37.000Z</time>
      </trkpt>
      <trkpt lat="44.1876" lon="6.76799">
        <ele>1528.2</ele>
        <time>2022-07-10T08:49:45.000Z</time>
      </trkpt>
      <trkpt lat="44.18761" lon="6.76802">
        <ele>1528.6</ele>
        <time>2022-07-10T08:49:47.000Z</time>
      </trkpt>
      <trkpt lat="44.18766" lon="6.76808">
        <ele>1529.2</ele>
        <time>2022-07-10T08:49:53.000Z</time>
      </trkpt>
      <trkpt lat="44.1877" lon="6.76814">
        <ele>1530</ele>
        <time>2022-07-10T08:49:59.000Z</time>
      </trkpt>
      <trkpt lat="44.18772" lon="6.76813">
        <ele>1530</ele>
        <time>2022-07-10T08:50:04.000Z</time>
      </trkpt>
      <trkpt lat="44.18772" lon="6.76813">
        <ele>1529.8</ele>
        <time>2022-07-10T08:50:06.000Z</time>
      </trkpt>
      <trkpt lat="44.18772" lon="6.76813">
        <ele>1529.8</ele>
        <time>2022-07-10T08:50:09.000Z</time>
      </trkpt>
      <trkpt lat="44.18771" lon="6.76813">
        <ele>1529.8</ele>
        <time>2022-07-10T08:50:12.000Z</time>
      </trkpt>
      <trkpt lat="44.18771" lon="6.76813">
        <ele>1529.8</ele>
        <time>2022-07-10T08:50:16.000Z</time>
      </trkpt>
      <trkpt lat="44.18772" lon="6.76811">
        <ele>1530.2</ele>
        <time>2022-07-10T08:50:23.000Z</time>
      </trkpt>
      <trkpt lat="44.18772" lon="6.76811">
        <ele>1530.2</ele>
        <time>2022-07-10T08:50:25.000Z</time>
      </trkpt>
      <trkpt lat="44.1877" lon="6.76811">
        <ele>1530.2</ele>
        <time>2022-07-10T08:50:28.000Z</time>
      </trkpt>
      <trkpt lat="44.18769" lon="6.76812">
        <ele>1530.2</ele>
        <time>2022-07-10T08:50:30.000Z</time>
      </trkpt>
      <trkpt lat="44.18769" lon="6.76812">
        <ele>1530.2</ele>
        <time>2022-07-10T08:50:32.000Z</time>
      </trkpt>
      <trkpt lat="44.18768" lon="6.76812">
        <ele>1530.2</ele>
        <time>2022-07-10T08:50:35.000Z</time>
      </trkpt>
      <trkpt lat="44.18766" lon="6.76812">
        <ele>1530.2</ele>
        <time>2022-07-10T08:50:37.000Z</time>
      </trkpt>
      <trkpt lat="44.18763" lon="6.76812">
        <ele>1530.4</ele>
        <time>2022-07-10T08:50:45.000Z</time>
      </trkpt>
      <trkpt lat="44.18776" lon="6.76812">
        <ele>1530</ele>
        <time>2022-07-10T08:50:57.000Z</time>
      </trkpt>
      <trkpt lat="44.18777" lon="6.76811">
        <ele>1530</ele>
        <time>2022-07-10T08:50:59.000Z</time>
      </trkpt>
      <trkpt lat="44.18777" lon="6.76811">
        <ele>1530</ele>
        <time>2022-07-10T08:51:03.000Z</time>
      </trkpt>
      <trkpt lat="44.18776" lon="6.76811">
        <ele>1529.6</ele>
        <time>2022-07-10T08:51:09.000Z</time>
      </trkpt>
      <trkpt lat="44.18772" lon="6.76813">
        <ele>1529.6</ele>
        <time>2022-07-10T08:51:40.000Z</time>
      </trkpt>
      <trkpt lat="44.18773" lon="6.76813">
        <ele>1529.6</ele>
        <time>2022-07-10T08:51:57.000Z</time>
      </trkpt>
      <trkpt lat="44.1878" lon="6.76813">
        <ele>1529.6</ele>
        <time>2022-07-10T08:52:17.000Z</time>
      </trkpt>
      <trkpt lat="44.1878" lon="6.76814">
        <ele>1529.6</ele>
        <time>2022-07-10T08:52:23.000Z</time>
      </trkpt>
      <trkpt lat="44.18775" lon="6.76815">
        <ele>1529.6</ele>
        <time>2022-07-10T08:52:42.000Z</time>
      </trkpt>
      <trkpt lat="44.18776" lon="6.76821">
        <ele>1529.6</ele>
        <time>2022-07-10T08:52:47.000Z</time>
      </trkpt>
      <trkpt lat="44.18776" lon="6.76823">
        <ele>1529.6</ele>
        <time>2022-07-10T08:52:48.000Z</time>
      </trkpt>
      <trkpt lat="44.18778" lon="6.76826">
        <ele>1530.4</ele>
        <time>2022-07-10T08:52:51.000Z</time>
      </trkpt>
      <trkpt lat="44.1878" lon="6.76829">
        <ele>1532.2</ele>
        <time>2022-07-10T08:52:54.000Z</time>
      </trkpt>
      <trkpt lat="44.18782" lon="6.76836">
        <ele>1531.8</ele>
        <time>2022-07-10T08:52:59.000Z</time>
      </trkpt>
      <trkpt lat="44.18783" lon="6.7684">
        <ele>1532.2</ele>
        <time>2022-07-10T08:53:02.000Z</time>
      </trkpt>
      <trkpt lat="44.18783" lon="6.76843">
        <ele>1532.2</ele>
        <time>2022-07-10T08:53:04.000Z</time>
      </trkpt>
      <trkpt lat="44.18785" lon="6.76846">
        <ele>1532.6</ele>
        <time>2022-07-10T08:53:07.000Z</time>
      </trkpt>
      <trkpt lat="44.18786" lon="6.76849">
        <ele>1533</ele>
        <time>2022-07-10T08:53:09.000Z</time>
      </trkpt>
      <trkpt lat="44.18787" lon="6.76852">
        <ele>1533.4</ele>
        <time>2022-07-10T08:53:11.000Z</time>
      </trkpt>
      <trkpt lat="44.18786" lon="6.76854">
        <ele>1533.6</ele>
        <time>2022-07-10T08:53:12.000Z</time>
      </trkpt>
      <trkpt lat="44.18786" lon="6.76858">
        <ele>1534</ele>
        <time>2022-07-10T08:53:15.000Z</time>
      </trkpt>
      <trkpt lat="44.18786" lon="6.76864">
        <ele>1534.4</ele>
        <time>2022-07-10T08:53:19.000Z</time>
      </trkpt>
      <trkpt lat="44.18786" lon="6.76866">
        <ele>1534.6</ele>
        <time>2022-07-10T08:53:20.000Z</time>
      </trkpt>
      <trkpt lat="44.18784" lon="6.7688">
        <ele>1535.4</ele>
        <time>2022-07-10T08:53:28.000Z</time>
      </trkpt>
      <trkpt lat="44.18784" lon="6.76882">
        <ele>1535.6</ele>
        <time>2022-07-10T08:53:29.000Z</time>
      </trkpt>
      <trkpt lat="44.18782" lon="6.76889">
        <ele>1536.4</ele>
        <time>2022-07-10T08:53:35.000Z</time>
      </trkpt>
      <trkpt lat="44.18781" lon="6.7689">
        <ele>1536.6</ele>
        <time>2022-07-10T08:53:36.000Z</time>
      </trkpt>
      <trkpt lat="44.1878" lon="6.769">
        <ele>1537.4</ele>
        <time>2022-07-10T08:53:43.000Z</time>
      </trkpt>
      <trkpt lat="44.1878" lon="6.76905">
        <ele>1537.6</ele>
        <time>2022-07-10T08:53:46.000Z</time>
      </trkpt>
      <trkpt lat="44.18776" lon="6.76913">
        <ele>1538.6</ele>
        <time>2022-07-10T08:53:52.000Z</time>
      </trkpt>
      <trkpt lat="44.1878" lon="6.76937">
        <ele>1539.8</ele>
        <time>2022-07-10T08:54:06.000Z</time>
      </trkpt>
      <trkpt lat="44.18785" lon="6.76951">
        <ele>1540.8</ele>
        <time>2022-07-10T08:54:15.000Z</time>
      </trkpt>
      <trkpt lat="44.1879" lon="6.76961">
        <ele>1542</ele>
        <time>2022-07-10T08:54:21.000Z</time>
      </trkpt>
      <trkpt lat="44.18794" lon="6.76974">
        <ele>1543</ele>
        <time>2022-07-10T08:54:29.000Z</time>
      </trkpt>
      <trkpt lat="44.18799" lon="6.76983">
        <ele>1544.2</ele>
        <time>2022-07-10T08:54:35.000Z</time>
      </trkpt>
      <trkpt lat="44.18806" lon="6.76997">
        <ele>1544.6</ele>
        <time>2022-07-10T08:54:45.000Z</time>
      </trkpt>
      <trkpt lat="44.18809" lon="6.77004">
        <ele>1545</ele>
        <time>2022-07-10T08:54:49.000Z</time>
      </trkpt>
      <trkpt lat="44.18812" lon="6.77008">
        <ele>1545.2</ele>
        <time>2022-07-10T08:54:52.000Z</time>
      </trkpt>
      <trkpt lat="44.18815" lon="6.77014">
        <ele>1545.4</ele>
        <time>2022-07-10T08:54:56.000Z</time>
      </trkpt>
      <trkpt lat="44.1882" lon="6.77023">
        <ele>1546.4</ele>
        <time>2022-07-10T08:55:02.000Z</time>
      </trkpt>
      <trkpt lat="44.18821" lon="6.77052">
        <ele>1547.4</ele>
        <time>2022-07-10T08:55:18.000Z</time>
      </trkpt>
      <trkpt lat="44.18823" lon="6.77072">
        <ele>1548.4</ele>
        <time>2022-07-10T08:55:27.000Z</time>
      </trkpt>
      <trkpt lat="44.18823" lon="6.77075">
        <ele>1548.4</ele>
        <time>2022-07-10T08:55:29.000Z</time>
      </trkpt>
      <trkpt lat="44.18825" lon="6.77091">
        <ele>1549.6</ele>
        <time>2022-07-10T08:55:40.000Z</time>
      </trkpt>
      <trkpt lat="44.18827" lon="6.77106">
        <ele>1550.6</ele>
        <time>2022-07-10T08:55:49.000Z</time>
      </trkpt>
      <trkpt lat="44.18822" lon="6.77123">
        <ele>1551.6</ele>
        <time>2022-07-10T08:55:59.000Z</time>
      </trkpt>
      <trkpt lat="44.18817" lon="6.77144">
        <ele>1552.4</ele>
        <time>2022-07-10T08:56:10.000Z</time>
      </trkpt>
      <trkpt lat="44.18816" lon="6.77147">
        <ele>1552.4</ele>
        <time>2022-07-10T08:56:13.000Z</time>
      </trkpt>
      <trkpt lat="44.18819" lon="6.7715">
        <ele>1552.6</ele>
        <time>2022-07-10T08:56:16.000Z</time>
      </trkpt>
      <trkpt lat="44.1882" lon="6.77151">
        <ele>1552.4</ele>
        <time>2022-07-10T08:56:19.000Z</time>
      </trkpt>
      <trkpt lat="44.1882" lon="6.77151">
        <ele>1552.4</ele>
        <time>2022-07-10T08:56:22.000Z</time>
      </trkpt>
      <trkpt lat="44.18818" lon="6.77151">
        <ele>1552.4</ele>
        <time>2022-07-10T08:56:29.000Z</time>
      </trkpt>
      <trkpt lat="44.18818" lon="6.77155">
        <ele>1552.4</ele>
        <time>2022-07-10T08:56:32.000Z</time>
      </trkpt>
      <trkpt lat="44.18818" lon="6.77156">
        <ele>1552.4</ele>
        <time>2022-07-10T08:56:35.000Z</time>
      </trkpt>
      <trkpt lat="44.18817" lon="6.77158">
        <ele>1552.4</ele>
        <time>2022-07-10T08:56:38.000Z</time>
      </trkpt>
      <trkpt lat="44.18818" lon="6.7716">
        <ele>1552.4</ele>
        <time>2022-07-10T08:56:41.000Z</time>
      </trkpt>
      <trkpt lat="44.18819" lon="6.77167">
        <ele>1552.4</ele>
        <time>2022-07-10T08:56:56.000Z</time>
      </trkpt>
      <trkpt lat="44.1882" lon="6.77167">
        <ele>1552.4</ele>
        <time>2022-07-10T08:56:59.000Z</time>
      </trkpt>
      <trkpt lat="44.1882" lon="6.77166">
        <ele>1552.6</ele>
        <time>2022-07-10T08:57:03.000Z</time>
      </trkpt>
      <trkpt lat="44.18816" lon="6.77161">
        <ele>1552.2</ele>
        <time>2022-07-10T08:57:17.000Z</time>
      </trkpt>
      <trkpt lat="44.18815" lon="6.77156">
        <ele>1552.2</ele>
        <time>2022-07-10T08:57:32.000Z</time>
      </trkpt>
      <trkpt lat="44.18817" lon="6.77156">
        <ele>1552.2</ele>
        <time>2022-07-10T08:57:36.000Z</time>
      </trkpt>
      <trkpt lat="44.18816" lon="6.77154">
        <ele>1552.2</ele>
        <time>2022-07-10T08:57:49.000Z</time>
      </trkpt>
      <trkpt lat="44.18816" lon="6.77154">
        <ele>1552.2</ele>
        <time>2022-07-10T08:57:51.000Z</time>
      </trkpt>
      <trkpt lat="44.18817" lon="6.7716">
        <ele>1552.2</ele>
        <time>2022-07-10T08:58:02.000Z</time>
      </trkpt>
      <trkpt lat="44.18817" lon="6.77163">
        <ele>1552.2</ele>
        <time>2022-07-10T08:58:04.000Z</time>
      </trkpt>
      <trkpt lat="44.18818" lon="6.77167">
        <ele>1552.2</ele>
        <time>2022-07-10T08:58:06.000Z</time>
      </trkpt>
      <trkpt lat="44.18818" lon="6.77168">
        <ele>1552.4</ele>
        <time>2022-07-10T08:58:07.000Z</time>
      </trkpt>
      <trkpt lat="44.18817" lon="6.77171">
        <ele>1552.2</ele>
        <time>2022-07-10T08:58:10.000Z</time>
      </trkpt>
      <trkpt lat="44.18816" lon="6.77172">
        <ele>1552.8</ele>
        <time>2022-07-10T08:58:11.000Z</time>
      </trkpt>
      <trkpt lat="44.18815" lon="6.77177">
        <ele>1552.4</ele>
        <time>2022-07-10T08:58:15.000Z</time>
      </trkpt>
      <trkpt lat="44.18812" lon="6.77198">
        <ele>1552.6</ele>
        <time>2022-07-10T08:58:27.000Z</time>
      </trkpt>
      <trkpt lat="44.18816" lon="6.77219">
        <ele>1552.4</ele>
        <time>2022-07-10T08:58:35.000Z</time>
      </trkpt>
      <trkpt lat="44.18816" lon="6.7729">
        <ele>1553.2</ele>
        <time>2022-07-10T08:58:54.000Z</time>
      </trkpt>
      <trkpt lat="44.18815" lon="6.77299">
        <ele>1553.4</ele>
        <time>2022-07-10T08:58:57.000Z</time>
      </trkpt>
      <trkpt lat="44.18814" lon="6.77306">
        <ele>1553.8</ele>
        <time>2022-07-10T08:58:59.000Z</time>
      </trkpt>
      <trkpt lat="44.18813" lon="6.77345">
        <ele>1554.4</ele>
        <time>2022-07-10T08:59:10.000Z</time>
      </trkpt>
      <trkpt lat="44.18822" lon="6.77423">
        <ele>1554.4</ele>
        <time>2022-07-10T08:59:28.000Z</time>
      </trkpt>
      <trkpt lat="44.18823" lon="6.77451">
        <ele>1554.6</ele>
        <time>2022-07-10T08:59:33.000Z</time>
      </trkpt>
      <trkpt lat="44.18823" lon="6.77528">
        <ele>1554.6</ele>
        <time>2022-07-10T08:59:50.000Z</time>
      </trkpt>
      <trkpt lat="44.18818" lon="6.77605">
        <ele>1554.6</ele>
        <time>2022-07-10T09:00:05.000Z</time>
      </trkpt>
      <trkpt lat="44.18813" lon="6.77609">
        <ele>1554.8</ele>
        <time>2022-07-10T09:00:07.000Z</time>
      </trkpt>
      <trkpt lat="44.18803" lon="6.7762">
        <ele>1555.8</ele>
        <time>2022-07-10T09:00:14.000Z</time>
      </trkpt>
      <trkpt lat="44.18802" lon="6.7762">
        <ele>1555.8</ele>
        <time>2022-07-10T09:00:15.000Z</time>
      </trkpt>
      <trkpt lat="44.18789" lon="6.77629">
        <ele>1557</ele>
        <time>2022-07-10T09:00:25.000Z</time>
      </trkpt>
      <trkpt lat="44.18781" lon="6.77638">
        <ele>1557.8</ele>
        <time>2022-07-10T09:00:34.000Z</time>
      </trkpt>
      <trkpt lat="44.18778" lon="6.77639">
        <ele>1558</ele>
        <time>2022-07-10T09:00:38.000Z</time>
      </trkpt>
      <trkpt lat="44.18774" lon="6.77642">
        <ele>1558.8</ele>
        <time>2022-07-10T09:00:43.000Z</time>
      </trkpt>
      <trkpt lat="44.18773" lon="6.77643">
        <ele>1559</ele>
        <time>2022-07-10T09:00:44.000Z</time>
      </trkpt>
      <trkpt lat="44.18772" lon="6.77643">
        <ele>1559</ele>
        <time>2022-07-10T09:00:45.000Z</time>
      </trkpt>
      <trkpt lat="44.18771" lon="6.77643">
        <ele>1559.2</ele>
        <time>2022-07-10T09:00:46.000Z</time>
      </trkpt>
      <trkpt lat="44.18769" lon="6.77648">
        <ele>1560</ele>
        <time>2022-07-10T09:00:49.000Z</time>
      </trkpt>
      <trkpt lat="44.18768" lon="6.77649">
        <ele>1560.2</ele>
        <time>2022-07-10T09:00:50.000Z</time>
      </trkpt>
      <trkpt lat="44.18767" lon="6.77651">
        <ele>1560.4</ele>
        <time>2022-07-10T09:00:52.000Z</time>
      </trkpt>
      <trkpt lat="44.18766" lon="6.77654">
        <ele>1561</ele>
        <time>2022-07-10T09:00:54.000Z</time>
      </trkpt>
      <trkpt lat="44.18766" lon="6.77656">
        <ele>1561.2</ele>
        <time>2022-07-10T09:00:55.000Z</time>
      </trkpt>
      <trkpt lat="44.18764" lon="6.77661">
        <ele>1561.4</ele>
        <time>2022-07-10T09:00:58.000Z</time>
      </trkpt>
      <trkpt lat="44.18762" lon="6.77668">
        <ele>1562.4</ele>
        <time>2022-07-10T09:01:02.000Z</time>
      </trkpt>
      <trkpt lat="44.18758" lon="6.77676">
        <ele>1563.4</ele>
        <time>2022-07-10T09:01:07.000Z</time>
      </trkpt>
      <trkpt lat="44.18754" lon="6.77684">
        <ele>1564.2</ele>
        <time>2022-07-10T09:01:12.000Z</time>
      </trkpt>
      <trkpt lat="44.18751" lon="6.77688">
        <ele>1564.4</ele>
        <time>2022-07-10T09:01:15.000Z</time>
      </trkpt>
      <trkpt lat="44.18743" lon="6.77697">
        <ele>1565.6</ele>
        <time>2022-07-10T09:01:23.000Z</time>
      </trkpt>
      <trkpt lat="44.18738" lon="6.77704">
        <ele>1566.6</ele>
        <time>2022-07-10T09:01:31.000Z</time>
      </trkpt>
      <trkpt lat="44.18738" lon="6.77705">
        <ele>1566.6</ele>
        <time>2022-07-10T09:01:37.000Z</time>
      </trkpt>
      <trkpt lat="44.18737" lon="6.77706">
        <ele>1566.4</ele>
        <time>2022-07-10T09:01:44.000Z</time>
      </trkpt>
      <trkpt lat="44.18736" lon="6.77706">
        <ele>1566.4</ele>
        <time>2022-07-10T09:01:49.000Z</time>
      </trkpt>
      <trkpt lat="44.18736" lon="6.77707">
        <ele>1566.6</ele>
        <time>2022-07-10T09:01:54.000Z</time>
      </trkpt>
      <trkpt lat="44.18737" lon="6.77708">
        <ele>1566.6</ele>
        <time>2022-07-10T09:01:58.000Z</time>
      </trkpt>
      <trkpt lat="44.18737" lon="6.77709">
        <ele>1566.4</ele>
        <time>2022-07-10T09:02:03.000Z</time>
      </trkpt>
      <trkpt lat="44.18737" lon="6.77709">
        <ele>1566.4</ele>
        <time>2022-07-10T09:02:05.000Z</time>
      </trkpt>
      <trkpt lat="44.18737" lon="6.77708">
        <ele>1566.2</ele>
        <time>2022-07-10T09:02:07.000Z</time>
      </trkpt>
      <trkpt lat="44.18737" lon="6.77708">
        <ele>1566.2</ele>
        <time>2022-07-10T09:02:09.000Z</time>
      </trkpt>
      <trkpt lat="44.18737" lon="6.77708">
        <ele>1566.2</ele>
        <time>2022-07-10T09:02:11.000Z</time>
      </trkpt>
      <trkpt lat="44.18737" lon="6.77708">
        <ele>1566.2</ele>
        <time>2022-07-10T09:02:13.000Z</time>
      </trkpt>
      <trkpt lat="44.18737" lon="6.77708">
        <ele>1566.2</ele>
        <time>2022-07-10T09:02:14.000Z</time>
      </trkpt>
      <trkpt lat="44.18737" lon="6.77707">
        <ele>1566.6</ele>
        <time>2022-07-10T09:02:19.000Z</time>
      </trkpt>
      <trkpt lat="44.18737" lon="6.77704">
        <ele>1567</ele>
        <time>2022-07-10T09:02:26.000Z</time>
      </trkpt>
      <trkpt lat="44.18737" lon="6.77704">
        <ele>1567</ele>
        <time>2022-07-10T09:02:29.000Z</time>
      </trkpt>
      <trkpt lat="44.18737" lon="6.77704">
        <ele>1567</ele>
        <time>2022-07-10T09:02:34.000Z</time>
      </trkpt>
      <trkpt lat="44.18737" lon="6.77699">
        <ele>1567</ele>
        <time>2022-07-10T09:02:52.000Z</time>
      </trkpt>
      <trkpt lat="44.18738" lon="6.77699">
        <ele>1567</ele>
        <time>2022-07-10T09:02:56.000Z</time>
      </trkpt>
      <trkpt lat="44.18738" lon="6.77699">
        <ele>1567</ele>
        <time>2022-07-10T09:03:10.000Z</time>
      </trkpt>
      <trkpt lat="44.18745" lon="6.77697">
        <ele>1567.2</ele>
        <time>2022-07-10T09:03:29.000Z</time>
      </trkpt>
      <trkpt lat="44.18745" lon="6.77699">
        <ele>1566.8</ele>
        <time>2022-07-10T09:03:33.000Z</time>
      </trkpt>
      <trkpt lat="44.18746" lon="6.777">
        <ele>1566.2</ele>
        <time>2022-07-10T09:03:47.000Z</time>
      </trkpt>
      <trkpt lat="44.18746" lon="6.777">
        <ele>1566</ele>
        <time>2022-07-10T09:03:55.000Z</time>
      </trkpt>
      <trkpt lat="44.18745" lon="6.77701">
        <ele>1566.2</ele>
        <time>2022-07-10T09:04:09.000Z</time>
      </trkpt>
      <trkpt lat="44.18743" lon="6.77701">
        <ele>1566.2</ele>
        <time>2022-07-10T09:04:23.000Z</time>
      </trkpt>
      <trkpt lat="44.18743" lon="6.77703">
        <ele>1566.4</ele>
        <time>2022-07-10T09:05:01.000Z</time>
      </trkpt>
      <trkpt lat="44.18747" lon="6.77705">
        <ele>1566.8</ele>
        <time>2022-07-10T09:05:16.000Z</time>
      </trkpt>
      <trkpt lat="44.18747" lon="6.77705">
        <ele>1566.8</ele>
        <time>2022-07-10T09:05:28.000Z</time>
      </trkpt>
      <trkpt lat="44.1875" lon="6.77705">
        <ele>1567</ele>
        <time>2022-07-10T09:05:57.000Z</time>
      </trkpt>
      <trkpt lat="44.18748" lon="6.77703">
        <ele>1567</ele>
        <time>2022-07-10T09:06:02.000Z</time>
      </trkpt>
      <trkpt lat="44.18748" lon="6.77702">
        <ele>1567</ele>
        <time>2022-07-10T09:06:05.000Z</time>
      </trkpt>
      <trkpt lat="44.18751" lon="6.77699">
        <ele>1567</ele>
        <time>2022-07-10T09:06:14.000Z</time>
      </trkpt>
      <trkpt lat="44.18752" lon="6.77705">
        <ele>1567</ele>
        <time>2022-07-10T09:06:31.000Z</time>
      </trkpt>
      <trkpt lat="44.18767" lon="6.77709">
        <ele>1567</ele>
        <time>2022-07-10T09:06:59.000Z</time>
      </trkpt>
      <trkpt lat="44.18758" lon="6.77706">
        <ele>1567</ele>
        <time>2022-07-10T09:07:17.000Z</time>
      </trkpt>
      <trkpt lat="44.1875" lon="6.77707">
        <ele>1567.4</ele>
        <time>2022-07-10T09:07:25.000Z</time>
      </trkpt>
      <trkpt lat="44.18748" lon="6.77708">
        <ele>1567.8</ele>
        <time>2022-07-10T09:07:27.000Z</time>
      </trkpt>
      <trkpt lat="44.1874" lon="6.77705">
        <ele>1567.8</ele>
        <time>2022-07-10T09:07:48.000Z</time>
      </trkpt>
      <trkpt lat="44.18744" lon="6.7771">
        <ele>1567.8</ele>
        <time>2022-07-10T09:07:53.000Z</time>
      </trkpt>
      <trkpt lat="44.18749" lon="6.77711">
        <ele>1567.8</ele>
        <time>2022-07-10T09:08:12.000Z</time>
      </trkpt>
      <trkpt lat="44.18739" lon="6.77706">
        <ele>1566.8</ele>
        <time>2022-07-10T09:08:27.000Z</time>
      </trkpt>
      <trkpt lat="44.18736" lon="6.77703">
        <ele>1567.4</ele>
        <time>2022-07-10T09:08:35.000Z</time>
      </trkpt>
      <trkpt lat="44.18733" lon="6.77707">
        <ele>1567.4</ele>
        <time>2022-07-10T09:08:41.000Z</time>
      </trkpt>
      <trkpt lat="44.18732" lon="6.77706">
        <ele>1567.4</ele>
        <time>2022-07-10T09:08:44.000Z</time>
      </trkpt>
      <trkpt lat="44.18729" lon="6.77706">
        <ele>1567.4</ele>
        <time>2022-07-10T09:08:47.000Z</time>
      </trkpt>
      <trkpt lat="44.18726" lon="6.77707">
        <ele>1567.4</ele>
        <time>2022-07-10T09:08:49.000Z</time>
      </trkpt>
      <trkpt lat="44.18725" lon="6.77707">
        <ele>1568</ele>
        <time>2022-07-10T09:08:51.000Z</time>
      </trkpt>
      <trkpt lat="44.18723" lon="6.77707">
        <ele>1567.8</ele>
        <time>2022-07-10T09:08:54.000Z</time>
      </trkpt>
      <trkpt lat="44.18719" lon="6.77707">
        <ele>1568</ele>
        <time>2022-07-10T09:08:58.000Z</time>
      </trkpt>
      <trkpt lat="44.18715" lon="6.77706">
        <ele>1568.4</ele>
        <time>2022-07-10T09:09:03.000Z</time>
      </trkpt>
      <trkpt lat="44.18709" lon="6.77708">
        <ele>1569</ele>
        <time>2022-07-10T09:09:09.000Z</time>
      </trkpt>
      <trkpt lat="44.18704" lon="6.77709">
        <ele>1569.4</ele>
        <time>2022-07-10T09:09:13.000Z</time>
      </trkpt>
      <trkpt lat="44.18701" lon="6.7771">
        <ele>1569.8</ele>
        <time>2022-07-10T09:09:16.000Z</time>
      </trkpt>
      <trkpt lat="44.18695" lon="6.7771">
        <ele>1570.2</ele>
        <time>2022-07-10T09:09:21.000Z</time>
      </trkpt>
      <trkpt lat="44.18682" lon="6.77712">
        <ele>1571</ele>
        <time>2022-07-10T09:09:32.000Z</time>
      </trkpt>
      <trkpt lat="44.1868" lon="6.77714">
        <ele>1571.2</ele>
        <time>2022-07-10T09:09:34.000Z</time>
      </trkpt>
      <trkpt lat="44.18672" lon="6.77739">
        <ele>1571.4</ele>
        <time>2022-07-10T09:09:46.000Z</time>
      </trkpt>
      <trkpt lat="44.1867" lon="6.77745">
        <ele>1571.2</ele>
        <time>2022-07-10T09:09:49.000Z</time>
      </trkpt>
      <trkpt lat="44.18668" lon="6.77755">
        <ele>1571.2</ele>
        <time>2022-07-10T09:09:54.000Z</time>
      </trkpt>
      <trkpt lat="44.18665" lon="6.7776">
        <ele>1571.2</ele>
        <time>2022-07-10T09:09:56.000Z</time>
      </trkpt>
      <trkpt lat="44.18662" lon="6.77767">
        <ele>1571</ele>
        <time>2022-07-10T09:09:59.000Z</time>
      </trkpt>
      <trkpt lat="44.18658" lon="6.77774">
        <ele>1570.6</ele>
        <time>2022-07-10T09:10:02.000Z</time>
      </trkpt>
      <trkpt lat="44.18654" lon="6.77786">
        <ele>1570.2</ele>
        <time>2022-07-10T09:10:08.000Z</time>
      </trkpt>
      <trkpt lat="44.1864" lon="6.77814">
        <ele>1569.2</ele>
        <time>2022-07-10T09:10:20.000Z</time>
      </trkpt>
      <trkpt lat="44.18637" lon="6.77821">
        <ele>1568.6</ele>
        <time>2022-07-10T09:10:23.000Z</time>
      </trkpt>
      <trkpt lat="44.18629" lon="6.77838">
        <ele>1568.2</ele>
        <time>2022-07-10T09:10:28.000Z</time>
      </trkpt>
      <trkpt lat="44.18628" lon="6.77844">
        <ele>1568</ele>
        <time>2022-07-10T09:10:30.000Z</time>
      </trkpt>
      <trkpt lat="44.18629" lon="6.77845">
        <ele>1568.2</ele>
        <time>2022-07-10T09:10:32.000Z</time>
      </trkpt>
      <trkpt lat="44.1863" lon="6.77846">
        <ele>1568.2</ele>
        <time>2022-07-10T09:10:37.000Z</time>
      </trkpt>
      <trkpt lat="44.18634" lon="6.77852">
        <ele>1567.2</ele>
        <time>2022-07-10T09:10:48.000Z</time>
      </trkpt>
      <trkpt lat="44.18637" lon="6.77851">
        <ele>1566.8</ele>
        <time>2022-07-10T09:10:53.000Z</time>
      </trkpt>
      <trkpt lat="44.18639" lon="6.77851">
        <ele>1567</ele>
        <time>2022-07-10T09:10:55.000Z</time>
      </trkpt>
      <trkpt lat="44.18642" lon="6.77853">
        <ele>1567.2</ele>
        <time>2022-07-10T09:10:59.000Z</time>
      </trkpt>
      <trkpt lat="44.18647" lon="6.77855">
        <ele>1568.2</ele>
        <time>2022-07-10T09:11:06.000Z</time>
      </trkpt>
      <trkpt lat="44.18646" lon="6.77854">
        <ele>1568.2</ele>
        <time>2022-07-10T09:11:11.000Z</time>
      </trkpt>
      <trkpt lat="44.18641" lon="6.77858">
        <ele>1568</ele>
        <time>2022-07-10T09:11:26.000Z</time>
      </trkpt>
      <trkpt lat="44.18649" lon="6.77862">
        <ele>1568.8</ele>
        <time>2022-07-10T09:11:46.000Z</time>
      </trkpt>
      <trkpt lat="44.18652" lon="6.77866">
        <ele>1569.2</ele>
        <time>2022-07-10T09:11:50.000Z</time>
      </trkpt>
      <trkpt lat="44.18656" lon="6.77872">
        <ele>1570</ele>
        <time>2022-07-10T09:11:55.000Z</time>
      </trkpt>
      <trkpt lat="44.18665" lon="6.77882">
        <ele>1570.2</ele>
        <time>2022-07-10T09:12:03.000Z</time>
      </trkpt>
      <trkpt lat="44.18669" lon="6.77886">
        <ele>1570.8</ele>
        <time>2022-07-10T09:12:07.000Z</time>
      </trkpt>
      <trkpt lat="44.18672" lon="6.77888">
        <ele>1571</ele>
        <time>2022-07-10T09:12:09.000Z</time>
      </trkpt>
      <trkpt lat="44.18678" lon="6.77913">
        <ele>1571.4</ele>
        <time>2022-07-10T09:12:25.000Z</time>
      </trkpt>
      <trkpt lat="44.18684" lon="6.7796">
        <ele>1572.4</ele>
        <time>2022-07-10T09:12:47.000Z</time>
      </trkpt>
      <trkpt lat="44.18698" lon="6.77988">
        <ele>1573.4</ele>
        <time>2022-07-10T09:13:02.000Z</time>
      </trkpt>
      <trkpt lat="44.1871" lon="6.78006">
        <ele>1574.4</ele>
        <time>2022-07-10T09:13:13.000Z</time>
      </trkpt>
      <trkpt lat="44.18718" lon="6.78017">
        <ele>1574.8</ele>
        <time>2022-07-10T09:13:21.000Z</time>
      </trkpt>
      <trkpt lat="44.18721" lon="6.78022">
        <ele>1575.4</ele>
        <time>2022-07-10T09:13:24.000Z</time>
      </trkpt>
      <trkpt lat="44.18722" lon="6.78023">
        <ele>1575.8</ele>
        <time>2022-07-10T09:13:25.000Z</time>
      </trkpt>
      <trkpt lat="44.18724" lon="6.78029">
        <ele>1576</ele>
        <time>2022-07-10T09:13:28.000Z</time>
      </trkpt>
      <trkpt lat="44.18726" lon="6.78036">
        <ele>1576.8</ele>
        <time>2022-07-10T09:13:32.000Z</time>
      </trkpt>
      <trkpt lat="44.18731" lon="6.78046">
        <ele>1577</ele>
        <time>2022-07-10T09:13:38.000Z</time>
      </trkpt>
      <trkpt lat="44.18734" lon="6.78054">
        <ele>1577.4</ele>
        <time>2022-07-10T09:13:44.000Z</time>
      </trkpt>
      <trkpt lat="44.1874" lon="6.78059">
        <ele>1578</ele>
        <time>2022-07-10T09:13:48.000Z</time>
      </trkpt>
      <trkpt lat="44.18765" lon="6.78062">
        <ele>1579</ele>
        <time>2022-07-10T09:14:00.000Z</time>
      </trkpt>
      <trkpt lat="44.18777" lon="6.78062">
        <ele>1580.2</ele>
        <time>2022-07-10T09:14:08.000Z</time>
      </trkpt>
      <trkpt lat="44.1879" lon="6.78066">
        <ele>1581</ele>
        <time>2022-07-10T09:14:18.000Z</time>
      </trkpt>
      <trkpt lat="44.18795" lon="6.78067">
        <ele>1581.2</ele>
        <time>2022-07-10T09:14:21.000Z</time>
      </trkpt>
      <trkpt lat="44.18815" lon="6.78042">
        <ele>1582.2</ele>
        <time>2022-07-10T09:14:39.000Z</time>
      </trkpt>
      <trkpt lat="44.18836" lon="6.78052">
        <ele>1582.4</ele>
        <time>2022-07-10T09:14:49.000Z</time>
      </trkpt>
      <trkpt lat="44.18845" lon="6.78054">
        <ele>1582.8</ele>
        <time>2022-07-10T09:14:56.000Z</time>
      </trkpt>
      <trkpt lat="44.18845" lon="6.78054">
        <ele>1583.2</ele>
        <time>2022-07-10T09:15:00.000Z</time>
      </trkpt>
      <trkpt lat="44.18841" lon="6.78054">
        <ele>1582.8</ele>
        <time>2022-07-10T09:15:07.000Z</time>
      </trkpt>
      <trkpt lat="44.18838" lon="6.78054">
        <ele>1582.6</ele>
        <time>2022-07-10T09:15:10.000Z</time>
      </trkpt>
      <trkpt lat="44.18836" lon="6.78054">
        <ele>1582.6</ele>
        <time>2022-07-10T09:15:13.000Z</time>
      </trkpt>
      <trkpt lat="44.18834" lon="6.78052">
        <ele>1582.4</ele>
        <time>2022-07-10T09:15:16.000Z</time>
      </trkpt>
      <trkpt lat="44.18833" lon="6.78051">
        <ele>1582.2</ele>
        <time>2022-07-10T09:15:19.000Z</time>
      </trkpt>
      <trkpt lat="44.18837" lon="6.78051">
        <ele>1582</ele>
        <time>2022-07-10T09:15:37.000Z</time>
      </trkpt>
      <trkpt lat="44.18838" lon="6.78049">
        <ele>1581.8</ele>
        <time>2022-07-10T09:15:43.000Z</time>
      </trkpt>
      <trkpt lat="44.18836" lon="6.78051">
        <ele>1582</ele>
        <time>2022-07-10T09:15:51.000Z</time>
      </trkpt>
      <trkpt lat="44.18838" lon="6.78048">
        <ele>1583.4</ele>
        <time>2022-07-10T09:16:03.000Z</time>
      </trkpt>
      <trkpt lat="44.18839" lon="6.78046">
        <ele>1583.2</ele>
        <time>2022-07-10T09:16:05.000Z</time>
      </trkpt>
      <trkpt lat="44.18846" lon="6.7805">
        <ele>1583</ele>
        <time>2022-07-10T09:16:10.000Z</time>
      </trkpt>
      <trkpt lat="44.18846" lon="6.78052">
        <ele>1582.8</ele>
        <time>2022-07-10T09:16:11.000Z</time>
      </trkpt>
      <trkpt lat="44.18854" lon="6.78068">
        <ele>1583.2</ele>
        <time>2022-07-10T09:16:22.000Z</time>
      </trkpt>
      <trkpt lat="44.18859" lon="6.78078">
        <ele>1583.2</ele>
        <time>2022-07-10T09:16:27.000Z</time>
      </trkpt>
      <trkpt lat="44.18875" lon="6.78123">
        <ele>1583.2</ele>
        <time>2022-07-10T09:16:48.000Z</time>
      </trkpt>
      <trkpt lat="44.18877" lon="6.7814">
        <ele>1583.6</ele>
        <time>2022-07-10T09:16:55.000Z</time>
      </trkpt>
      <trkpt lat="44.18886" lon="6.78165">
        <ele>1582.4</ele>
        <time>2022-07-10T09:17:01.000Z</time>
      </trkpt>
      <trkpt lat="44.1889" lon="6.78175">
        <ele>1582.6</ele>
        <time>2022-07-10T09:17:05.000Z</time>
      </trkpt>
      <trkpt lat="44.18892" lon="6.78183">
        <ele>1583.4</ele>
        <time>2022-07-10T09:17:08.000Z</time>
      </trkpt>
      <trkpt lat="44.18897" lon="6.78199">
        <ele>1584.4</ele>
        <time>2022-07-10T09:17:16.000Z</time>
      </trkpt>
      <trkpt lat="44.18899" lon="6.78206">
        <ele>1584.6</ele>
        <time>2022-07-10T09:17:20.000Z</time>
      </trkpt>
      <trkpt lat="44.18907" lon="6.78224">
        <ele>1585.6</ele>
        <time>2022-07-10T09:17:32.000Z</time>
      </trkpt>
      <trkpt lat="44.18911" lon="6.78233">
        <ele>1586.4</ele>
        <time>2022-07-10T09:17:39.000Z</time>
      </trkpt>
      <trkpt lat="44.18912" lon="6.78235">
        <ele>1586.6</ele>
        <time>2022-07-10T09:17:41.000Z</time>
      </trkpt>
      <trkpt lat="44.18931" lon="6.78265">
        <ele>1587</ele>
        <time>2022-07-10T09:18:03.000Z</time>
      </trkpt>
      <trkpt lat="44.18933" lon="6.78273">
        <ele>1587.4</ele>
        <time>2022-07-10T09:18:08.000Z</time>
      </trkpt>
      <trkpt lat="44.18933" lon="6.78274">
        <ele>1587.6</ele>
        <time>2022-07-10T09:18:09.000Z</time>
      </trkpt>
      <trkpt lat="44.18938" lon="6.78292">
        <ele>1588.8</ele>
        <time>2022-07-10T09:18:23.000Z</time>
      </trkpt>
      <trkpt lat="44.18941" lon="6.78296">
        <ele>1588.8</ele>
        <time>2022-07-10T09:18:27.000Z</time>
      </trkpt>
      <trkpt lat="44.18946" lon="6.78302">
        <ele>1588.6</ele>
        <time>2022-07-10T09:18:32.000Z</time>
      </trkpt>
      <trkpt lat="44.18971" lon="6.78364">
        <ele>1588.6</ele>
        <time>2022-07-10T09:18:58.000Z</time>
      </trkpt>
      <trkpt lat="44.18974" lon="6.78376">
        <ele>1588</ele>
        <time>2022-07-10T09:19:00.000Z</time>
      </trkpt>
      <trkpt lat="44.18976" lon="6.78388">
        <ele>1587.6</ele>
        <time>2022-07-10T09:19:02.000Z</time>
      </trkpt>
      <trkpt lat="44.18978" lon="6.78394">
        <ele>1587.4</ele>
        <time>2022-07-10T09:19:03.000Z</time>
      </trkpt>
      <trkpt lat="44.18979" lon="6.78411">
        <ele>1586.6</ele>
        <time>2022-07-10T09:19:06.000Z</time>
      </trkpt>
      <trkpt lat="44.18976" lon="6.78426">
        <ele>1585.6</ele>
        <time>2022-07-10T09:19:09.000Z</time>
      </trkpt>
      <trkpt lat="44.18977" lon="6.78437">
        <ele>1584.4</ele>
        <time>2022-07-10T09:19:11.000Z</time>
      </trkpt>
      <trkpt lat="44.18975" lon="6.78449">
        <ele>1583.4</ele>
        <time>2022-07-10T09:19:13.000Z</time>
      </trkpt>
      <trkpt lat="44.18974" lon="6.78462">
        <ele>1582.6</ele>
        <time>2022-07-10T09:19:15.000Z</time>
      </trkpt>
      <trkpt lat="44.18972" lon="6.78468">
        <ele>1582.4</ele>
        <time>2022-07-10T09:19:16.000Z</time>
      </trkpt>
      <trkpt lat="44.18969" lon="6.7848">
        <ele>1581.6</ele>
        <time>2022-07-10T09:19:18.000Z</time>
      </trkpt>
      <trkpt lat="44.18965" lon="6.78498">
        <ele>1581.4</ele>
        <time>2022-07-10T09:19:21.000Z</time>
      </trkpt>
      <trkpt lat="44.18963" lon="6.78513">
        <ele>1581.2</ele>
        <time>2022-07-10T09:19:24.000Z</time>
      </trkpt>
      <trkpt lat="44.18958" lon="6.78532">
        <ele>1580</ele>
        <time>2022-07-10T09:19:28.000Z</time>
      </trkpt>
      <trkpt lat="44.18955" lon="6.7854">
        <ele>1579</ele>
        <time>2022-07-10T09:19:30.000Z</time>
      </trkpt>
      <trkpt lat="44.18954" lon="6.78546">
        <ele>1578.2</ele>
        <time>2022-07-10T09:19:31.000Z</time>
      </trkpt>
      <trkpt lat="44.18953" lon="6.78553">
        <ele>1577.2</ele>
        <time>2022-07-10T09:19:32.000Z</time>
      </trkpt>
      <trkpt lat="44.18953" lon="6.78565">
        <ele>1576</ele>
        <time>2022-07-10T09:19:34.000Z</time>
      </trkpt>
      <trkpt lat="44.18957" lon="6.7858">
        <ele>1575</ele>
        <time>2022-07-10T09:19:37.000Z</time>
      </trkpt>
      <trkpt lat="44.1896" lon="6.78593">
        <ele>1573.8</ele>
        <time>2022-07-10T09:19:39.000Z</time>
      </trkpt>
      <trkpt lat="44.18963" lon="6.78608">
        <ele>1572.8</ele>
        <time>2022-07-10T09:19:41.000Z</time>
      </trkpt>
      <trkpt lat="44.18963" lon="6.78623">
        <ele>1572.4</ele>
        <time>2022-07-10T09:19:43.000Z</time>
      </trkpt>
      <trkpt lat="44.18959" lon="6.78634">
        <ele>1573.4</ele>
        <time>2022-07-10T09:19:46.000Z</time>
      </trkpt>
      <trkpt lat="44.18958" lon="6.78635">
        <ele>1573.8</ele>
        <time>2022-07-10T09:19:47.000Z</time>
      </trkpt>
      <trkpt lat="44.18958" lon="6.7865">
        <ele>1574.2</ele>
        <time>2022-07-10T09:19:53.000Z</time>
      </trkpt>
      <trkpt lat="44.18957" lon="6.78654">
        <ele>1575</ele>
        <time>2022-07-10T09:19:56.000Z</time>
      </trkpt>
      <trkpt lat="44.1896" lon="6.78662">
        <ele>1575.2</ele>
        <time>2022-07-10T09:20:01.000Z</time>
      </trkpt>
      <trkpt lat="44.18959" lon="6.78664">
        <ele>1575.8</ele>
        <time>2022-07-10T09:20:09.000Z</time>
      </trkpt>
      <trkpt lat="44.18961" lon="6.78669">
        <ele>1576</ele>
        <time>2022-07-10T09:20:20.000Z</time>
      </trkpt>
      <trkpt lat="44.18961" lon="6.78672">
        <ele>1576</ele>
        <time>2022-07-10T09:20:22.000Z</time>
      </trkpt>
      <trkpt lat="44.18962" lon="6.78676">
        <ele>1576</ele>
        <time>2022-07-10T09:20:25.000Z</time>
      </trkpt>
      <trkpt lat="44.18964" lon="6.78692">
        <ele>1577.2</ele>
        <time>2022-07-10T09:20:35.000Z</time>
      </trkpt>
      <trkpt lat="44.18966" lon="6.78696">
        <ele>1577.2</ele>
        <time>2022-07-10T09:20:43.000Z</time>
      </trkpt>
      <trkpt lat="44.18966" lon="6.78699">
        <ele>1577.2</ele>
        <time>2022-07-10T09:20:44.000Z</time>
      </trkpt>
      <trkpt lat="44.18967" lon="6.78732">
        <ele>1578.4</ele>
        <time>2022-07-10T09:20:55.000Z</time>
      </trkpt>
      <trkpt lat="44.18967" lon="6.78734">
        <ele>1578.8</ele>
        <time>2022-07-10T09:20:56.000Z</time>
      </trkpt>
      <trkpt lat="44.18965" lon="6.78741">
        <ele>1579.6</ele>
        <time>2022-07-10T09:20:59.000Z</time>
      </trkpt>
      <trkpt lat="44.1896" lon="6.78747">
        <ele>1580</ele>
        <time>2022-07-10T09:21:03.000Z</time>
      </trkpt>
      <trkpt lat="44.18958" lon="6.7875">
        <ele>1580</ele>
        <time>2022-07-10T09:21:05.000Z</time>
      </trkpt>
      <trkpt lat="44.18958" lon="6.78756">
        <ele>1579.8</ele>
        <time>2022-07-10T09:21:08.000Z</time>
      </trkpt>
      <trkpt lat="44.18965" lon="6.78787">
        <ele>1580.4</ele>
        <time>2022-07-10T09:21:22.000Z</time>
      </trkpt>
      <trkpt lat="44.18964" lon="6.78788">
        <ele>1580.6</ele>
        <time>2022-07-10T09:21:24.000Z</time>
      </trkpt>
      <trkpt lat="44.18964" lon="6.78791">
        <ele>1580.8</ele>
        <time>2022-07-10T09:21:29.000Z</time>
      </trkpt>
      <trkpt lat="44.18966" lon="6.78797">
        <ele>1580.6</ele>
        <time>2022-07-10T09:21:36.000Z</time>
      </trkpt>
      <trkpt lat="44.18966" lon="6.78801">
        <ele>1580.6</ele>
        <time>2022-07-10T09:21:40.000Z</time>
      </trkpt>
      <trkpt lat="44.18966" lon="6.78803">
        <ele>1580.4</ele>
        <time>2022-07-10T09:21:44.000Z</time>
      </trkpt>
      <trkpt lat="44.18968" lon="6.78805">
        <ele>1580.4</ele>
        <time>2022-07-10T09:21:51.000Z</time>
      </trkpt>
      <trkpt lat="44.18967" lon="6.7881">
        <ele>1580.4</ele>
        <time>2022-07-10T09:21:56.000Z</time>
      </trkpt>
      <trkpt lat="44.18967" lon="6.78811">
        <ele>1580.2</ele>
        <time>2022-07-10T09:21:57.000Z</time>
      </trkpt>
      <trkpt lat="44.18967" lon="6.78816">
        <ele>1579.8</ele>
        <time>2022-07-10T09:21:59.000Z</time>
      </trkpt>
      <trkpt lat="44.18967" lon="6.78818">
        <ele>1579.4</ele>
        <time>2022-07-10T09:22:00.000Z</time>
      </trkpt>
      <trkpt lat="44.18961" lon="6.78839">
        <ele>1578.2</ele>
        <time>2022-07-10T09:22:04.000Z</time>
      </trkpt>
      <trkpt lat="44.18962" lon="6.78849">
        <ele>1578</ele>
        <time>2022-07-10T09:22:08.000Z</time>
      </trkpt>
      <trkpt lat="44.18968" lon="6.78867">
        <ele>1577</ele>
        <time>2022-07-10T09:22:16.000Z</time>
      </trkpt>
      <trkpt lat="44.18971" lon="6.78877">
        <ele>1575.8</ele>
        <time>2022-07-10T09:22:19.000Z</time>
      </trkpt>
      <trkpt lat="44.18975" lon="6.78887">
        <ele>1574.8</ele>
        <time>2022-07-10T09:22:24.000Z</time>
      </trkpt>
      <trkpt lat="44.18975" lon="6.78889">
        <ele>1574.6</ele>
        <time>2022-07-10T09:22:27.000Z</time>
      </trkpt>
      <trkpt lat="44.18974" lon="6.78896">
        <ele>1575.8</ele>
        <time>2022-07-10T09:22:39.000Z</time>
      </trkpt>
      <trkpt lat="44.18971" lon="6.78897">
        <ele>1576.4</ele>
        <time>2022-07-10T09:22:45.000Z</time>
      </trkpt>
      <trkpt lat="44.18971" lon="6.78899">
        <ele>1576.8</ele>
        <time>2022-07-10T09:22:48.000Z</time>
      </trkpt>
      <trkpt lat="44.1897" lon="6.78902">
        <ele>1577.2</ele>
        <time>2022-07-10T09:22:52.000Z</time>
      </trkpt>
      <trkpt lat="44.18969" lon="6.78905">
        <ele>1577.8</ele>
        <time>2022-07-10T09:22:55.000Z</time>
      </trkpt>
      <trkpt lat="44.18968" lon="6.78905">
        <ele>1578.2</ele>
        <time>2022-07-10T09:22:57.000Z</time>
      </trkpt>
      <trkpt lat="44.18968" lon="6.78908">
        <ele>1578.8</ele>
        <time>2022-07-10T09:23:00.000Z</time>
      </trkpt>
      <trkpt lat="44.18968" lon="6.78909">
        <ele>1579</ele>
        <time>2022-07-10T09:23:01.000Z</time>
      </trkpt>
      <trkpt lat="44.18968" lon="6.78911">
        <ele>1579.6</ele>
        <time>2022-07-10T09:23:04.000Z</time>
      </trkpt>
      <trkpt lat="44.18968" lon="6.78913">
        <ele>1580.2</ele>
        <time>2022-07-10T09:23:08.000Z</time>
      </trkpt>
      <trkpt lat="44.18968" lon="6.78916">
        <ele>1581</ele>
        <time>2022-07-10T09:23:15.000Z</time>
      </trkpt>
      <trkpt lat="44.18968" lon="6.78916">
        <ele>1581.2</ele>
        <time>2022-07-10T09:23:16.000Z</time>
      </trkpt>
      <trkpt lat="44.18967" lon="6.78921">
        <ele>1582.4</ele>
        <time>2022-07-10T09:23:22.000Z</time>
      </trkpt>
      <trkpt lat="44.18967" lon="6.78927">
        <ele>1583.4</ele>
        <time>2022-07-10T09:23:28.000Z</time>
      </trkpt>
      <trkpt lat="44.18964" lon="6.78932">
        <ele>1584.6</ele>
        <time>2022-07-10T09:23:36.000Z</time>
      </trkpt>
      <trkpt lat="44.18963" lon="6.78936">
        <ele>1585.6</ele>
        <time>2022-07-10T09:23:42.000Z</time>
      </trkpt>
      <trkpt lat="44.18965" lon="6.78945">
        <ele>1586.8</ele>
        <time>2022-07-10T09:23:52.000Z</time>
      </trkpt>
      <trkpt lat="44.18966" lon="6.78948">
        <ele>1588</ele>
        <time>2022-07-10T09:23:57.000Z</time>
      </trkpt>
      <trkpt lat="44.18967" lon="6.78955">
        <ele>1589</ele>
        <time>2022-07-10T09:24:06.000Z</time>
      </trkpt>
      <trkpt lat="44.18966" lon="6.7896">
        <ele>1590.2</ele>
        <time>2022-07-10T09:24:13.000Z</time>
      </trkpt>
      <trkpt lat="44.18964" lon="6.78965">
        <ele>1591.4</ele>
        <time>2022-07-10T09:24:21.000Z</time>
      </trkpt>
      <trkpt lat="44.18964" lon="6.78969">
        <ele>1592.4</ele>
        <time>2022-07-10T09:24:26.000Z</time>
      </trkpt>
      <trkpt lat="44.18964" lon="6.78972">
        <ele>1593.4</ele>
        <time>2022-07-10T09:24:30.000Z</time>
      </trkpt>
      <trkpt lat="44.1896" lon="6.7896">
        <ele>1592.2</ele>
        <time>2022-07-10T09:24:46.000Z</time>
      </trkpt>
      <trkpt lat="44.18959" lon="6.78958">
        <ele>1591</ele>
        <time>2022-07-10T09:24:48.000Z</time>
      </trkpt>
      <trkpt lat="44.1896" lon="6.78963">
        <ele>1590.8</ele>
        <time>2022-07-10T09:24:56.000Z</time>
      </trkpt>
      <trkpt lat="44.18961" lon="6.78969">
        <ele>1592.4</ele>
        <time>2022-07-10T09:25:02.000Z</time>
      </trkpt>
      <trkpt lat="44.18963" lon="6.7897">
        <ele>1593.6</ele>
        <time>2022-07-10T09:25:06.000Z</time>
      </trkpt>
      <trkpt lat="44.18968" lon="6.78978">
        <ele>1593.8</ele>
        <time>2022-07-10T09:25:12.000Z</time>
      </trkpt>
      <trkpt lat="44.1897" lon="6.78981">
        <ele>1594</ele>
        <time>2022-07-10T09:25:14.000Z</time>
      </trkpt>
      <trkpt lat="44.18971" lon="6.78989">
        <ele>1594.4</ele>
        <time>2022-07-10T09:25:19.000Z</time>
      </trkpt>
      <trkpt lat="44.1897" lon="6.78993">
        <ele>1594.6</ele>
        <time>2022-07-10T09:25:21.000Z</time>
      </trkpt>
      <trkpt lat="44.18967" lon="6.79005">
        <ele>1595.6</ele>
        <time>2022-07-10T09:25:29.000Z</time>
      </trkpt>
      <trkpt lat="44.18967" lon="6.79011">
        <ele>1596.2</ele>
        <time>2022-07-10T09:25:33.000Z</time>
      </trkpt>
      <trkpt lat="44.18966" lon="6.79015">
        <ele>1596.6</ele>
        <time>2022-07-10T09:25:36.000Z</time>
      </trkpt>
      <trkpt lat="44.18966" lon="6.79027">
        <ele>1597.8</ele>
        <time>2022-07-10T09:25:46.000Z</time>
      </trkpt>
      <trkpt lat="44.18969" lon="6.79047">
        <ele>1597.2</ele>
        <time>2022-07-10T09:25:57.000Z</time>
      </trkpt>
      <trkpt lat="44.18969" lon="6.79057">
        <ele>1597</ele>
        <time>2022-07-10T09:26:03.000Z</time>
      </trkpt>
      <trkpt lat="44.18968" lon="6.79064">
        <ele>1598</ele>
        <time>2022-07-10T09:26:08.000Z</time>
      </trkpt>
      <trkpt lat="44.18969" lon="6.7907">
        <ele>1598.4</ele>
        <time>2022-07-10T09:26:13.000Z</time>
      </trkpt>
      <trkpt lat="44.18971" lon="6.79074">
        <ele>1598.4</ele>
        <time>2022-07-10T09:26:15.000Z</time>
      </trkpt>
      <trkpt lat="44.18969" lon="6.7908">
        <ele>1598.8</ele>
        <time>2022-07-10T09:26:19.000Z</time>
      </trkpt>
      <trkpt lat="44.18967" lon="6.79085">
        <ele>1599.2</ele>
        <time>2022-07-10T09:26:22.000Z</time>
      </trkpt>
      <trkpt lat="44.18964" lon="6.79095">
        <ele>1600</ele>
        <time>2022-07-10T09:26:30.000Z</time>
      </trkpt>
      <trkpt lat="44.1896" lon="6.79099">
        <ele>1601</ele>
        <time>2022-07-10T09:26:35.000Z</time>
      </trkpt>
      <trkpt lat="44.18959" lon="6.791">
        <ele>1601.2</ele>
        <time>2022-07-10T09:26:38.000Z</time>
      </trkpt>
      <trkpt lat="44.18953" lon="6.7911">
        <ele>1601</ele>
        <time>2022-07-10T09:26:50.000Z</time>
      </trkpt>
      <trkpt lat="44.1895" lon="6.79118">
        <ele>1600</ele>
        <time>2022-07-10T09:26:52.000Z</time>
      </trkpt>
      <trkpt lat="44.18945" lon="6.79143">
        <ele>1600.2</ele>
        <time>2022-07-10T09:27:00.000Z</time>
      </trkpt>
      <trkpt lat="44.18945" lon="6.79146">
        <ele>1600.6</ele>
        <time>2022-07-10T09:27:02.000Z</time>
      </trkpt>
      <trkpt lat="44.18945" lon="6.79151">
        <ele>1601.2</ele>
        <time>2022-07-10T09:27:05.000Z</time>
      </trkpt>
      <trkpt lat="44.18945" lon="6.79159">
        <ele>1602.2</ele>
        <time>2022-07-10T09:27:10.000Z</time>
      </trkpt>
      <trkpt lat="44.18947" lon="6.79167">
        <ele>1602.8</ele>
        <time>2022-07-10T09:27:14.000Z</time>
      </trkpt>
      <trkpt lat="44.18946" lon="6.79171">
        <ele>1603.2</ele>
        <time>2022-07-10T09:27:16.000Z</time>
      </trkpt>
      <trkpt lat="44.18945" lon="6.79182">
        <ele>1604.2</ele>
        <time>2022-07-10T09:27:21.000Z</time>
      </trkpt>
      <trkpt lat="44.18944" lon="6.79184">
        <ele>1604.4</ele>
        <time>2022-07-10T09:27:22.000Z</time>
      </trkpt>
      <trkpt lat="44.18939" lon="6.79195">
        <ele>1605.6</ele>
        <time>2022-07-10T09:27:28.000Z</time>
      </trkpt>
      <trkpt lat="44.18933" lon="6.79205">
        <ele>1606.6</ele>
        <time>2022-07-10T09:27:33.000Z</time>
      </trkpt>
      <trkpt lat="44.18932" lon="6.79207">
        <ele>1606.8</ele>
        <time>2022-07-10T09:27:35.000Z</time>
      </trkpt>
      <trkpt lat="44.18931" lon="6.79208">
        <ele>1607.6</ele>
        <time>2022-07-10T09:27:47.000Z</time>
      </trkpt>
      <trkpt lat="44.18937" lon="6.79216">
        <ele>1608.6</ele>
        <time>2022-07-10T09:28:01.000Z</time>
      </trkpt>
      <trkpt lat="44.18937" lon="6.79217">
        <ele>1608.8</ele>
        <time>2022-07-10T09:28:02.000Z</time>
      </trkpt>
      <trkpt lat="44.18937" lon="6.79223">
        <ele>1609.8</ele>
        <time>2022-07-10T09:28:09.000Z</time>
      </trkpt>
      <trkpt lat="44.18935" lon="6.79225">
        <ele>1610.8</ele>
        <time>2022-07-10T09:28:19.000Z</time>
      </trkpt>
      <trkpt lat="44.18936" lon="6.79233">
        <ele>1611</ele>
        <time>2022-07-10T09:28:28.000Z</time>
      </trkpt>
      <trkpt lat="44.18938" lon="6.79236">
        <ele>1611.4</ele>
        <time>2022-07-10T09:28:33.000Z</time>
      </trkpt>
      <trkpt lat="44.18939" lon="6.79237">
        <ele>1611.2</ele>
        <time>2022-07-10T09:28:38.000Z</time>
      </trkpt>
      <trkpt lat="44.1894" lon="6.79239">
        <ele>1611.2</ele>
        <time>2022-07-10T09:28:40.000Z</time>
      </trkpt>
      <trkpt lat="44.18936" lon="6.79245">
        <ele>1611</ele>
        <time>2022-07-10T09:28:46.000Z</time>
      </trkpt>
      <trkpt lat="44.18934" lon="6.7925">
        <ele>1611.4</ele>
        <time>2022-07-10T09:28:50.000Z</time>
      </trkpt>
      <trkpt lat="44.18934" lon="6.79253">
        <ele>1611.8</ele>
        <time>2022-07-10T09:28:53.000Z</time>
      </trkpt>
      <trkpt lat="44.18934" lon="6.79255">
        <ele>1612.4</ele>
        <time>2022-07-10T09:28:56.000Z</time>
      </trkpt>
      <trkpt lat="44.18935" lon="6.79265">
        <ele>1612</ele>
        <time>2022-07-10T09:29:03.000Z</time>
      </trkpt>
      <trkpt lat="44.18936" lon="6.79273">
        <ele>1611.2</ele>
        <time>2022-07-10T09:29:07.000Z</time>
      </trkpt>
      <trkpt lat="44.18936" lon="6.79275">
        <ele>1611</ele>
        <time>2022-07-10T09:29:08.000Z</time>
      </trkpt>
      <trkpt lat="44.18936" lon="6.79277">
        <ele>1610.8</ele>
        <time>2022-07-10T09:29:10.000Z</time>
      </trkpt>
      <trkpt lat="44.18936" lon="6.79283">
        <ele>1610.4</ele>
        <time>2022-07-10T09:29:14.000Z</time>
      </trkpt>
      <trkpt lat="44.18937" lon="6.79285">
        <ele>1610</ele>
        <time>2022-07-10T09:29:18.000Z</time>
      </trkpt>
      <trkpt lat="44.1894" lon="6.79289">
        <ele>1609.6</ele>
        <time>2022-07-10T09:29:21.000Z</time>
      </trkpt>
      <trkpt lat="44.18941" lon="6.79289">
        <ele>1609.6</ele>
        <time>2022-07-10T09:29:24.000Z</time>
      </trkpt>
      <trkpt lat="44.18941" lon="6.79286">
        <ele>1610</ele>
        <time>2022-07-10T09:29:29.000Z</time>
      </trkpt>
      <trkpt lat="44.18943" lon="6.79284">
        <ele>1610.2</ele>
        <time>2022-07-10T09:29:33.000Z</time>
      </trkpt>
      <trkpt lat="44.18944" lon="6.79283">
        <ele>1610.8</ele>
        <time>2022-07-10T09:29:36.000Z</time>
      </trkpt>
      <trkpt lat="44.18947" lon="6.79282">
        <ele>1611.8</ele>
        <time>2022-07-10T09:29:43.000Z</time>
      </trkpt>
      <trkpt lat="44.18947" lon="6.79282">
        <ele>1612.2</ele>
        <time>2022-07-10T09:29:46.000Z</time>
      </trkpt>
      <trkpt lat="44.18941" lon="6.79275">
        <ele>1612.6</ele>
        <time>2022-07-10T09:30:02.000Z</time>
      </trkpt>
      <trkpt lat="44.18941" lon="6.79274">
        <ele>1612.4</ele>
        <time>2022-07-10T09:30:08.000Z</time>
      </trkpt>
      <trkpt lat="44.18943" lon="6.79275">
        <ele>1612</ele>
        <time>2022-07-10T09:30:13.000Z</time>
      </trkpt>
      <trkpt lat="44.18944" lon="6.79275">
        <ele>1611.6</ele>
        <time>2022-07-10T09:30:15.000Z</time>
      </trkpt>
      <trkpt lat="44.18943" lon="6.79273">
        <ele>1611.4</ele>
        <time>2022-07-10T09:30:17.000Z</time>
      </trkpt>
      <trkpt lat="44.18942" lon="6.79271">
        <ele>1611.4</ele>
        <time>2022-07-10T09:30:19.000Z</time>
      </trkpt>
      <trkpt lat="44.18947" lon="6.79278">
        <ele>1612</ele>
        <time>2022-07-10T09:30:25.000Z</time>
      </trkpt>
      <trkpt lat="44.1895" lon="6.79281">
        <ele>1612.4</ele>
        <time>2022-07-10T09:30:27.000Z</time>
      </trkpt>
      <trkpt lat="44.18952" lon="6.79285">
        <ele>1613</ele>
        <time>2022-07-10T09:30:30.000Z</time>
      </trkpt>
      <trkpt lat="44.18953" lon="6.79286">
        <ele>1613.4</ele>
        <time>2022-07-10T09:30:32.000Z</time>
      </trkpt>
      <trkpt lat="44.18955" lon="6.79288">
        <ele>1613.6</ele>
        <time>2022-07-10T09:30:34.000Z</time>
      </trkpt>
      <trkpt lat="44.18957" lon="6.79289">
        <ele>1614.2</ele>
        <time>2022-07-10T09:30:36.000Z</time>
      </trkpt>
      <trkpt lat="44.18958" lon="6.79291">
        <ele>1614.8</ele>
        <time>2022-07-10T09:30:38.000Z</time>
      </trkpt>
      <trkpt lat="44.18959" lon="6.79292">
        <ele>1615</ele>
        <time>2022-07-10T09:30:39.000Z</time>
      </trkpt>
      <trkpt lat="44.1896" lon="6.79292">
        <ele>1615.4</ele>
        <time>2022-07-10T09:30:40.000Z</time>
      </trkpt>
      <trkpt lat="44.18962" lon="6.79292">
        <ele>1616.2</ele>
        <time>2022-07-10T09:30:42.000Z</time>
      </trkpt>
      <trkpt lat="44.18962" lon="6.7929">
        <ele>1616.6</ele>
        <time>2022-07-10T09:30:44.000Z</time>
      </trkpt>
      <trkpt lat="44.18961" lon="6.79294">
        <ele>1617.4</ele>
        <time>2022-07-10T09:30:49.000Z</time>
      </trkpt>
      <trkpt lat="44.18957" lon="6.79294">
        <ele>1616.8</ele>
        <time>2022-07-10T09:30:55.000Z</time>
      </trkpt>
      <trkpt lat="44.18954" lon="6.79292">
        <ele>1615.8</ele>
        <time>2022-07-10T09:30:57.000Z</time>
      </trkpt>
      <trkpt lat="44.18953" lon="6.79291">
        <ele>1615.2</ele>
        <time>2022-07-10T09:30:58.000Z</time>
      </trkpt>
      <trkpt lat="44.1895" lon="6.79287">
        <ele>1614.2</ele>
        <time>2022-07-10T09:31:02.000Z</time>
      </trkpt>
      <trkpt lat="44.18958" lon="6.79292">
        <ele>1615.2</ele>
        <time>2022-07-10T09:31:16.000Z</time>
      </trkpt>
      <trkpt lat="44.18961" lon="6.79292">
        <ele>1616.4</ele>
        <time>2022-07-10T09:31:20.000Z</time>
      </trkpt>
      <trkpt lat="44.18963" lon="6.79295">
        <ele>1617.6</ele>
        <time>2022-07-10T09:31:24.000Z</time>
      </trkpt>
      <trkpt lat="44.18966" lon="6.79299">
        <ele>1617.8</ele>
        <time>2022-07-10T09:31:34.000Z</time>
      </trkpt>
      <trkpt lat="44.18971" lon="6.79302">
        <ele>1617.8</ele>
        <time>2022-07-10T09:31:46.000Z</time>
      </trkpt>
      <trkpt lat="44.18971" lon="6.793">
        <ele>1617.8</ele>
        <time>2022-07-10T09:31:49.000Z</time>
      </trkpt>
      <trkpt lat="44.18971" lon="6.79301">
        <ele>1617.6</ele>
        <time>2022-07-10T09:31:52.000Z</time>
      </trkpt>
      <trkpt lat="44.1897" lon="6.79301">
        <ele>1617.8</ele>
        <time>2022-07-10T09:31:55.000Z</time>
      </trkpt>
      <trkpt lat="44.18969" lon="6.79301">
        <ele>1618</ele>
        <time>2022-07-10T09:31:57.000Z</time>
      </trkpt>
      <trkpt lat="44.18967" lon="6.79301">
        <ele>1617.8</ele>
        <time>2022-07-10T09:32:02.000Z</time>
      </trkpt>
      <trkpt lat="44.18969" lon="6.79299">
        <ele>1617.8</ele>
        <time>2022-07-10T09:32:06.000Z</time>
      </trkpt>
      <trkpt lat="44.1897" lon="6.793">
        <ele>1618</ele>
        <time>2022-07-10T09:32:09.000Z</time>
      </trkpt>
      <trkpt lat="44.18974" lon="6.79302">
        <ele>1618.4</ele>
        <time>2022-07-10T09:32:13.000Z</time>
      </trkpt>
      <trkpt lat="44.18977" lon="6.79303">
        <ele>1618.6</ele>
        <time>2022-07-10T09:32:15.000Z</time>
      </trkpt>
      <trkpt lat="44.18983" lon="6.79305">
        <ele>1619.2</ele>
        <time>2022-07-10T09:32:20.000Z</time>
      </trkpt>
      <trkpt lat="44.18987" lon="6.79306">
        <ele>1619.6</ele>
        <time>2022-07-10T09:32:23.000Z</time>
      </trkpt>
      <trkpt lat="44.18988" lon="6.79307">
        <ele>1619.8</ele>
        <time>2022-07-10T09:32:24.000Z</time>
      </trkpt>
      <trkpt lat="44.18994" lon="6.79311">
        <ele>1620.6</ele>
        <time>2022-07-10T09:32:28.000Z</time>
      </trkpt>
      <trkpt lat="44.18996" lon="6.79312">
        <ele>1621</ele>
        <time>2022-07-10T09:32:30.000Z</time>
      </trkpt>
      <trkpt lat="44.19" lon="6.79314">
        <ele>1622</ele>
        <time>2022-07-10T09:32:34.000Z</time>
      </trkpt>
      <trkpt lat="44.19005" lon="6.79316">
        <ele>1622.8</ele>
        <time>2022-07-10T09:32:39.000Z</time>
      </trkpt>
      <trkpt lat="44.19007" lon="6.79317">
        <ele>1623.2</ele>
        <time>2022-07-10T09:32:41.000Z</time>
      </trkpt>
      <trkpt lat="44.19012" lon="6.79316">
        <ele>1623.8</ele>
        <time>2022-07-10T09:32:46.000Z</time>
      </trkpt>
      <trkpt lat="44.19016" lon="6.79317">
        <ele>1624.2</ele>
        <time>2022-07-10T09:32:49.000Z</time>
      </trkpt>
      <trkpt lat="44.19025" lon="6.79317">
        <ele>1625.2</ele>
        <time>2022-07-10T09:32:58.000Z</time>
      </trkpt>
      <trkpt lat="44.19026" lon="6.79319">
        <ele>1626.2</ele>
        <time>2022-07-10T09:33:03.000Z</time>
      </trkpt>
      <trkpt lat="44.19025" lon="6.79317">
        <ele>1626</ele>
        <time>2022-07-10T09:33:13.000Z</time>
      </trkpt>
      <trkpt lat="44.19023" lon="6.79324">
        <ele>1626.2</ele>
        <time>2022-07-10T09:33:22.000Z</time>
      </trkpt>
      <trkpt lat="44.19025" lon="6.79324">
        <ele>1626.2</ele>
        <time>2022-07-10T09:33:25.000Z</time>
      </trkpt>
      <trkpt lat="44.19026" lon="6.79323">
        <ele>1626.4</ele>
        <time>2022-07-10T09:33:27.000Z</time>
      </trkpt>
      <trkpt lat="44.19027" lon="6.79326">
        <ele>1626.6</ele>
        <time>2022-07-10T09:33:31.000Z</time>
      </trkpt>
      <trkpt lat="44.19028" lon="6.79329">
        <ele>1626.8</ele>
        <time>2022-07-10T09:33:34.000Z</time>
      </trkpt>
      <trkpt lat="44.1903" lon="6.79334">
        <ele>1627.4</ele>
        <time>2022-07-10T09:33:40.000Z</time>
      </trkpt>
      <trkpt lat="44.19029" lon="6.7934">
        <ele>1628.4</ele>
        <time>2022-07-10T09:33:46.000Z</time>
      </trkpt>
      <trkpt lat="44.19032" lon="6.79345">
        <ele>1629.4</ele>
        <time>2022-07-10T09:33:53.000Z</time>
      </trkpt>
      <trkpt lat="44.19038" lon="6.79354">
        <ele>1630.6</ele>
        <time>2022-07-10T09:34:04.000Z</time>
      </trkpt>
      <trkpt lat="44.1904" lon="6.7936">
        <ele>1631.4</ele>
        <time>2022-07-10T09:34:12.000Z</time>
      </trkpt>
      <trkpt lat="44.19041" lon="6.79361">
        <ele>1631.8</ele>
        <time>2022-07-10T09:34:13.000Z</time>
      </trkpt>
      <trkpt lat="44.19041" lon="6.79362">
        <ele>1632.6</ele>
        <time>2022-07-10T09:34:17.000Z</time>
      </trkpt>
      <trkpt lat="44.19041" lon="6.79362">
        <ele>1632.8</ele>
        <time>2022-07-10T09:34:23.000Z</time>
      </trkpt>
      <trkpt lat="44.19048" lon="6.79363">
        <ele>1631.8</ele>
        <time>2022-07-10T09:34:34.000Z</time>
      </trkpt>
      <trkpt lat="44.19054" lon="6.79362">
        <ele>1630.6</ele>
        <time>2022-07-10T09:34:36.000Z</time>
      </trkpt>
      <trkpt lat="44.19065" lon="6.79365">
        <ele>1630</ele>
        <time>2022-07-10T09:34:42.000Z</time>
      </trkpt>
      <trkpt lat="44.19069" lon="6.79366">
        <ele>1630.4</ele>
        <time>2022-07-10T09:34:48.000Z</time>
      </trkpt>
      <trkpt lat="44.19075" lon="6.7937">
        <ele>1631.6</ele>
        <time>2022-07-10T09:35:02.000Z</time>
      </trkpt>
      <trkpt lat="44.19075" lon="6.7937">
        <ele>1631.8</ele>
        <time>2022-07-10T09:35:03.000Z</time>
      </trkpt>
      <trkpt lat="44.19075" lon="6.79381">
        <ele>1632</ele>
        <time>2022-07-10T09:35:22.000Z</time>
      </trkpt>
      <trkpt lat="44.19078" lon="6.79382">
        <ele>1632.8</ele>
        <time>2022-07-10T09:35:26.000Z</time>
      </trkpt>
      <trkpt lat="44.19083" lon="6.79386">
        <ele>1633.8</ele>
        <time>2022-07-10T09:35:34.000Z</time>
      </trkpt>
      <trkpt lat="44.19084" lon="6.79388">
        <ele>1635</ele>
        <time>2022-07-10T09:35:39.000Z</time>
      </trkpt>
      <trkpt lat="44.19083" lon="6.7939">
        <ele>1635.6</ele>
        <time>2022-07-10T09:35:43.000Z</time>
      </trkpt>
      <trkpt lat="44.19084" lon="6.79392">
        <ele>1636</ele>
        <time>2022-07-10T09:35:46.000Z</time>
      </trkpt>
      <trkpt lat="44.19084" lon="6.79393">
        <ele>1636</ele>
        <time>2022-07-10T09:35:47.000Z</time>
      </trkpt>
      <trkpt lat="44.19084" lon="6.79394">
        <ele>1636.4</ele>
        <time>2022-07-10T09:35:50.000Z</time>
      </trkpt>
      <trkpt lat="44.19084" lon="6.79397">
        <ele>1637</ele>
        <time>2022-07-10T09:35:55.000Z</time>
      </trkpt>
      <trkpt lat="44.19083" lon="6.79406">
        <ele>1638.2</ele>
        <time>2022-07-10T09:36:02.000Z</time>
      </trkpt>
      <trkpt lat="44.19086" lon="6.79414">
        <ele>1638</ele>
        <time>2022-07-10T09:36:11.000Z</time>
      </trkpt>
      <trkpt lat="44.1909" lon="6.79418">
        <ele>1637.6</ele>
        <time>2022-07-10T09:36:16.000Z</time>
      </trkpt>
      <trkpt lat="44.19095" lon="6.79419">
        <ele>1637.8</ele>
        <time>2022-07-10T09:36:22.000Z</time>
      </trkpt>
      <trkpt lat="44.19097" lon="6.79417">
        <ele>1638.2</ele>
        <time>2022-07-10T09:36:27.000Z</time>
      </trkpt>
      <trkpt lat="44.19101" lon="6.79418">
        <ele>1639.2</ele>
        <time>2022-07-10T09:36:33.000Z</time>
      </trkpt>
      <trkpt lat="44.19102" lon="6.79418">
        <ele>1639.2</ele>
        <time>2022-07-10T09:36:34.000Z</time>
      </trkpt>
      <trkpt lat="44.19106" lon="6.79423">
        <ele>1640.4</ele>
        <time>2022-07-10T09:36:41.000Z</time>
      </trkpt>
      <trkpt lat="44.19111" lon="6.7943">
        <ele>1641.4</ele>
        <time>2022-07-10T09:36:50.000Z</time>
      </trkpt>
      <trkpt lat="44.19115" lon="6.79433">
        <ele>1642.6</ele>
        <time>2022-07-10T09:37:01.000Z</time>
      </trkpt>
      <trkpt lat="44.19119" lon="6.79439">
        <ele>1643.6</ele>
        <time>2022-07-10T09:37:12.000Z</time>
      </trkpt>
      <trkpt lat="44.19118" lon="6.79438">
        <ele>1644.8</ele>
        <time>2022-07-10T09:37:30.000Z</time>
      </trkpt>
      <trkpt lat="44.19122" lon="6.7944">
        <ele>1646</ele>
        <time>2022-07-10T09:37:36.000Z</time>
      </trkpt>
      <trkpt lat="44.19124" lon="6.79441">
        <ele>1646.4</ele>
        <time>2022-07-10T09:37:39.000Z</time>
      </trkpt>
      <trkpt lat="44.19126" lon="6.79441">
        <ele>1647.2</ele>
        <time>2022-07-10T09:37:42.000Z</time>
      </trkpt>
      <trkpt lat="44.19132" lon="6.79449">
        <ele>1648.2</ele>
        <time>2022-07-10T09:37:55.000Z</time>
      </trkpt>
      <trkpt lat="44.19134" lon="6.79452">
        <ele>1649.2</ele>
        <time>2022-07-10T09:38:05.000Z</time>
      </trkpt>
      <trkpt lat="44.19132" lon="6.79446">
        <ele>1650.4</ele>
        <time>2022-07-10T09:38:14.000Z</time>
      </trkpt>
      <trkpt lat="44.19132" lon="6.79453">
        <ele>1651.4</ele>
        <time>2022-07-10T09:38:21.000Z</time>
      </trkpt>
      <trkpt lat="44.19132" lon="6.79453">
        <ele>1651.6</ele>
        <time>2022-07-10T09:38:22.000Z</time>
      </trkpt>
      <trkpt lat="44.19131" lon="6.79462">
        <ele>1652.2</ele>
        <time>2022-07-10T09:38:27.000Z</time>
      </trkpt>
      <trkpt lat="44.19132" lon="6.7947">
        <ele>1652.6</ele>
        <time>2022-07-10T09:38:31.000Z</time>
      </trkpt>
      <trkpt lat="44.19132" lon="6.79479">
        <ele>1653.8</ele>
        <time>2022-07-10T09:38:36.000Z</time>
      </trkpt>
      <trkpt lat="44.19135" lon="6.79492">
        <ele>1654.8</ele>
        <time>2022-07-10T09:38:43.000Z</time>
      </trkpt>
      <trkpt lat="44.19135" lon="6.79493">
        <ele>1655</ele>
        <time>2022-07-10T09:38:44.000Z</time>
      </trkpt>
      <trkpt lat="44.19137" lon="6.79494">
        <ele>1656</ele>
        <time>2022-07-10T09:38:51.000Z</time>
      </trkpt>
      <trkpt lat="44.1914" lon="6.79491">
        <ele>1657.2</ele>
        <time>2022-07-10T09:39:02.000Z</time>
      </trkpt>
      <trkpt lat="44.19144" lon="6.79494">
        <ele>1658.2</ele>
        <time>2022-07-10T09:39:10.000Z</time>
      </trkpt>
      <trkpt lat="44.19139" lon="6.79494">
        <ele>1658.8</ele>
        <time>2022-07-10T09:39:18.000Z</time>
      </trkpt>
      <trkpt lat="44.1914" lon="6.79498">
        <ele>1658.6</ele>
        <time>2022-07-10T09:39:26.000Z</time>
      </trkpt>
      <trkpt lat="44.19139" lon="6.79491">
        <ele>1658</ele>
        <time>2022-07-10T09:39:33.000Z</time>
      </trkpt>
      <trkpt lat="44.19139" lon="6.79486">
        <ele>1658.2</ele>
        <time>2022-07-10T09:39:41.000Z</time>
      </trkpt>
      <trkpt lat="44.19138" lon="6.79485">
        <ele>1658.4</ele>
        <time>2022-07-10T09:39:46.000Z</time>
      </trkpt>
      <trkpt lat="44.19138" lon="6.7948">
        <ele>1658.2</ele>
        <time>2022-07-10T09:39:51.000Z</time>
      </trkpt>
      <trkpt lat="44.19136" lon="6.79475">
        <ele>1658.4</ele>
        <time>2022-07-10T09:39:55.000Z</time>
      </trkpt>
      <trkpt lat="44.19134" lon="6.79471">
        <ele>1658.4</ele>
        <time>2022-07-10T09:39:57.000Z</time>
      </trkpt>
      <trkpt lat="44.19131" lon="6.79471">
        <ele>1658</ele>
        <time>2022-07-10T09:40:00.000Z</time>
      </trkpt>
      <trkpt lat="44.19129" lon="6.79471">
        <ele>1657.2</ele>
        <time>2022-07-10T09:40:03.000Z</time>
      </trkpt>
      <trkpt lat="44.19129" lon="6.79469">
        <ele>1657.2</ele>
        <time>2022-07-10T09:40:06.000Z</time>
      </trkpt>
      <trkpt lat="44.19129" lon="6.79468">
        <ele>1657.2</ele>
        <time>2022-07-10T09:40:07.000Z</time>
      </trkpt>
      <trkpt lat="44.19129" lon="6.79465">
        <ele>1656.4</ele>
        <time>2022-07-10T09:40:11.000Z</time>
      </trkpt>
      <trkpt lat="44.19128" lon="6.79464">
        <ele>1656</ele>
        <time>2022-07-10T09:40:12.000Z</time>
      </trkpt>
      <trkpt lat="44.19128" lon="6.79462">
        <ele>1655.8</ele>
        <time>2022-07-10T09:40:13.000Z</time>
      </trkpt>
      <trkpt lat="44.19128" lon="6.79463">
        <ele>1655</ele>
        <time>2022-07-10T09:40:18.000Z</time>
      </trkpt>
      <trkpt lat="44.19134" lon="6.79482">
        <ele>1655</ele>
        <time>2022-07-10T09:40:34.000Z</time>
      </trkpt>
      <trkpt lat="44.19133" lon="6.79485">
        <ele>1654.8</ele>
        <time>2022-07-10T09:40:36.000Z</time>
      </trkpt>
      <trkpt lat="44.19133" lon="6.7949">
        <ele>1655.2</ele>
        <time>2022-07-10T09:40:41.000Z</time>
      </trkpt>
      <trkpt lat="44.19133" lon="6.79491">
        <ele>1655.4</ele>
        <time>2022-07-10T09:40:42.000Z</time>
      </trkpt>
      <trkpt lat="44.19136" lon="6.79494">
        <ele>1656</ele>
        <time>2022-07-10T09:40:49.000Z</time>
      </trkpt>
      <trkpt lat="44.19143" lon="6.79496">
        <ele>1657</ele>
        <time>2022-07-10T09:40:56.000Z</time>
      </trkpt>
      <trkpt lat="44.19144" lon="6.79498">
        <ele>1657.4</ele>
        <time>2022-07-10T09:40:57.000Z</time>
      </trkpt>
      <trkpt lat="44.19148" lon="6.79501">
        <ele>1657.8</ele>
        <time>2022-07-10T09:41:00.000Z</time>
      </trkpt>
      <trkpt lat="44.19151" lon="6.79504">
        <ele>1658.2</ele>
        <time>2022-07-10T09:41:03.000Z</time>
      </trkpt>
      <trkpt lat="44.19153" lon="6.79506">
        <ele>1658.4</ele>
        <time>2022-07-10T09:41:05.000Z</time>
      </trkpt>
      <trkpt lat="44.19153" lon="6.79506">
        <ele>1658.6</ele>
        <time>2022-07-10T09:41:07.000Z</time>
      </trkpt>
      <trkpt lat="44.19153" lon="6.79506">
        <ele>1659</ele>
        <time>2022-07-10T09:41:09.000Z</time>
      </trkpt>
      <trkpt lat="44.19154" lon="6.79506">
        <ele>1659.4</ele>
        <time>2022-07-10T09:41:12.000Z</time>
      </trkpt>
      <trkpt lat="44.19157" lon="6.79509">
        <ele>1659.4</ele>
        <time>2022-07-10T09:41:15.000Z</time>
      </trkpt>
      <trkpt lat="44.19153" lon="6.79508">
        <ele>1660</ele>
        <time>2022-07-10T09:41:22.000Z</time>
      </trkpt>
      <trkpt lat="44.19151" lon="6.79501">
        <ele>1659.8</ele>
        <time>2022-07-10T09:41:27.000Z</time>
      </trkpt>
      <trkpt lat="44.1915" lon="6.79503">
        <ele>1659.4</ele>
        <time>2022-07-10T09:41:31.000Z</time>
      </trkpt>
      <trkpt lat="44.19151" lon="6.79498">
        <ele>1659</ele>
        <time>2022-07-10T09:41:33.000Z</time>
      </trkpt>
      <trkpt lat="44.1915" lon="6.79501">
        <ele>1659</ele>
        <time>2022-07-10T09:41:46.000Z</time>
      </trkpt>
      <trkpt lat="44.19149" lon="6.79497">
        <ele>1659</ele>
        <time>2022-07-10T09:41:50.000Z</time>
      </trkpt>
      <trkpt lat="44.19149" lon="6.79497">
        <ele>1659</ele>
        <time>2022-07-10T09:41:51.000Z</time>
      </trkpt>
      <trkpt lat="44.19151" lon="6.79492">
        <ele>1659.6</ele>
        <time>2022-07-10T09:41:59.000Z</time>
      </trkpt>
      <trkpt lat="44.19151" lon="6.7949">
        <ele>1659.8</ele>
        <time>2022-07-10T09:42:01.000Z</time>
      </trkpt>
      <trkpt lat="44.19151" lon="6.7949">
        <ele>1660</ele>
        <time>2022-07-10T09:42:03.000Z</time>
      </trkpt>
      <trkpt lat="44.19147" lon="6.79455">
        <ele>1659.8</ele>
        <time>2022-07-10T09:42:09.000Z</time>
      </trkpt>
      <trkpt lat="44.19147" lon="6.79454">
        <ele>1660.2</ele>
        <time>2022-07-10T09:42:14.000Z</time>
      </trkpt>
      <trkpt lat="44.19147" lon="6.79449">
        <ele>1660</ele>
        <time>2022-07-10T09:42:19.000Z</time>
      </trkpt>
      <trkpt lat="44.19139" lon="6.79381">
        <ele>1660</ele>
        <time>2022-07-10T09:42:29.000Z</time>
      </trkpt>
      <trkpt lat="44.19138" lon="6.79372">
        <ele>1660</ele>
        <time>2022-07-10T09:42:31.000Z</time>
      </trkpt>
      <trkpt lat="44.19128" lon="6.79308">
        <ele>1659.8</ele>
        <time>2022-07-10T09:42:33.000Z</time>
      </trkpt>
      <trkpt lat="44.19116" lon="6.79229">
        <ele>1659.6</ele>
        <time>2022-07-10T09:42:36.000Z</time>
      </trkpt>
      <trkpt lat="44.19106" lon="6.79149">
        <ele>1659.6</ele>
        <time>2022-07-10T09:42:44.000Z</time>
      </trkpt>
      <trkpt lat="44.19104" lon="6.79132">
        <ele>1660</ele>
        <time>2022-07-10T09:42:47.000Z</time>
      </trkpt>
      <trkpt lat="44.191" lon="6.79113">
        <ele>1659.8</ele>
        <time>2022-07-10T09:42:52.000Z</time>
      </trkpt>
      <trkpt lat="44.19107" lon="6.79055">
        <ele>1659.6</ele>
        <time>2022-07-10T09:42:56.000Z</time>
      </trkpt>
      <trkpt lat="44.19112" lon="6.79049">
        <ele>1659.6</ele>
        <time>2022-07-10T09:42:58.000Z</time>
      </trkpt>
      <trkpt lat="44.19115" lon="6.79046">
        <ele>1659.8</ele>
        <time>2022-07-10T09:43:00.000Z</time>
      </trkpt>
      <trkpt lat="44.19122" lon="6.79053">
        <ele>1660.4</ele>
        <time>2022-07-10T09:43:03.000Z</time>
      </trkpt>
      <trkpt lat="44.19123" lon="6.79058">
        <ele>1660.6</ele>
        <time>2022-07-10T09:43:04.000Z</time>
      </trkpt>
      <trkpt lat="44.19126" lon="6.79033">
        <ele>1661.2</ele>
        <time>2022-07-10T09:43:07.000Z</time>
      </trkpt>
      <trkpt lat="44.19123" lon="6.7901">
        <ele>1661.6</ele>
        <time>2022-07-10T09:43:09.000Z</time>
      </trkpt>
      <trkpt lat="44.19122" lon="6.78972">
        <ele>1662.2</ele>
        <time>2022-07-10T09:43:11.000Z</time>
      </trkpt>
      <trkpt lat="44.19121" lon="6.78945">
        <ele>1662.6</ele>
        <time>2022-07-10T09:43:13.000Z</time>
      </trkpt>
      <trkpt lat="44.1912" lon="6.78934">
        <ele>1662.8</ele>
        <time>2022-07-10T09:43:14.000Z</time>
      </trkpt>
      <trkpt lat="44.19119" lon="6.78924">
        <ele>1663.2</ele>
        <time>2022-07-10T09:43:15.000Z</time>
      </trkpt>
      <trkpt lat="44.19114" lon="6.78902">
        <ele>1663.6</ele>
        <time>2022-07-10T09:43:17.000Z</time>
      </trkpt>
      <trkpt lat="44.19128" lon="6.78964">
        <ele>1663.8</ele>
        <time>2022-07-10T09:43:20.000Z</time>
      </trkpt>
      <trkpt lat="44.19115" lon="6.78955">
        <ele>1664.2</ele>
        <time>2022-07-10T09:43:23.000Z</time>
      </trkpt>
      <trkpt lat="44.19116" lon="6.78954">
        <ele>1665</ele>
        <time>2022-07-10T09:43:27.000Z</time>
      </trkpt>
      <trkpt lat="44.19116" lon="6.78954">
        <ele>1665.2</ele>
        <time>2022-07-10T09:43:38.000Z</time>
      </trkpt>
      <trkpt lat="44.19117" lon="6.78956">
        <ele>1665.6</ele>
        <time>2022-07-10T09:43:49.000Z</time>
      </trkpt>
      <trkpt lat="44.19117" lon="6.78957">
        <ele>1665.2</ele>
        <time>2022-07-10T09:44:03.000Z</time>
      </trkpt>
      <trkpt lat="44.19125" lon="6.78958">
        <ele>1665.8</ele>
        <time>2022-07-10T09:44:11.000Z</time>
      </trkpt>
      <trkpt lat="44.19126" lon="6.7896">
        <ele>1666</ele>
        <time>2022-07-10T09:44:12.000Z</time>
      </trkpt>
      <trkpt lat="44.19128" lon="6.7896">
        <ele>1666.4</ele>
        <time>2022-07-10T09:44:15.000Z</time>
      </trkpt>
      <trkpt lat="44.19129" lon="6.78961">
        <ele>1666.4</ele>
        <time>2022-07-10T09:44:16.000Z</time>
      </trkpt>
      <trkpt lat="44.19131" lon="6.78963">
        <ele>1666.6</ele>
        <time>2022-07-10T09:44:18.000Z</time>
      </trkpt>
      <trkpt lat="44.19202" lon="6.79529">
        <ele>1667</ele>
        <time>2022-07-10T09:44:21.000Z</time>
      </trkpt>
      <trkpt lat="44.19208" lon="6.79537">
        <ele>1668.2</ele>
        <time>2022-07-10T09:44:26.000Z</time>
      </trkpt>
      <trkpt lat="44.19214" lon="6.79539">
        <ele>1669.2</ele>
        <time>2022-07-10T09:44:32.000Z</time>
      </trkpt>
      <trkpt lat="44.19222" lon="6.79538">
        <ele>1670.4</ele>
        <time>2022-07-10T09:44:41.000Z</time>
      </trkpt>
      <trkpt lat="44.19227" lon="6.79538">
        <ele>1671.4</ele>
        <time>2022-07-10T09:44:48.000Z</time>
      </trkpt>
      <trkpt lat="44.19229" lon="6.79539">
        <ele>1671.8</ele>
        <time>2022-07-10T09:44:51.000Z</time>
      </trkpt>
      <trkpt lat="44.19232" lon="6.7954">
        <ele>1672.4</ele>
        <time>2022-07-10T09:44:55.000Z</time>
      </trkpt>
      <trkpt lat="44.19236" lon="6.79539">
        <ele>1673.4</ele>
        <time>2022-07-10T09:45:02.000Z</time>
      </trkpt>
      <trkpt lat="44.1924" lon="6.79539">
        <ele>1674.6</ele>
        <time>2022-07-10T09:45:08.000Z</time>
      </trkpt>
      <trkpt lat="44.19244" lon="6.79537">
        <ele>1675.8</ele>
        <time>2022-07-10T09:45:15.000Z</time>
      </trkpt>
      <trkpt lat="44.19248" lon="6.79535">
        <ele>1676.8</ele>
        <time>2022-07-10T09:45:22.000Z</time>
      </trkpt>
      <trkpt lat="44.19249" lon="6.79533">
        <ele>1677.2</ele>
        <time>2022-07-10T09:45:34.000Z</time>
      </trkpt>
      <trkpt lat="44.19249" lon="6.79533">
        <ele>1677.4</ele>
        <time>2022-07-10T09:45:44.000Z</time>
      </trkpt>
      <trkpt lat="44.19249" lon="6.79533">
        <ele>1677.4</ele>
        <time>2022-07-10T09:45:48.000Z</time>
      </trkpt>
      <trkpt lat="44.19249" lon="6.79533">
        <ele>1677.6</ele>
        <time>2022-07-10T09:45:52.000Z</time>
      </trkpt>
      <trkpt lat="44.19249" lon="6.79533">
        <ele>1677.6</ele>
        <time>2022-07-10T09:45:56.000Z</time>
      </trkpt>
      <trkpt lat="44.19252" lon="6.79534">
        <ele>1678</ele>
        <time>2022-07-10T09:45:59.000Z</time>
      </trkpt>
      <trkpt lat="44.19253" lon="6.79535">
        <ele>1678.2</ele>
        <time>2022-07-10T09:46:02.000Z</time>
      </trkpt>
      <trkpt lat="44.19253" lon="6.79536">
        <ele>1678.4</ele>
        <time>2022-07-10T09:46:04.000Z</time>
      </trkpt>
      <trkpt lat="44.19254" lon="6.79537">
        <ele>1678.6</ele>
        <time>2022-07-10T09:46:07.000Z</time>
      </trkpt>
      <trkpt lat="44.19255" lon="6.7954">
        <ele>1679.2</ele>
        <time>2022-07-10T09:46:12.000Z</time>
      </trkpt>
      <trkpt lat="44.19256" lon="6.7954">
        <ele>1679.6</ele>
        <time>2022-07-10T09:46:16.000Z</time>
      </trkpt>
      <trkpt lat="44.19259" lon="6.79543">
        <ele>1680.2</ele>
        <time>2022-07-10T09:46:20.000Z</time>
      </trkpt>
      <trkpt lat="44.19259" lon="6.79543">
        <ele>1680.2</ele>
        <time>2022-07-10T09:46:21.000Z</time>
      </trkpt>
      <trkpt lat="44.19263" lon="6.79551">
        <ele>1680.6</ele>
        <time>2022-07-10T09:46:27.000Z</time>
      </trkpt>
      <trkpt lat="44.19266" lon="6.79552">
        <ele>1680.6</ele>
        <time>2022-07-10T09:46:29.000Z</time>
      </trkpt>
      <trkpt lat="44.19272" lon="6.79554">
        <ele>1681.2</ele>
        <time>2022-07-10T09:46:36.000Z</time>
      </trkpt>
      <trkpt lat="44.19275" lon="6.79557">
        <ele>1681.8</ele>
        <time>2022-07-10T09:46:41.000Z</time>
      </trkpt>
      <trkpt lat="44.19278" lon="6.7956">
        <ele>1682.4</ele>
        <time>2022-07-10T09:46:46.000Z</time>
      </trkpt>
      <trkpt lat="44.19283" lon="6.79563">
        <ele>1683.4</ele>
        <time>2022-07-10T09:46:53.000Z</time>
      </trkpt>
      <trkpt lat="44.19286" lon="6.79567">
        <ele>1684.6</ele>
        <time>2022-07-10T09:46:58.000Z</time>
      </trkpt>
      <trkpt lat="44.1929" lon="6.79569">
        <ele>1685.2</ele>
        <time>2022-07-10T09:47:02.000Z</time>
      </trkpt>
      <trkpt lat="44.19291" lon="6.79571">
        <ele>1685.6</ele>
        <time>2022-07-10T09:47:05.000Z</time>
      </trkpt>
      <trkpt lat="44.19293" lon="6.79573">
        <ele>1686.6</ele>
        <time>2022-07-10T09:47:09.000Z</time>
      </trkpt>
      <trkpt lat="44.19293" lon="6.79574">
        <ele>1686.8</ele>
        <time>2022-07-10T09:47:10.000Z</time>
      </trkpt>
      <trkpt lat="44.19296" lon="6.79579">
        <ele>1687.6</ele>
        <time>2022-07-10T09:47:15.000Z</time>
      </trkpt>
      <trkpt lat="44.19297" lon="6.79581">
        <ele>1687.8</ele>
        <time>2022-07-10T09:47:17.000Z</time>
      </trkpt>
      <trkpt lat="44.193" lon="6.79584">
        <ele>1688.2</ele>
        <time>2022-07-10T09:47:22.000Z</time>
      </trkpt>
      <trkpt lat="44.19302" lon="6.79586">
        <ele>1688.6</ele>
        <time>2022-07-10T09:47:26.000Z</time>
      </trkpt>
      <trkpt lat="44.19307" lon="6.79594">
        <ele>1689.8</ele>
        <time>2022-07-10T09:47:34.000Z</time>
      </trkpt>
      <trkpt lat="44.19309" lon="6.79602">
        <ele>1690.4</ele>
        <time>2022-07-10T09:47:41.000Z</time>
      </trkpt>
      <trkpt lat="44.1931" lon="6.79602">
        <ele>1690.8</ele>
        <time>2022-07-10T09:47:43.000Z</time>
      </trkpt>
      <trkpt lat="44.1931" lon="6.79603">
        <ele>1691</ele>
        <time>2022-07-10T09:47:44.000Z</time>
      </trkpt>
      <trkpt lat="44.19316" lon="6.7961">
        <ele>1692</ele>
        <time>2022-07-10T09:47:53.000Z</time>
      </trkpt>
      <trkpt lat="44.19317" lon="6.79613">
        <ele>1692.4</ele>
        <time>2022-07-10T09:47:55.000Z</time>
      </trkpt>
      <trkpt lat="44.1932" lon="6.7962">
        <ele>1693.2</ele>
        <time>2022-07-10T09:48:00.000Z</time>
      </trkpt>
      <trkpt lat="44.1932" lon="6.79621">
        <ele>1693.4</ele>
        <time>2022-07-10T09:48:01.000Z</time>
      </trkpt>
      <trkpt lat="44.19322" lon="6.79626">
        <ele>1694.2</ele>
        <time>2022-07-10T09:48:06.000Z</time>
      </trkpt>
      <trkpt lat="44.19321" lon="6.79631">
        <ele>1695.4</ele>
        <time>2022-07-10T09:48:14.000Z</time>
      </trkpt>
      <trkpt lat="44.19322" lon="6.79633">
        <ele>1696.6</ele>
        <time>2022-07-10T09:48:18.000Z</time>
      </trkpt>
      <trkpt lat="44.19322" lon="6.79636">
        <ele>1697.2</ele>
        <time>2022-07-10T09:48:25.000Z</time>
      </trkpt>
      <trkpt lat="44.19323" lon="6.79637">
        <ele>1697.6</ele>
        <time>2022-07-10T09:48:27.000Z</time>
      </trkpt>
      <trkpt lat="44.19325" lon="6.79646">
        <ele>1698.6</ele>
        <time>2022-07-10T09:48:35.000Z</time>
      </trkpt>
      <trkpt lat="44.19328" lon="6.79651">
        <ele>1699.8</ele>
        <time>2022-07-10T09:48:42.000Z</time>
      </trkpt>
      <trkpt lat="44.19331" lon="6.79654">
        <ele>1700.4</ele>
        <time>2022-07-10T09:48:45.000Z</time>
      </trkpt>
      <trkpt lat="44.19332" lon="6.79657">
        <ele>1700.8</ele>
        <time>2022-07-10T09:48:47.000Z</time>
      </trkpt>
      <trkpt lat="44.19333" lon="6.79659">
        <ele>1700.8</ele>
        <time>2022-07-10T09:48:48.000Z</time>
      </trkpt>
      <trkpt lat="44.19336" lon="6.79664">
        <ele>1701.8</ele>
        <time>2022-07-10T09:48:55.000Z</time>
      </trkpt>
      <trkpt lat="44.19341" lon="6.79673">
        <ele>1703</ele>
        <time>2022-07-10T09:49:03.000Z</time>
      </trkpt>
      <trkpt lat="44.19341" lon="6.7968">
        <ele>1704.2</ele>
        <time>2022-07-10T09:49:10.000Z</time>
      </trkpt>
      <trkpt lat="44.1934" lon="6.79685">
        <ele>1705.2</ele>
        <time>2022-07-10T09:49:17.000Z</time>
      </trkpt>
      <trkpt lat="44.19342" lon="6.79691">
        <ele>1706.2</ele>
        <time>2022-07-10T09:49:22.000Z</time>
      </trkpt>
      <trkpt lat="44.19343" lon="6.79701">
        <ele>1707.4</ele>
        <time>2022-07-10T09:49:28.000Z</time>
      </trkpt>
      <trkpt lat="44.19343" lon="6.79708">
        <ele>1708.4</ele>
        <time>2022-07-10T09:49:36.000Z</time>
      </trkpt>
      <trkpt lat="44.19346" lon="6.79712">
        <ele>1709.4</ele>
        <time>2022-07-10T09:49:42.000Z</time>
      </trkpt>
      <trkpt lat="44.19345" lon="6.79715">
        <ele>1710.6</ele>
        <time>2022-07-10T09:49:47.000Z</time>
      </trkpt>
      <trkpt lat="44.19349" lon="6.79723">
        <ele>1711.2</ele>
        <time>2022-07-10T09:49:49.000Z</time>
      </trkpt>
      <trkpt lat="44.1935" lon="6.79729">
        <ele>1711.4</ele>
        <time>2022-07-10T09:49:51.000Z</time>
      </trkpt>
      <trkpt lat="44.19348" lon="6.79733">
        <ele>1711.8</ele>
        <time>2022-07-10T09:49:54.000Z</time>
      </trkpt>
      <trkpt lat="44.19343" lon="6.79737">
        <ele>1712.8</ele>
        <time>2022-07-10T09:49:59.000Z</time>
      </trkpt>
      <trkpt lat="44.19342" lon="6.79738">
        <ele>1713</ele>
        <time>2022-07-10T09:50:00.000Z</time>
      </trkpt>
      <trkpt lat="44.19342" lon="6.79745">
        <ele>1714</ele>
        <time>2022-07-10T09:50:05.000Z</time>
      </trkpt>
      <trkpt lat="44.19343" lon="6.79746">
        <ele>1714.4</ele>
        <time>2022-07-10T09:50:07.000Z</time>
      </trkpt>
      <trkpt lat="44.19344" lon="6.79748">
        <ele>1715</ele>
        <time>2022-07-10T09:50:11.000Z</time>
      </trkpt>
      <trkpt lat="44.19337" lon="6.79741">
        <ele>1715.4</ele>
        <time>2022-07-10T09:50:20.000Z</time>
      </trkpt>
      <trkpt lat="44.19336" lon="6.79739">
        <ele>1714.2</ele>
        <time>2022-07-10T09:50:26.000Z</time>
      </trkpt>
      <trkpt lat="44.19338" lon="6.79741">
        <ele>1714</ele>
        <time>2022-07-10T09:50:33.000Z</time>
      </trkpt>
      <trkpt lat="44.19341" lon="6.79744">
        <ele>1714</ele>
        <time>2022-07-10T09:50:35.000Z</time>
      </trkpt>
      <trkpt lat="44.19344" lon="6.79745">
        <ele>1714</ele>
        <time>2022-07-10T09:50:38.000Z</time>
      </trkpt>
      <trkpt lat="44.19344" lon="6.79745">
        <ele>1713.8</ele>
        <time>2022-07-10T09:50:40.000Z</time>
      </trkpt>
      <trkpt lat="44.19346" lon="6.79743">
        <ele>1714</ele>
        <time>2022-07-10T09:50:43.000Z</time>
      </trkpt>
      <trkpt lat="44.19346" lon="6.79743">
        <ele>1714</ele>
        <time>2022-07-10T09:50:46.000Z</time>
      </trkpt>
      <trkpt lat="44.19333" lon="6.79729">
        <ele>1713.8</ele>
        <time>2022-07-10T09:50:54.000Z</time>
      </trkpt>
      <trkpt lat="44.19333" lon="6.79718">
        <ele>1712.6</ele>
        <time>2022-07-10T09:50:59.000Z</time>
      </trkpt>
      <trkpt lat="44.19333" lon="6.79715">
        <ele>1711.6</ele>
        <time>2022-07-10T09:51:01.000Z</time>
      </trkpt>
      <trkpt lat="44.19333" lon="6.79708">
        <ele>1710.4</ele>
        <time>2022-07-10T09:51:04.000Z</time>
      </trkpt>
      <trkpt lat="44.19334" lon="6.79701">
        <ele>1709.8</ele>
        <time>2022-07-10T09:51:08.000Z</time>
      </trkpt>
      <trkpt lat="44.19334" lon="6.79697">
        <ele>1709.2</ele>
        <time>2022-07-10T09:51:11.000Z</time>
      </trkpt>
      <trkpt lat="44.19334" lon="6.79695">
        <ele>1709</ele>
        <time>2022-07-10T09:51:12.000Z</time>
      </trkpt>
      <trkpt lat="44.19335" lon="6.79688">
        <ele>1708.2</ele>
        <time>2022-07-10T09:51:15.000Z</time>
      </trkpt>
      <trkpt lat="44.19334" lon="6.79679">
        <ele>1707.2</ele>
        <time>2022-07-10T09:51:20.000Z</time>
      </trkpt>
      <trkpt lat="44.19333" lon="6.79676">
        <ele>1707</ele>
        <time>2022-07-10T09:51:21.000Z</time>
      </trkpt>
      <trkpt lat="44.19333" lon="6.79673">
        <ele>1706</ele>
        <time>2022-07-10T09:51:24.000Z</time>
      </trkpt>
      <trkpt lat="44.19337" lon="6.79677">
        <ele>1705</ele>
        <time>2022-07-10T09:51:30.000Z</time>
      </trkpt>
      <trkpt lat="44.19338" lon="6.79681">
        <ele>1704.8</ele>
        <time>2022-07-10T09:51:32.000Z</time>
      </trkpt>
      <trkpt lat="44.19341" lon="6.79685">
        <ele>1705.4</ele>
        <time>2022-07-10T09:51:35.000Z</time>
      </trkpt>
      <trkpt lat="44.19341" lon="6.7969">
        <ele>1706</ele>
        <time>2022-07-10T09:51:39.000Z</time>
      </trkpt>
      <trkpt lat="44.1934" lon="6.79696">
        <ele>1707</ele>
        <time>2022-07-10T09:51:44.000Z</time>
      </trkpt>
      <trkpt lat="44.1934" lon="6.79698">
        <ele>1707</ele>
        <time>2022-07-10T09:51:45.000Z</time>
      </trkpt>
      <trkpt lat="44.19341" lon="6.79705">
        <ele>1707.8</ele>
        <time>2022-07-10T09:51:49.000Z</time>
      </trkpt>
      <trkpt lat="44.19342" lon="6.79708">
        <ele>1708.4</ele>
        <time>2022-07-10T09:51:51.000Z</time>
      </trkpt>
      <trkpt lat="44.19342" lon="6.79711">
        <ele>1708.8</ele>
        <time>2022-07-10T09:51:54.000Z</time>
      </trkpt>
      <trkpt lat="44.19343" lon="6.79715">
        <ele>1709.4</ele>
        <time>2022-07-10T09:51:57.000Z</time>
      </trkpt>
      <trkpt lat="44.19344" lon="6.7972">
        <ele>1710.2</ele>
        <time>2022-07-10T09:52:00.000Z</time>
      </trkpt>
      <trkpt lat="44.19344" lon="6.7972">
        <ele>1710.4</ele>
        <time>2022-07-10T09:52:01.000Z</time>
      </trkpt>
      <trkpt lat="44.19343" lon="6.79721">
        <ele>1710.6</ele>
        <time>2022-07-10T09:52:02.000Z</time>
      </trkpt>
      <trkpt lat="44.19342" lon="6.79724">
        <ele>1711.2</ele>
        <time>2022-07-10T09:52:06.000Z</time>
      </trkpt>
      <trkpt lat="44.19344" lon="6.79726">
        <ele>1711.6</ele>
        <time>2022-07-10T09:52:08.000Z</time>
      </trkpt>
      <trkpt lat="44.19342" lon="6.79729">
        <ele>1712</ele>
        <time>2022-07-10T09:52:12.000Z</time>
      </trkpt>
      <trkpt lat="44.19343" lon="6.79732">
        <ele>1712.6</ele>
        <time>2022-07-10T09:52:14.000Z</time>
      </trkpt>
      <trkpt lat="44.19343" lon="6.79738">
        <ele>1713.4</ele>
        <time>2022-07-10T09:52:18.000Z</time>
      </trkpt>
      <trkpt lat="44.19343" lon="6.79741">
        <ele>1713.8</ele>
        <time>2022-07-10T09:52:20.000Z</time>
      </trkpt>
      <trkpt lat="44.19342" lon="6.79746">
        <ele>1715</ele>
        <time>2022-07-10T09:52:25.000Z</time>
      </trkpt>
      <trkpt lat="44.19342" lon="6.79746">
        <ele>1715.2</ele>
        <time>2022-07-10T09:52:26.000Z</time>
      </trkpt>
      <trkpt lat="44.19341" lon="6.79747">
        <ele>1715.6</ele>
        <time>2022-07-10T09:52:33.000Z</time>
      </trkpt>
      <trkpt lat="44.1934" lon="6.79749">
        <ele>1715.8</ele>
        <time>2022-07-10T09:52:38.000Z</time>
      </trkpt>
      <trkpt lat="44.19334" lon="6.79753">
        <ele>1715.8</ele>
        <time>2022-07-10T09:52:51.000Z</time>
      </trkpt>
      <trkpt lat="44.19334" lon="6.79751">
        <ele>1715.6</ele>
        <time>2022-07-10T09:52:55.000Z</time>
      </trkpt>
      <trkpt lat="44.19334" lon="6.79749">
        <ele>1715.4</ele>
        <time>2022-07-10T09:52:58.000Z</time>
      </trkpt>
      <trkpt lat="44.19337" lon="6.79748">
        <ele>1715.6</ele>
        <time>2022-07-10T09:53:02.000Z</time>
      </trkpt>
      <trkpt lat="44.19338" lon="6.79748">
        <ele>1715.6</ele>
        <time>2022-07-10T09:53:04.000Z</time>
      </trkpt>
      <trkpt lat="44.19341" lon="6.79753">
        <ele>1715.6</ele>
        <time>2022-07-10T09:53:11.000Z</time>
      </trkpt>
      <trkpt lat="44.19344" lon="6.79756">
        <ele>1716</ele>
        <time>2022-07-10T09:53:15.000Z</time>
      </trkpt>
      <trkpt lat="44.19339" lon="6.7976">
        <ele>1716.2</ele>
        <time>2022-07-10T09:53:21.000Z</time>
      </trkpt>
      <trkpt lat="44.19337" lon="6.79765">
        <ele>1716.8</ele>
        <time>2022-07-10T09:53:25.000Z</time>
      </trkpt>
      <trkpt lat="44.19337" lon="6.79766">
        <ele>1716.8</ele>
        <time>2022-07-10T09:53:26.000Z</time>
      </trkpt>
      <trkpt lat="44.19335" lon="6.79768">
        <ele>1717</ele>
        <time>2022-07-10T09:53:28.000Z</time>
      </trkpt>
      <trkpt lat="44.19335" lon="6.79776">
        <ele>1718</ele>
        <time>2022-07-10T09:53:33.000Z</time>
      </trkpt>
      <trkpt lat="44.19332" lon="6.79781">
        <ele>1718.6</ele>
        <time>2022-07-10T09:53:37.000Z</time>
      </trkpt>
      <trkpt lat="44.19332" lon="6.79784">
        <ele>1719.4</ele>
        <time>2022-07-10T09:53:39.000Z</time>
      </trkpt>
      <trkpt lat="44.19328" lon="6.7979">
        <ele>1720.4</ele>
        <time>2022-07-10T09:53:43.000Z</time>
      </trkpt>
      <trkpt lat="44.19326" lon="6.79795">
        <ele>1721</ele>
        <time>2022-07-10T09:53:46.000Z</time>
      </trkpt>
      <trkpt lat="44.19326" lon="6.79796">
        <ele>1721.4</ele>
        <time>2022-07-10T09:53:48.000Z</time>
      </trkpt>
      <trkpt lat="44.19325" lon="6.79797">
        <ele>1721.6</ele>
        <time>2022-07-10T09:53:49.000Z</time>
      </trkpt>
      <trkpt lat="44.19323" lon="6.79799">
        <ele>1721.8</ele>
        <time>2022-07-10T09:53:52.000Z</time>
      </trkpt>
      <trkpt lat="44.19323" lon="6.798">
        <ele>1722</ele>
        <time>2022-07-10T09:53:53.000Z</time>
      </trkpt>
      <trkpt lat="44.19323" lon="6.79806">
        <ele>1722.6</ele>
        <time>2022-07-10T09:53:56.000Z</time>
      </trkpt>
      <trkpt lat="44.19323" lon="6.79808">
        <ele>1723</ele>
        <time>2022-07-10T09:53:58.000Z</time>
      </trkpt>
      <trkpt lat="44.19322" lon="6.79815">
        <ele>1723.6</ele>
        <time>2022-07-10T09:54:04.000Z</time>
      </trkpt>
      <trkpt lat="44.19326" lon="6.79824">
        <ele>1723.4</ele>
        <time>2022-07-10T09:54:17.000Z</time>
      </trkpt>
      <trkpt lat="44.19328" lon="6.79836">
        <ele>1723</ele>
        <time>2022-07-10T09:54:24.000Z</time>
      </trkpt>
      <trkpt lat="44.19328" lon="6.7984">
        <ele>1723.6</ele>
        <time>2022-07-10T09:54:31.000Z</time>
      </trkpt>
      <trkpt lat="44.19327" lon="6.79845">
        <ele>1724.6</ele>
        <time>2022-07-10T09:54:36.000Z</time>
      </trkpt>
      <trkpt lat="44.19328" lon="6.79853">
        <ele>1725.6</ele>
        <time>2022-07-10T09:54:42.000Z</time>
      </trkpt>
      <trkpt lat="44.19328" lon="6.7986">
        <ele>1726.2</ele>
        <time>2022-07-10T09:54:48.000Z</time>
      </trkpt>
      <trkpt lat="44.19328" lon="6.79865">
        <ele>1726.6</ele>
        <time>2022-07-10T09:54:52.000Z</time>
      </trkpt>
      <trkpt lat="44.19328" lon="6.79875">
        <ele>1727.8</ele>
        <time>2022-07-10T09:54:58.000Z</time>
      </trkpt>
      <trkpt lat="44.19328" lon="6.79882">
        <ele>1728.8</ele>
        <time>2022-07-10T09:55:05.000Z</time>
      </trkpt>
      <trkpt lat="44.19326" lon="6.79892">
        <ele>1729.8</ele>
        <time>2022-07-10T09:55:12.000Z</time>
      </trkpt>
      <trkpt lat="44.19319" lon="6.79888">
        <ele>1731</ele>
        <time>2022-07-10T09:55:22.000Z</time>
      </trkpt>
      <trkpt lat="44.19317" lon="6.79881">
        <ele>1731.4</ele>
        <time>2022-07-10T09:55:28.000Z</time>
      </trkpt>
      <trkpt lat="44.19315" lon="6.79878">
        <ele>1732</ele>
        <time>2022-07-10T09:55:33.000Z</time>
      </trkpt>
      <trkpt lat="44.19314" lon="6.79876">
        <ele>1732.2</ele>
        <time>2022-07-10T09:55:37.000Z</time>
      </trkpt>
      <trkpt lat="44.19309" lon="6.79866">
        <ele>1732.2</ele>
        <time>2022-07-10T09:55:55.000Z</time>
      </trkpt>
      <trkpt lat="44.19307" lon="6.79866">
        <ele>1732.2</ele>
        <time>2022-07-10T09:55:59.000Z</time>
      </trkpt>
      <trkpt lat="44.1931" lon="6.79866">
        <ele>1732.2</ele>
        <time>2022-07-10T09:56:02.000Z</time>
      </trkpt>
      <trkpt lat="44.19311" lon="6.79868">
        <ele>1732</ele>
        <time>2022-07-10T09:56:09.000Z</time>
      </trkpt>
      <trkpt lat="44.19307" lon="6.79858">
        <ele>1732</ele>
        <time>2022-07-10T09:56:13.000Z</time>
      </trkpt>
      <trkpt lat="44.19307" lon="6.79854">
        <ele>1732</ele>
        <time>2022-07-10T09:56:15.000Z</time>
      </trkpt>
      <trkpt lat="44.19307" lon="6.79851">
        <ele>1731.8</ele>
        <time>2022-07-10T09:56:18.000Z</time>
      </trkpt>
      <trkpt lat="44.19306" lon="6.7985">
        <ele>1731.4</ele>
        <time>2022-07-10T09:56:21.000Z</time>
      </trkpt>
      <trkpt lat="44.19306" lon="6.79849">
        <ele>1731.4</ele>
        <time>2022-07-10T09:56:24.000Z</time>
      </trkpt>
      <trkpt lat="44.19308" lon="6.79845">
        <ele>1731.2</ele>
        <time>2022-07-10T09:56:29.000Z</time>
      </trkpt>
      <trkpt lat="44.19308" lon="6.79846">
        <ele>1731.4</ele>
        <time>2022-07-10T09:56:32.000Z</time>
      </trkpt>
      <trkpt lat="44.19306" lon="6.79847">
        <ele>1731.6</ele>
        <time>2022-07-10T09:56:34.000Z</time>
      </trkpt>
      <trkpt lat="44.19306" lon="6.79848">
        <ele>1732.2</ele>
        <time>2022-07-10T09:56:36.000Z</time>
      </trkpt>
      <trkpt lat="44.19307" lon="6.79846">
        <ele>1732.6</ele>
        <time>2022-07-10T09:56:38.000Z</time>
      </trkpt>
      <trkpt lat="44.19308" lon="6.79844">
        <ele>1732.8</ele>
        <time>2022-07-10T09:56:40.000Z</time>
      </trkpt>
      <trkpt lat="44.19308" lon="6.79842">
        <ele>1732.8</ele>
        <time>2022-07-10T09:56:43.000Z</time>
      </trkpt>
      <trkpt lat="44.19306" lon="6.79838">
        <ele>1733</ele>
        <time>2022-07-10T09:56:46.000Z</time>
      </trkpt>
      <trkpt lat="44.193" lon="6.79834">
        <ele>1734</ele>
        <time>2022-07-10T09:56:53.000Z</time>
      </trkpt>
      <trkpt lat="44.19297" lon="6.79837">
        <ele>1734.8</ele>
        <time>2022-07-10T09:56:58.000Z</time>
      </trkpt>
      <trkpt lat="44.19296" lon="6.79839">
        <ele>1735.2</ele>
        <time>2022-07-10T09:57:00.000Z</time>
      </trkpt>
      <trkpt lat="44.19297" lon="6.79838">
        <ele>1735.8</ele>
        <time>2022-07-10T09:57:02.000Z</time>
      </trkpt>
      <trkpt lat="44.19297" lon="6.79838">
        <ele>1736.4</ele>
        <time>2022-07-10T09:57:04.000Z</time>
      </trkpt>
      <trkpt lat="44.19298" lon="6.79842">
        <ele>1736.6</ele>
        <time>2022-07-10T09:57:07.000Z</time>
      </trkpt>
      <trkpt lat="44.19302" lon="6.79853">
        <ele>1737.4</ele>
        <time>2022-07-10T09:57:17.000Z</time>
      </trkpt>
      <trkpt lat="44.19305" lon="6.79858">
        <ele>1738.4</ele>
        <time>2022-07-10T09:57:25.000Z</time>
      </trkpt>
      <trkpt lat="44.19302" lon="6.7986">
        <ele>1739.4</ele>
        <time>2022-07-10T09:57:30.000Z</time>
      </trkpt>
      <trkpt lat="44.193" lon="6.79866">
        <ele>1740</ele>
        <time>2022-07-10T09:57:37.000Z</time>
      </trkpt>
      <trkpt lat="44.19299" lon="6.79866">
        <ele>1740.6</ele>
        <time>2022-07-10T09:57:39.000Z</time>
      </trkpt>
      <trkpt lat="44.19296" lon="6.79872">
        <ele>1741.6</ele>
        <time>2022-07-10T09:57:47.000Z</time>
      </trkpt>
      <trkpt lat="44.19294" lon="6.79874">
        <ele>1742.8</ele>
        <time>2022-07-10T09:57:52.000Z</time>
      </trkpt>
      <trkpt lat="44.1929" lon="6.7988">
        <ele>1743.8</ele>
        <time>2022-07-10T09:58:02.000Z</time>
      </trkpt>
      <trkpt lat="44.19289" lon="6.79883">
        <ele>1744.8</ele>
        <time>2022-07-10T09:58:09.000Z</time>
      </trkpt>
      <trkpt lat="44.19286" lon="6.79886">
        <ele>1745.8</ele>
        <time>2022-07-10T09:58:15.000Z</time>
      </trkpt>
      <trkpt lat="44.19286" lon="6.79887">
        <ele>1746</ele>
        <time>2022-07-10T09:58:16.000Z</time>
      </trkpt>
      <trkpt lat="44.19285" lon="6.79891">
        <ele>1747</ele>
        <time>2022-07-10T09:58:24.000Z</time>
      </trkpt>
      <trkpt lat="44.19281" lon="6.79895">
        <ele>1748.2</ele>
        <time>2022-07-10T09:58:30.000Z</time>
      </trkpt>
      <trkpt lat="44.19281" lon="6.79904">
        <ele>1749.2</ele>
        <time>2022-07-10T09:58:36.000Z</time>
      </trkpt>
      <trkpt lat="44.19282" lon="6.79908">
        <ele>1750.2</ele>
        <time>2022-07-10T09:58:42.000Z</time>
      </trkpt>
      <trkpt lat="44.1928" lon="6.79912">
        <ele>1751.4</ele>
        <time>2022-07-10T09:58:48.000Z</time>
      </trkpt>
      <trkpt lat="44.19277" lon="6.79914">
        <ele>1752.4</ele>
        <time>2022-07-10T09:58:52.000Z</time>
      </trkpt>
      <trkpt lat="44.19274" lon="6.79916">
        <ele>1753.6</ele>
        <time>2022-07-10T09:58:57.000Z</time>
      </trkpt>
      <trkpt lat="44.19271" lon="6.79922">
        <ele>1754.6</ele>
        <time>2022-07-10T09:59:03.000Z</time>
      </trkpt>
      <trkpt lat="44.19271" lon="6.79922">
        <ele>1754.6</ele>
        <time>2022-07-10T09:59:04.000Z</time>
      </trkpt>
      <trkpt lat="44.1927" lon="6.79924">
        <ele>1755.6</ele>
        <time>2022-07-10T09:59:11.000Z</time>
      </trkpt>
      <trkpt lat="44.1927" lon="6.79916">
        <ele>1755.6</ele>
        <time>2022-07-10T09:59:18.000Z</time>
      </trkpt>
      <trkpt lat="44.19272" lon="6.7991">
        <ele>1754.6</ele>
        <time>2022-07-10T09:59:23.000Z</time>
      </trkpt>
      <trkpt lat="44.19272" lon="6.79909">
        <ele>1754.4</ele>
        <time>2022-07-10T09:59:24.000Z</time>
      </trkpt>
      <trkpt lat="44.19274" lon="6.79901">
        <ele>1753.4</ele>
        <time>2022-07-10T09:59:29.000Z</time>
      </trkpt>
      <trkpt lat="44.19274" lon="6.79897">
        <ele>1752.4</ele>
        <time>2022-07-10T09:59:31.000Z</time>
      </trkpt>
      <trkpt lat="44.19274" lon="6.79894">
        <ele>1752.2</ele>
        <time>2022-07-10T09:59:32.000Z</time>
      </trkpt>
      <trkpt lat="44.19276" lon="6.7989">
        <ele>1751.2</ele>
        <time>2022-07-10T09:59:35.000Z</time>
      </trkpt>
      <trkpt lat="44.19277" lon="6.79889">
        <ele>1750.8</ele>
        <time>2022-07-10T09:59:36.000Z</time>
      </trkpt>
      <trkpt lat="44.19279" lon="6.79885">
        <ele>1750.2</ele>
        <time>2022-07-10T09:59:38.000Z</time>
      </trkpt>
      <trkpt lat="44.1928" lon="6.79883">
        <ele>1749.8</ele>
        <time>2022-07-10T09:59:39.000Z</time>
      </trkpt>
      <trkpt lat="44.1928" lon="6.79879">
        <ele>1749</ele>
        <time>2022-07-10T09:59:42.000Z</time>
      </trkpt>
      <trkpt lat="44.19281" lon="6.79878">
        <ele>1748.8</ele>
        <time>2022-07-10T09:59:43.000Z</time>
      </trkpt>
      <trkpt lat="44.19281" lon="6.79874">
        <ele>1748</ele>
        <time>2022-07-10T09:59:45.000Z</time>
      </trkpt>
      <trkpt lat="44.19281" lon="6.79873">
        <ele>1747.4</ele>
        <time>2022-07-10T09:59:47.000Z</time>
      </trkpt>
      <trkpt lat="44.19281" lon="6.7988">
        <ele>1747.2</ele>
        <time>2022-07-10T09:59:52.000Z</time>
      </trkpt>
      <trkpt lat="44.19279" lon="6.79889">
        <ele>1748.6</ele>
        <time>2022-07-10T10:00:01.000Z</time>
      </trkpt>
      <trkpt lat="44.1928" lon="6.79896">
        <ele>1749.8</ele>
        <time>2022-07-10T10:00:07.000Z</time>
      </trkpt>
      <trkpt lat="44.19279" lon="6.79899">
        <ele>1750.2</ele>
        <time>2022-07-10T10:00:09.000Z</time>
      </trkpt>
      <trkpt lat="44.19278" lon="6.79903">
        <ele>1750.4</ele>
        <time>2022-07-10T10:00:12.000Z</time>
      </trkpt>
      <trkpt lat="44.19278" lon="6.79908">
        <ele>1750.8</ele>
        <time>2022-07-10T10:00:16.000Z</time>
      </trkpt>
      <trkpt lat="44.19274" lon="6.7991">
        <ele>1751.4</ele>
        <time>2022-07-10T10:00:20.000Z</time>
      </trkpt>
      <trkpt lat="44.19275" lon="6.79911">
        <ele>1751.8</ele>
        <time>2022-07-10T10:00:23.000Z</time>
      </trkpt>
      <trkpt lat="44.19274" lon="6.79912">
        <ele>1752.8</ele>
        <time>2022-07-10T10:00:26.000Z</time>
      </trkpt>
      <trkpt lat="44.19274" lon="6.79912">
        <ele>1753</ele>
        <time>2022-07-10T10:00:27.000Z</time>
      </trkpt>
      <trkpt lat="44.19269" lon="6.79916">
        <ele>1753.6</ele>
        <time>2022-07-10T10:00:32.000Z</time>
      </trkpt>
      <trkpt lat="44.19269" lon="6.7992">
        <ele>1754</ele>
        <time>2022-07-10T10:00:35.000Z</time>
      </trkpt>
      <trkpt lat="44.19269" lon="6.79919">
        <ele>1755.2</ele>
        <time>2022-07-10T10:00:40.000Z</time>
      </trkpt>
      <trkpt lat="44.19266" lon="6.79925">
        <ele>1755.4</ele>
        <time>2022-07-10T10:00:57.000Z</time>
      </trkpt>
      <trkpt lat="44.19274" lon="6.79931">
        <ele>1755.8</ele>
        <time>2022-07-10T10:01:02.000Z</time>
      </trkpt>
      <trkpt lat="44.19273" lon="6.79932">
        <ele>1756.2</ele>
        <time>2022-07-10T10:01:05.000Z</time>
      </trkpt>
      <trkpt lat="44.19274" lon="6.79936">
        <ele>1756.2</ele>
        <time>2022-07-10T10:01:10.000Z</time>
      </trkpt>
      <trkpt lat="44.19266" lon="6.79939">
        <ele>1755.8</ele>
        <time>2022-07-10T10:01:14.000Z</time>
      </trkpt>
      <trkpt lat="44.19265" lon="6.79945">
        <ele>1756.4</ele>
        <time>2022-07-10T10:01:17.000Z</time>
      </trkpt>
      <trkpt lat="44.19265" lon="6.79948">
        <ele>1756.8</ele>
        <time>2022-07-10T10:01:19.000Z</time>
      </trkpt>
      <trkpt lat="44.19265" lon="6.79953">
        <ele>1757.4</ele>
        <time>2022-07-10T10:01:22.000Z</time>
      </trkpt>
      <trkpt lat="44.19265" lon="6.79961">
        <ele>1758.2</ele>
        <time>2022-07-10T10:01:27.000Z</time>
      </trkpt>
      <trkpt lat="44.19264" lon="6.79963">
        <ele>1758.6</ele>
        <time>2022-07-10T10:01:28.000Z</time>
      </trkpt>
      <trkpt lat="44.19264" lon="6.79965">
        <ele>1758.8</ele>
        <time>2022-07-10T10:01:29.000Z</time>
      </trkpt>
      <trkpt lat="44.1926" lon="6.79971">
        <ele>1759.6</ele>
        <time>2022-07-10T10:01:33.000Z</time>
      </trkpt>
      <trkpt lat="44.19258" lon="6.79975">
        <ele>1760.6</ele>
        <time>2022-07-10T10:01:37.000Z</time>
      </trkpt>
      <trkpt lat="44.1926" lon="6.79978">
        <ele>1761.6</ele>
        <time>2022-07-10T10:01:41.000Z</time>
      </trkpt>
      <trkpt lat="44.1926" lon="6.7998">
        <ele>1761.6</ele>
        <time>2022-07-10T10:01:42.000Z</time>
      </trkpt>
      <trkpt lat="44.19263" lon="6.79991">
        <ele>1762.6</ele>
        <time>2022-07-10T10:01:48.000Z</time>
      </trkpt>
      <trkpt lat="44.19265" lon="6.79994">
        <ele>1763</ele>
        <time>2022-07-10T10:01:49.000Z</time>
      </trkpt>
      <trkpt lat="44.19265" lon="6.79999">
        <ele>1763.8</ele>
        <time>2022-07-10T10:01:53.000Z</time>
      </trkpt>
      <trkpt lat="44.19267" lon="6.80009">
        <ele>1764.8</ele>
        <time>2022-07-10T10:01:58.000Z</time>
      </trkpt>
      <trkpt lat="44.19266" lon="6.80013">
        <ele>1766</ele>
        <time>2022-07-10T10:02:02.000Z</time>
      </trkpt>
      <trkpt lat="44.19267" lon="6.80019">
        <ele>1766.8</ele>
        <time>2022-07-10T10:02:07.000Z</time>
      </trkpt>
      <trkpt lat="44.19265" lon="6.80022">
        <ele>1767.2</ele>
        <time>2022-07-10T10:02:11.000Z</time>
      </trkpt>
      <trkpt lat="44.19263" lon="6.80023">
        <ele>1767.2</ele>
        <time>2022-07-10T10:02:20.000Z</time>
      </trkpt>
      <trkpt lat="44.19264" lon="6.80025">
        <ele>1767.2</ele>
        <time>2022-07-10T10:02:29.000Z</time>
      </trkpt>
      <trkpt lat="44.19264" lon="6.80025">
        <ele>1767.2</ele>
        <time>2022-07-10T10:02:33.000Z</time>
      </trkpt>
      <trkpt lat="44.19264" lon="6.80025">
        <ele>1767.2</ele>
        <time>2022-07-10T10:02:38.000Z</time>
      </trkpt>
      <trkpt lat="44.19265" lon="6.80025">
        <ele>1767.2</ele>
        <time>2022-07-10T10:02:44.000Z</time>
      </trkpt>
      <trkpt lat="44.19262" lon="6.80022">
        <ele>1767.4</ele>
        <time>2022-07-10T10:02:47.000Z</time>
      </trkpt>
      <trkpt lat="44.19261" lon="6.80021">
        <ele>1768</ele>
        <time>2022-07-10T10:02:51.000Z</time>
      </trkpt>
      <trkpt lat="44.19259" lon="6.8002">
        <ele>1768.2</ele>
        <time>2022-07-10T10:02:55.000Z</time>
      </trkpt>
      <trkpt lat="44.19253" lon="6.80016">
        <ele>1769.2</ele>
        <time>2022-07-10T10:03:01.000Z</time>
      </trkpt>
      <trkpt lat="44.19248" lon="6.80016">
        <ele>1770.2</ele>
        <time>2022-07-10T10:03:08.000Z</time>
      </trkpt>
      <trkpt lat="44.19249" lon="6.80016">
        <ele>1770.4</ele>
        <time>2022-07-10T10:03:09.000Z</time>
      </trkpt>
      <trkpt lat="44.19249" lon="6.80021">
        <ele>1771.6</ele>
        <time>2022-07-10T10:03:14.000Z</time>
      </trkpt>
      <trkpt lat="44.19247" lon="6.80026">
        <ele>1772.8</ele>
        <time>2022-07-10T10:03:24.000Z</time>
      </trkpt>
      <trkpt lat="44.1925" lon="6.8003">
        <ele>1773.2</ele>
        <time>2022-07-10T10:03:31.000Z</time>
      </trkpt>
      <trkpt lat="44.19255" lon="6.80029">
        <ele>1773.2</ele>
        <time>2022-07-10T10:03:49.000Z</time>
      </trkpt>
      <trkpt lat="44.19248" lon="6.80033">
        <ele>1772.8</ele>
        <time>2022-07-10T10:03:53.000Z</time>
      </trkpt>
      <trkpt lat="44.1924" lon="6.80042">
        <ele>1774</ele>
        <time>2022-07-10T10:03:59.000Z</time>
      </trkpt>
      <trkpt lat="44.19237" lon="6.80049">
        <ele>1774.8</ele>
        <time>2022-07-10T10:04:04.000Z</time>
      </trkpt>
      <trkpt lat="44.19233" lon="6.80051">
        <ele>1775</ele>
        <time>2022-07-10T10:04:06.000Z</time>
      </trkpt>
      <trkpt lat="44.1923" lon="6.80053">
        <ele>1775.2</ele>
        <time>2022-07-10T10:04:08.000Z</time>
      </trkpt>
      <trkpt lat="44.19225" lon="6.8006">
        <ele>1776.2</ele>
        <time>2022-07-10T10:04:13.000Z</time>
      </trkpt>
      <trkpt lat="44.19218" lon="6.80069">
        <ele>1777.4</ele>
        <time>2022-07-10T10:04:18.000Z</time>
      </trkpt>
      <trkpt lat="44.19217" lon="6.80069">
        <ele>1777.8</ele>
        <time>2022-07-10T10:04:20.000Z</time>
      </trkpt>
      <trkpt lat="44.19212" lon="6.80071">
        <ele>1778.4</ele>
        <time>2022-07-10T10:04:27.000Z</time>
      </trkpt>
      <trkpt lat="44.19213" lon="6.80069">
        <ele>1778.4</ele>
        <time>2022-07-10T10:04:29.000Z</time>
      </trkpt>
      <trkpt lat="44.19216" lon="6.80066">
        <ele>1778.8</ele>
        <time>2022-07-10T10:04:35.000Z</time>
      </trkpt>
      <trkpt lat="44.19216" lon="6.80068">
        <ele>1778.4</ele>
        <time>2022-07-10T10:04:41.000Z</time>
      </trkpt>
      <trkpt lat="44.19214" lon="6.80061">
        <ele>1778.8</ele>
        <time>2022-07-10T10:04:54.000Z</time>
      </trkpt>
      <trkpt lat="44.19215" lon="6.80057">
        <ele>1778.8</ele>
        <time>2022-07-10T10:04:57.000Z</time>
      </trkpt>
      <trkpt lat="44.19217" lon="6.80053">
        <ele>1778.8</ele>
        <time>2022-07-10T10:05:00.000Z</time>
      </trkpt>
      <trkpt lat="44.19217" lon="6.80053">
        <ele>1778.8</ele>
        <time>2022-07-10T10:05:01.000Z</time>
      </trkpt>
      <trkpt lat="44.19218" lon="6.80051">
        <ele>1778.8</ele>
        <time>2022-07-10T10:05:03.000Z</time>
      </trkpt>
      <trkpt lat="44.19218" lon="6.80051">
        <ele>1779</ele>
        <time>2022-07-10T10:05:06.000Z</time>
      </trkpt>
      <trkpt lat="44.19217" lon="6.80051">
        <ele>1779.2</ele>
        <time>2022-07-10T10:05:09.000Z</time>
      </trkpt>
      <trkpt lat="44.19217" lon="6.80051">
        <ele>1779.2</ele>
        <time>2022-07-10T10:05:13.000Z</time>
      </trkpt>
      <trkpt lat="44.19224" lon="6.80047">
        <ele>1778.8</ele>
        <time>2022-07-10T10:05:21.000Z</time>
      </trkpt>
      <trkpt lat="44.19226" lon="6.80035">
        <ele>1779</ele>
        <time>2022-07-10T10:05:28.000Z</time>
      </trkpt>
      <trkpt lat="44.19223" lon="6.8003">
        <ele>1779.4</ele>
        <time>2022-07-10T10:05:31.000Z</time>
      </trkpt>
      <trkpt lat="44.19222" lon="6.80028">
        <ele>1779.6</ele>
        <time>2022-07-10T10:05:32.000Z</time>
      </trkpt>
      <trkpt lat="44.1922" lon="6.80019">
        <ele>1780.2</ele>
        <time>2022-07-10T10:05:38.000Z</time>
      </trkpt>
      <trkpt lat="44.19218" lon="6.80012">
        <ele>1780.2</ele>
        <time>2022-07-10T10:05:43.000Z</time>
      </trkpt>
      <trkpt lat="44.1921" lon="6.80001">
        <ele>1780.6</ele>
        <time>2022-07-10T10:05:50.000Z</time>
      </trkpt>
      <trkpt lat="44.19209" lon="6.79998">
        <ele>1780.6</ele>
        <time>2022-07-10T10:05:51.000Z</time>
      </trkpt>
      <trkpt lat="44.19209" lon="6.79994">
        <ele>1780.6</ele>
        <time>2022-07-10T10:05:53.000Z</time>
      </trkpt>
      <trkpt lat="44.19208" lon="6.79991">
        <ele>1780.8</ele>
        <time>2022-07-10T10:05:55.000Z</time>
      </trkpt>
      <trkpt lat="44.19205" lon="6.79988">
        <ele>1780.8</ele>
        <time>2022-07-10T10:05:57.000Z</time>
      </trkpt>
      <trkpt lat="44.19199" lon="6.79983">
        <ele>1781.4</ele>
        <time>2022-07-10T10:06:02.000Z</time>
      </trkpt>
      <trkpt lat="44.19198" lon="6.79982">
        <ele>1781.6</ele>
        <time>2022-07-10T10:06:03.000Z</time>
      </trkpt>
      <trkpt lat="44.19198" lon="6.79979">
        <ele>1781.6</ele>
        <time>2022-07-10T10:06:04.000Z</time>
      </trkpt>
      <trkpt lat="44.19197" lon="6.79978">
        <ele>1781.8</ele>
        <time>2022-07-10T10:06:05.000Z</time>
      </trkpt>
      <trkpt lat="44.19195" lon="6.79974">
        <ele>1782.8</ele>
        <time>2022-07-10T10:06:09.000Z</time>
      </trkpt>
      <trkpt lat="44.19191" lon="6.79962">
        <ele>1783.6</ele>
        <time>2022-07-10T10:06:16.000Z</time>
      </trkpt>
      <trkpt lat="44.19191" lon="6.79959">
        <ele>1783.8</ele>
        <time>2022-07-10T10:06:18.000Z</time>
      </trkpt>
      <trkpt lat="44.19191" lon="6.79956">
        <ele>1783.8</ele>
        <time>2022-07-10T10:06:19.000Z</time>
      </trkpt>
      <trkpt lat="44.19191" lon="6.79947">
        <ele>1784.4</ele>
        <time>2022-07-10T10:06:24.000Z</time>
      </trkpt>
      <trkpt lat="44.19191" lon="6.79943">
        <ele>1784.8</ele>
        <time>2022-07-10T10:06:26.000Z</time>
      </trkpt>
      <trkpt lat="44.19191" lon="6.79941">
        <ele>1785</ele>
        <time>2022-07-10T10:06:27.000Z</time>
      </trkpt>
      <trkpt lat="44.19191" lon="6.79937">
        <ele>1785.4</ele>
        <time>2022-07-10T10:06:29.000Z</time>
      </trkpt>
      <trkpt lat="44.19191" lon="6.79931">
        <ele>1786</ele>
        <time>2022-07-10T10:06:33.000Z</time>
      </trkpt>
      <trkpt lat="44.1919" lon="6.79921">
        <ele>1787</ele>
        <time>2022-07-10T10:06:39.000Z</time>
      </trkpt>
      <trkpt lat="44.19189" lon="6.79916">
        <ele>1787.8</ele>
        <time>2022-07-10T10:06:44.000Z</time>
      </trkpt>
      <trkpt lat="44.19189" lon="6.79914">
        <ele>1788</ele>
        <time>2022-07-10T10:06:45.000Z</time>
      </trkpt>
      <trkpt lat="44.19188" lon="6.79912">
        <ele>1788.4</ele>
        <time>2022-07-10T10:06:46.000Z</time>
      </trkpt>
      <trkpt lat="44.19188" lon="6.79911">
        <ele>1788.6</ele>
        <time>2022-07-10T10:06:47.000Z</time>
      </trkpt>
      <trkpt lat="44.19186" lon="6.79903">
        <ele>1789.2</ele>
        <time>2022-07-10T10:06:52.000Z</time>
      </trkpt>
      <trkpt lat="44.19185" lon="6.79902">
        <ele>1789.4</ele>
        <time>2022-07-10T10:06:53.000Z</time>
      </trkpt>
      <trkpt lat="44.19184" lon="6.79899">
        <ele>1789.6</ele>
        <time>2022-07-10T10:06:55.000Z</time>
      </trkpt>
      <trkpt lat="44.19181" lon="6.79892">
        <ele>1790.6</ele>
        <time>2022-07-10T10:06:59.000Z</time>
      </trkpt>
      <trkpt lat="44.1918" lon="6.79887">
        <ele>1791.6</ele>
        <time>2022-07-10T10:07:02.000Z</time>
      </trkpt>
      <trkpt lat="44.19177" lon="6.79881">
        <ele>1792.4</ele>
        <time>2022-07-10T10:07:06.000Z</time>
      </trkpt>
      <trkpt lat="44.19176" lon="6.79877">
        <ele>1792.8</ele>
        <time>2022-07-10T10:07:09.000Z</time>
      </trkpt>
      <trkpt lat="44.19175" lon="6.79873">
        <ele>1793.2</ele>
        <time>2022-07-10T10:07:12.000Z</time>
      </trkpt>
      <trkpt lat="44.19174" lon="6.79869">
        <ele>1793.4</ele>
        <time>2022-07-10T10:07:14.000Z</time>
      </trkpt>
      <trkpt lat="44.19174" lon="6.79866">
        <ele>1793.8</ele>
        <time>2022-07-10T10:07:16.000Z</time>
      </trkpt>
      <trkpt lat="44.19173" lon="6.79863">
        <ele>1794</ele>
        <time>2022-07-10T10:07:17.000Z</time>
      </trkpt>
      <trkpt lat="44.1917" lon="6.7985">
        <ele>1795.2</ele>
        <time>2022-07-10T10:07:24.000Z</time>
      </trkpt>
      <trkpt lat="44.19166" lon="6.79843">
        <ele>1796.2</ele>
        <time>2022-07-10T10:07:29.000Z</time>
      </trkpt>
      <trkpt lat="44.19164" lon="6.79835">
        <ele>1797</ele>
        <time>2022-07-10T10:07:35.000Z</time>
      </trkpt>
      <trkpt lat="44.19163" lon="6.79832">
        <ele>1797.4</ele>
        <time>2022-07-10T10:07:37.000Z</time>
      </trkpt>
      <trkpt lat="44.19163" lon="6.79826">
        <ele>1798</ele>
        <time>2022-07-10T10:07:41.000Z</time>
      </trkpt>
      <trkpt lat="44.1916" lon="6.79824">
        <ele>1798.6</ele>
        <time>2022-07-10T10:07:44.000Z</time>
      </trkpt>
      <trkpt lat="44.19159" lon="6.79819">
        <ele>1799</ele>
        <time>2022-07-10T10:07:51.000Z</time>
      </trkpt>
      <trkpt lat="44.19161" lon="6.79816">
        <ele>1799</ele>
        <time>2022-07-10T10:08:02.000Z</time>
      </trkpt>
      <trkpt lat="44.19162" lon="6.79818">
        <ele>1798.8</ele>
        <time>2022-07-10T10:08:06.000Z</time>
      </trkpt>
      <trkpt lat="44.19162" lon="6.79819">
        <ele>1798.6</ele>
        <time>2022-07-10T10:08:09.000Z</time>
      </trkpt>
      <trkpt lat="44.19162" lon="6.79819">
        <ele>1798.6</ele>
        <time>2022-07-10T10:08:11.000Z</time>
      </trkpt>
      <trkpt lat="44.19162" lon="6.7982">
        <ele>1798.6</ele>
        <time>2022-07-10T10:08:14.000Z</time>
      </trkpt>
      <trkpt lat="44.19162" lon="6.79821">
        <ele>1798.4</ele>
        <time>2022-07-10T10:08:18.000Z</time>
      </trkpt>
      <trkpt lat="44.19162" lon="6.79821">
        <ele>1798.4</ele>
        <time>2022-07-10T10:08:21.000Z</time>
      </trkpt>
      <trkpt lat="44.19161" lon="6.7982">
        <ele>1798.4</ele>
        <time>2022-07-10T10:08:27.000Z</time>
      </trkpt>
      <trkpt lat="44.19159" lon="6.79816">
        <ele>1798.4</ele>
        <time>2022-07-10T10:08:40.000Z</time>
      </trkpt>
      <trkpt lat="44.19159" lon="6.79817">
        <ele>1798.4</ele>
        <time>2022-07-10T10:08:49.000Z</time>
      </trkpt>
      <trkpt lat="44.19156" lon="6.79814">
        <ele>1798.6</ele>
        <time>2022-07-10T10:08:57.000Z</time>
      </trkpt>
      <trkpt lat="44.19155" lon="6.79813">
        <ele>1798.8</ele>
        <time>2022-07-10T10:09:00.000Z</time>
      </trkpt>
      <trkpt lat="44.19154" lon="6.79811">
        <ele>1799</ele>
        <time>2022-07-10T10:09:01.000Z</time>
      </trkpt>
      <trkpt lat="44.19152" lon="6.79807">
        <ele>1799.6</ele>
        <time>2022-07-10T10:09:07.000Z</time>
      </trkpt>
      <trkpt lat="44.19149" lon="6.79806">
        <ele>1800</ele>
        <time>2022-07-10T10:09:10.000Z</time>
      </trkpt>
      <trkpt lat="44.19148" lon="6.79805">
        <ele>1800.6</ele>
        <time>2022-07-10T10:09:14.000Z</time>
      </trkpt>
      <trkpt lat="44.19149" lon="6.79805">
        <ele>1800.6</ele>
        <time>2022-07-10T10:09:15.000Z</time>
      </trkpt>
      <trkpt lat="44.19145" lon="6.79803">
        <ele>1801.2</ele>
        <time>2022-07-10T10:09:18.000Z</time>
      </trkpt>
      <trkpt lat="44.19145" lon="6.79804">
        <ele>1801.4</ele>
        <time>2022-07-10T10:09:20.000Z</time>
      </trkpt>
      <trkpt lat="44.19145" lon="6.79804">
        <ele>1801.8</ele>
        <time>2022-07-10T10:09:22.000Z</time>
      </trkpt>
      <trkpt lat="44.19143" lon="6.798">
        <ele>1803</ele>
        <time>2022-07-10T10:09:28.000Z</time>
      </trkpt>
      <trkpt lat="44.19143" lon="6.79794">
        <ele>1803.6</ele>
        <time>2022-07-10T10:09:42.000Z</time>
      </trkpt>
      <trkpt lat="44.19142" lon="6.79794">
        <ele>1803.6</ele>
        <time>2022-07-10T10:09:48.000Z</time>
      </trkpt>
      <trkpt lat="44.1914" lon="6.79796">
        <ele>1803.8</ele>
        <time>2022-07-10T10:09:52.000Z</time>
      </trkpt>
      <trkpt lat="44.1914" lon="6.79795">
        <ele>1803.8</ele>
        <time>2022-07-10T10:09:55.000Z</time>
      </trkpt>
      <trkpt lat="44.1914" lon="6.79794">
        <ele>1803.6</ele>
        <time>2022-07-10T10:09:57.000Z</time>
      </trkpt>
      <trkpt lat="44.19141" lon="6.79786">
        <ele>1803.6</ele>
        <time>2022-07-10T10:10:05.000Z</time>
      </trkpt>
      <trkpt lat="44.19138" lon="6.7978">
        <ele>1803.8</ele>
        <time>2022-07-10T10:10:11.000Z</time>
      </trkpt>
      <trkpt lat="44.19138" lon="6.79779">
        <ele>1804</ele>
        <time>2022-07-10T10:10:12.000Z</time>
      </trkpt>
      <trkpt lat="44.19139" lon="6.79779">
        <ele>1804</ele>
        <time>2022-07-10T10:10:13.000Z</time>
      </trkpt>
      <trkpt lat="44.19138" lon="6.79776">
        <ele>1804.6</ele>
        <time>2022-07-10T10:10:17.000Z</time>
      </trkpt>
      <trkpt lat="44.19136" lon="6.79775">
        <ele>1805</ele>
        <time>2022-07-10T10:10:20.000Z</time>
      </trkpt>
      <trkpt lat="44.19136" lon="6.79776">
        <ele>1805.6</ele>
        <time>2022-07-10T10:10:22.000Z</time>
      </trkpt>
      <trkpt lat="44.19135" lon="6.79781">
        <ele>1806.2</ele>
        <time>2022-07-10T10:10:24.000Z</time>
      </trkpt>
      <trkpt lat="44.19135" lon="6.79783">
        <ele>1806.6</ele>
        <time>2022-07-10T10:10:26.000Z</time>
      </trkpt>
      <trkpt lat="44.19136" lon="6.79786">
        <ele>1806.8</ele>
        <time>2022-07-10T10:10:28.000Z</time>
      </trkpt>
      <trkpt lat="44.19135" lon="6.7979">
        <ele>1807</ele>
        <time>2022-07-10T10:10:30.000Z</time>
      </trkpt>
      <trkpt lat="44.19135" lon="6.79791">
        <ele>1807.4</ele>
        <time>2022-07-10T10:10:31.000Z</time>
      </trkpt>
      <trkpt lat="44.19134" lon="6.79803">
        <ele>1807.8</ele>
        <time>2022-07-10T10:10:35.000Z</time>
      </trkpt>
      <trkpt lat="44.19134" lon="6.79809">
        <ele>1808.4</ele>
        <time>2022-07-10T10:10:38.000Z</time>
      </trkpt>
      <trkpt lat="44.19137" lon="6.79821">
        <ele>1809.4</ele>
        <time>2022-07-10T10:10:44.000Z</time>
      </trkpt>
      <trkpt lat="44.19137" lon="6.79824">
        <ele>1809.6</ele>
        <time>2022-07-10T10:10:45.000Z</time>
      </trkpt>
      <trkpt lat="44.19131" lon="6.79833">
        <ele>1810.6</ele>
        <time>2022-07-10T10:10:51.000Z</time>
      </trkpt>
      <trkpt lat="44.1913" lon="6.79836">
        <ele>1811</ele>
        <time>2022-07-10T10:10:53.000Z</time>
      </trkpt>
      <trkpt lat="44.1913" lon="6.79839">
        <ele>1811.6</ele>
        <time>2022-07-10T10:10:55.000Z</time>
      </trkpt>
      <trkpt lat="44.19131" lon="6.79846">
        <ele>1812.4</ele>
        <time>2022-07-10T10:10:58.000Z</time>
      </trkpt>
      <trkpt lat="44.19132" lon="6.79849">
        <ele>1812.4</ele>
        <time>2022-07-10T10:10:59.000Z</time>
      </trkpt>
      <trkpt lat="44.19132" lon="6.79851">
        <ele>1812.8</ele>
        <time>2022-07-10T10:11:01.000Z</time>
      </trkpt>
      <trkpt lat="44.19132" lon="6.79859">
        <ele>1813.8</ele>
        <time>2022-07-10T10:11:07.000Z</time>
      </trkpt>
      <trkpt lat="44.19132" lon="6.79864">
        <ele>1814.2</ele>
        <time>2022-07-10T10:11:10.000Z</time>
      </trkpt>
      <trkpt lat="44.19131" lon="6.79867">
        <ele>1814.8</ele>
        <time>2022-07-10T10:11:12.000Z</time>
      </trkpt>
      <trkpt lat="44.19131" lon="6.79868">
        <ele>1815.2</ele>
        <time>2022-07-10T10:11:13.000Z</time>
      </trkpt>
      <trkpt lat="44.19126" lon="6.79871">
        <ele>1816.2</ele>
        <time>2022-07-10T10:11:18.000Z</time>
      </trkpt>
      <trkpt lat="44.19123" lon="6.7988">
        <ele>1817.4</ele>
        <time>2022-07-10T10:11:24.000Z</time>
      </trkpt>
      <trkpt lat="44.19119" lon="6.79885">
        <ele>1818.2</ele>
        <time>2022-07-10T10:11:30.000Z</time>
      </trkpt>
      <trkpt lat="44.19118" lon="6.79887">
        <ele>1818.6</ele>
        <time>2022-07-10T10:11:32.000Z</time>
      </trkpt>
      <trkpt lat="44.19108" lon="6.79893">
        <ele>1819.8</ele>
        <time>2022-07-10T10:11:41.000Z</time>
      </trkpt>
      <trkpt lat="44.19107" lon="6.79902">
        <ele>1820.6</ele>
        <time>2022-07-10T10:11:46.000Z</time>
      </trkpt>
      <trkpt lat="44.19107" lon="6.79904">
        <ele>1820.8</ele>
        <time>2022-07-10T10:11:47.000Z</time>
      </trkpt>
      <trkpt lat="44.19108" lon="6.79908">
        <ele>1820.8</ele>
        <time>2022-07-10T10:11:48.000Z</time>
      </trkpt>
      <trkpt lat="44.19108" lon="6.79913">
        <ele>1821.6</ele>
        <time>2022-07-10T10:11:51.000Z</time>
      </trkpt>
      <trkpt lat="44.19108" lon="6.79915">
        <ele>1821.8</ele>
        <time>2022-07-10T10:11:52.000Z</time>
      </trkpt>
      <trkpt lat="44.19109" lon="6.79919">
        <ele>1822.2</ele>
        <time>2022-07-10T10:11:54.000Z</time>
      </trkpt>
      <trkpt lat="44.19109" lon="6.79923">
        <ele>1822.8</ele>
        <time>2022-07-10T10:11:57.000Z</time>
      </trkpt>
      <trkpt lat="44.19109" lon="6.79925">
        <ele>1823</ele>
        <time>2022-07-10T10:11:58.000Z</time>
      </trkpt>
      <trkpt lat="44.19109" lon="6.7993">
        <ele>1823.4</ele>
        <time>2022-07-10T10:12:00.000Z</time>
      </trkpt>
      <trkpt lat="44.19108" lon="6.79934">
        <ele>1824</ele>
        <time>2022-07-10T10:12:03.000Z</time>
      </trkpt>
      <trkpt lat="44.19109" lon="6.79942">
        <ele>1825</ele>
        <time>2022-07-10T10:12:09.000Z</time>
      </trkpt>
      <trkpt lat="44.19109" lon="6.79945">
        <ele>1826.2</ele>
        <time>2022-07-10T10:12:13.000Z</time>
      </trkpt>
      <trkpt lat="44.19104" lon="6.79951">
        <ele>1826.6</ele>
        <time>2022-07-10T10:12:17.000Z</time>
      </trkpt>
      <trkpt lat="44.19102" lon="6.79954">
        <ele>1826.8</ele>
        <time>2022-07-10T10:12:19.000Z</time>
      </trkpt>
      <trkpt lat="44.191" lon="6.79958">
        <ele>1827.4</ele>
        <time>2022-07-10T10:12:22.000Z</time>
      </trkpt>
      <trkpt lat="44.19098" lon="6.79963">
        <ele>1828.4</ele>
        <time>2022-07-10T10:12:29.000Z</time>
      </trkpt>
      <trkpt lat="44.19095" lon="6.79969">
        <ele>1829.2</ele>
        <time>2022-07-10T10:12:33.000Z</time>
      </trkpt>
      <trkpt lat="44.19092" lon="6.79973">
        <ele>1829.6</ele>
        <time>2022-07-10T10:12:35.000Z</time>
      </trkpt>
      <trkpt lat="44.19089" lon="6.79976">
        <ele>1830</ele>
        <time>2022-07-10T10:12:39.000Z</time>
      </trkpt>
      <trkpt lat="44.19084" lon="6.79982">
        <ele>1830.8</ele>
        <time>2022-07-10T10:12:43.000Z</time>
      </trkpt>
      <trkpt lat="44.19083" lon="6.79982">
        <ele>1831.2</ele>
        <time>2022-07-10T10:12:45.000Z</time>
      </trkpt>
      <trkpt lat="44.1908" lon="6.79981">
        <ele>1831.8</ele>
        <time>2022-07-10T10:12:53.000Z</time>
      </trkpt>
      <trkpt lat="44.19081" lon="6.79979">
        <ele>1832.4</ele>
        <time>2022-07-10T10:12:59.000Z</time>
      </trkpt>
      <trkpt lat="44.19082" lon="6.79979">
        <ele>1832</ele>
        <time>2022-07-10T10:13:02.000Z</time>
      </trkpt>
      <trkpt lat="44.19083" lon="6.7998">
        <ele>1831.8</ele>
        <time>2022-07-10T10:13:05.000Z</time>
      </trkpt>
      <trkpt lat="44.19082" lon="6.79979">
        <ele>1831.8</ele>
        <time>2022-07-10T10:13:09.000Z</time>
      </trkpt>
      <trkpt lat="44.19082" lon="6.79978">
        <ele>1831.8</ele>
        <time>2022-07-10T10:13:12.000Z</time>
      </trkpt>
      <trkpt lat="44.19082" lon="6.79978">
        <ele>1832</ele>
        <time>2022-07-10T10:13:15.000Z</time>
      </trkpt>
      <trkpt lat="44.19082" lon="6.79978">
        <ele>1832</ele>
        <time>2022-07-10T10:13:18.000Z</time>
      </trkpt>
      <trkpt lat="44.19082" lon="6.79978">
        <ele>1832</ele>
        <time>2022-07-10T10:13:21.000Z</time>
      </trkpt>
      <trkpt lat="44.19083" lon="6.79978">
        <ele>1831.8</ele>
        <time>2022-07-10T10:13:23.000Z</time>
      </trkpt>
      <trkpt lat="44.19083" lon="6.79978">
        <ele>1831.8</ele>
        <time>2022-07-10T10:13:25.000Z</time>
      </trkpt>
      <trkpt lat="44.19079" lon="6.79979">
        <ele>1832</ele>
        <time>2022-07-10T10:13:28.000Z</time>
      </trkpt>
      <trkpt lat="44.19077" lon="6.7998">
        <ele>1832</ele>
        <time>2022-07-10T10:13:30.000Z</time>
      </trkpt>
      <trkpt lat="44.19079" lon="6.7998">
        <ele>1832</ele>
        <time>2022-07-10T10:13:34.000Z</time>
      </trkpt>
      <trkpt lat="44.19081" lon="6.79981">
        <ele>1832</ele>
        <time>2022-07-10T10:13:44.000Z</time>
      </trkpt>
      <trkpt lat="44.19081" lon="6.79981">
        <ele>1831.8</ele>
        <time>2022-07-10T10:13:47.000Z</time>
      </trkpt>
      <trkpt lat="44.19082" lon="6.7998">
        <ele>1831.8</ele>
        <time>2022-07-10T10:13:51.000Z</time>
      </trkpt>
      <trkpt lat="44.19082" lon="6.79979">
        <ele>1832.4</ele>
        <time>2022-07-10T10:13:56.000Z</time>
      </trkpt>
      <trkpt lat="44.19084" lon="6.79976">
        <ele>1832.4</ele>
        <time>2022-07-10T10:14:05.000Z</time>
      </trkpt>
      <trkpt lat="44.19085" lon="6.79975">
        <ele>1832.4</ele>
        <time>2022-07-10T10:14:13.000Z</time>
      </trkpt>
      <trkpt lat="44.19088" lon="6.79983">
        <ele>1832.4</ele>
        <time>2022-07-10T10:14:49.000Z</time>
      </trkpt>
      <trkpt lat="44.19081" lon="6.79979">
        <ele>1832.4</ele>
        <time>2022-07-10T10:15:30.000Z</time>
      </trkpt>
      <trkpt lat="44.19082" lon="6.7998">
        <ele>1832.4</ele>
        <time>2022-07-10T10:15:42.000Z</time>
      </trkpt>
      <trkpt lat="44.19083" lon="6.7998">
        <ele>1832.4</ele>
        <time>2022-07-10T10:15:54.000Z</time>
      </trkpt>
      <trkpt lat="44.19085" lon="6.79976">
        <ele>1832.4</ele>
        <time>2022-07-10T10:16:03.000Z</time>
      </trkpt>
      <trkpt lat="44.19086" lon="6.79979">
        <ele>1832.4</ele>
        <time>2022-07-10T10:16:33.000Z</time>
      </trkpt>
      <trkpt lat="44.19087" lon="6.7998">
        <ele>1832.4</ele>
        <time>2022-07-10T10:16:37.000Z</time>
      </trkpt>
      <trkpt lat="44.19085" lon="6.7998">
        <ele>1832.4</ele>
        <time>2022-07-10T10:16:40.000Z</time>
      </trkpt>
      <trkpt lat="44.19083" lon="6.79977">
        <ele>1832.4</ele>
        <time>2022-07-10T10:16:44.000Z</time>
      </trkpt>
      <trkpt lat="44.1908" lon="6.79972">
        <ele>1832.4</ele>
        <time>2022-07-10T10:16:52.000Z</time>
      </trkpt>
      <trkpt lat="44.1908" lon="6.79966">
        <ele>1832.4</ele>
        <time>2022-07-10T10:16:55.000Z</time>
      </trkpt>
      <trkpt lat="44.1908" lon="6.79963">
        <ele>1832.4</ele>
        <time>2022-07-10T10:16:58.000Z</time>
      </trkpt>
      <trkpt lat="44.19079" lon="6.79959">
        <ele>1832.8</ele>
        <time>2022-07-10T10:17:01.000Z</time>
      </trkpt>
      <trkpt lat="44.19079" lon="6.79957">
        <ele>1833.4</ele>
        <time>2022-07-10T10:17:02.000Z</time>
      </trkpt>
      <trkpt lat="44.19079" lon="6.79954">
        <ele>1833.6</ele>
        <time>2022-07-10T10:17:05.000Z</time>
      </trkpt>
      <trkpt lat="44.19079" lon="6.7995">
        <ele>1833.8</ele>
        <time>2022-07-10T10:17:08.000Z</time>
      </trkpt>
      <trkpt lat="44.19079" lon="6.79947">
        <ele>1833.8</ele>
        <time>2022-07-10T10:17:10.000Z</time>
      </trkpt>
      <trkpt lat="44.19079" lon="6.79945">
        <ele>1834</ele>
        <time>2022-07-10T10:17:12.000Z</time>
      </trkpt>
      <trkpt lat="44.19079" lon="6.79941">
        <ele>1834.6</ele>
        <time>2022-07-10T10:17:15.000Z</time>
      </trkpt>
      <trkpt lat="44.19079" lon="6.79939">
        <ele>1834.6</ele>
        <time>2022-07-10T10:17:16.000Z</time>
      </trkpt>
      <trkpt lat="44.19079" lon="6.79934">
        <ele>1835</ele>
        <time>2022-07-10T10:17:19.000Z</time>
      </trkpt>
      <trkpt lat="44.19077" lon="6.79929">
        <ele>1835.4</ele>
        <time>2022-07-10T10:17:23.000Z</time>
      </trkpt>
      <trkpt lat="44.19076" lon="6.79927">
        <ele>1835.4</ele>
        <time>2022-07-10T10:17:24.000Z</time>
      </trkpt>
      <trkpt lat="44.19076" lon="6.79926">
        <ele>1835.6</ele>
        <time>2022-07-10T10:17:25.000Z</time>
      </trkpt>
      <trkpt lat="44.19075" lon="6.79925">
        <ele>1835.8</ele>
        <time>2022-07-10T10:17:26.000Z</time>
      </trkpt>
      <trkpt lat="44.19074" lon="6.79917">
        <ele>1836.8</ele>
        <time>2022-07-10T10:17:32.000Z</time>
      </trkpt>
      <trkpt lat="44.19073" lon="6.79911">
        <ele>1837.8</ele>
        <time>2022-07-10T10:17:41.000Z</time>
      </trkpt>
      <trkpt lat="44.1907" lon="6.79899">
        <ele>1838.8</ele>
        <time>2022-07-10T10:17:51.000Z</time>
      </trkpt>
      <trkpt lat="44.19068" lon="6.79894">
        <ele>1839.8</ele>
        <time>2022-07-10T10:17:56.000Z</time>
      </trkpt>
      <trkpt lat="44.19067" lon="6.79892">
        <ele>1840</ele>
        <time>2022-07-10T10:17:57.000Z</time>
      </trkpt>
      <trkpt lat="44.19062" lon="6.79886">
        <ele>1841</ele>
        <time>2022-07-10T10:18:07.000Z</time>
      </trkpt>
      <trkpt lat="44.19057" lon="6.79877">
        <ele>1842.2</ele>
        <time>2022-07-10T10:18:17.000Z</time>
      </trkpt>
      <trkpt lat="44.19052" lon="6.7987">
        <ele>1843.4</ele>
        <time>2022-07-10T10:18:26.000Z</time>
      </trkpt>
      <trkpt lat="44.1905" lon="6.79866">
        <ele>1843.6</ele>
        <time>2022-07-10T10:18:30.000Z</time>
      </trkpt>
      <trkpt lat="44.19047" lon="6.79862">
        <ele>1844.2</ele>
        <time>2022-07-10T10:18:34.000Z</time>
      </trkpt>
      <trkpt lat="44.19047" lon="6.79861">
        <ele>1844.4</ele>
        <time>2022-07-10T10:18:35.000Z</time>
      </trkpt>
      <trkpt lat="44.19046" lon="6.79859">
        <ele>1844.8</ele>
        <time>2022-07-10T10:18:37.000Z</time>
      </trkpt>
      <trkpt lat="44.19042" lon="6.79851">
        <ele>1845.4</ele>
        <time>2022-07-10T10:18:44.000Z</time>
      </trkpt>
      <trkpt lat="44.19039" lon="6.79844">
        <ele>1846.6</ele>
        <time>2022-07-10T10:18:50.000Z</time>
      </trkpt>
      <trkpt lat="44.19036" lon="6.79833">
        <ele>1847.6</ele>
        <time>2022-07-10T10:19:00.000Z</time>
      </trkpt>
      <trkpt lat="44.19035" lon="6.79826">
        <ele>1848.8</ele>
        <time>2022-07-10T10:19:07.000Z</time>
      </trkpt>
      <trkpt lat="44.19036" lon="6.79828">
        <ele>1849.2</ele>
        <time>2022-07-10T10:19:24.000Z</time>
      </trkpt>
      <trkpt lat="44.19036" lon="6.79826">
        <ele>1849.4</ele>
        <time>2022-07-10T10:19:33.000Z</time>
      </trkpt>
      <trkpt lat="44.19035" lon="6.79826">
        <ele>1849.4</ele>
        <time>2022-07-10T10:19:36.000Z</time>
      </trkpt>
      <trkpt lat="44.19033" lon="6.79822">
        <ele>1849.6</ele>
        <time>2022-07-10T10:19:40.000Z</time>
      </trkpt>
      <trkpt lat="44.19031" lon="6.79817">
        <ele>1849.6</ele>
        <time>2022-07-10T10:19:44.000Z</time>
      </trkpt>
      <trkpt lat="44.1903" lon="6.79816">
        <ele>1849.8</ele>
        <time>2022-07-10T10:19:46.000Z</time>
      </trkpt>
      <trkpt lat="44.1903" lon="6.79816">
        <ele>1850.4</ele>
        <time>2022-07-10T10:19:50.000Z</time>
      </trkpt>
      <trkpt lat="44.1903" lon="6.79816">
        <ele>1850.4</ele>
        <time>2022-07-10T10:19:54.000Z</time>
      </trkpt>
      <trkpt lat="44.1903" lon="6.79813">
        <ele>1850.4</ele>
        <time>2022-07-10T10:20:04.000Z</time>
      </trkpt>
      <trkpt lat="44.1903" lon="6.79814">
        <ele>1850.4</ele>
        <time>2022-07-10T10:20:07.000Z</time>
      </trkpt>
      <trkpt lat="44.19026" lon="6.7981">
        <ele>1850.8</ele>
        <time>2022-07-10T10:20:14.000Z</time>
      </trkpt>
      <trkpt lat="44.19024" lon="6.79806">
        <ele>1850.8</ele>
        <time>2022-07-10T10:20:17.000Z</time>
      </trkpt>
      <trkpt lat="44.19022" lon="6.79804">
        <ele>1851.2</ele>
        <time>2022-07-10T10:20:19.000Z</time>
      </trkpt>
      <trkpt lat="44.19012" lon="6.79791">
        <ele>1851.8</ele>
        <time>2022-07-10T10:20:31.000Z</time>
      </trkpt>
      <trkpt lat="44.19011" lon="6.79787">
        <ele>1852.2</ele>
        <time>2022-07-10T10:20:34.000Z</time>
      </trkpt>
      <trkpt lat="44.19006" lon="6.79781">
        <ele>1852.8</ele>
        <time>2022-07-10T10:20:41.000Z</time>
      </trkpt>
      <trkpt lat="44.19005" lon="6.7978">
        <ele>1853</ele>
        <time>2022-07-10T10:20:42.000Z</time>
      </trkpt>
      <trkpt lat="44.19001" lon="6.79777">
        <ele>1853.8</ele>
        <time>2022-07-10T10:20:48.000Z</time>
      </trkpt>
      <trkpt lat="44.19" lon="6.79774">
        <ele>1854.2</ele>
        <time>2022-07-10T10:20:50.000Z</time>
      </trkpt>
      <trkpt lat="44.18999" lon="6.79774">
        <ele>1854.4</ele>
        <time>2022-07-10T10:20:51.000Z</time>
      </trkpt>
      <trkpt lat="44.18996" lon="6.79769">
        <ele>1854.8</ele>
        <time>2022-07-10T10:20:56.000Z</time>
      </trkpt>
      <trkpt lat="44.18995" lon="6.79767">
        <ele>1855.2</ele>
        <time>2022-07-10T10:20:58.000Z</time>
      </trkpt>
      <trkpt lat="44.18991" lon="6.79764">
        <ele>1856.4</ele>
        <time>2022-07-10T10:21:06.000Z</time>
      </trkpt>
      <trkpt lat="44.18987" lon="6.7976">
        <ele>1857</ele>
        <time>2022-07-10T10:21:10.000Z</time>
      </trkpt>
      <trkpt lat="44.18985" lon="6.79758">
        <ele>1857.4</ele>
        <time>2022-07-10T10:21:12.000Z</time>
      </trkpt>
      <trkpt lat="44.18984" lon="6.79756">
        <ele>1858</ele>
        <time>2022-07-10T10:21:14.000Z</time>
      </trkpt>
      <trkpt lat="44.18982" lon="6.79749">
        <ele>1858.6</ele>
        <time>2022-07-10T10:21:17.000Z</time>
      </trkpt>
      <trkpt lat="44.18977" lon="6.79743">
        <ele>1859.6</ele>
        <time>2022-07-10T10:21:25.000Z</time>
      </trkpt>
      <trkpt lat="44.18974" lon="6.79739">
        <ele>1860.8</ele>
        <time>2022-07-10T10:21:30.000Z</time>
      </trkpt>
      <trkpt lat="44.1897" lon="6.79736">
        <ele>1861.8</ele>
        <time>2022-07-10T10:21:36.000Z</time>
      </trkpt>
      <trkpt lat="44.18966" lon="6.7973">
        <ele>1862.8</ele>
        <time>2022-07-10T10:21:44.000Z</time>
      </trkpt>
      <trkpt lat="44.18959" lon="6.79723">
        <ele>1864.2</ele>
        <time>2022-07-10T10:21:52.000Z</time>
      </trkpt>
      <trkpt lat="44.18958" lon="6.79717">
        <ele>1865.2</ele>
        <time>2022-07-10T10:21:58.000Z</time>
      </trkpt>
      <trkpt lat="44.18958" lon="6.7972">
        <ele>1865.6</ele>
        <time>2022-07-10T10:22:08.000Z</time>
      </trkpt>
      <trkpt lat="44.18956" lon="6.79719">
        <ele>1866.2</ele>
        <time>2022-07-10T10:22:18.000Z</time>
      </trkpt>
      <trkpt lat="44.18955" lon="6.79719">
        <ele>1866.2</ele>
        <time>2022-07-10T10:22:21.000Z</time>
      </trkpt>
      <trkpt lat="44.18957" lon="6.79721">
        <ele>1866.2</ele>
        <time>2022-07-10T10:22:25.000Z</time>
      </trkpt>
      <trkpt lat="44.18957" lon="6.79721">
        <ele>1866</ele>
        <time>2022-07-10T10:22:29.000Z</time>
      </trkpt>
      <trkpt lat="44.18957" lon="6.79722">
        <ele>1865.8</ele>
        <time>2022-07-10T10:22:32.000Z</time>
      </trkpt>
      <trkpt lat="44.18957" lon="6.79722">
        <ele>1865.8</ele>
        <time>2022-07-10T10:22:34.000Z</time>
      </trkpt>
      <trkpt lat="44.18955" lon="6.79723">
        <ele>1865.6</ele>
        <time>2022-07-10T10:22:38.000Z</time>
      </trkpt>
      <trkpt lat="44.18952" lon="6.79723">
        <ele>1866.4</ele>
        <time>2022-07-10T10:22:42.000Z</time>
      </trkpt>
      <trkpt lat="44.18947" lon="6.79717">
        <ele>1867.4</ele>
        <time>2022-07-10T10:22:48.000Z</time>
      </trkpt>
      <trkpt lat="44.18945" lon="6.79715">
        <ele>1867.6</ele>
        <time>2022-07-10T10:22:50.000Z</time>
      </trkpt>
      <trkpt lat="44.18941" lon="6.79715">
        <ele>1868.4</ele>
        <time>2022-07-10T10:22:55.000Z</time>
      </trkpt>
      <trkpt lat="44.1894" lon="6.79716">
        <ele>1869.2</ele>
        <time>2022-07-10T10:22:58.000Z</time>
      </trkpt>
      <trkpt lat="44.18939" lon="6.79716">
        <ele>1869.6</ele>
        <time>2022-07-10T10:22:59.000Z</time>
      </trkpt>
      <trkpt lat="44.18943" lon="6.79717">
        <ele>1870.2</ele>
        <time>2022-07-10T10:23:04.000Z</time>
      </trkpt>
      <trkpt lat="44.18943" lon="6.7972">
        <ele>1870.6</ele>
        <time>2022-07-10T10:23:11.000Z</time>
      </trkpt>
      <trkpt lat="44.18947" lon="6.79719">
        <ele>1870.8</ele>
        <time>2022-07-10T10:23:17.000Z</time>
      </trkpt>
      <trkpt lat="44.18949" lon="6.7972">
        <ele>1870.8</ele>
        <time>2022-07-10T10:23:20.000Z</time>
      </trkpt>
      <trkpt lat="44.18949" lon="6.7972">
        <ele>1870.6</ele>
        <time>2022-07-10T10:23:33.000Z</time>
      </trkpt>
      <trkpt lat="44.18948" lon="6.7972">
        <ele>1870.6</ele>
        <time>2022-07-10T10:23:36.000Z</time>
      </trkpt>
      <trkpt lat="44.18951" lon="6.79723">
        <ele>1870.6</ele>
        <time>2022-07-10T10:23:40.000Z</time>
      </trkpt>
      <trkpt lat="44.18951" lon="6.79724">
        <ele>1870.6</ele>
        <time>2022-07-10T10:23:41.000Z</time>
      </trkpt>
      <trkpt lat="44.18949" lon="6.79731">
        <ele>1870.8</ele>
        <time>2022-07-10T10:23:44.000Z</time>
      </trkpt>
      <trkpt lat="44.18949" lon="6.79733">
        <ele>1871</ele>
        <time>2022-07-10T10:23:46.000Z</time>
      </trkpt>
      <trkpt lat="44.18949" lon="6.79736">
        <ele>1871.2</ele>
        <time>2022-07-10T10:23:48.000Z</time>
      </trkpt>
      <trkpt lat="44.18952" lon="6.79739">
        <ele>1871.6</ele>
        <time>2022-07-10T10:23:51.000Z</time>
      </trkpt>
      <trkpt lat="44.18954" lon="6.79742">
        <ele>1872</ele>
        <time>2022-07-10T10:23:53.000Z</time>
      </trkpt>
      <trkpt lat="44.18954" lon="6.79749">
        <ele>1872.4</ele>
        <time>2022-07-10T10:23:57.000Z</time>
      </trkpt>
      <trkpt lat="44.18954" lon="6.79752">
        <ele>1872.4</ele>
        <time>2022-07-10T10:23:59.000Z</time>
      </trkpt>
      <trkpt lat="44.18954" lon="6.79755">
        <ele>1872.6</ele>
        <time>2022-07-10T10:24:01.000Z</time>
      </trkpt>
      <trkpt lat="44.18954" lon="6.79761">
        <ele>1873</ele>
        <time>2022-07-10T10:24:04.000Z</time>
      </trkpt>
      <trkpt lat="44.18952" lon="6.79769">
        <ele>1873.2</ele>
        <time>2022-07-10T10:24:08.000Z</time>
      </trkpt>
      <trkpt lat="44.1895" lon="6.79774">
        <ele>1873.8</ele>
        <time>2022-07-10T10:24:11.000Z</time>
      </trkpt>
      <trkpt lat="44.1895" lon="6.79784">
        <ele>1874.8</ele>
        <time>2022-07-10T10:24:17.000Z</time>
      </trkpt>
      <trkpt lat="44.18951" lon="6.79786">
        <ele>1875</ele>
        <time>2022-07-10T10:24:18.000Z</time>
      </trkpt>
      <trkpt lat="44.18955" lon="6.79791">
        <ele>1875</ele>
        <time>2022-07-10T10:24:21.000Z</time>
      </trkpt>
      <trkpt lat="44.18957" lon="6.79798">
        <ele>1875.8</ele>
        <time>2022-07-10T10:24:25.000Z</time>
      </trkpt>
      <trkpt lat="44.18957" lon="6.798">
        <ele>1876</ele>
        <time>2022-07-10T10:24:26.000Z</time>
      </trkpt>
      <trkpt lat="44.18958" lon="6.79803">
        <ele>1876.4</ele>
        <time>2022-07-10T10:24:28.000Z</time>
      </trkpt>
      <trkpt lat="44.18956" lon="6.79809">
        <ele>1877.4</ele>
        <time>2022-07-10T10:24:31.000Z</time>
      </trkpt>
      <trkpt lat="44.18954" lon="6.79812">
        <ele>1878.2</ele>
        <time>2022-07-10T10:24:34.000Z</time>
      </trkpt>
      <trkpt lat="44.18953" lon="6.79815">
        <ele>1878.4</ele>
        <time>2022-07-10T10:24:36.000Z</time>
      </trkpt>
      <trkpt lat="44.18951" lon="6.79826">
        <ele>1879.6</ele>
        <time>2022-07-10T10:24:41.000Z</time>
      </trkpt>
      <trkpt lat="44.1895" lon="6.7984">
        <ele>1880.6</ele>
        <time>2022-07-10T10:24:49.000Z</time>
      </trkpt>
      <trkpt lat="44.18948" lon="6.79849">
        <ele>1881.8</ele>
        <time>2022-07-10T10:24:55.000Z</time>
      </trkpt>
      <trkpt lat="44.18948" lon="6.79862">
        <ele>1882.8</ele>
        <time>2022-07-10T10:25:03.000Z</time>
      </trkpt>
      <trkpt lat="44.18949" lon="6.79863">
        <ele>1883</ele>
        <time>2022-07-10T10:25:04.000Z</time>
      </trkpt>
      <trkpt lat="44.18949" lon="6.79872">
        <ele>1884</ele>
        <time>2022-07-10T10:25:09.000Z</time>
      </trkpt>
      <trkpt lat="44.18948" lon="6.79874">
        <ele>1884.2</ele>
        <time>2022-07-10T10:25:10.000Z</time>
      </trkpt>
      <trkpt lat="44.18948" lon="6.79877">
        <ele>1884.4</ele>
        <time>2022-07-10T10:25:12.000Z</time>
      </trkpt>
      <trkpt lat="44.18948" lon="6.79886">
        <ele>1884.8</ele>
        <time>2022-07-10T10:25:17.000Z</time>
      </trkpt>
      <trkpt lat="44.1895" lon="6.79888">
        <ele>1885.2</ele>
        <time>2022-07-10T10:25:19.000Z</time>
      </trkpt>
      <trkpt lat="44.1895" lon="6.7989">
        <ele>1885.4</ele>
        <time>2022-07-10T10:25:20.000Z</time>
      </trkpt>
      <trkpt lat="44.1895" lon="6.79897">
        <ele>1886</ele>
        <time>2022-07-10T10:25:24.000Z</time>
      </trkpt>
      <trkpt lat="44.1895" lon="6.799">
        <ele>1886.2</ele>
        <time>2022-07-10T10:25:26.000Z</time>
      </trkpt>
      <trkpt lat="44.1895" lon="6.79909">
        <ele>1887.4</ele>
        <time>2022-07-10T10:25:31.000Z</time>
      </trkpt>
      <trkpt lat="44.18951" lon="6.79921">
        <ele>1888.4</ele>
        <time>2022-07-10T10:25:37.000Z</time>
      </trkpt>
      <trkpt lat="44.18948" lon="6.79931">
        <ele>1889.4</ele>
        <time>2022-07-10T10:25:43.000Z</time>
      </trkpt>
      <trkpt lat="44.18945" lon="6.79941">
        <ele>1890.4</ele>
        <time>2022-07-10T10:25:50.000Z</time>
      </trkpt>
      <trkpt lat="44.18945" lon="6.79942">
        <ele>1890.6</ele>
        <time>2022-07-10T10:25:51.000Z</time>
      </trkpt>
      <trkpt lat="44.18945" lon="6.79948">
        <ele>1891</ele>
        <time>2022-07-10T10:25:55.000Z</time>
      </trkpt>
      <trkpt lat="44.18945" lon="6.79951">
        <ele>1891.4</ele>
        <time>2022-07-10T10:25:57.000Z</time>
      </trkpt>
      <trkpt lat="44.18945" lon="6.79955">
        <ele>1891.6</ele>
        <time>2022-07-10T10:25:59.000Z</time>
      </trkpt>
      <trkpt lat="44.18943" lon="6.79971">
        <ele>1892.6</ele>
        <time>2022-07-10T10:26:07.000Z</time>
      </trkpt>
      <trkpt lat="44.1894" lon="6.79981">
        <ele>1893.8</ele>
        <time>2022-07-10T10:26:12.000Z</time>
      </trkpt>
      <trkpt lat="44.1894" lon="6.79985">
        <ele>1894.2</ele>
        <time>2022-07-10T10:26:14.000Z</time>
      </trkpt>
      <trkpt lat="44.18942" lon="6.79992">
        <ele>1894.6</ele>
        <time>2022-07-10T10:26:19.000Z</time>
      </trkpt>
      <trkpt lat="44.18942" lon="6.79992">
        <ele>1894.8</ele>
        <time>2022-07-10T10:26:21.000Z</time>
      </trkpt>
      <trkpt lat="44.18947" lon="6.79991">
        <ele>1895.6</ele>
        <time>2022-07-10T10:26:26.000Z</time>
      </trkpt>
      <trkpt lat="44.18953" lon="6.79989">
        <ele>1895.4</ele>
        <time>2022-07-10T10:26:38.000Z</time>
      </trkpt>
      <trkpt lat="44.1895" lon="6.79989">
        <ele>1895.8</ele>
        <time>2022-07-10T10:26:44.000Z</time>
      </trkpt>
      <trkpt lat="44.18948" lon="6.79987">
        <ele>1895.8</ele>
        <time>2022-07-10T10:26:47.000Z</time>
      </trkpt>
      <trkpt lat="44.18947" lon="6.79985">
        <ele>1895.8</ele>
        <time>2022-07-10T10:26:50.000Z</time>
      </trkpt>
      <trkpt lat="44.18947" lon="6.79985">
        <ele>1895.8</ele>
        <time>2022-07-10T10:26:52.000Z</time>
      </trkpt>
      <trkpt lat="44.18947" lon="6.79985">
        <ele>1895.8</ele>
        <time>2022-07-10T10:26:56.000Z</time>
      </trkpt>
      <trkpt lat="44.18947" lon="6.79985">
        <ele>1895.8</ele>
        <time>2022-07-10T10:26:59.000Z</time>
      </trkpt>
      <trkpt lat="44.18947" lon="6.79985">
        <ele>1895.8</ele>
        <time>2022-07-10T10:27:03.000Z</time>
      </trkpt>
      <trkpt lat="44.18947" lon="6.79985">
        <ele>1895.8</ele>
        <time>2022-07-10T10:27:06.000Z</time>
      </trkpt>
      <trkpt lat="44.18947" lon="6.79985">
        <ele>1895.8</ele>
        <time>2022-07-10T10:27:09.000Z</time>
      </trkpt>
      <trkpt lat="44.18947" lon="6.79985">
        <ele>1895.6</ele>
        <time>2022-07-10T10:27:12.000Z</time>
      </trkpt>
      <trkpt lat="44.18945" lon="6.79985">
        <ele>1895.4</ele>
        <time>2022-07-10T10:27:16.000Z</time>
      </trkpt>
      <trkpt lat="44.18945" lon="6.79985">
        <ele>1895.6</ele>
        <time>2022-07-10T10:27:19.000Z</time>
      </trkpt>
      <trkpt lat="44.18945" lon="6.79985">
        <ele>1895.6</ele>
        <time>2022-07-10T10:27:22.000Z</time>
      </trkpt>
      <trkpt lat="44.18951" lon="6.7999">
        <ele>1895.4</ele>
        <time>2022-07-10T10:27:38.000Z</time>
      </trkpt>
      <trkpt lat="44.18952" lon="6.7999">
        <ele>1895.4</ele>
        <time>2022-07-10T10:27:41.000Z</time>
      </trkpt>
      <trkpt lat="44.18951" lon="6.7999">
        <ele>1895.4</ele>
        <time>2022-07-10T10:27:45.000Z</time>
      </trkpt>
      <trkpt lat="44.18951" lon="6.7999">
        <ele>1895.4</ele>
        <time>2022-07-10T10:27:53.000Z</time>
      </trkpt>
      <trkpt lat="44.18945" lon="6.79995">
        <ele>1895.4</ele>
        <time>2022-07-10T10:27:58.000Z</time>
      </trkpt>
      <trkpt lat="44.18944" lon="6.79997">
        <ele>1895.4</ele>
        <time>2022-07-10T10:27:59.000Z</time>
      </trkpt>
      <trkpt lat="44.18945" lon="6.8">
        <ele>1896</ele>
        <time>2022-07-10T10:28:01.000Z</time>
      </trkpt>
      <trkpt lat="44.18946" lon="6.80005">
        <ele>1897</ele>
        <time>2022-07-10T10:28:04.000Z</time>
      </trkpt>
      <trkpt lat="44.18947" lon="6.80011">
        <ele>1897.4</ele>
        <time>2022-07-10T10:28:07.000Z</time>
      </trkpt>
      <trkpt lat="44.18946" lon="6.80016">
        <ele>1898.2</ele>
        <time>2022-07-10T10:28:10.000Z</time>
      </trkpt>
      <trkpt lat="44.18946" lon="6.80023">
        <ele>1898.6</ele>
        <time>2022-07-10T10:28:14.000Z</time>
      </trkpt>
      <trkpt lat="44.18946" lon="6.80027">
        <ele>1898.8</ele>
        <time>2022-07-10T10:28:17.000Z</time>
      </trkpt>
      <trkpt lat="44.18946" lon="6.80031">
        <ele>1899.4</ele>
        <time>2022-07-10T10:28:20.000Z</time>
      </trkpt>
      <trkpt lat="44.18947" lon="6.80036">
        <ele>1899.8</ele>
        <time>2022-07-10T10:28:23.000Z</time>
      </trkpt>
      <trkpt lat="44.1895" lon="6.80042">
        <ele>1899.8</ele>
        <time>2022-07-10T10:28:26.000Z</time>
      </trkpt>
      <trkpt lat="44.18949" lon="6.80044">
        <ele>1899.8</ele>
        <time>2022-07-10T10:28:27.000Z</time>
      </trkpt>
      <trkpt lat="44.18949" lon="6.80045">
        <ele>1899.8</ele>
        <time>2022-07-10T10:28:29.000Z</time>
      </trkpt>
      <trkpt lat="44.18951" lon="6.80055">
        <ele>1900</ele>
        <time>2022-07-10T10:28:37.000Z</time>
      </trkpt>
      <trkpt lat="44.18951" lon="6.80057">
        <ele>1900</ele>
        <time>2022-07-10T10:28:38.000Z</time>
      </trkpt>
      <trkpt lat="44.18953" lon="6.80064">
        <ele>1900</ele>
        <time>2022-07-10T10:28:41.000Z</time>
      </trkpt>
      <trkpt lat="44.1895" lon="6.80071">
        <ele>1900.4</ele>
        <time>2022-07-10T10:28:44.000Z</time>
      </trkpt>
      <trkpt lat="44.1895" lon="6.80072">
        <ele>1900.6</ele>
        <time>2022-07-10T10:28:45.000Z</time>
      </trkpt>
      <trkpt lat="44.18947" lon="6.80074">
        <ele>1901.6</ele>
        <time>2022-07-10T10:28:51.000Z</time>
      </trkpt>
      <trkpt lat="44.18945" lon="6.80082">
        <ele>1902.6</ele>
        <time>2022-07-10T10:29:07.000Z</time>
      </trkpt>
      <trkpt lat="44.18946" lon="6.80082">
        <ele>1902.8</ele>
        <time>2022-07-10T10:29:12.000Z</time>
      </trkpt>
      <trkpt lat="44.18947" lon="6.80083">
        <ele>1902.8</ele>
        <time>2022-07-10T10:29:17.000Z</time>
      </trkpt>
      <trkpt lat="44.18945" lon="6.80084">
        <ele>1902.6</ele>
        <time>2022-07-10T10:29:28.000Z</time>
      </trkpt>
      <trkpt lat="44.18945" lon="6.80088">
        <ele>1902.6</ele>
        <time>2022-07-10T10:29:32.000Z</time>
      </trkpt>
      <trkpt lat="44.18947" lon="6.80092">
        <ele>1902.8</ele>
        <time>2022-07-10T10:29:36.000Z</time>
      </trkpt>
      <trkpt lat="44.1895" lon="6.80094">
        <ele>1903</ele>
        <time>2022-07-10T10:29:39.000Z</time>
      </trkpt>
      <trkpt lat="44.18951" lon="6.80095">
        <ele>1903</ele>
        <time>2022-07-10T10:29:40.000Z</time>
      </trkpt>
      <trkpt lat="44.18957" lon="6.801">
        <ele>1903.2</ele>
        <time>2022-07-10T10:29:52.000Z</time>
      </trkpt>
      <trkpt lat="44.18958" lon="6.80102">
        <ele>1903.2</ele>
        <time>2022-07-10T10:29:54.000Z</time>
      </trkpt>
      <trkpt lat="44.1896" lon="6.80107">
        <ele>1903.6</ele>
        <time>2022-07-10T10:29:58.000Z</time>
      </trkpt>
      <trkpt lat="44.18967" lon="6.80119">
        <ele>1904.6</ele>
        <time>2022-07-10T10:30:10.000Z</time>
      </trkpt>
      <trkpt lat="44.18969" lon="6.80126">
        <ele>1904.8</ele>
        <time>2022-07-10T10:30:15.000Z</time>
      </trkpt>
      <trkpt lat="44.18971" lon="6.80132">
        <ele>1905</ele>
        <time>2022-07-10T10:30:19.000Z</time>
      </trkpt>
      <trkpt lat="44.18976" lon="6.80138">
        <ele>1905.6</ele>
        <time>2022-07-10T10:30:24.000Z</time>
      </trkpt>
      <trkpt lat="44.18977" lon="6.80139">
        <ele>1905.6</ele>
        <time>2022-07-10T10:30:25.000Z</time>
      </trkpt>
      <trkpt lat="44.18981" lon="6.80149">
        <ele>1906.4</ele>
        <time>2022-07-10T10:30:29.000Z</time>
      </trkpt>
      <trkpt lat="44.18982" lon="6.80152">
        <ele>1906.8</ele>
        <time>2022-07-10T10:30:31.000Z</time>
      </trkpt>
      <trkpt lat="44.18984" lon="6.80154">
        <ele>1906.8</ele>
        <time>2022-07-10T10:30:32.000Z</time>
      </trkpt>
      <trkpt lat="44.18984" lon="6.80158">
        <ele>1907</ele>
        <time>2022-07-10T10:30:34.000Z</time>
      </trkpt>
      <trkpt lat="44.18985" lon="6.8017">
        <ele>1907.4</ele>
        <time>2022-07-10T10:30:40.000Z</time>
      </trkpt>
      <trkpt lat="44.1899" lon="6.80178">
        <ele>1907.8</ele>
        <time>2022-07-10T10:30:45.000Z</time>
      </trkpt>
      <trkpt lat="44.18994" lon="6.80192">
        <ele>1908.4</ele>
        <time>2022-07-10T10:30:52.000Z</time>
      </trkpt>
      <trkpt lat="44.18992" lon="6.80202">
        <ele>1909</ele>
        <time>2022-07-10T10:30:57.000Z</time>
      </trkpt>
      <trkpt lat="44.18991" lon="6.80208">
        <ele>1909.4</ele>
        <time>2022-07-10T10:30:59.000Z</time>
      </trkpt>
      <trkpt lat="44.18993" lon="6.80224">
        <ele>1910</ele>
        <time>2022-07-10T10:31:09.000Z</time>
      </trkpt>
      <trkpt lat="44.19001" lon="6.80252">
        <ele>1911.2</ele>
        <time>2022-07-10T10:31:21.000Z</time>
      </trkpt>
      <trkpt lat="44.19003" lon="6.80277">
        <ele>1912.4</ele>
        <time>2022-07-10T10:31:33.000Z</time>
      </trkpt>
      <trkpt lat="44.19003" lon="6.80291">
        <ele>1913</ele>
        <time>2022-07-10T10:31:39.000Z</time>
      </trkpt>
      <trkpt lat="44.19001" lon="6.80294">
        <ele>1913.4</ele>
        <time>2022-07-10T10:31:46.000Z</time>
      </trkpt>
      <trkpt lat="44.18999" lon="6.80294">
        <ele>1913.4</ele>
        <time>2022-07-10T10:31:50.000Z</time>
      </trkpt>
      <trkpt lat="44.19" lon="6.80294">
        <ele>1913.2</ele>
        <time>2022-07-10T10:31:55.000Z</time>
      </trkpt>
      <trkpt lat="44.19" lon="6.80293">
        <ele>1913.8</ele>
        <time>2022-07-10T10:32:05.000Z</time>
      </trkpt>
      <trkpt lat="44.18999" lon="6.80294">
        <ele>1913.8</ele>
        <time>2022-07-10T10:32:09.000Z</time>
      </trkpt>
      <trkpt lat="44.18999" lon="6.80294">
        <ele>1914</ele>
        <time>2022-07-10T10:32:13.000Z</time>
      </trkpt>
      <trkpt lat="44.18999" lon="6.80294">
        <ele>1914</ele>
        <time>2022-07-10T10:32:15.000Z</time>
      </trkpt>
      <trkpt lat="44.18999" lon="6.80294">
        <ele>1913.6</ele>
        <time>2022-07-10T10:32:20.000Z</time>
      </trkpt>
      <trkpt lat="44.19001" lon="6.80289">
        <ele>1913.4</ele>
        <time>2022-07-10T10:32:31.000Z</time>
      </trkpt>
      <trkpt lat="44.19001" lon="6.80289">
        <ele>1913.4</ele>
        <time>2022-07-10T10:32:35.000Z</time>
      </trkpt>
      <trkpt lat="44.19001" lon="6.80296">
        <ele>1913.6</ele>
        <time>2022-07-10T10:32:46.000Z</time>
      </trkpt>
      <trkpt lat="44.19002" lon="6.80295">
        <ele>1913.4</ele>
        <time>2022-07-10T10:32:49.000Z</time>
      </trkpt>
      <trkpt lat="44.19001" lon="6.80297">
        <ele>1913.4</ele>
        <time>2022-07-10T10:33:22.000Z</time>
      </trkpt>
      <trkpt lat="44.18995" lon="6.80304">
        <ele>1913.4</ele>
        <time>2022-07-10T10:33:36.000Z</time>
      </trkpt>
      <trkpt lat="44.18994" lon="6.80305">
        <ele>1913.4</ele>
        <time>2022-07-10T10:33:37.000Z</time>
      </trkpt>
      <trkpt lat="44.18992" lon="6.80308">
        <ele>1913.4</ele>
        <time>2022-07-10T10:33:58.000Z</time>
      </trkpt>
      <trkpt lat="44.18992" lon="6.80308">
        <ele>1913.4</ele>
        <time>2022-07-10T10:34:02.000Z</time>
      </trkpt>
      <trkpt lat="44.18993" lon="6.80307">
        <ele>1913.4</ele>
        <time>2022-07-10T10:34:07.000Z</time>
      </trkpt>
      <trkpt lat="44.18998" lon="6.803">
        <ele>1913.4</ele>
        <time>2022-07-10T10:34:11.000Z</time>
      </trkpt>
      <trkpt lat="44.19001" lon="6.80303">
        <ele>1912.2</ele>
        <time>2022-07-10T10:34:17.000Z</time>
      </trkpt>
      <trkpt lat="44.19001" lon="6.80304">
        <ele>1912</ele>
        <time>2022-07-10T10:34:18.000Z</time>
      </trkpt>
      <trkpt lat="44.19001" lon="6.80311">
        <ele>1911.4</ele>
        <time>2022-07-10T10:34:21.000Z</time>
      </trkpt>
      <trkpt lat="44.19008" lon="6.8033">
        <ele>1911.2</ele>
        <time>2022-07-10T10:34:26.000Z</time>
      </trkpt>
      <trkpt lat="44.19021" lon="6.80368">
        <ele>1910</ele>
        <time>2022-07-10T10:34:38.000Z</time>
      </trkpt>
      <trkpt lat="44.19021" lon="6.80382">
        <ele>1909.8</ele>
        <time>2022-07-10T10:34:42.000Z</time>
      </trkpt>
      <trkpt lat="44.19017" lon="6.80417">
        <ele>1910.6</ele>
        <time>2022-07-10T10:34:50.000Z</time>
      </trkpt>
      <trkpt lat="44.19012" lon="6.8043">
        <ele>1910.8</ele>
        <time>2022-07-10T10:34:56.000Z</time>
      </trkpt>
      <trkpt lat="44.19008" lon="6.80438">
        <ele>1910.8</ele>
        <time>2022-07-10T10:34:59.000Z</time>
      </trkpt>
      <trkpt lat="44.19" lon="6.80453">
        <ele>1910.2</ele>
        <time>2022-07-10T10:35:03.000Z</time>
      </trkpt>
      <trkpt lat="44.18992" lon="6.80469">
        <ele>1910.8</ele>
        <time>2022-07-10T10:35:08.000Z</time>
      </trkpt>
      <trkpt lat="44.1899" lon="6.80472">
        <ele>1911</ele>
        <time>2022-07-10T10:35:09.000Z</time>
      </trkpt>
      <trkpt lat="44.18986" lon="6.80476">
        <ele>1911</ele>
        <time>2022-07-10T10:35:11.000Z</time>
      </trkpt>
      <trkpt lat="44.18981" lon="6.80479">
        <ele>1911.4</ele>
        <time>2022-07-10T10:35:14.000Z</time>
      </trkpt>
      <trkpt lat="44.18975" lon="6.80488">
        <ele>1912</ele>
        <time>2022-07-10T10:35:19.000Z</time>
      </trkpt>
      <trkpt lat="44.18973" lon="6.80489">
        <ele>1912</ele>
        <time>2022-07-10T10:35:20.000Z</time>
      </trkpt>
      <trkpt lat="44.18964" lon="6.80507">
        <ele>1912.6</ele>
        <time>2022-07-10T10:35:27.000Z</time>
      </trkpt>
      <trkpt lat="44.18966" lon="6.80519">
        <ele>1913.2</ele>
        <time>2022-07-10T10:35:31.000Z</time>
      </trkpt>
      <trkpt lat="44.18964" lon="6.80523">
        <ele>1913.6</ele>
        <time>2022-07-10T10:35:34.000Z</time>
      </trkpt>
      <trkpt lat="44.18959" lon="6.80528">
        <ele>1913.8</ele>
        <time>2022-07-10T10:35:36.000Z</time>
      </trkpt>
      <trkpt lat="44.18934" lon="6.80564">
        <ele>1912.4</ele>
        <time>2022-07-10T10:35:53.000Z</time>
      </trkpt>
      <trkpt lat="44.18936" lon="6.80565">
        <ele>1912.2</ele>
        <time>2022-07-10T10:35:57.000Z</time>
      </trkpt>
      <trkpt lat="44.18937" lon="6.80565">
        <ele>1911.2</ele>
        <time>2022-07-10T10:36:03.000Z</time>
      </trkpt>
      <trkpt lat="44.18937" lon="6.80565">
        <ele>1910.8</ele>
        <time>2022-07-10T10:36:07.000Z</time>
      </trkpt>
      <trkpt lat="44.18938" lon="6.80565">
        <ele>1910.2</ele>
        <time>2022-07-10T10:36:13.000Z</time>
      </trkpt>
      <trkpt lat="44.18939" lon="6.80567">
        <ele>1909</ele>
        <time>2022-07-10T10:36:19.000Z</time>
      </trkpt>
      <trkpt lat="44.18939" lon="6.80569">
        <ele>1907.8</ele>
        <time>2022-07-10T10:36:24.000Z</time>
      </trkpt>
      <trkpt lat="44.1894" lon="6.80573">
        <ele>1909</ele>
        <time>2022-07-10T10:36:30.000Z</time>
      </trkpt>
      <trkpt lat="44.18949" lon="6.8059">
        <ele>1910.2</ele>
        <time>2022-07-10T10:36:37.000Z</time>
      </trkpt>
      <trkpt lat="44.18953" lon="6.80597">
        <ele>1911.2</ele>
        <time>2022-07-10T10:36:41.000Z</time>
      </trkpt>
      <trkpt lat="44.18955" lon="6.80599">
        <ele>1911.8</ele>
        <time>2022-07-10T10:36:43.000Z</time>
      </trkpt>
      <trkpt lat="44.18955" lon="6.80599">
        <ele>1912.2</ele>
        <time>2022-07-10T10:36:45.000Z</time>
      </trkpt>
      <trkpt lat="44.18956" lon="6.80602">
        <ele>1913</ele>
        <time>2022-07-10T10:36:52.000Z</time>
      </trkpt>
      <trkpt lat="44.18955" lon="6.80597">
        <ele>1912.8</ele>
        <time>2022-07-10T10:37:07.000Z</time>
      </trkpt>
      <trkpt lat="44.18953" lon="6.806">
        <ele>1912.4</ele>
        <time>2022-07-10T10:37:13.000Z</time>
      </trkpt>
      <trkpt lat="44.18952" lon="6.80599">
        <ele>1912.4</ele>
        <time>2022-07-10T10:37:17.000Z</time>
      </trkpt>
      <trkpt lat="44.18948" lon="6.80594">
        <ele>1912.4</ele>
        <time>2022-07-10T10:37:24.000Z</time>
      </trkpt>
      <trkpt lat="44.18952" lon="6.80603">
        <ele>1912.6</ele>
        <time>2022-07-10T10:37:32.000Z</time>
      </trkpt>
      <trkpt lat="44.18956" lon="6.80608">
        <ele>1912.6</ele>
        <time>2022-07-10T10:37:34.000Z</time>
      </trkpt>
      <trkpt lat="44.18957" lon="6.80614">
        <ele>1912.4</ele>
        <time>2022-07-10T10:37:37.000Z</time>
      </trkpt>
      <trkpt lat="44.18956" lon="6.80615">
        <ele>1912.4</ele>
        <time>2022-07-10T10:37:38.000Z</time>
      </trkpt>
      <trkpt lat="44.18954" lon="6.80619">
        <ele>1912.8</ele>
        <time>2022-07-10T10:37:40.000Z</time>
      </trkpt>
      <trkpt lat="44.1895" lon="6.80626">
        <ele>1912.8</ele>
        <time>2022-07-10T10:37:44.000Z</time>
      </trkpt>
      <trkpt lat="44.18948" lon="6.8064">
        <ele>1912.6</ele>
        <time>2022-07-10T10:37:54.000Z</time>
      </trkpt>
      <trkpt lat="44.18945" lon="6.80644">
        <ele>1913.4</ele>
        <time>2022-07-10T10:37:57.000Z</time>
      </trkpt>
      <trkpt lat="44.18944" lon="6.80646">
        <ele>1913.6</ele>
        <time>2022-07-10T10:37:59.000Z</time>
      </trkpt>
      <trkpt lat="44.18946" lon="6.80649">
        <ele>1914.4</ele>
        <time>2022-07-10T10:38:03.000Z</time>
      </trkpt>
      <trkpt lat="44.18951" lon="6.80654">
        <ele>1915.2</ele>
        <time>2022-07-10T10:38:08.000Z</time>
      </trkpt>
      <trkpt lat="44.18952" lon="6.80658">
        <ele>1915.6</ele>
        <time>2022-07-10T10:38:11.000Z</time>
      </trkpt>
      <trkpt lat="44.18952" lon="6.80657">
        <ele>1916.6</ele>
        <time>2022-07-10T10:38:15.000Z</time>
      </trkpt>
      <trkpt lat="44.18953" lon="6.80656">
        <ele>1916.6</ele>
        <time>2022-07-10T10:38:16.000Z</time>
      </trkpt>
      <trkpt lat="44.18958" lon="6.80659">
        <ele>1916.8</ele>
        <time>2022-07-10T10:38:21.000Z</time>
      </trkpt>
      <trkpt lat="44.18954" lon="6.80663">
        <ele>1916.8</ele>
        <time>2022-07-10T10:38:27.000Z</time>
      </trkpt>
      <trkpt lat="44.18954" lon="6.80667">
        <ele>1916.4</ele>
        <time>2022-07-10T10:38:38.000Z</time>
      </trkpt>
      <trkpt lat="44.18957" lon="6.80671">
        <ele>1916.2</ele>
        <time>2022-07-10T10:38:43.000Z</time>
      </trkpt>
      <trkpt lat="44.18959" lon="6.80675">
        <ele>1915.8</ele>
        <time>2022-07-10T10:38:45.000Z</time>
      </trkpt>
      <trkpt lat="44.18963" lon="6.80677">
        <ele>1915.8</ele>
        <time>2022-07-10T10:38:47.000Z</time>
      </trkpt>
      <trkpt lat="44.18967" lon="6.8068">
        <ele>1915.8</ele>
        <time>2022-07-10T10:38:49.000Z</time>
      </trkpt>
      <trkpt lat="44.1897" lon="6.80686">
        <ele>1915.8</ele>
        <time>2022-07-10T10:38:52.000Z</time>
      </trkpt>
      <trkpt lat="44.18971" lon="6.8069">
        <ele>1915.6</ele>
        <time>2022-07-10T10:38:54.000Z</time>
      </trkpt>
      <trkpt lat="44.18974" lon="6.80701">
        <ele>1915.8</ele>
        <time>2022-07-10T10:38:59.000Z</time>
      </trkpt>
      <trkpt lat="44.18983" lon="6.80718">
        <ele>1917.2</ele>
        <time>2022-07-10T10:39:08.000Z</time>
      </trkpt>
      <trkpt lat="44.18987" lon="6.80734">
        <ele>1917</ele>
        <time>2022-07-10T10:39:12.000Z</time>
      </trkpt>
      <trkpt lat="44.18992" lon="6.80745">
        <ele>1916.8</ele>
        <time>2022-07-10T10:39:17.000Z</time>
      </trkpt>
      <trkpt lat="44.18995" lon="6.80757">
        <ele>1917</ele>
        <time>2022-07-10T10:39:23.000Z</time>
      </trkpt>
      <trkpt lat="44.18992" lon="6.80767">
        <ele>1917.4</ele>
        <time>2022-07-10T10:39:31.000Z</time>
      </trkpt>
      <trkpt lat="44.18991" lon="6.80778">
        <ele>1916.8</ele>
        <time>2022-07-10T10:39:37.000Z</time>
      </trkpt>
      <trkpt lat="44.18988" lon="6.80785">
        <ele>1916</ele>
        <time>2022-07-10T10:39:39.000Z</time>
      </trkpt>
      <trkpt lat="44.1899" lon="6.80786">
        <ele>1915.6</ele>
        <time>2022-07-10T10:39:41.000Z</time>
      </trkpt>
      <trkpt lat="44.18992" lon="6.8079">
        <ele>1915</ele>
        <time>2022-07-10T10:39:44.000Z</time>
      </trkpt>
      <trkpt lat="44.18998" lon="6.80797">
        <ele>1914.8</ele>
        <time>2022-07-10T10:39:53.000Z</time>
      </trkpt>
      <trkpt lat="44.19003" lon="6.80799">
        <ele>1914.8</ele>
        <time>2022-07-10T10:39:55.000Z</time>
      </trkpt>
      <trkpt lat="44.19005" lon="6.808">
        <ele>1915</ele>
        <time>2022-07-10T10:39:56.000Z</time>
      </trkpt>
      <trkpt lat="44.19012" lon="6.80803">
        <ele>1914.4</ele>
        <time>2022-07-10T10:39:58.000Z</time>
      </trkpt>
      <trkpt lat="44.19019" lon="6.80811">
        <ele>1912.8</ele>
        <time>2022-07-10T10:40:00.000Z</time>
      </trkpt>
      <trkpt lat="44.19019" lon="6.80816">
        <ele>1912.4</ele>
        <time>2022-07-10T10:40:01.000Z</time>
      </trkpt>
      <trkpt lat="44.19018" lon="6.80823">
        <ele>1911.8</ele>
        <time>2022-07-10T10:40:02.000Z</time>
      </trkpt>
      <trkpt lat="44.19019" lon="6.80829">
        <ele>1911.4</ele>
        <time>2022-07-10T10:40:03.000Z</time>
      </trkpt>
      <trkpt lat="44.19027" lon="6.8084">
        <ele>1910.8</ele>
        <time>2022-07-10T10:40:05.000Z</time>
      </trkpt>
      <trkpt lat="44.1904" lon="6.80854">
        <ele>1909.6</ele>
        <time>2022-07-10T10:40:08.000Z</time>
      </trkpt>
      <trkpt lat="44.19043" lon="6.80862">
        <ele>1908</ele>
        <time>2022-07-10T10:40:10.000Z</time>
      </trkpt>
      <trkpt lat="44.19041" lon="6.80886">
        <ele>1907.6</ele>
        <time>2022-07-10T10:40:16.000Z</time>
      </trkpt>
      <trkpt lat="44.19037" lon="6.8089">
        <ele>1907.2</ele>
        <time>2022-07-10T10:40:20.000Z</time>
      </trkpt>
      <trkpt lat="44.19037" lon="6.8089">
        <ele>1907.2</ele>
        <time>2022-07-10T10:40:22.000Z</time>
      </trkpt>
      <trkpt lat="44.19038" lon="6.80888">
        <ele>1907.4</ele>
        <time>2022-07-10T10:40:24.000Z</time>
      </trkpt>
      <trkpt lat="44.19038" lon="6.80886">
        <ele>1907.6</ele>
        <time>2022-07-10T10:40:26.000Z</time>
      </trkpt>
      <trkpt lat="44.19043" lon="6.80882">
        <ele>1908</ele>
        <time>2022-07-10T10:40:33.000Z</time>
      </trkpt>
      <trkpt lat="44.19043" lon="6.80885">
        <ele>1908.4</ele>
        <time>2022-07-10T10:40:37.000Z</time>
      </trkpt>
      <trkpt lat="44.19042" lon="6.80887">
        <ele>1909</ele>
        <time>2022-07-10T10:40:40.000Z</time>
      </trkpt>
      <trkpt lat="44.19042" lon="6.80893">
        <ele>1910</ele>
        <time>2022-07-10T10:40:45.000Z</time>
      </trkpt>
      <trkpt lat="44.19041" lon="6.80894">
        <ele>1910.2</ele>
        <time>2022-07-10T10:40:46.000Z</time>
      </trkpt>
      <trkpt lat="44.19042" lon="6.80897">
        <ele>1910.4</ele>
        <time>2022-07-10T10:40:48.000Z</time>
      </trkpt>
      <trkpt lat="44.19045" lon="6.80901">
        <ele>1911</ele>
        <time>2022-07-10T10:40:52.000Z</time>
      </trkpt>
      <trkpt lat="44.19045" lon="6.80903">
        <ele>1911.2</ele>
        <time>2022-07-10T10:40:54.000Z</time>
      </trkpt>
      <trkpt lat="44.19046" lon="6.80906">
        <ele>1911.6</ele>
        <time>2022-07-10T10:40:58.000Z</time>
      </trkpt>
      <trkpt lat="44.19043" lon="6.80904">
        <ele>1912.2</ele>
        <time>2022-07-10T10:41:08.000Z</time>
      </trkpt>
      <trkpt lat="44.19043" lon="6.80904">
        <ele>1912</ele>
        <time>2022-07-10T10:41:14.000Z</time>
      </trkpt>
      <trkpt lat="44.19046" lon="6.80914">
        <ele>1912</ele>
        <time>2022-07-10T10:41:23.000Z</time>
      </trkpt>
      <trkpt lat="44.19046" lon="6.80918">
        <ele>1912.4</ele>
        <time>2022-07-10T10:41:25.000Z</time>
      </trkpt>
      <trkpt lat="44.19047" lon="6.80923">
        <ele>1913.2</ele>
        <time>2022-07-10T10:41:28.000Z</time>
      </trkpt>
      <trkpt lat="44.19044" lon="6.80932">
        <ele>1914.4</ele>
        <time>2022-07-10T10:41:34.000Z</time>
      </trkpt>
      <trkpt lat="44.19041" lon="6.80937">
        <ele>1914.8</ele>
        <time>2022-07-10T10:41:39.000Z</time>
      </trkpt>
      <trkpt lat="44.1904" lon="6.80939">
        <ele>1915.4</ele>
        <time>2022-07-10T10:41:42.000Z</time>
      </trkpt>
      <trkpt lat="44.19039" lon="6.80943">
        <ele>1915.8</ele>
        <time>2022-07-10T10:41:51.000Z</time>
      </trkpt>
      <trkpt lat="44.19042" lon="6.80975">
        <ele>1916.6</ele>
        <time>2022-07-10T10:42:07.000Z</time>
      </trkpt>
      <trkpt lat="44.19042" lon="6.80975">
        <ele>1917</ele>
        <time>2022-07-10T10:42:09.000Z</time>
      </trkpt>
      <trkpt lat="44.19041" lon="6.80976">
        <ele>1917.4</ele>
        <time>2022-07-10T10:42:16.000Z</time>
      </trkpt>
      <trkpt lat="44.1904" lon="6.80976">
        <ele>1917.4</ele>
        <time>2022-07-10T10:42:19.000Z</time>
      </trkpt>
      <trkpt lat="44.19043" lon="6.80977">
        <ele>1917</ele>
        <time>2022-07-10T10:42:40.000Z</time>
      </trkpt>
      <trkpt lat="44.19043" lon="6.80977">
        <ele>1917.6</ele>
        <time>2022-07-10T10:42:43.000Z</time>
      </trkpt>
      <trkpt lat="44.19043" lon="6.80976">
        <ele>1917.6</ele>
        <time>2022-07-10T10:42:44.000Z</time>
      </trkpt>
      <trkpt lat="44.19043" lon="6.80975">
        <ele>1917.8</ele>
        <time>2022-07-10T10:42:46.000Z</time>
      </trkpt>
      <trkpt lat="44.19043" lon="6.80975">
        <ele>1917.8</ele>
        <time>2022-07-10T10:42:49.000Z</time>
      </trkpt>
      <trkpt lat="44.19043" lon="6.80975">
        <ele>1917.6</ele>
        <time>2022-07-10T10:42:50.000Z</time>
      </trkpt>
      <trkpt lat="44.19043" lon="6.80974">
        <ele>1917.8</ele>
        <time>2022-07-10T10:42:52.000Z</time>
      </trkpt>
      <trkpt lat="44.19043" lon="6.80974">
        <ele>1918.2</ele>
        <time>2022-07-10T10:42:57.000Z</time>
      </trkpt>
      <trkpt lat="44.19046" lon="6.80979">
        <ele>1918.4</ele>
        <time>2022-07-10T10:43:03.000Z</time>
      </trkpt>
      <trkpt lat="44.19047" lon="6.8098">
        <ele>1918.6</ele>
        <time>2022-07-10T10:43:04.000Z</time>
      </trkpt>
      <trkpt lat="44.19048" lon="6.80981">
        <ele>1919.2</ele>
        <time>2022-07-10T10:43:07.000Z</time>
      </trkpt>
      <trkpt lat="44.19055" lon="6.80988">
        <ele>1919</ele>
        <time>2022-07-10T10:43:26.000Z</time>
      </trkpt>
      <trkpt lat="44.19058" lon="6.80989">
        <ele>1919.6</ele>
        <time>2022-07-10T10:43:29.000Z</time>
      </trkpt>
      <trkpt lat="44.19061" lon="6.8099">
        <ele>1920.6</ele>
        <time>2022-07-10T10:43:32.000Z</time>
      </trkpt>
      <trkpt lat="44.19068" lon="6.80992">
        <ele>1921.8</ele>
        <time>2022-07-10T10:43:37.000Z</time>
      </trkpt>
      <trkpt lat="44.19072" lon="6.80993">
        <ele>1922.8</ele>
        <time>2022-07-10T10:43:40.000Z</time>
      </trkpt>
      <trkpt lat="44.19073" lon="6.80993">
        <ele>1923</ele>
        <time>2022-07-10T10:43:41.000Z</time>
      </trkpt>
      <trkpt lat="44.19077" lon="6.80995">
        <ele>1922.8</ele>
        <time>2022-07-10T10:43:44.000Z</time>
      </trkpt>
      <trkpt lat="44.19082" lon="6.80998">
        <ele>1923.4</ele>
        <time>2022-07-10T10:43:47.000Z</time>
      </trkpt>
      <trkpt lat="44.19083" lon="6.81001">
        <ele>1924.2</ele>
        <time>2022-07-10T10:43:49.000Z</time>
      </trkpt>
      <trkpt lat="44.19088" lon="6.81008">
        <ele>1924.6</ele>
        <time>2022-07-10T10:43:52.000Z</time>
      </trkpt>
      <trkpt lat="44.19089" lon="6.81021">
        <ele>1925.2</ele>
        <time>2022-07-10T10:43:57.000Z</time>
      </trkpt>
      <trkpt lat="44.1909" lon="6.81026">
        <ele>1925.2</ele>
        <time>2022-07-10T10:43:59.000Z</time>
      </trkpt>
      <trkpt lat="44.19095" lon="6.81037">
        <ele>1926.6</ele>
        <time>2022-07-10T10:44:04.000Z</time>
      </trkpt>
      <trkpt lat="44.19097" lon="6.81042">
        <ele>1927.6</ele>
        <time>2022-07-10T10:44:07.000Z</time>
      </trkpt>
      <trkpt lat="44.19098" lon="6.81049">
        <ele>1928.2</ele>
        <time>2022-07-10T10:44:11.000Z</time>
      </trkpt>
      <trkpt lat="44.19098" lon="6.81057">
        <ele>1928.6</ele>
        <time>2022-07-10T10:44:15.000Z</time>
      </trkpt>
      <trkpt lat="44.19102" lon="6.81075">
        <ele>1929.8</ele>
        <time>2022-07-10T10:44:26.000Z</time>
      </trkpt>
      <trkpt lat="44.19096" lon="6.8109">
        <ele>1930.8</ele>
        <time>2022-07-10T10:44:34.000Z</time>
      </trkpt>
      <trkpt lat="44.19091" lon="6.81101">
        <ele>1932</ele>
        <time>2022-07-10T10:44:40.000Z</time>
      </trkpt>
      <trkpt lat="44.1909" lon="6.81105">
        <ele>1932</ele>
        <time>2022-07-10T10:44:43.000Z</time>
      </trkpt>
      <trkpt lat="44.19093" lon="6.81109">
        <ele>1933</ele>
        <time>2022-07-10T10:44:50.000Z</time>
      </trkpt>
      <trkpt lat="44.19097" lon="6.81104">
        <ele>1933.2</ele>
        <time>2022-07-10T10:44:57.000Z</time>
      </trkpt>
      <trkpt lat="44.19097" lon="6.81101">
        <ele>1933.2</ele>
        <time>2022-07-10T10:44:59.000Z</time>
      </trkpt>
      <trkpt lat="44.19096" lon="6.81098">
        <ele>1933.2</ele>
        <time>2022-07-10T10:45:02.000Z</time>
      </trkpt>
      <trkpt lat="44.191" lon="6.81102">
        <ele>1933</ele>
        <time>2022-07-10T10:45:06.000Z</time>
      </trkpt>
      <trkpt lat="44.191" lon="6.81101">
        <ele>1933</ele>
        <time>2022-07-10T10:45:16.000Z</time>
      </trkpt>
      <trkpt lat="44.19101" lon="6.81097">
        <ele>1933</ele>
        <time>2022-07-10T10:45:20.000Z</time>
      </trkpt>
      <trkpt lat="44.19101" lon="6.81097">
        <ele>1933.2</ele>
        <time>2022-07-10T10:45:23.000Z</time>
      </trkpt>
      <trkpt lat="44.19102" lon="6.81096">
        <ele>1933.4</ele>
        <time>2022-07-10T10:45:25.000Z</time>
      </trkpt>
      <trkpt lat="44.19102" lon="6.81095">
        <ele>1933.4</ele>
        <time>2022-07-10T10:45:27.000Z</time>
      </trkpt>
      <trkpt lat="44.19102" lon="6.81095">
        <ele>1933.8</ele>
        <time>2022-07-10T10:45:33.000Z</time>
      </trkpt>
      <trkpt lat="44.19102" lon="6.81095">
        <ele>1933.8</ele>
        <time>2022-07-10T10:45:44.000Z</time>
      </trkpt>
      <trkpt lat="44.19102" lon="6.81095">
        <ele>1933.4</ele>
        <time>2022-07-10T10:45:49.000Z</time>
      </trkpt>
      <trkpt lat="44.19102" lon="6.81094">
        <ele>1933.4</ele>
        <time>2022-07-10T10:45:53.000Z</time>
      </trkpt>
      <trkpt lat="44.19102" lon="6.81094">
        <ele>1933.2</ele>
        <time>2022-07-10T10:45:54.000Z</time>
      </trkpt>
      <trkpt lat="44.19102" lon="6.81094">
        <ele>1933.2</ele>
        <time>2022-07-10T10:45:55.000Z</time>
      </trkpt>
      <trkpt lat="44.19102" lon="6.81094">
        <ele>1933.2</ele>
        <time>2022-07-10T10:45:56.000Z</time>
      </trkpt>
      <trkpt lat="44.19102" lon="6.81094">
        <ele>1933.2</ele>
        <time>2022-07-10T10:45:57.000Z</time>
      </trkpt>
      <trkpt lat="44.19102" lon="6.81094">
        <ele>1933</ele>
        <time>2022-07-10T10:45:58.000Z</time>
      </trkpt>
      <trkpt lat="44.19102" lon="6.81094">
        <ele>1932.8</ele>
        <time>2022-07-10T10:46:09.000Z</time>
      </trkpt>
      <trkpt lat="44.191" lon="6.81097">
        <ele>1933</ele>
        <time>2022-07-10T10:46:13.000Z</time>
      </trkpt>
      <trkpt lat="44.19094" lon="6.81101">
        <ele>1933</ele>
        <time>2022-07-10T10:46:19.000Z</time>
      </trkpt>
      <trkpt lat="44.19093" lon="6.811">
        <ele>1932.8</ele>
        <time>2022-07-10T10:46:21.000Z</time>
      </trkpt>
      <trkpt lat="44.19093" lon="6.81101">
        <ele>1932.6</ele>
        <time>2022-07-10T10:46:22.000Z</time>
      </trkpt>
      <trkpt lat="44.1909" lon="6.81102">
        <ele>1932.2</ele>
        <time>2022-07-10T10:46:34.000Z</time>
      </trkpt>
      <trkpt lat="44.1909" lon="6.81103">
        <ele>1932.2</ele>
        <time>2022-07-10T10:46:40.000Z</time>
      </trkpt>
      <trkpt lat="44.19089" lon="6.81104">
        <ele>1932</ele>
        <time>2022-07-10T10:46:46.000Z</time>
      </trkpt>
      <trkpt lat="44.19089" lon="6.81105">
        <ele>1932</ele>
        <time>2022-07-10T10:46:52.000Z</time>
      </trkpt>
      <trkpt lat="44.19089" lon="6.81106">
        <ele>1931.8</ele>
        <time>2022-07-10T10:46:56.000Z</time>
      </trkpt>
      <trkpt lat="44.19089" lon="6.81106">
        <ele>1932</ele>
        <time>2022-07-10T10:46:57.000Z</time>
      </trkpt>
      <trkpt lat="44.19089" lon="6.8111">
        <ele>1931.8</ele>
        <time>2022-07-10T10:47:03.000Z</time>
      </trkpt>
      <trkpt lat="44.19091" lon="6.81115">
        <ele>1931.8</ele>
        <time>2022-07-10T10:47:05.000Z</time>
      </trkpt>
      <trkpt lat="44.19097" lon="6.81124">
        <ele>1933</ele>
        <time>2022-07-10T10:47:11.000Z</time>
      </trkpt>
      <trkpt lat="44.191" lon="6.81126">
        <ele>1933.8</ele>
        <time>2022-07-10T10:47:13.000Z</time>
      </trkpt>
      <trkpt lat="44.19102" lon="6.81127">
        <ele>1934.2</ele>
        <time>2022-07-10T10:47:14.000Z</time>
      </trkpt>
      <trkpt lat="44.19103" lon="6.81132">
        <ele>1934.4</ele>
        <time>2022-07-10T10:47:17.000Z</time>
      </trkpt>
      <trkpt lat="44.19102" lon="6.81141">
        <ele>1934.4</ele>
        <time>2022-07-10T10:47:20.000Z</time>
      </trkpt>
      <trkpt lat="44.19105" lon="6.81149">
        <ele>1934.4</ele>
        <time>2022-07-10T10:47:23.000Z</time>
      </trkpt>
      <trkpt lat="44.19108" lon="6.81157">
        <ele>1934.8</ele>
        <time>2022-07-10T10:47:26.000Z</time>
      </trkpt>
      <trkpt lat="44.19109" lon="6.81158">
        <ele>1935.2</ele>
        <time>2022-07-10T10:47:27.000Z</time>
      </trkpt>
      <trkpt lat="44.19112" lon="6.81162">
        <ele>1936.4</ele>
        <time>2022-07-10T10:47:30.000Z</time>
      </trkpt>
      <trkpt lat="44.19115" lon="6.81168">
        <ele>1936.8</ele>
        <time>2022-07-10T10:47:33.000Z</time>
      </trkpt>
      <trkpt lat="44.19117" lon="6.81173">
        <ele>1937</ele>
        <time>2022-07-10T10:47:36.000Z</time>
      </trkpt>
      <trkpt lat="44.19119" lon="6.81179">
        <ele>1937.4</ele>
        <time>2022-07-10T10:47:39.000Z</time>
      </trkpt>
      <trkpt lat="44.1912" lon="6.81181">
        <ele>1937.6</ele>
        <time>2022-07-10T10:47:40.000Z</time>
      </trkpt>
      <trkpt lat="44.19125" lon="6.81191">
        <ele>1938.2</ele>
        <time>2022-07-10T10:47:46.000Z</time>
      </trkpt>
      <trkpt lat="44.19127" lon="6.81193">
        <ele>1938.2</ele>
        <time>2022-07-10T10:47:47.000Z</time>
      </trkpt>
      <trkpt lat="44.1913" lon="6.81196">
        <ele>1938</ele>
        <time>2022-07-10T10:47:49.000Z</time>
      </trkpt>
      <trkpt lat="44.19129" lon="6.81201">
        <ele>1938.2</ele>
        <time>2022-07-10T10:47:51.000Z</time>
      </trkpt>
      <trkpt lat="44.19119" lon="6.81208">
        <ele>1938.6</ele>
        <time>2022-07-10T10:47:58.000Z</time>
      </trkpt>
      <trkpt lat="44.19113" lon="6.81207">
        <ele>1938.8</ele>
        <time>2022-07-10T10:48:06.000Z</time>
      </trkpt>
      <trkpt lat="44.19114" lon="6.81202">
        <ele>1938.6</ele>
        <time>2022-07-10T10:48:10.000Z</time>
      </trkpt>
      <trkpt lat="44.19115" lon="6.81202">
        <ele>1937.8</ele>
        <time>2022-07-10T10:48:15.000Z</time>
      </trkpt>
      <trkpt lat="44.19115" lon="6.81201">
        <ele>1937.6</ele>
        <time>2022-07-10T10:48:18.000Z</time>
      </trkpt>
      <trkpt lat="44.19115" lon="6.81201">
        <ele>1937.4</ele>
        <time>2022-07-10T10:48:22.000Z</time>
      </trkpt>
      <trkpt lat="44.19115" lon="6.81201">
        <ele>1937.2</ele>
        <time>2022-07-10T10:48:30.000Z</time>
      </trkpt>
      <trkpt lat="44.19115" lon="6.81201">
        <ele>1937.2</ele>
        <time>2022-07-10T10:48:40.000Z</time>
      </trkpt>
      <trkpt lat="44.19115" lon="6.81201">
        <ele>1937.2</ele>
        <time>2022-07-10T10:48:46.000Z</time>
      </trkpt>
      <trkpt lat="44.19116" lon="6.81206">
        <ele>1937.6</ele>
        <time>2022-07-10T10:48:51.000Z</time>
      </trkpt>
      <trkpt lat="44.19114" lon="6.81209">
        <ele>1937.8</ele>
        <time>2022-07-10T10:48:55.000Z</time>
      </trkpt>
      <trkpt lat="44.19113" lon="6.8121">
        <ele>1937.8</ele>
        <time>2022-07-10T10:48:57.000Z</time>
      </trkpt>
      <trkpt lat="44.19108" lon="6.81216">
        <ele>1938.2</ele>
        <time>2022-07-10T10:49:05.000Z</time>
      </trkpt>
      <trkpt lat="44.19103" lon="6.81224">
        <ele>1938.8</ele>
        <time>2022-07-10T10:49:09.000Z</time>
      </trkpt>
      <trkpt lat="44.19092" lon="6.81229">
        <ele>1939.4</ele>
        <time>2022-07-10T10:49:16.000Z</time>
      </trkpt>
      <trkpt lat="44.19086" lon="6.8123">
        <ele>1939.8</ele>
        <time>2022-07-10T10:49:20.000Z</time>
      </trkpt>
      <trkpt lat="44.19082" lon="6.81231">
        <ele>1940.2</ele>
        <time>2022-07-10T10:49:24.000Z</time>
      </trkpt>
      <trkpt lat="44.19077" lon="6.81231">
        <ele>1940</ele>
        <time>2022-07-10T10:49:29.000Z</time>
      </trkpt>
      <trkpt lat="44.19074" lon="6.81232">
        <ele>1940</ele>
        <time>2022-07-10T10:49:32.000Z</time>
      </trkpt>
      <trkpt lat="44.19073" lon="6.81233">
        <ele>1940</ele>
        <time>2022-07-10T10:49:43.000Z</time>
      </trkpt>
      <trkpt lat="44.1907" lon="6.8124">
        <ele>1939.6</ele>
        <time>2022-07-10T10:49:48.000Z</time>
      </trkpt>
      <trkpt lat="44.19065" lon="6.81252">
        <ele>1939</ele>
        <time>2022-07-10T10:49:51.000Z</time>
      </trkpt>
      <trkpt lat="44.19063" lon="6.81255">
        <ele>1938.8</ele>
        <time>2022-07-10T10:49:52.000Z</time>
      </trkpt>
      <trkpt lat="44.19058" lon="6.81263">
        <ele>1938.2</ele>
        <time>2022-07-10T10:49:54.000Z</time>
      </trkpt>
      <trkpt lat="44.19056" lon="6.81268">
        <ele>1937.6</ele>
        <time>2022-07-10T10:49:55.000Z</time>
      </trkpt>
      <trkpt lat="44.19047" lon="6.81285">
        <ele>1936.4</ele>
        <time>2022-07-10T10:49:58.000Z</time>
      </trkpt>
      <trkpt lat="44.19042" lon="6.81296">
        <ele>1935.8</ele>
        <time>2022-07-10T10:50:00.000Z</time>
      </trkpt>
      <trkpt lat="44.19034" lon="6.81303">
        <ele>1935.4</ele>
        <time>2022-07-10T10:50:02.000Z</time>
      </trkpt>
      <trkpt lat="44.19025" lon="6.81306">
        <ele>1935.6</ele>
        <time>2022-07-10T10:50:04.000Z</time>
      </trkpt>
      <trkpt lat="44.19014" lon="6.81306">
        <ele>1935.4</ele>
        <time>2022-07-10T10:50:06.000Z</time>
      </trkpt>
      <trkpt lat="44.18998" lon="6.81309">
        <ele>1934</ele>
        <time>2022-07-10T10:50:09.000Z</time>
      </trkpt>
      <trkpt lat="44.18984" lon="6.81311">
        <ele>1933.2</ele>
        <time>2022-07-10T10:50:12.000Z</time>
      </trkpt>
      <trkpt lat="44.18977" lon="6.81316">
        <ele>1935</ele>
        <time>2022-07-10T10:50:17.000Z</time>
      </trkpt>
      <trkpt lat="44.18978" lon="6.81316">
        <ele>1935.4</ele>
        <time>2022-07-10T10:50:18.000Z</time>
      </trkpt>
      <trkpt lat="44.1898" lon="6.81319">
        <ele>1935.4</ele>
        <time>2022-07-10T10:50:30.000Z</time>
      </trkpt>
      <trkpt lat="44.18974" lon="6.8132">
        <ele>1936.4</ele>
        <time>2022-07-10T10:50:48.000Z</time>
      </trkpt>
      <trkpt lat="44.18963" lon="6.81323">
        <ele>1937.6</ele>
        <time>2022-07-10T10:50:55.000Z</time>
      </trkpt>
      <trkpt lat="44.18958" lon="6.81326">
        <ele>1937.6</ele>
        <time>2022-07-10T10:50:59.000Z</time>
      </trkpt>
      <trkpt lat="44.1895" lon="6.81332">
        <ele>1938.6</ele>
        <time>2022-07-10T10:51:07.000Z</time>
      </trkpt>
      <trkpt lat="44.18946" lon="6.81332">
        <ele>1939</ele>
        <time>2022-07-10T10:51:11.000Z</time>
      </trkpt>
      <trkpt lat="44.18944" lon="6.8133">
        <ele>1939.6</ele>
        <time>2022-07-10T10:51:17.000Z</time>
      </trkpt>
      <trkpt lat="44.18944" lon="6.81331">
        <ele>1940.2</ele>
        <time>2022-07-10T10:51:33.000Z</time>
      </trkpt>
      <trkpt lat="44.18945" lon="6.81334">
        <ele>1940.6</ele>
        <time>2022-07-10T10:51:37.000Z</time>
      </trkpt>
      <trkpt lat="44.18945" lon="6.81332">
        <ele>1941.6</ele>
        <time>2022-07-10T10:51:43.000Z</time>
      </trkpt>
      <trkpt lat="44.18944" lon="6.81332">
        <ele>1941.4</ele>
        <time>2022-07-10T10:51:45.000Z</time>
      </trkpt>
      <trkpt lat="44.18943" lon="6.81333">
        <ele>1940.6</ele>
        <time>2022-07-10T10:51:48.000Z</time>
      </trkpt>
      <trkpt lat="44.18942" lon="6.81334">
        <ele>1940</ele>
        <time>2022-07-10T10:51:51.000Z</time>
      </trkpt>
      <trkpt lat="44.18941" lon="6.81334">
        <ele>1939.6</ele>
        <time>2022-07-10T10:51:53.000Z</time>
      </trkpt>
      <trkpt lat="44.18941" lon="6.81335">
        <ele>1939.2</ele>
        <time>2022-07-10T10:51:57.000Z</time>
      </trkpt>
      <trkpt lat="44.1892" lon="6.81334">
        <ele>1946.2</ele>
        <time>2022-07-10T11:11:41.000Z</time>
      </trkpt>
      <trkpt lat="44.18922" lon="6.81336">
        <ele>1946.8</ele>
        <time>2022-07-10T11:11:44.000Z</time>
      </trkpt>
      <trkpt lat="44.18914" lon="6.81337">
        <ele>1947</ele>
        <time>2022-07-10T11:11:50.000Z</time>
      </trkpt>
      <trkpt lat="44.18909" lon="6.81341">
        <ele>1947.6</ele>
        <time>2022-07-10T11:11:53.000Z</time>
      </trkpt>
      <trkpt lat="44.18905" lon="6.81344">
        <ele>1947.4</ele>
        <time>2022-07-10T11:11:56.000Z</time>
      </trkpt>
      <trkpt lat="44.18902" lon="6.81346">
        <ele>1947.8</ele>
        <time>2022-07-10T11:11:59.000Z</time>
      </trkpt>
      <trkpt lat="44.18899" lon="6.81347">
        <ele>1948.4</ele>
        <time>2022-07-10T11:12:02.000Z</time>
      </trkpt>
      <trkpt lat="44.18896" lon="6.81347">
        <ele>1949</ele>
        <time>2022-07-10T11:12:04.000Z</time>
      </trkpt>
      <trkpt lat="44.18891" lon="6.81347">
        <ele>1950.2</ele>
        <time>2022-07-10T11:12:08.000Z</time>
      </trkpt>
      <trkpt lat="44.18886" lon="6.81346">
        <ele>1950.4</ele>
        <time>2022-07-10T11:12:12.000Z</time>
      </trkpt>
      <trkpt lat="44.18881" lon="6.81345">
        <ele>1950.8</ele>
        <time>2022-07-10T11:12:16.000Z</time>
      </trkpt>
      <trkpt lat="44.18878" lon="6.81343">
        <ele>1951.2</ele>
        <time>2022-07-10T11:12:19.000Z</time>
      </trkpt>
      <trkpt lat="44.18858" lon="6.81341">
        <ele>1952.2</ele>
        <time>2022-07-10T11:12:34.000Z</time>
      </trkpt>
      <trkpt lat="44.18852" lon="6.81339">
        <ele>1952.8</ele>
        <time>2022-07-10T11:12:38.000Z</time>
      </trkpt>
      <trkpt lat="44.18831" lon="6.81324">
        <ele>1950.8</ele>
        <time>2022-07-10T11:12:46.000Z</time>
      </trkpt>
      <trkpt lat="44.18827" lon="6.8132">
        <ele>1949.8</ele>
        <time>2022-07-10T11:12:48.000Z</time>
      </trkpt>
      <trkpt lat="44.18826" lon="6.81319">
        <ele>1949.6</ele>
        <time>2022-07-10T11:12:49.000Z</time>
      </trkpt>
      <trkpt lat="44.18818" lon="6.8132">
        <ele>1950.4</ele>
        <time>2022-07-10T11:12:55.000Z</time>
      </trkpt>
      <trkpt lat="44.18815" lon="6.81323">
        <ele>1950.4</ele>
        <time>2022-07-10T11:12:59.000Z</time>
      </trkpt>
      <trkpt lat="44.18786" lon="6.81338">
        <ele>1949.4</ele>
        <time>2022-07-10T11:13:12.000Z</time>
      </trkpt>
      <trkpt lat="44.18776" lon="6.81342">
        <ele>1948.8</ele>
        <time>2022-07-10T11:13:16.000Z</time>
      </trkpt>
      <trkpt lat="44.18768" lon="6.81348">
        <ele>1948.6</ele>
        <time>2022-07-10T11:13:19.000Z</time>
      </trkpt>
      <trkpt lat="44.18763" lon="6.81351">
        <ele>1948.6</ele>
        <time>2022-07-10T11:13:22.000Z</time>
      </trkpt>
      <trkpt lat="44.18748" lon="6.81363">
        <ele>1948.6</ele>
        <time>2022-07-10T11:13:33.000Z</time>
      </trkpt>
      <trkpt lat="44.18744" lon="6.81366">
        <ele>1949.2</ele>
        <time>2022-07-10T11:13:37.000Z</time>
      </trkpt>
      <trkpt lat="44.18724" lon="6.8137">
        <ele>1949.4</ele>
        <time>2022-07-10T11:13:50.000Z</time>
      </trkpt>
      <trkpt lat="44.18723" lon="6.8137">
        <ele>1949.6</ele>
        <time>2022-07-10T11:13:51.000Z</time>
      </trkpt>
      <trkpt lat="44.18723" lon="6.81369">
        <ele>1950</ele>
        <time>2022-07-10T11:13:52.000Z</time>
      </trkpt>
      <trkpt lat="44.18723" lon="6.81369">
        <ele>1950.8</ele>
        <time>2022-07-10T11:13:54.000Z</time>
      </trkpt>
      <trkpt lat="44.18723" lon="6.81369">
        <ele>1951.2</ele>
        <time>2022-07-10T11:13:56.000Z</time>
      </trkpt>
      <trkpt lat="44.18721" lon="6.8137">
        <ele>1951.2</ele>
        <time>2022-07-10T11:13:59.000Z</time>
      </trkpt>
      <trkpt lat="44.18719" lon="6.81372">
        <ele>1951.6</ele>
        <time>2022-07-10T11:14:02.000Z</time>
      </trkpt>
      <trkpt lat="44.1872" lon="6.81372">
        <ele>1952.2</ele>
        <time>2022-07-10T11:14:06.000Z</time>
      </trkpt>
      <trkpt lat="44.18718" lon="6.81376">
        <ele>1952.6</ele>
        <time>2022-07-10T11:14:10.000Z</time>
      </trkpt>
      <trkpt lat="44.18709" lon="6.8138">
        <ele>1952.8</ele>
        <time>2022-07-10T11:14:30.000Z</time>
      </trkpt>
      <trkpt lat="44.18709" lon="6.8138">
        <ele>1952.6</ele>
        <time>2022-07-10T11:14:44.000Z</time>
      </trkpt>
      <trkpt lat="44.18709" lon="6.8138">
        <ele>1952.4</ele>
        <time>2022-07-10T11:14:48.000Z</time>
      </trkpt>
      <trkpt lat="44.18709" lon="6.8138">
        <ele>1952.6</ele>
        <time>2022-07-10T11:14:54.000Z</time>
      </trkpt>
      <trkpt lat="44.18709" lon="6.8138">
        <ele>1953</ele>
        <time>2022-07-10T11:14:58.000Z</time>
      </trkpt>
      <trkpt lat="44.18709" lon="6.8138">
        <ele>1953</ele>
        <time>2022-07-10T11:15:00.000Z</time>
      </trkpt>
      <trkpt lat="44.18708" lon="6.8138">
        <ele>1952.8</ele>
        <time>2022-07-10T11:15:08.000Z</time>
      </trkpt>
      <trkpt lat="44.18708" lon="6.8138">
        <ele>1952.8</ele>
        <time>2022-07-10T11:15:09.000Z</time>
      </trkpt>
      <trkpt lat="44.18708" lon="6.8138">
        <ele>1952.8</ele>
        <time>2022-07-10T11:15:10.000Z</time>
      </trkpt>
      <trkpt lat="44.18708" lon="6.8138">
        <ele>1952.6</ele>
        <time>2022-07-10T11:15:11.000Z</time>
      </trkpt>
      <trkpt lat="44.18702" lon="6.81383">
        <ele>1952.6</ele>
        <time>2022-07-10T11:15:15.000Z</time>
      </trkpt>
      <trkpt lat="44.18694" lon="6.81387">
        <ele>1952.8</ele>
        <time>2022-07-10T11:15:20.000Z</time>
      </trkpt>
      <trkpt lat="44.1869" lon="6.81388">
        <ele>1953.4</ele>
        <time>2022-07-10T11:15:23.000Z</time>
      </trkpt>
      <trkpt lat="44.18682" lon="6.81389">
        <ele>1953.8</ele>
        <time>2022-07-10T11:15:28.000Z</time>
      </trkpt>
      <trkpt lat="44.18669" lon="6.81391">
        <ele>1954</ele>
        <time>2022-07-10T11:15:37.000Z</time>
      </trkpt>
      <trkpt lat="44.18665" lon="6.81394">
        <ele>1954.4</ele>
        <time>2022-07-10T11:15:40.000Z</time>
      </trkpt>
      <trkpt lat="44.18659" lon="6.814">
        <ele>1955.2</ele>
        <time>2022-07-10T11:15:47.000Z</time>
      </trkpt>
      <trkpt lat="44.18657" lon="6.81402">
        <ele>1955.4</ele>
        <time>2022-07-10T11:15:49.000Z</time>
      </trkpt>
      <trkpt lat="44.18641" lon="6.81412">
        <ele>1955.6</ele>
        <time>2022-07-10T11:16:01.000Z</time>
      </trkpt>
      <trkpt lat="44.1863" lon="6.81418">
        <ele>1955.6</ele>
        <time>2022-07-10T11:16:06.000Z</time>
      </trkpt>
      <trkpt lat="44.18623" lon="6.81423">
        <ele>1955.6</ele>
        <time>2022-07-10T11:16:10.000Z</time>
      </trkpt>
      <trkpt lat="44.18614" lon="6.81477">
        <ele>1954.8</ele>
        <time>2022-07-10T11:16:33.000Z</time>
      </trkpt>
      <trkpt lat="44.18608" lon="6.81488">
        <ele>1954.2</ele>
        <time>2022-07-10T11:16:38.000Z</time>
      </trkpt>
      <trkpt lat="44.18597" lon="6.81509">
        <ele>1953.4</ele>
        <time>2022-07-10T11:16:46.000Z</time>
      </trkpt>
      <trkpt lat="44.18594" lon="6.81517">
        <ele>1953.4</ele>
        <time>2022-07-10T11:16:49.000Z</time>
      </trkpt>
      <trkpt lat="44.18591" lon="6.81526">
        <ele>1953.2</ele>
        <time>2022-07-10T11:16:52.000Z</time>
      </trkpt>
      <trkpt lat="44.18582" lon="6.8154">
        <ele>1953.4</ele>
        <time>2022-07-10T11:16:58.000Z</time>
      </trkpt>
      <trkpt lat="44.18577" lon="6.81548">
        <ele>1953.4</ele>
        <time>2022-07-10T11:17:02.000Z</time>
      </trkpt>
      <trkpt lat="44.18557" lon="6.81584">
        <ele>1952</ele>
        <time>2022-07-10T11:17:15.000Z</time>
      </trkpt>
      <trkpt lat="44.18548" lon="6.816">
        <ele>1951.6</ele>
        <time>2022-07-10T11:17:20.000Z</time>
      </trkpt>
      <trkpt lat="44.18534" lon="6.81628">
        <ele>1951.6</ele>
        <time>2022-07-10T11:17:28.000Z</time>
      </trkpt>
      <trkpt lat="44.18526" lon="6.81644">
        <ele>1950.8</ele>
        <time>2022-07-10T11:17:32.000Z</time>
      </trkpt>
      <trkpt lat="44.18495" lon="6.81667">
        <ele>1950.6</ele>
        <time>2022-07-10T11:17:43.000Z</time>
      </trkpt>
      <trkpt lat="44.18486" lon="6.81671">
        <ele>1949.8</ele>
        <time>2022-07-10T11:17:45.000Z</time>
      </trkpt>
      <trkpt lat="44.18482" lon="6.81671">
        <ele>1949.4</ele>
        <time>2022-07-10T11:17:46.000Z</time>
      </trkpt>
      <trkpt lat="44.18479" lon="6.81671">
        <ele>1948.8</ele>
        <time>2022-07-10T11:17:47.000Z</time>
      </trkpt>
      <trkpt lat="44.18472" lon="6.81671">
        <ele>1947.8</ele>
        <time>2022-07-10T11:17:49.000Z</time>
      </trkpt>
      <trkpt lat="44.1847" lon="6.81673">
        <ele>1947.4</ele>
        <time>2022-07-10T11:17:50.000Z</time>
      </trkpt>
      <trkpt lat="44.18468" lon="6.81676">
        <ele>1946.8</ele>
        <time>2022-07-10T11:17:51.000Z</time>
      </trkpt>
      <trkpt lat="44.1846" lon="6.81682">
        <ele>1945.8</ele>
        <time>2022-07-10T11:17:54.000Z</time>
      </trkpt>
      <trkpt lat="44.18452" lon="6.81676">
        <ele>1944.2</ele>
        <time>2022-07-10T11:17:57.000Z</time>
      </trkpt>
      <trkpt lat="44.18447" lon="6.81667">
        <ele>1942.8</ele>
        <time>2022-07-10T11:17:59.000Z</time>
      </trkpt>
      <trkpt lat="44.18437" lon="6.81659">
        <ele>1941.8</ele>
        <time>2022-07-10T11:18:02.000Z</time>
      </trkpt>
      <trkpt lat="44.1843" lon="6.81662">
        <ele>1941.6</ele>
        <time>2022-07-10T11:18:06.000Z</time>
      </trkpt>
      <trkpt lat="44.18429" lon="6.81666">
        <ele>1941.6</ele>
        <time>2022-07-10T11:18:08.000Z</time>
      </trkpt>
      <trkpt lat="44.18427" lon="6.81671">
        <ele>1942.4</ele>
        <time>2022-07-10T11:18:11.000Z</time>
      </trkpt>
      <trkpt lat="44.18424" lon="6.81675">
        <ele>1942.8</ele>
        <time>2022-07-10T11:18:13.000Z</time>
      </trkpt>
      <trkpt lat="44.18422" lon="6.81678">
        <ele>1943</ele>
        <time>2022-07-10T11:18:15.000Z</time>
      </trkpt>
      <trkpt lat="44.18419" lon="6.81683">
        <ele>1943.2</ele>
        <time>2022-07-10T11:18:18.000Z</time>
      </trkpt>
      <trkpt lat="44.18422" lon="6.81694">
        <ele>1943.4</ele>
        <time>2022-07-10T11:18:22.000Z</time>
      </trkpt>
      <trkpt lat="44.18423" lon="6.817">
        <ele>1943.8</ele>
        <time>2022-07-10T11:18:24.000Z</time>
      </trkpt>
      <trkpt lat="44.18424" lon="6.8171">
        <ele>1945</ele>
        <time>2022-07-10T11:18:28.000Z</time>
      </trkpt>
      <trkpt lat="44.18422" lon="6.81723">
        <ele>1945.4</ele>
        <time>2022-07-10T11:18:33.000Z</time>
      </trkpt>
      <trkpt lat="44.18423" lon="6.81739">
        <ele>1945.4</ele>
        <time>2022-07-10T11:18:40.000Z</time>
      </trkpt>
      <trkpt lat="44.18422" lon="6.81738">
        <ele>1946</ele>
        <time>2022-07-10T11:18:44.000Z</time>
      </trkpt>
      <trkpt lat="44.18421" lon="6.81736">
        <ele>1945.2</ele>
        <time>2022-07-10T11:19:17.000Z</time>
      </trkpt>
      <trkpt lat="44.18421" lon="6.81737">
        <ele>1944.8</ele>
        <time>2022-07-10T11:19:18.000Z</time>
      </trkpt>
      <trkpt lat="44.18421" lon="6.81737">
        <ele>1944.6</ele>
        <time>2022-07-10T11:19:20.000Z</time>
      </trkpt>
      <trkpt lat="44.18422" lon="6.81738">
        <ele>1945.2</ele>
        <time>2022-07-10T11:19:22.000Z</time>
      </trkpt>
      <trkpt lat="44.18423" lon="6.8174">
        <ele>1945.2</ele>
        <time>2022-07-10T11:19:24.000Z</time>
      </trkpt>
      <trkpt lat="44.18422" lon="6.81745">
        <ele>1945.6</ele>
        <time>2022-07-10T11:19:26.000Z</time>
      </trkpt>
      <trkpt lat="44.18422" lon="6.81751">
        <ele>1945.4</ele>
        <time>2022-07-10T11:19:28.000Z</time>
      </trkpt>
      <trkpt lat="44.18421" lon="6.8176">
        <ele>1945</ele>
        <time>2022-07-10T11:19:31.000Z</time>
      </trkpt>
      <trkpt lat="44.18418" lon="6.8181">
        <ele>1945.8</ele>
        <time>2022-07-10T11:19:47.000Z</time>
      </trkpt>
      <trkpt lat="44.18416" lon="6.81813">
        <ele>1945.8</ele>
        <time>2022-07-10T11:19:48.000Z</time>
      </trkpt>
      <trkpt lat="44.18402" lon="6.81859">
        <ele>1947</ele>
        <time>2022-07-10T11:20:09.000Z</time>
      </trkpt>
      <trkpt lat="44.184" lon="6.81873">
        <ele>1948</ele>
        <time>2022-07-10T11:20:16.000Z</time>
      </trkpt>
      <trkpt lat="44.18383" lon="6.81905">
        <ele>1947.6</ele>
        <time>2022-07-10T11:20:31.000Z</time>
      </trkpt>
      <trkpt lat="44.18377" lon="6.81921">
        <ele>1947.4</ele>
        <time>2022-07-10T11:20:37.000Z</time>
      </trkpt>
      <trkpt lat="44.18373" lon="6.81928">
        <ele>1947.2</ele>
        <time>2022-07-10T11:20:41.000Z</time>
      </trkpt>
      <trkpt lat="44.18368" lon="6.81926">
        <ele>1947</ele>
        <time>2022-07-10T11:20:56.000Z</time>
      </trkpt>
      <trkpt lat="44.18366" lon="6.81929">
        <ele>1947</ele>
        <time>2022-07-10T11:20:58.000Z</time>
      </trkpt>
      <trkpt lat="44.18359" lon="6.81961">
        <ele>1946.8</ele>
        <time>2022-07-10T11:21:12.000Z</time>
      </trkpt>
      <trkpt lat="44.18356" lon="6.81967">
        <ele>1946.8</ele>
        <time>2022-07-10T11:21:17.000Z</time>
      </trkpt>
      <trkpt lat="44.18346" lon="6.81976">
        <ele>1947</ele>
        <time>2022-07-10T11:21:23.000Z</time>
      </trkpt>
      <trkpt lat="44.18343" lon="6.81979">
        <ele>1948</ele>
        <time>2022-07-10T11:21:26.000Z</time>
      </trkpt>
      <trkpt lat="44.18341" lon="6.81983">
        <ele>1948.6</ele>
        <time>2022-07-10T11:21:28.000Z</time>
      </trkpt>
      <trkpt lat="44.18339" lon="6.81987">
        <ele>1949.2</ele>
        <time>2022-07-10T11:21:30.000Z</time>
      </trkpt>
      <trkpt lat="44.18336" lon="6.8199">
        <ele>1950.2</ele>
        <time>2022-07-10T11:21:33.000Z</time>
      </trkpt>
      <trkpt lat="44.18334" lon="6.81992">
        <ele>1950.4</ele>
        <time>2022-07-10T11:21:35.000Z</time>
      </trkpt>
      <trkpt lat="44.18329" lon="6.81997">
        <ele>1950.6</ele>
        <time>2022-07-10T11:21:38.000Z</time>
      </trkpt>
      <trkpt lat="44.18309" lon="6.82031">
        <ele>1949</ele>
        <time>2022-07-10T11:21:57.000Z</time>
      </trkpt>
      <trkpt lat="44.18303" lon="6.82046">
        <ele>1947.8</ele>
        <time>2022-07-10T11:22:00.000Z</time>
      </trkpt>
      <trkpt lat="44.18298" lon="6.82055">
        <ele>1947.2</ele>
        <time>2022-07-10T11:22:02.000Z</time>
      </trkpt>
      <trkpt lat="44.18295" lon="6.82061">
        <ele>1947</ele>
        <time>2022-07-10T11:22:04.000Z</time>
      </trkpt>
      <trkpt lat="44.18293" lon="6.8207">
        <ele>1947.4</ele>
        <time>2022-07-10T11:22:08.000Z</time>
      </trkpt>
      <trkpt lat="44.18293" lon="6.82097">
        <ele>1948.8</ele>
        <time>2022-07-10T11:22:27.000Z</time>
      </trkpt>
      <trkpt lat="44.18291" lon="6.82103">
        <ele>1950</ele>
        <time>2022-07-10T11:22:32.000Z</time>
      </trkpt>
      <trkpt lat="44.18287" lon="6.82109">
        <ele>1950.8</ele>
        <time>2022-07-10T11:22:38.000Z</time>
      </trkpt>
      <trkpt lat="44.18285" lon="6.82115">
        <ele>1951</ele>
        <time>2022-07-10T11:22:42.000Z</time>
      </trkpt>
      <trkpt lat="44.18281" lon="6.82128">
        <ele>1952.2</ele>
        <time>2022-07-10T11:22:50.000Z</time>
      </trkpt>
      <trkpt lat="44.1828" lon="6.82136">
        <ele>1952.8</ele>
        <time>2022-07-10T11:23:03.000Z</time>
      </trkpt>
      <trkpt lat="44.18277" lon="6.82143">
        <ele>1953.2</ele>
        <time>2022-07-10T11:23:06.000Z</time>
      </trkpt>
      <trkpt lat="44.18267" lon="6.8216">
        <ele>1954.4</ele>
        <time>2022-07-10T11:23:14.000Z</time>
      </trkpt>
      <trkpt lat="44.18246" lon="6.82182">
        <ele>1954.6</ele>
        <time>2022-07-10T11:23:25.000Z</time>
      </trkpt>
      <trkpt lat="44.18237" lon="6.82183">
        <ele>1955.4</ele>
        <time>2022-07-10T11:23:30.000Z</time>
      </trkpt>
      <trkpt lat="44.18208" lon="6.82197">
        <ele>1954.4</ele>
        <time>2022-07-10T11:23:39.000Z</time>
      </trkpt>
      <trkpt lat="44.18203" lon="6.82208">
        <ele>1955.4</ele>
        <time>2022-07-10T11:23:44.000Z</time>
      </trkpt>
      <trkpt lat="44.18201" lon="6.82213">
        <ele>1956.8</ele>
        <time>2022-07-10T11:23:48.000Z</time>
      </trkpt>
      <trkpt lat="44.18197" lon="6.82221">
        <ele>1957.4</ele>
        <time>2022-07-10T11:23:54.000Z</time>
      </trkpt>
      <trkpt lat="44.18196" lon="6.82222">
        <ele>1957.8</ele>
        <time>2022-07-10T11:23:57.000Z</time>
      </trkpt>
      <trkpt lat="44.18195" lon="6.82222">
        <ele>1958</ele>
        <time>2022-07-10T11:24:17.000Z</time>
      </trkpt>
      <trkpt lat="44.18195" lon="6.82222">
        <ele>1957.6</ele>
        <time>2022-07-10T11:24:28.000Z</time>
      </trkpt>
      <trkpt lat="44.18195" lon="6.82222">
        <ele>1957.6</ele>
        <time>2022-07-10T11:24:33.000Z</time>
      </trkpt>
      <trkpt lat="44.18195" lon="6.82222">
        <ele>1957.8</ele>
        <time>2022-07-10T11:24:36.000Z</time>
      </trkpt>
      <trkpt lat="44.18195" lon="6.82222">
        <ele>1957.8</ele>
        <time>2022-07-10T11:24:38.000Z</time>
      </trkpt>
      <trkpt lat="44.18196" lon="6.82222">
        <ele>1957.8</ele>
        <time>2022-07-10T11:24:41.000Z</time>
      </trkpt>
      <trkpt lat="44.18195" lon="6.82223">
        <ele>1957.8</ele>
        <time>2022-07-10T11:24:47.000Z</time>
      </trkpt>
      <trkpt lat="44.18193" lon="6.82222">
        <ele>1957.8</ele>
        <time>2022-07-10T11:24:51.000Z</time>
      </trkpt>
      <trkpt lat="44.18193" lon="6.82223">
        <ele>1957.6</ele>
        <time>2022-07-10T11:24:55.000Z</time>
      </trkpt>
      <trkpt lat="44.1819" lon="6.82228">
        <ele>1957.2</ele>
        <time>2022-07-10T11:25:00.000Z</time>
      </trkpt>
      <trkpt lat="44.18189" lon="6.82234">
        <ele>1957.6</ele>
        <time>2022-07-10T11:25:04.000Z</time>
      </trkpt>
      <trkpt lat="44.18189" lon="6.82234">
        <ele>1957.6</ele>
        <time>2022-07-10T11:25:05.000Z</time>
      </trkpt>
      <trkpt lat="44.18187" lon="6.8224">
        <ele>1958</ele>
        <time>2022-07-10T11:25:10.000Z</time>
      </trkpt>
      <trkpt lat="44.18186" lon="6.82241">
        <ele>1958.2</ele>
        <time>2022-07-10T11:25:11.000Z</time>
      </trkpt>
      <trkpt lat="44.18182" lon="6.8225">
        <ele>1958.8</ele>
        <time>2022-07-10T11:25:17.000Z</time>
      </trkpt>
      <trkpt lat="44.18182" lon="6.82251">
        <ele>1959.2</ele>
        <time>2022-07-10T11:25:20.000Z</time>
      </trkpt>
      <trkpt lat="44.18182" lon="6.82252">
        <ele>1959.4</ele>
        <time>2022-07-10T11:25:25.000Z</time>
      </trkpt>
      <trkpt lat="44.1818" lon="6.82253">
        <ele>1959.4</ele>
        <time>2022-07-10T11:25:32.000Z</time>
      </trkpt>
      <trkpt lat="44.18177" lon="6.8226">
        <ele>1959.4</ele>
        <time>2022-07-10T11:25:36.000Z</time>
      </trkpt>
      <trkpt lat="44.18175" lon="6.82269">
        <ele>1959.8</ele>
        <time>2022-07-10T11:25:40.000Z</time>
      </trkpt>
      <trkpt lat="44.18174" lon="6.82271">
        <ele>1960</ele>
        <time>2022-07-10T11:25:41.000Z</time>
      </trkpt>
      <trkpt lat="44.18172" lon="6.8228">
        <ele>1960.2</ele>
        <time>2022-07-10T11:25:45.000Z</time>
      </trkpt>
      <trkpt lat="44.1817" lon="6.82291">
        <ele>1961.2</ele>
        <time>2022-07-10T11:25:49.000Z</time>
      </trkpt>
      <trkpt lat="44.18168" lon="6.82296">
        <ele>1962</ele>
        <time>2022-07-10T11:25:52.000Z</time>
      </trkpt>
      <trkpt lat="44.18168" lon="6.82297">
        <ele>1962.2</ele>
        <time>2022-07-10T11:25:53.000Z</time>
      </trkpt>
      <trkpt lat="44.18166" lon="6.823">
        <ele>1962.8</ele>
        <time>2022-07-10T11:25:57.000Z</time>
      </trkpt>
      <trkpt lat="44.18164" lon="6.82304">
        <ele>1962.8</ele>
        <time>2022-07-10T11:26:02.000Z</time>
      </trkpt>
      <trkpt lat="44.18162" lon="6.82311">
        <ele>1963.2</ele>
        <time>2022-07-10T11:26:07.000Z</time>
      </trkpt>
      <trkpt lat="44.18161" lon="6.82314">
        <ele>1963.8</ele>
        <time>2022-07-10T11:26:10.000Z</time>
      </trkpt>
      <trkpt lat="44.1816" lon="6.82315">
        <ele>1964.2</ele>
        <time>2022-07-10T11:26:13.000Z</time>
      </trkpt>
      <trkpt lat="44.18162" lon="6.82319">
        <ele>1963.8</ele>
        <time>2022-07-10T11:26:27.000Z</time>
      </trkpt>
      <trkpt lat="44.18162" lon="6.8232">
        <ele>1963.8</ele>
        <time>2022-07-10T11:26:28.000Z</time>
      </trkpt>
      <trkpt lat="44.18162" lon="6.8232">
        <ele>1963.6</ele>
        <time>2022-07-10T11:26:41.000Z</time>
      </trkpt>
      <trkpt lat="44.18162" lon="6.8232">
        <ele>1963.6</ele>
        <time>2022-07-10T11:26:47.000Z</time>
      </trkpt>
      <trkpt lat="44.18162" lon="6.8232">
        <ele>1963.6</ele>
        <time>2022-07-10T11:26:50.000Z</time>
      </trkpt>
      <trkpt lat="44.18162" lon="6.8232">
        <ele>1963.6</ele>
        <time>2022-07-10T11:26:53.000Z</time>
      </trkpt>
      <trkpt lat="44.18162" lon="6.8232">
        <ele>1963.6</ele>
        <time>2022-07-10T11:26:55.000Z</time>
      </trkpt>
      <trkpt lat="44.18161" lon="6.8232">
        <ele>1963.8</ele>
        <time>2022-07-10T11:26:57.000Z</time>
      </trkpt>
      <trkpt lat="44.18161" lon="6.82321">
        <ele>1964</ele>
        <time>2022-07-10T11:27:06.000Z</time>
      </trkpt>
      <trkpt lat="44.18158" lon="6.82325">
        <ele>1963.8</ele>
        <time>2022-07-10T11:27:09.000Z</time>
      </trkpt>
      <trkpt lat="44.18156" lon="6.82328">
        <ele>1963.4</ele>
        <time>2022-07-10T11:27:12.000Z</time>
      </trkpt>
      <trkpt lat="44.18154" lon="6.82332">
        <ele>1963.4</ele>
        <time>2022-07-10T11:27:14.000Z</time>
      </trkpt>
      <trkpt lat="44.18144" lon="6.82338">
        <ele>1963.4</ele>
        <time>2022-07-10T11:27:21.000Z</time>
      </trkpt>
      <trkpt lat="44.18142" lon="6.82339">
        <ele>1963.2</ele>
        <time>2022-07-10T11:27:22.000Z</time>
      </trkpt>
      <trkpt lat="44.18135" lon="6.82346">
        <ele>1962.2</ele>
        <time>2022-07-10T11:27:25.000Z</time>
      </trkpt>
      <trkpt lat="44.18118" lon="6.82375">
        <ele>1962</ele>
        <time>2022-07-10T11:27:39.000Z</time>
      </trkpt>
      <trkpt lat="44.18111" lon="6.82383">
        <ele>1962.2</ele>
        <time>2022-07-10T11:27:44.000Z</time>
      </trkpt>
      <trkpt lat="44.18107" lon="6.82388">
        <ele>1962.4</ele>
        <time>2022-07-10T11:27:47.000Z</time>
      </trkpt>
      <trkpt lat="44.18099" lon="6.82393">
        <ele>1963.2</ele>
        <time>2022-07-10T11:27:51.000Z</time>
      </trkpt>
      <trkpt lat="44.18097" lon="6.82394">
        <ele>1963.4</ele>
        <time>2022-07-10T11:27:52.000Z</time>
      </trkpt>
      <trkpt lat="44.18093" lon="6.82397">
        <ele>1964.2</ele>
        <time>2022-07-10T11:27:54.000Z</time>
      </trkpt>
      <trkpt lat="44.1809" lon="6.82399">
        <ele>1964.6</ele>
        <time>2022-07-10T11:27:56.000Z</time>
      </trkpt>
      <trkpt lat="44.18087" lon="6.824">
        <ele>1965</ele>
        <time>2022-07-10T11:27:58.000Z</time>
      </trkpt>
      <trkpt lat="44.18085" lon="6.82401">
        <ele>1965.4</ele>
        <time>2022-07-10T11:28:01.000Z</time>
      </trkpt>
      <trkpt lat="44.1808" lon="6.82401">
        <ele>1965</ele>
        <time>2022-07-10T11:28:37.000Z</time>
      </trkpt>
      <trkpt lat="44.18078" lon="6.82403">
        <ele>1965</ele>
        <time>2022-07-10T11:28:38.000Z</time>
      </trkpt>
      <trkpt lat="44.18074" lon="6.82405">
        <ele>1965</ele>
        <time>2022-07-10T11:28:41.000Z</time>
      </trkpt>
      <trkpt lat="44.18071" lon="6.82408">
        <ele>1964.8</ele>
        <time>2022-07-10T11:28:43.000Z</time>
      </trkpt>
      <trkpt lat="44.18068" lon="6.82412">
        <ele>1964.4</ele>
        <time>2022-07-10T11:28:45.000Z</time>
      </trkpt>
      <trkpt lat="44.18064" lon="6.82416">
        <ele>1964.2</ele>
        <time>2022-07-10T11:28:47.000Z</time>
      </trkpt>
      <trkpt lat="44.1806" lon="6.8242">
        <ele>1963.4</ele>
        <time>2022-07-10T11:28:49.000Z</time>
      </trkpt>
      <trkpt lat="44.18056" lon="6.82425">
        <ele>1962.4</ele>
        <time>2022-07-10T11:28:51.000Z</time>
      </trkpt>
      <trkpt lat="44.18011" lon="6.82474">
        <ele>1961.4</ele>
        <time>2022-07-10T11:29:15.000Z</time>
      </trkpt>
      <trkpt lat="44.18004" lon="6.82483">
        <ele>1960</ele>
        <time>2022-07-10T11:29:17.000Z</time>
      </trkpt>
      <trkpt lat="44.17996" lon="6.82493">
        <ele>1958.8</ele>
        <time>2022-07-10T11:29:19.000Z</time>
      </trkpt>
      <trkpt lat="44.17991" lon="6.82499">
        <ele>1957.8</ele>
        <time>2022-07-10T11:29:20.000Z</time>
      </trkpt>
      <trkpt lat="44.17985" lon="6.82505">
        <ele>1956.8</ele>
        <time>2022-07-10T11:29:21.000Z</time>
      </trkpt>
      <trkpt lat="44.1798" lon="6.82511">
        <ele>1955.6</ele>
        <time>2022-07-10T11:29:22.000Z</time>
      </trkpt>
      <trkpt lat="44.17975" lon="6.82517">
        <ele>1954.2</ele>
        <time>2022-07-10T11:29:23.000Z</time>
      </trkpt>
      <trkpt lat="44.1797" lon="6.82524">
        <ele>1953</ele>
        <time>2022-07-10T11:29:24.000Z</time>
      </trkpt>
      <trkpt lat="44.17964" lon="6.82531">
        <ele>1951.8</ele>
        <time>2022-07-10T11:29:25.000Z</time>
      </trkpt>
      <trkpt lat="44.17958" lon="6.82537">
        <ele>1950.4</ele>
        <time>2022-07-10T11:29:26.000Z</time>
      </trkpt>
      <trkpt lat="44.17952" lon="6.82543">
        <ele>1949.4</ele>
        <time>2022-07-10T11:29:27.000Z</time>
      </trkpt>
      <trkpt lat="44.17941" lon="6.82554">
        <ele>1947.6</ele>
        <time>2022-07-10T11:29:29.000Z</time>
      </trkpt>
      <trkpt lat="44.17929" lon="6.82565">
        <ele>1946.6</ele>
        <time>2022-07-10T11:29:31.000Z</time>
      </trkpt>
      <trkpt lat="44.1791" lon="6.82581">
        <ele>1945.2</ele>
        <time>2022-07-10T11:29:34.000Z</time>
      </trkpt>
      <trkpt lat="44.17906" lon="6.82587">
        <ele>1944.6</ele>
        <time>2022-07-10T11:29:35.000Z</time>
      </trkpt>
      <trkpt lat="44.17903" lon="6.82594">
        <ele>1944</ele>
        <time>2022-07-10T11:29:36.000Z</time>
      </trkpt>
      <trkpt lat="44.17901" lon="6.82601">
        <ele>1943.8</ele>
        <time>2022-07-10T11:29:37.000Z</time>
      </trkpt>
      <trkpt lat="44.179" lon="6.82606">
        <ele>1943.6</ele>
        <time>2022-07-10T11:29:38.000Z</time>
      </trkpt>
      <trkpt lat="44.17896" lon="6.82613">
        <ele>1944.4</ele>
        <time>2022-07-10T11:29:41.000Z</time>
      </trkpt>
      <trkpt lat="44.17895" lon="6.82616">
        <ele>1945</ele>
        <time>2022-07-10T11:29:43.000Z</time>
      </trkpt>
      <trkpt lat="44.17892" lon="6.82618">
        <ele>1945.2</ele>
        <time>2022-07-10T11:29:45.000Z</time>
      </trkpt>
      <trkpt lat="44.17889" lon="6.8262">
        <ele>1945.4</ele>
        <time>2022-07-10T11:29:47.000Z</time>
      </trkpt>
      <trkpt lat="44.17885" lon="6.82623">
        <ele>1946</ele>
        <time>2022-07-10T11:29:50.000Z</time>
      </trkpt>
      <trkpt lat="44.17882" lon="6.82624">
        <ele>1946.2</ele>
        <time>2022-07-10T11:29:52.000Z</time>
      </trkpt>
      <trkpt lat="44.17874" lon="6.82628">
        <ele>1947.4</ele>
        <time>2022-07-10T11:29:57.000Z</time>
      </trkpt>
      <trkpt lat="44.1787" lon="6.82631">
        <ele>1947.8</ele>
        <time>2022-07-10T11:30:01.000Z</time>
      </trkpt>
      <trkpt lat="44.17869" lon="6.8263">
        <ele>1947.4</ele>
        <time>2022-07-10T11:30:13.000Z</time>
      </trkpt>
      <trkpt lat="44.17869" lon="6.8263">
        <ele>1947.2</ele>
        <time>2022-07-10T11:30:19.000Z</time>
      </trkpt>
      <trkpt lat="44.1787" lon="6.8263">
        <ele>1946.8</ele>
        <time>2022-07-10T11:30:29.000Z</time>
      </trkpt>
      <trkpt lat="44.1787" lon="6.8263">
        <ele>1946.6</ele>
        <time>2022-07-10T11:30:32.000Z</time>
      </trkpt>
      <trkpt lat="44.17869" lon="6.8263">
        <ele>1946.4</ele>
        <time>2022-07-10T11:30:36.000Z</time>
      </trkpt>
      <trkpt lat="44.17868" lon="6.82631">
        <ele>1946.2</ele>
        <time>2022-07-10T11:30:38.000Z</time>
      </trkpt>
      <trkpt lat="44.17864" lon="6.82631">
        <ele>1945.6</ele>
        <time>2022-07-10T11:30:40.000Z</time>
      </trkpt>
      <trkpt lat="44.1786" lon="6.82633">
        <ele>1945.2</ele>
        <time>2022-07-10T11:30:42.000Z</time>
      </trkpt>
      <trkpt lat="44.17853" lon="6.8264">
        <ele>1944.4</ele>
        <time>2022-07-10T11:30:45.000Z</time>
      </trkpt>
      <trkpt lat="44.1785" lon="6.82644">
        <ele>1943.6</ele>
        <time>2022-07-10T11:30:46.000Z</time>
      </trkpt>
      <trkpt lat="44.17842" lon="6.82655">
        <ele>1942.4</ele>
        <time>2022-07-10T11:30:48.000Z</time>
      </trkpt>
      <trkpt lat="44.17836" lon="6.82667">
        <ele>1941</ele>
        <time>2022-07-10T11:30:50.000Z</time>
      </trkpt>
      <trkpt lat="44.17833" lon="6.82672">
        <ele>1940.6</ele>
        <time>2022-07-10T11:30:51.000Z</time>
      </trkpt>
      <trkpt lat="44.17827" lon="6.82679">
        <ele>1940.4</ele>
        <time>2022-07-10T11:30:53.000Z</time>
      </trkpt>
      <trkpt lat="44.1782" lon="6.82688">
        <ele>1940.2</ele>
        <time>2022-07-10T11:30:56.000Z</time>
      </trkpt>
      <trkpt lat="44.17808" lon="6.82719">
        <ele>1941</ele>
        <time>2022-07-10T11:31:05.000Z</time>
      </trkpt>
      <trkpt lat="44.178" lon="6.82728">
        <ele>1939.8</ele>
        <time>2022-07-10T11:31:09.000Z</time>
      </trkpt>
      <trkpt lat="44.17795" lon="6.82734">
        <ele>1938.8</ele>
        <time>2022-07-10T11:31:12.000Z</time>
      </trkpt>
      <trkpt lat="44.17794" lon="6.82735">
        <ele>1938.4</ele>
        <time>2022-07-10T11:31:14.000Z</time>
      </trkpt>
      <trkpt lat="44.17795" lon="6.82736">
        <ele>1938.4</ele>
        <time>2022-07-10T11:31:29.000Z</time>
      </trkpt>
      <trkpt lat="44.17791" lon="6.82737">
        <ele>1938.6</ele>
        <time>2022-07-10T11:31:35.000Z</time>
      </trkpt>
      <trkpt lat="44.1779" lon="6.82737">
        <ele>1938.4</ele>
        <time>2022-07-10T11:31:36.000Z</time>
      </trkpt>
      <trkpt lat="44.17772" lon="6.8273">
        <ele>1938.2</ele>
        <time>2022-07-10T11:31:49.000Z</time>
      </trkpt>
      <trkpt lat="44.17765" lon="6.82729">
        <ele>1939.4</ele>
        <time>2022-07-10T11:31:55.000Z</time>
      </trkpt>
      <trkpt lat="44.17763" lon="6.82728">
        <ele>1939.6</ele>
        <time>2022-07-10T11:31:57.000Z</time>
      </trkpt>
      <trkpt lat="44.17762" lon="6.82728">
        <ele>1939.8</ele>
        <time>2022-07-10T11:31:58.000Z</time>
      </trkpt>
      <trkpt lat="44.17759" lon="6.82727">
        <ele>1940</ele>
        <time>2022-07-10T11:32:01.000Z</time>
      </trkpt>
      <trkpt lat="44.17756" lon="6.82726">
        <ele>1940.4</ele>
        <time>2022-07-10T11:32:05.000Z</time>
      </trkpt>
      <trkpt lat="44.17749" lon="6.82723">
        <ele>1940.8</ele>
        <time>2022-07-10T11:32:12.000Z</time>
      </trkpt>
      <trkpt lat="44.17748" lon="6.82723">
        <ele>1940.8</ele>
        <time>2022-07-10T11:32:13.000Z</time>
      </trkpt>
      <trkpt lat="44.17743" lon="6.82719">
        <ele>1941.8</ele>
        <time>2022-07-10T11:32:19.000Z</time>
      </trkpt>
      <trkpt lat="44.17738" lon="6.82717">
        <ele>1942.4</ele>
        <time>2022-07-10T11:32:24.000Z</time>
      </trkpt>
      <trkpt lat="44.17734" lon="6.82713">
        <ele>1943.2</ele>
        <time>2022-07-10T11:32:29.000Z</time>
      </trkpt>
      <trkpt lat="44.1773" lon="6.82711">
        <ele>1944</ele>
        <time>2022-07-10T11:32:33.000Z</time>
      </trkpt>
      <trkpt lat="44.1773" lon="6.82711">
        <ele>1944.2</ele>
        <time>2022-07-10T11:32:34.000Z</time>
      </trkpt>
      <trkpt lat="44.1773" lon="6.8271">
        <ele>1945.2</ele>
        <time>2022-07-10T11:32:39.000Z</time>
      </trkpt>
      <trkpt lat="44.1773" lon="6.82711">
        <ele>1945.2</ele>
        <time>2022-07-10T11:32:43.000Z</time>
      </trkpt>
      <trkpt lat="44.17731" lon="6.82713">
        <ele>1944.8</ele>
        <time>2022-07-10T11:32:55.000Z</time>
      </trkpt>
      <trkpt lat="44.17724" lon="6.82707">
        <ele>1945</ele>
        <time>2022-07-10T11:33:04.000Z</time>
      </trkpt>
      <trkpt lat="44.17722" lon="6.82702">
        <ele>1945.6</ele>
        <time>2022-07-10T11:33:09.000Z</time>
      </trkpt>
      <trkpt lat="44.17722" lon="6.82702">
        <ele>1945.8</ele>
        <time>2022-07-10T11:33:11.000Z</time>
      </trkpt>
      <trkpt lat="44.17722" lon="6.82701">
        <ele>1946</ele>
        <time>2022-07-10T11:33:16.000Z</time>
      </trkpt>
      <trkpt lat="44.17722" lon="6.82701">
        <ele>1946.2</ele>
        <time>2022-07-10T11:33:23.000Z</time>
      </trkpt>
      <trkpt lat="44.17722" lon="6.82702">
        <ele>1946</ele>
        <time>2022-07-10T11:33:32.000Z</time>
      </trkpt>
      <trkpt lat="44.17722" lon="6.82702">
        <ele>1946</ele>
        <time>2022-07-10T11:33:35.000Z</time>
      </trkpt>
      <trkpt lat="44.17722" lon="6.82702">
        <ele>1945.8</ele>
        <time>2022-07-10T11:33:43.000Z</time>
      </trkpt>
      <trkpt lat="44.1772" lon="6.827">
        <ele>1945.8</ele>
        <time>2022-07-10T11:33:47.000Z</time>
      </trkpt>
      <trkpt lat="44.17716" lon="6.82697">
        <ele>1946</ele>
        <time>2022-07-10T11:33:51.000Z</time>
      </trkpt>
      <trkpt lat="44.17702" lon="6.82693">
        <ele>1945.2</ele>
        <time>2022-07-10T11:34:02.000Z</time>
      </trkpt>
      <trkpt lat="44.17692" lon="6.82692">
        <ele>1944.8</ele>
        <time>2022-07-10T11:34:09.000Z</time>
      </trkpt>
      <trkpt lat="44.17684" lon="6.82692">
        <ele>1944.6</ele>
        <time>2022-07-10T11:34:15.000Z</time>
      </trkpt>
      <trkpt lat="44.17679" lon="6.82692">
        <ele>1945.6</ele>
        <time>2022-07-10T11:34:19.000Z</time>
      </trkpt>
      <trkpt lat="44.17672" lon="6.82693">
        <ele>1945.8</ele>
        <time>2022-07-10T11:34:25.000Z</time>
      </trkpt>
      <trkpt lat="44.1767" lon="6.82693">
        <ele>1946.2</ele>
        <time>2022-07-10T11:34:27.000Z</time>
      </trkpt>
      <trkpt lat="44.17666" lon="6.82693">
        <ele>1946.4</ele>
        <time>2022-07-10T11:34:30.000Z</time>
      </trkpt>
      <trkpt lat="44.17662" lon="6.82692">
        <ele>1946.4</ele>
        <time>2022-07-10T11:34:34.000Z</time>
      </trkpt>
      <trkpt lat="44.17657" lon="6.82692">
        <ele>1947.2</ele>
        <time>2022-07-10T11:34:38.000Z</time>
      </trkpt>
      <trkpt lat="44.17653" lon="6.82693">
        <ele>1948.4</ele>
        <time>2022-07-10T11:34:42.000Z</time>
      </trkpt>
      <trkpt lat="44.17648" lon="6.82695">
        <ele>1949.2</ele>
        <time>2022-07-10T11:34:47.000Z</time>
      </trkpt>
      <trkpt lat="44.17646" lon="6.82696">
        <ele>1949.6</ele>
        <time>2022-07-10T11:34:49.000Z</time>
      </trkpt>
      <trkpt lat="44.17639" lon="6.82699">
        <ele>1950.4</ele>
        <time>2022-07-10T11:34:55.000Z</time>
      </trkpt>
      <trkpt lat="44.17635" lon="6.827">
        <ele>1950.6</ele>
        <time>2022-07-10T11:34:59.000Z</time>
      </trkpt>
      <trkpt lat="44.1763" lon="6.82702">
        <ele>1951.8</ele>
        <time>2022-07-10T11:35:04.000Z</time>
      </trkpt>
      <trkpt lat="44.17627" lon="6.82703">
        <ele>1952.4</ele>
        <time>2022-07-10T11:35:08.000Z</time>
      </trkpt>
      <trkpt lat="44.17625" lon="6.82702">
        <ele>1953</ele>
        <time>2022-07-10T11:35:12.000Z</time>
      </trkpt>
      <trkpt lat="44.17625" lon="6.82703">
        <ele>1953.8</ele>
        <time>2022-07-10T11:35:19.000Z</time>
      </trkpt>
      <trkpt lat="44.17625" lon="6.82703">
        <ele>1954</ele>
        <time>2022-07-10T11:35:22.000Z</time>
      </trkpt>
      <trkpt lat="44.17625" lon="6.82703">
        <ele>1954.2</ele>
        <time>2022-07-10T11:35:25.000Z</time>
      </trkpt>
      <trkpt lat="44.17625" lon="6.82702">
        <ele>1953.8</ele>
        <time>2022-07-10T11:35:45.000Z</time>
      </trkpt>
      <trkpt lat="44.17626" lon="6.82702">
        <ele>1952.4</ele>
        <time>2022-07-10T11:35:47.000Z</time>
      </trkpt>
      <trkpt lat="44.17627" lon="6.82702">
        <ele>1952.4</ele>
        <time>2022-07-10T11:35:49.000Z</time>
      </trkpt>
      <trkpt lat="44.17629" lon="6.82701">
        <ele>1952.4</ele>
        <time>2022-07-10T11:35:51.000Z</time>
      </trkpt>
      <trkpt lat="44.17629" lon="6.82704">
        <ele>1952.4</ele>
        <time>2022-07-10T11:35:55.000Z</time>
      </trkpt>
      <trkpt lat="44.17624" lon="6.82706">
        <ele>1951.4</ele>
        <time>2022-07-10T11:36:02.000Z</time>
      </trkpt>
      <trkpt lat="44.17624" lon="6.82706">
        <ele>1952</ele>
        <time>2022-07-10T11:36:05.000Z</time>
      </trkpt>
      <trkpt lat="44.17621" lon="6.82705">
        <ele>1953</ele>
        <time>2022-07-10T11:36:24.000Z</time>
      </trkpt>
      <trkpt lat="44.17616" lon="6.82707">
        <ele>1953.4</ele>
        <time>2022-07-10T11:36:30.000Z</time>
      </trkpt>
      <trkpt lat="44.17615" lon="6.82707">
        <ele>1953.6</ele>
        <time>2022-07-10T11:36:31.000Z</time>
      </trkpt>
      <trkpt lat="44.1761" lon="6.82698">
        <ele>1953.8</ele>
        <time>2022-07-10T11:36:38.000Z</time>
      </trkpt>
      <trkpt lat="44.17609" lon="6.82693">
        <ele>1954.4</ele>
        <time>2022-07-10T11:36:41.000Z</time>
      </trkpt>
      <trkpt lat="44.17607" lon="6.82689">
        <ele>1955.2</ele>
        <time>2022-07-10T11:36:45.000Z</time>
      </trkpt>
      <trkpt lat="44.17605" lon="6.82688">
        <ele>1955.4</ele>
        <time>2022-07-10T11:36:47.000Z</time>
      </trkpt>
      <trkpt lat="44.17603" lon="6.82687">
        <ele>1955.6</ele>
        <time>2022-07-10T11:36:48.000Z</time>
      </trkpt>
      <trkpt lat="44.17596" lon="6.8269">
        <ele>1956</ele>
        <time>2022-07-10T11:36:55.000Z</time>
      </trkpt>
      <trkpt lat="44.17591" lon="6.82689">
        <ele>1956.8</ele>
        <time>2022-07-10T11:37:01.000Z</time>
      </trkpt>
      <trkpt lat="44.17584" lon="6.82683">
        <ele>1957.6</ele>
        <time>2022-07-10T11:37:11.000Z</time>
      </trkpt>
      <trkpt lat="44.17583" lon="6.82683">
        <ele>1957.8</ele>
        <time>2022-07-10T11:37:12.000Z</time>
      </trkpt>
      <trkpt lat="44.1758" lon="6.8268">
        <ele>1959</ele>
        <time>2022-07-10T11:37:17.000Z</time>
      </trkpt>
      <trkpt lat="44.17575" lon="6.82676">
        <ele>1960.2</ele>
        <time>2022-07-10T11:37:23.000Z</time>
      </trkpt>
      <trkpt lat="44.17569" lon="6.82673">
        <ele>1960.6</ele>
        <time>2022-07-10T11:37:29.000Z</time>
      </trkpt>
      <trkpt lat="44.17562" lon="6.82671">
        <ele>1961.4</ele>
        <time>2022-07-10T11:37:37.000Z</time>
      </trkpt>
      <trkpt lat="44.17561" lon="6.82671">
        <ele>1962.6</ele>
        <time>2022-07-10T11:37:41.000Z</time>
      </trkpt>
      <trkpt lat="44.17557" lon="6.8267">
        <ele>1962.6</ele>
        <time>2022-07-10T11:37:49.000Z</time>
      </trkpt>
      <trkpt lat="44.17554" lon="6.82668">
        <ele>1962.4</ele>
        <time>2022-07-10T11:37:51.000Z</time>
      </trkpt>
      <trkpt lat="44.17532" lon="6.82654">
        <ele>1961.6</ele>
        <time>2022-07-10T11:38:04.000Z</time>
      </trkpt>
      <trkpt lat="44.17524" lon="6.8265">
        <ele>1961.2</ele>
        <time>2022-07-10T11:38:07.000Z</time>
      </trkpt>
      <trkpt lat="44.17514" lon="6.82644">
        <ele>1960.6</ele>
        <time>2022-07-10T11:38:10.000Z</time>
      </trkpt>
      <trkpt lat="44.17511" lon="6.82641">
        <ele>1960.4</ele>
        <time>2022-07-10T11:38:11.000Z</time>
      </trkpt>
      <trkpt lat="44.17503" lon="6.82635">
        <ele>1960.4</ele>
        <time>2022-07-10T11:38:14.000Z</time>
      </trkpt>
      <trkpt lat="44.17484" lon="6.82617">
        <ele>1961.2</ele>
        <time>2022-07-10T11:38:25.000Z</time>
      </trkpt>
      <trkpt lat="44.17479" lon="6.82611">
        <ele>1961</ele>
        <time>2022-07-10T11:38:28.000Z</time>
      </trkpt>
      <trkpt lat="44.17468" lon="6.82597">
        <ele>1961.4</ele>
        <time>2022-07-10T11:38:34.000Z</time>
      </trkpt>
      <trkpt lat="44.17462" lon="6.82591">
        <ele>1962</ele>
        <time>2022-07-10T11:38:38.000Z</time>
      </trkpt>
      <trkpt lat="44.17456" lon="6.82583">
        <ele>1962.4</ele>
        <time>2022-07-10T11:38:42.000Z</time>
      </trkpt>
      <trkpt lat="44.17453" lon="6.8258">
        <ele>1962.4</ele>
        <time>2022-07-10T11:38:43.000Z</time>
      </trkpt>
      <trkpt lat="44.17439" lon="6.82561">
        <ele>1961</ele>
        <time>2022-07-10T11:38:48.000Z</time>
      </trkpt>
      <trkpt lat="44.17422" lon="6.82546">
        <ele>1960</ele>
        <time>2022-07-10T11:38:53.000Z</time>
      </trkpt>
      <trkpt lat="44.17398" lon="6.82527">
        <ele>1961.4</ele>
        <time>2022-07-10T11:39:09.000Z</time>
      </trkpt>
      <trkpt lat="44.17389" lon="6.82522">
        <ele>1962</ele>
        <time>2022-07-10T11:39:16.000Z</time>
      </trkpt>
      <trkpt lat="44.17379" lon="6.82512">
        <ele>1962.8</ele>
        <time>2022-07-10T11:39:25.000Z</time>
      </trkpt>
      <trkpt lat="44.17377" lon="6.8251">
        <ele>1963.2</ele>
        <time>2022-07-10T11:39:27.000Z</time>
      </trkpt>
      <trkpt lat="44.17367" lon="6.82502">
        <ele>1964.2</ele>
        <time>2022-07-10T11:39:38.000Z</time>
      </trkpt>
      <trkpt lat="44.17361" lon="6.82497">
        <ele>1964.6</ele>
        <time>2022-07-10T11:39:43.000Z</time>
      </trkpt>
      <trkpt lat="44.17356" lon="6.82492">
        <ele>1965.2</ele>
        <time>2022-07-10T11:39:48.000Z</time>
      </trkpt>
      <trkpt lat="44.17339" lon="6.82478">
        <ele>1966.4</ele>
        <time>2022-07-10T11:40:02.000Z</time>
      </trkpt>
      <trkpt lat="44.17332" lon="6.82469">
        <ele>1967.4</ele>
        <time>2022-07-10T11:40:09.000Z</time>
      </trkpt>
      <trkpt lat="44.17325" lon="6.82463">
        <ele>1968.4</ele>
        <time>2022-07-10T11:40:16.000Z</time>
      </trkpt>
      <trkpt lat="44.1732" lon="6.8246">
        <ele>1969.4</ele>
        <time>2022-07-10T11:40:20.000Z</time>
      </trkpt>
      <trkpt lat="44.17316" lon="6.82456">
        <ele>1970.2</ele>
        <time>2022-07-10T11:40:24.000Z</time>
      </trkpt>
      <trkpt lat="44.17315" lon="6.82454">
        <ele>1970.6</ele>
        <time>2022-07-10T11:40:26.000Z</time>
      </trkpt>
      <trkpt lat="44.17311" lon="6.82451">
        <ele>1971.6</ele>
        <time>2022-07-10T11:40:31.000Z</time>
      </trkpt>
      <trkpt lat="44.17311" lon="6.82451">
        <ele>1971.8</ele>
        <time>2022-07-10T11:40:32.000Z</time>
      </trkpt>
      <trkpt lat="44.17311" lon="6.8245">
        <ele>1972.4</ele>
        <time>2022-07-10T11:40:38.000Z</time>
      </trkpt>
      <trkpt lat="44.1731" lon="6.8245">
        <ele>1972.8</ele>
        <time>2022-07-10T11:40:50.000Z</time>
      </trkpt>
      <trkpt lat="44.17309" lon="6.8245">
        <ele>1972.6</ele>
        <time>2022-07-10T11:40:56.000Z</time>
      </trkpt>
      <trkpt lat="44.17307" lon="6.8245">
        <ele>1972.4</ele>
        <time>2022-07-10T11:41:02.000Z</time>
      </trkpt>
      <trkpt lat="44.17303" lon="6.82446">
        <ele>1972.8</ele>
        <time>2022-07-10T11:41:07.000Z</time>
      </trkpt>
      <trkpt lat="44.173" lon="6.82442">
        <ele>1973.6</ele>
        <time>2022-07-10T11:41:12.000Z</time>
      </trkpt>
      <trkpt lat="44.17299" lon="6.82441">
        <ele>1974</ele>
        <time>2022-07-10T11:41:14.000Z</time>
      </trkpt>
      <trkpt lat="44.17296" lon="6.82437">
        <ele>1975</ele>
        <time>2022-07-10T11:41:19.000Z</time>
      </trkpt>
      <trkpt lat="44.17291" lon="6.82433">
        <ele>1976.2</ele>
        <time>2022-07-10T11:41:25.000Z</time>
      </trkpt>
      <trkpt lat="44.17288" lon="6.8243">
        <ele>1977.4</ele>
        <time>2022-07-10T11:41:31.000Z</time>
      </trkpt>
      <trkpt lat="44.17282" lon="6.82425">
        <ele>1978.4</ele>
        <time>2022-07-10T11:41:39.000Z</time>
      </trkpt>
      <trkpt lat="44.1728" lon="6.82424">
        <ele>1979.4</ele>
        <time>2022-07-10T11:41:43.000Z</time>
      </trkpt>
      <trkpt lat="44.17277" lon="6.82421">
        <ele>1980.6</ele>
        <time>2022-07-10T11:41:49.000Z</time>
      </trkpt>
      <trkpt lat="44.17273" lon="6.82417">
        <ele>1981.8</ele>
        <time>2022-07-10T11:41:55.000Z</time>
      </trkpt>
      <trkpt lat="44.17269" lon="6.82412">
        <ele>1982.6</ele>
        <time>2022-07-10T11:42:01.000Z</time>
      </trkpt>
      <trkpt lat="44.17268" lon="6.8241">
        <ele>1982.8</ele>
        <time>2022-07-10T11:42:03.000Z</time>
      </trkpt>
      <trkpt lat="44.17266" lon="6.82408">
        <ele>1983</ele>
        <time>2022-07-10T11:42:05.000Z</time>
      </trkpt>
      <trkpt lat="44.17262" lon="6.82407">
        <ele>1984</ele>
        <time>2022-07-10T11:42:12.000Z</time>
      </trkpt>
      <trkpt lat="44.17254" lon="6.82398">
        <ele>1985</ele>
        <time>2022-07-10T11:42:21.000Z</time>
      </trkpt>
      <trkpt lat="44.17251" lon="6.82394">
        <ele>1986</ele>
        <time>2022-07-10T11:42:28.000Z</time>
      </trkpt>
      <trkpt lat="44.17248" lon="6.82385">
        <ele>1987</ele>
        <time>2022-07-10T11:42:38.000Z</time>
      </trkpt>
      <trkpt lat="44.17245" lon="6.82378">
        <ele>1988.2</ele>
        <time>2022-07-10T11:42:44.000Z</time>
      </trkpt>
      <trkpt lat="44.17244" lon="6.82372">
        <ele>1989</ele>
        <time>2022-07-10T11:42:50.000Z</time>
      </trkpt>
      <trkpt lat="44.17244" lon="6.8237">
        <ele>1989.4</ele>
        <time>2022-07-10T11:42:52.000Z</time>
      </trkpt>
      <trkpt lat="44.17242" lon="6.82363">
        <ele>1990.4</ele>
        <time>2022-07-10T11:42:59.000Z</time>
      </trkpt>
      <trkpt lat="44.17241" lon="6.82365">
        <ele>1991.4</ele>
        <time>2022-07-10T11:43:11.000Z</time>
      </trkpt>
      <trkpt lat="44.17241" lon="6.82366">
        <ele>1991.6</ele>
        <time>2022-07-10T11:43:24.000Z</time>
      </trkpt>
      <trkpt lat="44.17241" lon="6.82366">
        <ele>1991.6</ele>
        <time>2022-07-10T11:43:28.000Z</time>
      </trkpt>
      <trkpt lat="44.17241" lon="6.82366">
        <ele>1991.6</ele>
        <time>2022-07-10T11:43:30.000Z</time>
      </trkpt>
      <trkpt lat="44.17242" lon="6.82365">
        <ele>1991.6</ele>
        <time>2022-07-10T11:43:32.000Z</time>
      </trkpt>
      <trkpt lat="44.17242" lon="6.82364">
        <ele>1991.6</ele>
        <time>2022-07-10T11:43:34.000Z</time>
      </trkpt>
      <trkpt lat="44.1724" lon="6.82365">
        <ele>1992.2</ele>
        <time>2022-07-10T11:43:43.000Z</time>
      </trkpt>
      <trkpt lat="44.17238" lon="6.82366">
        <ele>1992.8</ele>
        <time>2022-07-10T11:43:45.000Z</time>
      </trkpt>
      <trkpt lat="44.17237" lon="6.82367">
        <ele>1993.2</ele>
        <time>2022-07-10T11:43:46.000Z</time>
      </trkpt>
      <trkpt lat="44.17233" lon="6.82369">
        <ele>1994</ele>
        <time>2022-07-10T11:43:51.000Z</time>
      </trkpt>
      <trkpt lat="44.17229" lon="6.82371">
        <ele>1995</ele>
        <time>2022-07-10T11:43:56.000Z</time>
      </trkpt>
      <trkpt lat="44.17223" lon="6.82374">
        <ele>1996</ele>
        <time>2022-07-10T11:44:03.000Z</time>
      </trkpt>
      <trkpt lat="44.17222" lon="6.82375">
        <ele>1996.2</ele>
        <time>2022-07-10T11:44:04.000Z</time>
      </trkpt>
      <trkpt lat="44.17216" lon="6.82377">
        <ele>1997.2</ele>
        <time>2022-07-10T11:44:10.000Z</time>
      </trkpt>
      <trkpt lat="44.17211" lon="6.82377">
        <ele>1998.2</ele>
        <time>2022-07-10T11:44:15.000Z</time>
      </trkpt>
      <trkpt lat="44.1721" lon="6.82377">
        <ele>1998.2</ele>
        <time>2022-07-10T11:44:16.000Z</time>
      </trkpt>
      <trkpt lat="44.17208" lon="6.82376">
        <ele>1999.2</ele>
        <time>2022-07-10T11:44:19.000Z</time>
      </trkpt>
      <trkpt lat="44.17208" lon="6.82375">
        <ele>1999.4</ele>
        <time>2022-07-10T11:44:20.000Z</time>
      </trkpt>
      <trkpt lat="44.17206" lon="6.82376">
        <ele>1999.6</ele>
        <time>2022-07-10T11:44:22.000Z</time>
      </trkpt>
      <trkpt lat="44.17201" lon="6.82377">
        <ele>2000.2</ele>
        <time>2022-07-10T11:44:27.000Z</time>
      </trkpt>
      <trkpt lat="44.17199" lon="6.82377">
        <ele>2000.4</ele>
        <time>2022-07-10T11:44:29.000Z</time>
      </trkpt>
      <trkpt lat="44.17192" lon="6.82374">
        <ele>2001.4</ele>
        <time>2022-07-10T11:44:38.000Z</time>
      </trkpt>
      <trkpt lat="44.17187" lon="6.82372">
        <ele>2002.6</ele>
        <time>2022-07-10T11:44:45.000Z</time>
      </trkpt>
      <trkpt lat="44.17187" lon="6.82372">
        <ele>2003</ele>
        <time>2022-07-10T11:44:50.000Z</time>
      </trkpt>
      <trkpt lat="44.17187" lon="6.82372">
        <ele>2003</ele>
        <time>2022-07-10T11:44:53.000Z</time>
      </trkpt>
      <trkpt lat="44.17187" lon="6.82372">
        <ele>2002.8</ele>
        <time>2022-07-10T11:45:00.000Z</time>
      </trkpt>
      <trkpt lat="44.17187" lon="6.82372">
        <ele>2002.6</ele>
        <time>2022-07-10T11:45:04.000Z</time>
      </trkpt>
      <trkpt lat="44.17187" lon="6.82372">
        <ele>2002.6</ele>
        <time>2022-07-10T11:45:09.000Z</time>
      </trkpt>
      <trkpt lat="44.17187" lon="6.82372">
        <ele>2002.6</ele>
        <time>2022-07-10T11:45:14.000Z</time>
      </trkpt>
      <trkpt lat="44.17188" lon="6.82373">
        <ele>2002.4</ele>
        <time>2022-07-10T11:45:20.000Z</time>
      </trkpt>
      <trkpt lat="44.17188" lon="6.82374">
        <ele>2002.2</ele>
        <time>2022-07-10T11:45:26.000Z</time>
      </trkpt>
      <trkpt lat="44.17188" lon="6.82373">
        <ele>2002.2</ele>
        <time>2022-07-10T11:45:28.000Z</time>
      </trkpt>
      <trkpt lat="44.17188" lon="6.82373">
        <ele>2002.2</ele>
        <time>2022-07-10T11:45:31.000Z</time>
      </trkpt>
      <trkpt lat="44.17184" lon="6.82372">
        <ele>2002</ele>
        <time>2022-07-10T11:45:36.000Z</time>
      </trkpt>
      <trkpt lat="44.17162" lon="6.82365">
        <ele>2002.4</ele>
        <time>2022-07-10T11:45:52.000Z</time>
      </trkpt>
      <trkpt lat="44.17154" lon="6.8236">
        <ele>2003.2</ele>
        <time>2022-07-10T11:45:58.000Z</time>
      </trkpt>
      <trkpt lat="44.17151" lon="6.82358">
        <ele>2003.6</ele>
        <time>2022-07-10T11:46:00.000Z</time>
      </trkpt>
      <trkpt lat="44.17145" lon="6.82355">
        <ele>2004.6</ele>
        <time>2022-07-10T11:46:05.000Z</time>
      </trkpt>
      <trkpt lat="44.17143" lon="6.82355">
        <ele>2004.8</ele>
        <time>2022-07-10T11:46:06.000Z</time>
      </trkpt>
      <trkpt lat="44.17138" lon="6.82352">
        <ele>2005.4</ele>
        <time>2022-07-10T11:46:10.000Z</time>
      </trkpt>
      <trkpt lat="44.17135" lon="6.82351">
        <ele>2005.8</ele>
        <time>2022-07-10T11:46:12.000Z</time>
      </trkpt>
      <trkpt lat="44.1713" lon="6.82348">
        <ele>2006.2</ele>
        <time>2022-07-10T11:46:16.000Z</time>
      </trkpt>
      <trkpt lat="44.17125" lon="6.82346">
        <ele>2006.6</ele>
        <time>2022-07-10T11:46:20.000Z</time>
      </trkpt>
      <trkpt lat="44.17119" lon="6.82342">
        <ele>2006.4</ele>
        <time>2022-07-10T11:46:25.000Z</time>
      </trkpt>
      <trkpt lat="44.17107" lon="6.82331">
        <ele>2006.8</ele>
        <time>2022-07-10T11:46:35.000Z</time>
      </trkpt>
      <trkpt lat="44.17098" lon="6.82323">
        <ele>2007.8</ele>
        <time>2022-07-10T11:46:42.000Z</time>
      </trkpt>
      <trkpt lat="44.17086" lon="6.8231">
        <ele>2009</ele>
        <time>2022-07-10T11:46:53.000Z</time>
      </trkpt>
      <trkpt lat="44.1708" lon="6.82303">
        <ele>2010.2</ele>
        <time>2022-07-10T11:46:59.000Z</time>
      </trkpt>
      <trkpt lat="44.1707" lon="6.82295">
        <ele>2011.4</ele>
        <time>2022-07-10T11:47:08.000Z</time>
      </trkpt>
      <trkpt lat="44.17055" lon="6.82283">
        <ele>2012.4</ele>
        <time>2022-07-10T11:47:21.000Z</time>
      </trkpt>
      <trkpt lat="44.1705" lon="6.82278">
        <ele>2013.6</ele>
        <time>2022-07-10T11:47:25.000Z</time>
      </trkpt>
      <trkpt lat="44.17044" lon="6.82273">
        <ele>2014.4</ele>
        <time>2022-07-10T11:47:30.000Z</time>
      </trkpt>
      <trkpt lat="44.17043" lon="6.82271">
        <ele>2014.8</ele>
        <time>2022-07-10T11:47:31.000Z</time>
      </trkpt>
      <trkpt lat="44.17039" lon="6.82265">
        <ele>2015.8</ele>
        <time>2022-07-10T11:47:36.000Z</time>
      </trkpt>
      <trkpt lat="44.17032" lon="6.82256">
        <ele>2016.8</ele>
        <time>2022-07-10T11:47:43.000Z</time>
      </trkpt>
      <trkpt lat="44.17024" lon="6.82244">
        <ele>2018</ele>
        <time>2022-07-10T11:47:52.000Z</time>
      </trkpt>
      <trkpt lat="44.17019" lon="6.82239">
        <ele>2019</ele>
        <time>2022-07-10T11:47:58.000Z</time>
      </trkpt>
      <trkpt lat="44.17016" lon="6.82237">
        <ele>2018.2</ele>
        <time>2022-07-10T11:48:13.000Z</time>
      </trkpt>
      <trkpt lat="44.17016" lon="6.82236">
        <ele>2018.8</ele>
        <time>2022-07-10T11:48:18.000Z</time>
      </trkpt>
      <trkpt lat="44.17016" lon="6.82236">
        <ele>2018.4</ele>
        <time>2022-07-10T11:48:22.000Z</time>
      </trkpt>
      <trkpt lat="44.17016" lon="6.82236">
        <ele>2018.4</ele>
        <time>2022-07-10T11:48:25.000Z</time>
      </trkpt>
      <trkpt lat="44.17016" lon="6.82236">
        <ele>2018.2</ele>
        <time>2022-07-10T11:48:28.000Z</time>
      </trkpt>
      <trkpt lat="44.17016" lon="6.82236">
        <ele>2018</ele>
        <time>2022-07-10T11:48:31.000Z</time>
      </trkpt>
      <trkpt lat="44.17016" lon="6.82236">
        <ele>2018</ele>
        <time>2022-07-10T11:48:34.000Z</time>
      </trkpt>
      <trkpt lat="44.17016" lon="6.82236">
        <ele>2018</ele>
        <time>2022-07-10T11:48:36.000Z</time>
      </trkpt>
      <trkpt lat="44.17016" lon="6.82236">
        <ele>2018</ele>
        <time>2022-07-10T11:48:41.000Z</time>
      </trkpt>
      <trkpt lat="44.17016" lon="6.82235">
        <ele>2017.8</ele>
        <time>2022-07-10T11:48:43.000Z</time>
      </trkpt>
      <trkpt lat="44.17017" lon="6.82235">
        <ele>2017.6</ele>
        <time>2022-07-10T11:48:48.000Z</time>
      </trkpt>
      <trkpt lat="44.17016" lon="6.82235">
        <ele>2017.8</ele>
        <time>2022-07-10T11:48:55.000Z</time>
      </trkpt>
      <trkpt lat="44.17016" lon="6.82236">
        <ele>2017.8</ele>
        <time>2022-07-10T11:49:17.000Z</time>
      </trkpt>
      <trkpt lat="44.17016" lon="6.82236">
        <ele>2017.6</ele>
        <time>2022-07-10T11:49:20.000Z</time>
      </trkpt>
      <trkpt lat="44.17016" lon="6.82236">
        <ele>2017.6</ele>
        <time>2022-07-10T11:49:23.000Z</time>
      </trkpt>
      <trkpt lat="44.17016" lon="6.82236">
        <ele>2017.6</ele>
        <time>2022-07-10T11:49:31.000Z</time>
      </trkpt>
      <trkpt lat="44.17016" lon="6.82236">
        <ele>2017.4</ele>
        <time>2022-07-10T11:49:37.000Z</time>
      </trkpt>
      <trkpt lat="44.17017" lon="6.82236">
        <ele>2017</ele>
        <time>2022-07-10T11:49:50.000Z</time>
      </trkpt>
      <trkpt lat="44.16876" lon="6.82109">
        <ele>2009.6</ele>
        <time>2022-07-10T11:52:03.000Z</time>
      </trkpt>
      <trkpt lat="44.16873" lon="6.82106">
        <ele>2009.4</ele>
        <time>2022-07-10T11:52:04.000Z</time>
      </trkpt>
      <trkpt lat="44.16864" lon="6.82098">
        <ele>2009.2</ele>
        <time>2022-07-10T11:52:08.000Z</time>
      </trkpt>
      <trkpt lat="44.16833" lon="6.82083">
        <ele>2010.2</ele>
        <time>2022-07-10T11:52:23.000Z</time>
      </trkpt>
      <trkpt lat="44.16825" lon="6.82082">
        <ele>2010.4</ele>
        <time>2022-07-10T11:52:27.000Z</time>
      </trkpt>
      <trkpt lat="44.16815" lon="6.82083">
        <ele>2010.2</ele>
        <time>2022-07-10T11:52:32.000Z</time>
      </trkpt>
      <trkpt lat="44.16809" lon="6.82083">
        <ele>2010.4</ele>
        <time>2022-07-10T11:52:35.000Z</time>
      </trkpt>
      <trkpt lat="44.16807" lon="6.82083">
        <ele>2010.6</ele>
        <time>2022-07-10T11:52:36.000Z</time>
      </trkpt>
      <trkpt lat="44.16798" lon="6.82082">
        <ele>2011.8</ele>
        <time>2022-07-10T11:52:40.000Z</time>
      </trkpt>
      <trkpt lat="44.16791" lon="6.82082">
        <ele>2012.4</ele>
        <time>2022-07-10T11:52:44.000Z</time>
      </trkpt>
      <trkpt lat="44.16789" lon="6.82081">
        <ele>2013</ele>
        <time>2022-07-10T11:52:46.000Z</time>
      </trkpt>
      <trkpt lat="44.16783" lon="6.82076">
        <ele>2013.6</ele>
        <time>2022-07-10T11:52:51.000Z</time>
      </trkpt>
      <trkpt lat="44.16779" lon="6.82071">
        <ele>2014</ele>
        <time>2022-07-10T11:52:54.000Z</time>
      </trkpt>
      <trkpt lat="44.16775" lon="6.82064">
        <ele>2014.4</ele>
        <time>2022-07-10T11:52:58.000Z</time>
      </trkpt>
      <trkpt lat="44.16772" lon="6.82053">
        <ele>2014.6</ele>
        <time>2022-07-10T11:53:12.000Z</time>
      </trkpt>
      <trkpt lat="44.16772" lon="6.82053">
        <ele>2014.6</ele>
        <time>2022-07-10T11:53:16.000Z</time>
      </trkpt>
      <trkpt lat="44.16772" lon="6.82053">
        <ele>2014.4</ele>
        <time>2022-07-10T11:53:26.000Z</time>
      </trkpt>
      <trkpt lat="44.16772" lon="6.82054">
        <ele>2014.4</ele>
        <time>2022-07-10T11:53:35.000Z</time>
      </trkpt>
      <trkpt lat="44.16773" lon="6.82054">
        <ele>2014.4</ele>
        <time>2022-07-10T11:53:39.000Z</time>
      </trkpt>
      <trkpt lat="44.16771" lon="6.8205">
        <ele>2014.2</ele>
        <time>2022-07-10T11:53:44.000Z</time>
      </trkpt>
      <trkpt lat="44.16754" lon="6.8202">
        <ele>2012.6</ele>
        <time>2022-07-10T11:53:52.000Z</time>
      </trkpt>
      <trkpt lat="44.16745" lon="6.82009">
        <ele>2011.4</ele>
        <time>2022-07-10T11:53:54.000Z</time>
      </trkpt>
      <trkpt lat="44.16731" lon="6.81996">
        <ele>2010.4</ele>
        <time>2022-07-10T11:53:57.000Z</time>
      </trkpt>
      <trkpt lat="44.16719" lon="6.81985">
        <ele>2009.2</ele>
        <time>2022-07-10T11:54:00.000Z</time>
      </trkpt>
      <trkpt lat="44.16698" lon="6.81965">
        <ele>2008.6</ele>
        <time>2022-07-10T11:54:06.000Z</time>
      </trkpt>
      <trkpt lat="44.16678" lon="6.81949">
        <ele>2010.4</ele>
        <time>2022-07-10T11:54:14.000Z</time>
      </trkpt>
      <trkpt lat="44.16668" lon="6.81941">
        <ele>2011</ele>
        <time>2022-07-10T11:54:19.000Z</time>
      </trkpt>
      <trkpt lat="44.16661" lon="6.81934">
        <ele>2011.2</ele>
        <time>2022-07-10T11:54:23.000Z</time>
      </trkpt>
      <trkpt lat="44.16659" lon="6.81929">
        <ele>2011.4</ele>
        <time>2022-07-10T11:54:25.000Z</time>
      </trkpt>
      <trkpt lat="44.16656" lon="6.81921">
        <ele>2011.4</ele>
        <time>2022-07-10T11:54:28.000Z</time>
      </trkpt>
      <trkpt lat="44.16652" lon="6.81912">
        <ele>2012.2</ele>
        <time>2022-07-10T11:54:31.000Z</time>
      </trkpt>
      <trkpt lat="44.1665" lon="6.81906">
        <ele>2012.4</ele>
        <time>2022-07-10T11:54:33.000Z</time>
      </trkpt>
      <trkpt lat="44.16646" lon="6.81897">
        <ele>2012.8</ele>
        <time>2022-07-10T11:54:36.000Z</time>
      </trkpt>
      <trkpt lat="44.16638" lon="6.81876">
        <ele>2012.8</ele>
        <time>2022-07-10T11:54:42.000Z</time>
      </trkpt>
      <trkpt lat="44.16632" lon="6.81857">
        <ele>2012.6</ele>
        <time>2022-07-10T11:54:47.000Z</time>
      </trkpt>
      <trkpt lat="44.16615" lon="6.81846">
        <ele>2013.4</ele>
        <time>2022-07-10T11:54:56.000Z</time>
      </trkpt>
      <trkpt lat="44.1661" lon="6.81842">
        <ele>2014.6</ele>
        <time>2022-07-10T11:55:00.000Z</time>
      </trkpt>
      <trkpt lat="44.16594" lon="6.81822">
        <ele>2013.2</ele>
        <time>2022-07-10T11:55:08.000Z</time>
      </trkpt>
      <trkpt lat="44.16588" lon="6.81814">
        <ele>2012</ele>
        <time>2022-07-10T11:55:10.000Z</time>
      </trkpt>
      <trkpt lat="44.16578" lon="6.81804">
        <ele>2010.8</ele>
        <time>2022-07-10T11:55:13.000Z</time>
      </trkpt>
      <trkpt lat="44.16565" lon="6.8179">
        <ele>2011.2</ele>
        <time>2022-07-10T11:55:17.000Z</time>
      </trkpt>
      <trkpt lat="44.16547" lon="6.81785">
        <ele>2011.8</ele>
        <time>2022-07-10T11:55:26.000Z</time>
      </trkpt>
      <trkpt lat="44.16531" lon="6.81779">
        <ele>2013</ele>
        <time>2022-07-10T11:55:35.000Z</time>
      </trkpt>
      <trkpt lat="44.16509" lon="6.81766">
        <ele>2014</ele>
        <time>2022-07-10T11:55:47.000Z</time>
      </trkpt>
      <trkpt lat="44.165" lon="6.81761">
        <ele>2015.2</ele>
        <time>2022-07-10T11:55:53.000Z</time>
      </trkpt>
      <trkpt lat="44.16491" lon="6.81758">
        <ele>2015.8</ele>
        <time>2022-07-10T11:55:58.000Z</time>
      </trkpt>
      <trkpt lat="44.1649" lon="6.81756">
        <ele>2016.2</ele>
        <time>2022-07-10T11:55:59.000Z</time>
      </trkpt>
      <trkpt lat="44.16484" lon="6.81751">
        <ele>2016.6</ele>
        <time>2022-07-10T11:56:03.000Z</time>
      </trkpt>
      <trkpt lat="44.16475" lon="6.81744">
        <ele>2016.6</ele>
        <time>2022-07-10T11:56:09.000Z</time>
      </trkpt>
      <trkpt lat="44.16464" lon="6.81732">
        <ele>2017.2</ele>
        <time>2022-07-10T11:56:17.000Z</time>
      </trkpt>
      <trkpt lat="44.16453" lon="6.81719">
        <ele>2016.4</ele>
        <time>2022-07-10T11:56:25.000Z</time>
      </trkpt>
      <trkpt lat="44.16431" lon="6.81704">
        <ele>2016.8</ele>
        <time>2022-07-10T11:56:38.000Z</time>
      </trkpt>
      <trkpt lat="44.16396" lon="6.81695">
        <ele>2018.2</ele>
        <time>2022-07-10T11:56:56.000Z</time>
      </trkpt>
      <trkpt lat="44.16361" lon="6.81697">
        <ele>2019.2</ele>
        <time>2022-07-10T11:57:13.000Z</time>
      </trkpt>
      <trkpt lat="44.1635" lon="6.81699">
        <ele>2020.4</ele>
        <time>2022-07-10T11:57:18.000Z</time>
      </trkpt>
      <trkpt lat="44.16317" lon="6.81697">
        <ele>2021.4</ele>
        <time>2022-07-10T11:57:33.000Z</time>
      </trkpt>
      <trkpt lat="44.16284" lon="6.81695">
        <ele>2022.4</ele>
        <time>2022-07-10T11:57:50.000Z</time>
      </trkpt>
      <trkpt lat="44.16282" lon="6.81695">
        <ele>2023</ele>
        <time>2022-07-10T11:57:53.000Z</time>
      </trkpt>
      <trkpt lat="44.16283" lon="6.81694">
        <ele>2023.6</ele>
        <time>2022-07-10T11:57:57.000Z</time>
      </trkpt>
      <trkpt lat="44.16283" lon="6.81694">
        <ele>2023.6</ele>
        <time>2022-07-10T11:57:59.000Z</time>
      </trkpt>
      <trkpt lat="44.16284" lon="6.81695">
        <ele>2023.4</ele>
        <time>2022-07-10T11:58:02.000Z</time>
      </trkpt>
      <trkpt lat="44.16282" lon="6.81692">
        <ele>2023.4</ele>
        <time>2022-07-10T11:58:12.000Z</time>
      </trkpt>
      <trkpt lat="44.16282" lon="6.81692">
        <ele>2023.4</ele>
        <time>2022-07-10T11:58:15.000Z</time>
      </trkpt>
      <trkpt lat="44.16283" lon="6.81692">
        <ele>2023.4</ele>
        <time>2022-07-10T11:58:18.000Z</time>
      </trkpt>
      <trkpt lat="44.16283" lon="6.81692">
        <ele>2023.4</ele>
        <time>2022-07-10T11:58:24.000Z</time>
      </trkpt>
      <trkpt lat="44.16283" lon="6.81692">
        <ele>2023.2</ele>
        <time>2022-07-10T11:58:31.000Z</time>
      </trkpt>
      <trkpt lat="44.16283" lon="6.81692">
        <ele>2023</ele>
        <time>2022-07-10T11:58:38.000Z</time>
      </trkpt>
      <trkpt lat="44.16283" lon="6.81692">
        <ele>2022.6</ele>
        <time>2022-07-10T11:58:46.000Z</time>
      </trkpt>
      <trkpt lat="44.16283" lon="6.81691">
        <ele>2022.6</ele>
        <time>2022-07-10T11:58:58.000Z</time>
      </trkpt>
      <trkpt lat="44.16277" lon="6.81676">
        <ele>2023</ele>
        <time>2022-07-10T11:59:23.000Z</time>
      </trkpt>
      <trkpt lat="44.16275" lon="6.81671">
        <ele>2024</ele>
        <time>2022-07-10T11:59:27.000Z</time>
      </trkpt>
      <trkpt lat="44.16274" lon="6.8167">
        <ele>2023.8</ele>
        <time>2022-07-10T11:59:28.000Z</time>
      </trkpt>
      <trkpt lat="44.16272" lon="6.81666">
        <ele>2024</ele>
        <time>2022-07-10T11:59:32.000Z</time>
      </trkpt>
      <trkpt lat="44.16268" lon="6.8166">
        <ele>2024.6</ele>
        <time>2022-07-10T11:59:38.000Z</time>
      </trkpt>
      <trkpt lat="44.16266" lon="6.81657">
        <ele>2025</ele>
        <time>2022-07-10T11:59:40.000Z</time>
      </trkpt>
      <trkpt lat="44.16265" lon="6.81651">
        <ele>2025.4</ele>
        <time>2022-07-10T11:59:44.000Z</time>
      </trkpt>
      <trkpt lat="44.16265" lon="6.8165">
        <ele>2025.6</ele>
        <time>2022-07-10T11:59:45.000Z</time>
      </trkpt>
      <trkpt lat="44.16264" lon="6.81647">
        <ele>2026.2</ele>
        <time>2022-07-10T11:59:48.000Z</time>
      </trkpt>
      <trkpt lat="44.16264" lon="6.81642">
        <ele>2026.8</ele>
        <time>2022-07-10T11:59:52.000Z</time>
      </trkpt>
      <trkpt lat="44.16264" lon="6.81636">
        <ele>2027.4</ele>
        <time>2022-07-10T11:59:57.000Z</time>
      </trkpt>
      <trkpt lat="44.16261" lon="6.8163">
        <ele>2027.8</ele>
        <time>2022-07-10T12:00:03.000Z</time>
      </trkpt>
      <trkpt lat="44.1626" lon="6.81629">
        <ele>2027.8</ele>
        <time>2022-07-10T12:00:04.000Z</time>
      </trkpt>
      <trkpt lat="44.16253" lon="6.81623">
        <ele>2028.8</ele>
        <time>2022-07-10T12:00:12.000Z</time>
      </trkpt>
      <trkpt lat="44.16246" lon="6.81618">
        <ele>2029.8</ele>
        <time>2022-07-10T12:00:19.000Z</time>
      </trkpt>
      <trkpt lat="44.16245" lon="6.81617">
        <ele>2029.8</ele>
        <time>2022-07-10T12:00:20.000Z</time>
      </trkpt>
      <trkpt lat="44.16238" lon="6.81611">
        <ele>2030.8</ele>
        <time>2022-07-10T12:00:28.000Z</time>
      </trkpt>
      <trkpt lat="44.16237" lon="6.81611">
        <ele>2031</ele>
        <time>2022-07-10T12:00:29.000Z</time>
      </trkpt>
      <trkpt lat="44.16234" lon="6.81609">
        <ele>2031.4</ele>
        <time>2022-07-10T12:00:32.000Z</time>
      </trkpt>
      <trkpt lat="44.16229" lon="6.81606">
        <ele>2032</ele>
        <time>2022-07-10T12:00:37.000Z</time>
      </trkpt>
      <trkpt lat="44.16223" lon="6.81601">
        <ele>2033.2</ele>
        <time>2022-07-10T12:00:44.000Z</time>
      </trkpt>
      <trkpt lat="44.16218" lon="6.81598">
        <ele>2034.4</ele>
        <time>2022-07-10T12:00:50.000Z</time>
      </trkpt>
      <trkpt lat="44.16215" lon="6.81596">
        <ele>2034.8</ele>
        <time>2022-07-10T12:00:53.000Z</time>
      </trkpt>
      <trkpt lat="44.16215" lon="6.81594">
        <ele>2035.2</ele>
        <time>2022-07-10T12:00:55.000Z</time>
      </trkpt>
      <trkpt lat="44.16215" lon="6.81595">
        <ele>2035.4</ele>
        <time>2022-07-10T12:00:56.000Z</time>
      </trkpt>
      <trkpt lat="44.16215" lon="6.81595">
        <ele>2036</ele>
        <time>2022-07-10T12:01:03.000Z</time>
      </trkpt>
      <trkpt lat="44.16211" lon="6.8159">
        <ele>2035.6</ele>
        <time>2022-07-10T12:01:09.000Z</time>
      </trkpt>
      <trkpt lat="44.16208" lon="6.81587">
        <ele>2036.6</ele>
        <time>2022-07-10T12:01:13.000Z</time>
      </trkpt>
      <trkpt lat="44.16203" lon="6.81584">
        <ele>2037.6</ele>
        <time>2022-07-10T12:01:18.000Z</time>
      </trkpt>
      <trkpt lat="44.16201" lon="6.81581">
        <ele>2038.8</ele>
        <time>2022-07-10T12:01:23.000Z</time>
      </trkpt>
      <trkpt lat="44.16202" lon="6.81581">
        <ele>2038.8</ele>
        <time>2022-07-10T12:01:31.000Z</time>
      </trkpt>
      <trkpt lat="44.16202" lon="6.81581">
        <ele>2038.8</ele>
        <time>2022-07-10T12:01:35.000Z</time>
      </trkpt>
      <trkpt lat="44.162" lon="6.81581">
        <ele>2038.8</ele>
        <time>2022-07-10T12:01:40.000Z</time>
      </trkpt>
      <trkpt lat="44.16201" lon="6.81581">
        <ele>2038.8</ele>
        <time>2022-07-10T12:01:48.000Z</time>
      </trkpt>
      <trkpt lat="44.162" lon="6.81581">
        <ele>2039.2</ele>
        <time>2022-07-10T12:01:52.000Z</time>
      </trkpt>
      <trkpt lat="44.162" lon="6.81582">
        <ele>2039.4</ele>
        <time>2022-07-10T12:01:56.000Z</time>
      </trkpt>
      <trkpt lat="44.162" lon="6.81582">
        <ele>2039.6</ele>
        <time>2022-07-10T12:02:00.000Z</time>
      </trkpt>
      <trkpt lat="44.162" lon="6.81583">
        <ele>2039.4</ele>
        <time>2022-07-10T12:02:06.000Z</time>
      </trkpt>
      <trkpt lat="44.16202" lon="6.81581">
        <ele>2039.6</ele>
        <time>2022-07-10T12:02:12.000Z</time>
      </trkpt>
      <trkpt lat="44.16201" lon="6.81582">
        <ele>2039.4</ele>
        <time>2022-07-10T12:02:15.000Z</time>
      </trkpt>
      <trkpt lat="44.16202" lon="6.8158">
        <ele>2039.8</ele>
        <time>2022-07-10T12:02:20.000Z</time>
      </trkpt>
      <trkpt lat="44.16201" lon="6.81581">
        <ele>2040</ele>
        <time>2022-07-10T12:02:23.000Z</time>
      </trkpt>
      <trkpt lat="44.16199" lon="6.81582">
        <ele>2039.8</ele>
        <time>2022-07-10T12:02:26.000Z</time>
      </trkpt>
      <trkpt lat="44.16198" lon="6.81582">
        <ele>2039.6</ele>
        <time>2022-07-10T12:02:29.000Z</time>
      </trkpt>
      <trkpt lat="44.16198" lon="6.81582">
        <ele>2039.6</ele>
        <time>2022-07-10T12:02:37.000Z</time>
      </trkpt>
      <trkpt lat="44.16198" lon="6.81582">
        <ele>2040.6</ele>
        <time>2022-07-10T12:02:43.000Z</time>
      </trkpt>
      <trkpt lat="44.16198" lon="6.81581">
        <ele>2040.8</ele>
        <time>2022-07-10T12:02:50.000Z</time>
      </trkpt>
      <trkpt lat="44.16198" lon="6.81581">
        <ele>2041.4</ele>
        <time>2022-07-10T12:02:59.000Z</time>
      </trkpt>
      <trkpt lat="44.16198" lon="6.81581">
        <ele>2041.6</ele>
        <time>2022-07-10T12:03:04.000Z</time>
      </trkpt>
      <trkpt lat="44.16194" lon="6.81584">
        <ele>2041.8</ele>
        <time>2022-07-10T12:03:18.000Z</time>
      </trkpt>
      <trkpt lat="44.1619" lon="6.81585">
        <ele>2041.4</ele>
        <time>2022-07-10T12:03:24.000Z</time>
      </trkpt>
      <trkpt lat="44.16184" lon="6.81585">
        <ele>2041</ele>
        <time>2022-07-10T12:03:27.000Z</time>
      </trkpt>
      <trkpt lat="44.16182" lon="6.81585">
        <ele>2040.8</ele>
        <time>2022-07-10T12:03:28.000Z</time>
      </trkpt>
      <trkpt lat="44.16148" lon="6.81572">
        <ele>2040</ele>
        <time>2022-07-10T12:03:43.000Z</time>
      </trkpt>
      <trkpt lat="44.16142" lon="6.8157">
        <ele>2040</ele>
        <time>2022-07-10T12:03:46.000Z</time>
      </trkpt>
      <trkpt lat="44.16136" lon="6.81568">
        <ele>2040.2</ele>
        <time>2022-07-10T12:03:49.000Z</time>
      </trkpt>
      <trkpt lat="44.16131" lon="6.81566">
        <ele>2040.4</ele>
        <time>2022-07-10T12:03:52.000Z</time>
      </trkpt>
      <trkpt lat="44.16123" lon="6.81563">
        <ele>2041</ele>
        <time>2022-07-10T12:03:58.000Z</time>
      </trkpt>
      <trkpt lat="44.16123" lon="6.81561">
        <ele>2041.4</ele>
        <time>2022-07-10T12:04:19.000Z</time>
      </trkpt>
      <trkpt lat="44.16121" lon="6.81559">
        <ele>2041.2</ele>
        <time>2022-07-10T12:04:31.000Z</time>
      </trkpt>
      <trkpt lat="44.16118" lon="6.81558">
        <ele>2041.4</ele>
        <time>2022-07-10T12:04:40.000Z</time>
      </trkpt>
      <trkpt lat="44.1611" lon="6.81554">
        <ele>2040.6</ele>
        <time>2022-07-10T12:04:44.000Z</time>
      </trkpt>
      <trkpt lat="44.16101" lon="6.81551">
        <ele>2039.2</ele>
        <time>2022-07-10T12:04:47.000Z</time>
      </trkpt>
      <trkpt lat="44.16091" lon="6.81546">
        <ele>2038</ele>
        <time>2022-07-10T12:04:50.000Z</time>
      </trkpt>
      <trkpt lat="44.16085" lon="6.81543">
        <ele>2037.8</ele>
        <time>2022-07-10T12:04:52.000Z</time>
      </trkpt>
      <trkpt lat="44.1604" lon="6.8153">
        <ele>2038.6</ele>
        <time>2022-07-10T12:05:17.000Z</time>
      </trkpt>
      <trkpt lat="44.16036" lon="6.81529">
        <ele>2038.6</ele>
        <time>2022-07-10T12:05:20.000Z</time>
      </trkpt>
      <trkpt lat="44.16031" lon="6.81529">
        <ele>2039.2</ele>
        <time>2022-07-10T12:05:24.000Z</time>
      </trkpt>
      <trkpt lat="44.16014" lon="6.81529">
        <ele>2039</ele>
        <time>2022-07-10T12:05:37.000Z</time>
      </trkpt>
      <trkpt lat="44.16001" lon="6.81521">
        <ele>2040</ele>
        <time>2022-07-10T12:05:47.000Z</time>
      </trkpt>
      <trkpt lat="44.15998" lon="6.81519">
        <ele>2040.4</ele>
        <time>2022-07-10T12:05:49.000Z</time>
      </trkpt>
      <trkpt lat="44.15994" lon="6.81517">
        <ele>2041.2</ele>
        <time>2022-07-10T12:05:51.000Z</time>
      </trkpt>
      <trkpt lat="44.15991" lon="6.81517">
        <ele>2041.4</ele>
        <time>2022-07-10T12:05:53.000Z</time>
      </trkpt>
      <trkpt lat="44.15988" lon="6.81516">
        <ele>2041.6</ele>
        <time>2022-07-10T12:05:55.000Z</time>
      </trkpt>
      <trkpt lat="44.15983" lon="6.81515">
        <ele>2041.8</ele>
        <time>2022-07-10T12:05:58.000Z</time>
      </trkpt>
      <trkpt lat="44.15976" lon="6.81514">
        <ele>2042</ele>
        <time>2022-07-10T12:06:02.000Z</time>
      </trkpt>
      <trkpt lat="44.15969" lon="6.81512">
        <ele>2042</ele>
        <time>2022-07-10T12:06:06.000Z</time>
      </trkpt>
      <trkpt lat="44.15961" lon="6.81512">
        <ele>2042.4</ele>
        <time>2022-07-10T12:06:11.000Z</time>
      </trkpt>
      <trkpt lat="44.15958" lon="6.81512">
        <ele>2042.6</ele>
        <time>2022-07-10T12:06:13.000Z</time>
      </trkpt>
      <trkpt lat="44.15949" lon="6.81512">
        <ele>2043.8</ele>
        <time>2022-07-10T12:06:18.000Z</time>
      </trkpt>
      <trkpt lat="44.1594" lon="6.81508">
        <ele>2044.8</ele>
        <time>2022-07-10T12:06:24.000Z</time>
      </trkpt>
      <trkpt lat="44.15933" lon="6.81506">
        <ele>2045.6</ele>
        <time>2022-07-10T12:06:29.000Z</time>
      </trkpt>
      <trkpt lat="44.15927" lon="6.81506">
        <ele>2046</ele>
        <time>2022-07-10T12:06:33.000Z</time>
      </trkpt>
      <trkpt lat="44.15911" lon="6.81507">
        <ele>2047</ele>
        <time>2022-07-10T12:06:44.000Z</time>
      </trkpt>
      <trkpt lat="44.15898" lon="6.81508">
        <ele>2048</ele>
        <time>2022-07-10T12:06:53.000Z</time>
      </trkpt>
      <trkpt lat="44.15879" lon="6.81509">
        <ele>2048.4</ele>
        <time>2022-07-10T12:07:05.000Z</time>
      </trkpt>
      <trkpt lat="44.15867" lon="6.81513">
        <ele>2048.2</ele>
        <time>2022-07-10T12:07:13.000Z</time>
      </trkpt>
      <trkpt lat="44.15845" lon="6.81516">
        <ele>2049.2</ele>
        <time>2022-07-10T12:07:26.000Z</time>
      </trkpt>
      <trkpt lat="44.15838" lon="6.81518">
        <ele>2050.2</ele>
        <time>2022-07-10T12:07:31.000Z</time>
      </trkpt>
      <trkpt lat="44.15834" lon="6.81518">
        <ele>2051.6</ele>
        <time>2022-07-10T12:07:34.000Z</time>
      </trkpt>
      <trkpt lat="44.1583" lon="6.81518">
        <ele>2052.8</ele>
        <time>2022-07-10T12:07:38.000Z</time>
      </trkpt>
      <trkpt lat="44.15826" lon="6.81519">
        <ele>2053.8</ele>
        <time>2022-07-10T12:07:41.000Z</time>
      </trkpt>
      <trkpt lat="44.1582" lon="6.81518">
        <ele>2055</ele>
        <time>2022-07-10T12:07:45.000Z</time>
      </trkpt>
      <trkpt lat="44.15817" lon="6.81518">
        <ele>2056</ele>
        <time>2022-07-10T12:07:48.000Z</time>
      </trkpt>
      <trkpt lat="44.15817" lon="6.81518">
        <ele>2056.2</ele>
        <time>2022-07-10T12:07:49.000Z</time>
      </trkpt>
      <trkpt lat="44.15819" lon="6.81517">
        <ele>2056.8</ele>
        <time>2022-07-10T12:07:54.000Z</time>
      </trkpt>
      <trkpt lat="44.15819" lon="6.81516">
        <ele>2057.4</ele>
        <time>2022-07-10T12:07:57.000Z</time>
      </trkpt>
      <trkpt lat="44.15815" lon="6.81517">
        <ele>2057.4</ele>
        <time>2022-07-10T12:08:04.000Z</time>
      </trkpt>
      <trkpt lat="44.15808" lon="6.81517">
        <ele>2057.6</ele>
        <time>2022-07-10T12:08:11.000Z</time>
      </trkpt>
      <trkpt lat="44.15806" lon="6.81517">
        <ele>2058</ele>
        <time>2022-07-10T12:08:13.000Z</time>
      </trkpt>
      <trkpt lat="44.15802" lon="6.81518">
        <ele>2058.4</ele>
        <time>2022-07-10T12:08:16.000Z</time>
      </trkpt>
      <trkpt lat="44.15797" lon="6.81517">
        <ele>2059.4</ele>
        <time>2022-07-10T12:08:22.000Z</time>
      </trkpt>
      <trkpt lat="44.15792" lon="6.81516">
        <ele>2060.4</ele>
        <time>2022-07-10T12:08:28.000Z</time>
      </trkpt>
      <trkpt lat="44.15787" lon="6.81518">
        <ele>2061.6</ele>
        <time>2022-07-10T12:08:33.000Z</time>
      </trkpt>
      <trkpt lat="44.15781" lon="6.81517">
        <ele>2062.6</ele>
        <time>2022-07-10T12:08:40.000Z</time>
      </trkpt>
      <trkpt lat="44.15781" lon="6.81519">
        <ele>2063.8</ele>
        <time>2022-07-10T12:08:46.000Z</time>
      </trkpt>
      <trkpt lat="44.15778" lon="6.8152">
        <ele>2064.4</ele>
        <time>2022-07-10T12:08:52.000Z</time>
      </trkpt>
      <trkpt lat="44.15776" lon="6.8152">
        <ele>2064.8</ele>
        <time>2022-07-10T12:08:54.000Z</time>
      </trkpt>
      <trkpt lat="44.15767" lon="6.81519">
        <ele>2066</ele>
        <time>2022-07-10T12:09:02.000Z</time>
      </trkpt>
      <trkpt lat="44.15758" lon="6.81516">
        <ele>2067</ele>
        <time>2022-07-10T12:09:10.000Z</time>
      </trkpt>
      <trkpt lat="44.15753" lon="6.81513">
        <ele>2068.2</ele>
        <time>2022-07-10T12:09:15.000Z</time>
      </trkpt>
      <trkpt lat="44.15744" lon="6.81509">
        <ele>2069.2</ele>
        <time>2022-07-10T12:09:23.000Z</time>
      </trkpt>
      <trkpt lat="44.15744" lon="6.81509">
        <ele>2070.2</ele>
        <time>2022-07-10T12:09:34.000Z</time>
      </trkpt>
      <trkpt lat="44.15747" lon="6.81509">
        <ele>2070.4</ele>
        <time>2022-07-10T12:09:42.000Z</time>
      </trkpt>
      <trkpt lat="44.15744" lon="6.8151">
        <ele>2069.8</ele>
        <time>2022-07-10T12:09:47.000Z</time>
      </trkpt>
      <trkpt lat="44.15744" lon="6.81511">
        <ele>2069.4</ele>
        <time>2022-07-10T12:09:50.000Z</time>
      </trkpt>
      <trkpt lat="44.15744" lon="6.81511">
        <ele>2069.4</ele>
        <time>2022-07-10T12:09:54.000Z</time>
      </trkpt>
      <trkpt lat="44.15744" lon="6.8151">
        <ele>2069.4</ele>
        <time>2022-07-10T12:09:56.000Z</time>
      </trkpt>
      <trkpt lat="44.15744" lon="6.81511">
        <ele>2069.4</ele>
        <time>2022-07-10T12:09:58.000Z</time>
      </trkpt>
      <trkpt lat="44.15744" lon="6.81509">
        <ele>2069.6</ele>
        <time>2022-07-10T12:10:03.000Z</time>
      </trkpt>
      <trkpt lat="44.15744" lon="6.81509">
        <ele>2069.6</ele>
        <time>2022-07-10T12:10:06.000Z</time>
      </trkpt>
      <trkpt lat="44.15744" lon="6.8151">
        <ele>2069.8</ele>
        <time>2022-07-10T12:10:10.000Z</time>
      </trkpt>
      <trkpt lat="44.15744" lon="6.8151">
        <ele>2069.8</ele>
        <time>2022-07-10T12:10:12.000Z</time>
      </trkpt>
      <trkpt lat="44.15745" lon="6.81508">
        <ele>2070</ele>
        <time>2022-07-10T12:10:16.000Z</time>
      </trkpt>
      <trkpt lat="44.15745" lon="6.8151">
        <ele>2070.2</ele>
        <time>2022-07-10T12:10:22.000Z</time>
      </trkpt>
      <trkpt lat="44.15743" lon="6.81513">
        <ele>2070.4</ele>
        <time>2022-07-10T12:11:04.000Z</time>
      </trkpt>
      <trkpt lat="44.15744" lon="6.81511">
        <ele>2070.8</ele>
        <time>2022-07-10T12:11:11.000Z</time>
      </trkpt>
      <trkpt lat="44.15744" lon="6.81511">
        <ele>2070.8</ele>
        <time>2022-07-10T12:11:15.000Z</time>
      </trkpt>
      <trkpt lat="44.15744" lon="6.81511">
        <ele>2070.4</ele>
        <time>2022-07-10T12:11:20.000Z</time>
      </trkpt>
      <trkpt lat="44.15744" lon="6.8151">
        <ele>2064.8</ele>
        <time>2022-07-10T12:11:26.000Z</time>
      </trkpt>
      <trkpt lat="44.15744" lon="6.8151">
        <ele>2062.2</ele>
        <time>2022-07-10T12:11:27.000Z</time>
      </trkpt>
      <trkpt lat="44.15741" lon="6.81509">
        <ele>2060.6</ele>
        <time>2022-07-10T12:11:28.000Z</time>
      </trkpt>
      <trkpt lat="44.15742" lon="6.81508">
        <ele>2059.2</ele>
        <time>2022-07-10T12:11:30.000Z</time>
      </trkpt>
      <trkpt lat="44.15742" lon="6.81508">
        <ele>2064.2</ele>
        <time>2022-07-10T12:11:31.000Z</time>
      </trkpt>
      <trkpt lat="44.15743" lon="6.81509">
        <ele>2066.8</ele>
        <time>2022-07-10T12:11:32.000Z</time>
      </trkpt>
      <trkpt lat="44.15743" lon="6.81509">
        <ele>2068.2</ele>
        <time>2022-07-10T12:11:33.000Z</time>
      </trkpt>
      <trkpt lat="44.15744" lon="6.81509">
        <ele>2069.2</ele>
        <time>2022-07-10T12:11:35.000Z</time>
      </trkpt>
      <trkpt lat="44.15743" lon="6.81508">
        <ele>2069.6</ele>
        <time>2022-07-10T12:11:38.000Z</time>
      </trkpt>
      <trkpt lat="44.15743" lon="6.81508">
        <ele>2069.6</ele>
        <time>2022-07-10T12:11:41.000Z</time>
      </trkpt>
      <trkpt lat="44.1574" lon="6.81508">
        <ele>2069.6</ele>
        <time>2022-07-10T12:11:51.000Z</time>
      </trkpt>
      <trkpt lat="44.15744" lon="6.81509">
        <ele>2070</ele>
        <time>2022-07-10T12:11:57.000Z</time>
      </trkpt>
      <trkpt lat="44.15746" lon="6.81511">
        <ele>2069.2</ele>
        <time>2022-07-10T12:12:26.000Z</time>
      </trkpt>
      <trkpt lat="44.15748" lon="6.81511">
        <ele>2070.2</ele>
        <time>2022-07-10T12:12:42.000Z</time>
      </trkpt>
      <trkpt lat="44.15748" lon="6.81511">
        <ele>2070.2</ele>
        <time>2022-07-10T12:12:49.000Z</time>
      </trkpt>
      <trkpt lat="44.15742" lon="6.81508">
        <ele>2068.6</ele>
        <time>2022-07-10T12:22:27.000Z</time>
      </trkpt>
      <trkpt lat="44.15742" lon="6.81508">
        <ele>2068.2</ele>
        <time>2022-07-10T12:22:30.000Z</time>
      </trkpt>
      <trkpt lat="44.1574" lon="6.81507">
        <ele>2069</ele>
        <time>2022-07-10T12:22:39.000Z</time>
      </trkpt>
      <trkpt lat="44.15738" lon="6.81505">
        <ele>2069.2</ele>
        <time>2022-07-10T12:22:45.000Z</time>
      </trkpt>
      <trkpt lat="44.15736" lon="6.81502">
        <ele>2068.8</ele>
        <time>2022-07-10T12:22:48.000Z</time>
      </trkpt>
      <trkpt lat="44.15732" lon="6.81497">
        <ele>2068.2</ele>
        <time>2022-07-10T12:22:52.000Z</time>
      </trkpt>
      <trkpt lat="44.1573" lon="6.81493">
        <ele>2068</ele>
        <time>2022-07-10T12:22:56.000Z</time>
      </trkpt>
      <trkpt lat="44.15726" lon="6.81487">
        <ele>2068</ele>
        <time>2022-07-10T12:23:01.000Z</time>
      </trkpt>
      <trkpt lat="44.15724" lon="6.81483">
        <ele>2068.4</ele>
        <time>2022-07-10T12:23:05.000Z</time>
      </trkpt>
      <trkpt lat="44.15722" lon="6.8148">
        <ele>2068.2</ele>
        <time>2022-07-10T12:23:10.000Z</time>
      </trkpt>
      <trkpt lat="44.15721" lon="6.8148">
        <ele>2067.4</ele>
        <time>2022-07-10T12:23:18.000Z</time>
      </trkpt>
      <trkpt lat="44.1572" lon="6.81477">
        <ele>2067.2</ele>
        <time>2022-07-10T12:23:20.000Z</time>
      </trkpt>
      <trkpt lat="44.15719" lon="6.81476">
        <ele>2067</ele>
        <time>2022-07-10T12:23:21.000Z</time>
      </trkpt>
      <trkpt lat="44.15714" lon="6.8147">
        <ele>2065.8</ele>
        <time>2022-07-10T12:23:25.000Z</time>
      </trkpt>
      <trkpt lat="44.15711" lon="6.81467">
        <ele>2064.8</ele>
        <time>2022-07-10T12:23:29.000Z</time>
      </trkpt>
      <trkpt lat="44.15709" lon="6.81466">
        <ele>2064.2</ele>
        <time>2022-07-10T12:23:31.000Z</time>
      </trkpt>
      <trkpt lat="44.15707" lon="6.81466">
        <ele>2063.6</ele>
        <time>2022-07-10T12:23:35.000Z</time>
      </trkpt>
      <trkpt lat="44.15703" lon="6.81463">
        <ele>2063</ele>
        <time>2022-07-10T12:23:40.000Z</time>
      </trkpt>
      <trkpt lat="44.15702" lon="6.81461">
        <ele>2062.8</ele>
        <time>2022-07-10T12:23:42.000Z</time>
      </trkpt>
      <trkpt lat="44.15702" lon="6.8146">
        <ele>2062.6</ele>
        <time>2022-07-10T12:23:43.000Z</time>
      </trkpt>
      <trkpt lat="44.15702" lon="6.8146">
        <ele>2062.6</ele>
        <time>2022-07-10T12:23:44.000Z</time>
      </trkpt>
      <trkpt lat="44.15702" lon="6.8146">
        <ele>2062.4</ele>
        <time>2022-07-10T12:23:55.000Z</time>
      </trkpt>
      <trkpt lat="44.15702" lon="6.81461">
        <ele>2062.4</ele>
        <time>2022-07-10T12:24:11.000Z</time>
      </trkpt>
      <trkpt lat="44.15701" lon="6.81459">
        <ele>2061.6</ele>
        <time>2022-07-10T12:24:26.000Z</time>
      </trkpt>
      <trkpt lat="44.157" lon="6.8146">
        <ele>2061.4</ele>
        <time>2022-07-10T12:24:27.000Z</time>
      </trkpt>
      <trkpt lat="44.157" lon="6.8146">
        <ele>2061.2</ele>
        <time>2022-07-10T12:24:30.000Z</time>
      </trkpt>
      <trkpt lat="44.15697" lon="6.81459">
        <ele>2060.4</ele>
        <time>2022-07-10T12:24:41.000Z</time>
      </trkpt>
      <trkpt lat="44.15695" lon="6.81458">
        <ele>2059.4</ele>
        <time>2022-07-10T12:24:43.000Z</time>
      </trkpt>
      <trkpt lat="44.15695" lon="6.81458">
        <ele>2059</ele>
        <time>2022-07-10T12:24:44.000Z</time>
      </trkpt>
      <trkpt lat="44.15692" lon="6.81457">
        <ele>2058</ele>
        <time>2022-07-10T12:24:48.000Z</time>
      </trkpt>
      <trkpt lat="44.15689" lon="6.81456">
        <ele>2057</ele>
        <time>2022-07-10T12:24:51.000Z</time>
      </trkpt>
      <trkpt lat="44.15689" lon="6.81456">
        <ele>2056.6</ele>
        <time>2022-07-10T12:24:52.000Z</time>
      </trkpt>
      <trkpt lat="44.15688" lon="6.81455">
        <ele>2055.8</ele>
        <time>2022-07-10T12:24:54.000Z</time>
      </trkpt>
      <trkpt lat="44.15686" lon="6.81453">
        <ele>2054.8</ele>
        <time>2022-07-10T12:24:58.000Z</time>
      </trkpt>
      <trkpt lat="44.15684" lon="6.81451">
        <ele>2053.8</ele>
        <time>2022-07-10T12:25:02.000Z</time>
      </trkpt>
      <trkpt lat="44.15681" lon="6.8145">
        <ele>2053</ele>
        <time>2022-07-10T12:25:06.000Z</time>
      </trkpt>
      <trkpt lat="44.1568" lon="6.81449">
        <ele>2052.6</ele>
        <time>2022-07-10T12:25:07.000Z</time>
      </trkpt>
      <trkpt lat="44.15674" lon="6.81445">
        <ele>2051.2</ele>
        <time>2022-07-10T12:25:12.000Z</time>
      </trkpt>
      <trkpt lat="44.15671" lon="6.81441">
        <ele>2049.8</ele>
        <time>2022-07-10T12:25:16.000Z</time>
      </trkpt>
      <trkpt lat="44.1567" lon="6.8144">
        <ele>2048.4</ele>
        <time>2022-07-10T12:25:18.000Z</time>
      </trkpt>
      <trkpt lat="44.15667" lon="6.81438">
        <ele>2047.4</ele>
        <time>2022-07-10T12:25:21.000Z</time>
      </trkpt>
      <trkpt lat="44.15667" lon="6.81438">
        <ele>2047.2</ele>
        <time>2022-07-10T12:25:22.000Z</time>
      </trkpt>
      <trkpt lat="44.15664" lon="6.81436">
        <ele>2047</ele>
        <time>2022-07-10T12:25:33.000Z</time>
      </trkpt>
      <trkpt lat="44.15662" lon="6.81433">
        <ele>2046.4</ele>
        <time>2022-07-10T12:25:36.000Z</time>
      </trkpt>
      <trkpt lat="44.15659" lon="6.81431">
        <ele>2044.8</ele>
        <time>2022-07-10T12:25:40.000Z</time>
      </trkpt>
      <trkpt lat="44.15655" lon="6.81425">
        <ele>2043.4</ele>
        <time>2022-07-10T12:25:47.000Z</time>
      </trkpt>
      <trkpt lat="44.15654" lon="6.81425">
        <ele>2042.2</ele>
        <time>2022-07-10T12:25:49.000Z</time>
      </trkpt>
      <trkpt lat="44.15652" lon="6.81423">
        <ele>2041.2</ele>
        <time>2022-07-10T12:25:52.000Z</time>
      </trkpt>
      <trkpt lat="44.15651" lon="6.81422">
        <ele>2039.8</ele>
        <time>2022-07-10T12:25:55.000Z</time>
      </trkpt>
      <trkpt lat="44.15651" lon="6.81423">
        <ele>2038.6</ele>
        <time>2022-07-10T12:25:58.000Z</time>
      </trkpt>
      <trkpt lat="44.15651" lon="6.81423">
        <ele>2037.6</ele>
        <time>2022-07-10T12:26:00.000Z</time>
      </trkpt>
      <trkpt lat="44.15647" lon="6.8142">
        <ele>2036.8</ele>
        <time>2022-07-10T12:26:07.000Z</time>
      </trkpt>
      <trkpt lat="44.15646" lon="6.81419">
        <ele>2036.2</ele>
        <time>2022-07-10T12:26:08.000Z</time>
      </trkpt>
      <trkpt lat="44.15641" lon="6.81415">
        <ele>2035</ele>
        <time>2022-07-10T12:26:14.000Z</time>
      </trkpt>
      <trkpt lat="44.15642" lon="6.81413">
        <ele>2034.4</ele>
        <time>2022-07-10T12:26:17.000Z</time>
      </trkpt>
      <trkpt lat="44.15642" lon="6.81413">
        <ele>2034</ele>
        <time>2022-07-10T12:26:18.000Z</time>
      </trkpt>
      <trkpt lat="44.15642" lon="6.81413">
        <ele>2033.4</ele>
        <time>2022-07-10T12:26:21.000Z</time>
      </trkpt>
      <trkpt lat="44.15645" lon="6.81403">
        <ele>2032.8</ele>
        <time>2022-07-10T12:26:40.000Z</time>
      </trkpt>
      <trkpt lat="44.15646" lon="6.814">
        <ele>2031.8</ele>
        <time>2022-07-10T12:26:42.000Z</time>
      </trkpt>
      <trkpt lat="44.15646" lon="6.81395">
        <ele>2030.6</ele>
        <time>2022-07-10T12:26:44.000Z</time>
      </trkpt>
      <trkpt lat="44.15647" lon="6.81388">
        <ele>2029.6</ele>
        <time>2022-07-10T12:26:46.000Z</time>
      </trkpt>
      <trkpt lat="44.15647" lon="6.81381">
        <ele>2028</ele>
        <time>2022-07-10T12:26:48.000Z</time>
      </trkpt>
      <trkpt lat="44.15647" lon="6.81374">
        <ele>2026.6</ele>
        <time>2022-07-10T12:26:50.000Z</time>
      </trkpt>
      <trkpt lat="44.15646" lon="6.81364">
        <ele>2025.6</ele>
        <time>2022-07-10T12:26:53.000Z</time>
      </trkpt>
      <trkpt lat="44.15643" lon="6.81355">
        <ele>2024.2</ele>
        <time>2022-07-10T12:26:56.000Z</time>
      </trkpt>
      <trkpt lat="44.15642" lon="6.81347">
        <ele>2022.6</ele>
        <time>2022-07-10T12:26:59.000Z</time>
      </trkpt>
      <trkpt lat="44.15641" lon="6.8134">
        <ele>2021</ele>
        <time>2022-07-10T12:27:01.000Z</time>
      </trkpt>
      <trkpt lat="44.15642" lon="6.8133">
        <ele>2018.6</ele>
        <time>2022-07-10T12:27:03.000Z</time>
      </trkpt>
      <trkpt lat="44.15642" lon="6.81325">
        <ele>2016.8</ele>
        <time>2022-07-10T12:27:04.000Z</time>
      </trkpt>
      <trkpt lat="44.15642" lon="6.81319">
        <ele>2015.2</ele>
        <time>2022-07-10T12:27:05.000Z</time>
      </trkpt>
      <trkpt lat="44.15642" lon="6.81309">
        <ele>2013.8</ele>
        <time>2022-07-10T12:27:07.000Z</time>
      </trkpt>
      <trkpt lat="44.1564" lon="6.81292">
        <ele>2012.2</ele>
        <time>2022-07-10T12:27:10.000Z</time>
      </trkpt>
      <trkpt lat="44.1564" lon="6.81287">
        <ele>2010.8</ele>
        <time>2022-07-10T12:27:11.000Z</time>
      </trkpt>
      <trkpt lat="44.15639" lon="6.81282">
        <ele>2009.2</ele>
        <time>2022-07-10T12:27:12.000Z</time>
      </trkpt>
      <trkpt lat="44.15638" lon="6.81278">
        <ele>2008</ele>
        <time>2022-07-10T12:27:13.000Z</time>
      </trkpt>
      <trkpt lat="44.15637" lon="6.81273">
        <ele>2006.4</ele>
        <time>2022-07-10T12:27:15.000Z</time>
      </trkpt>
      <trkpt lat="44.15637" lon="6.81272">
        <ele>2005.8</ele>
        <time>2022-07-10T12:27:16.000Z</time>
      </trkpt>
      <trkpt lat="44.15636" lon="6.81272">
        <ele>2005.2</ele>
        <time>2022-07-10T12:27:17.000Z</time>
      </trkpt>
      <trkpt lat="44.15634" lon="6.81271">
        <ele>2004.8</ele>
        <time>2022-07-10T12:27:21.000Z</time>
      </trkpt>
      <trkpt lat="44.15634" lon="6.8127">
        <ele>2004.8</ele>
        <time>2022-07-10T12:27:23.000Z</time>
      </trkpt>
      <trkpt lat="44.15634" lon="6.81273">
        <ele>2004.2</ele>
        <time>2022-07-10T12:27:27.000Z</time>
      </trkpt>
      <trkpt lat="44.15634" lon="6.81277">
        <ele>2003.8</ele>
        <time>2022-07-10T12:27:30.000Z</time>
      </trkpt>
      <trkpt lat="44.15634" lon="6.81285">
        <ele>2005.2</ele>
        <time>2022-07-10T12:27:35.000Z</time>
      </trkpt>
      <trkpt lat="44.15635" lon="6.81288">
        <ele>2006.4</ele>
        <time>2022-07-10T12:27:37.000Z</time>
      </trkpt>
      <trkpt lat="44.15635" lon="6.81291">
        <ele>2007.6</ele>
        <time>2022-07-10T12:27:39.000Z</time>
      </trkpt>
      <trkpt lat="44.15635" lon="6.81292">
        <ele>2008.4</ele>
        <time>2022-07-10T12:27:41.000Z</time>
      </trkpt>
      <trkpt lat="44.15635" lon="6.81292">
        <ele>2008.6</ele>
        <time>2022-07-10T12:27:42.000Z</time>
      </trkpt>
      <trkpt lat="44.15636" lon="6.81292">
        <ele>2008.8</ele>
        <time>2022-07-10T12:27:43.000Z</time>
      </trkpt>
      <trkpt lat="44.15636" lon="6.81292">
        <ele>2010</ele>
        <time>2022-07-10T12:27:47.000Z</time>
      </trkpt>
      <trkpt lat="44.15636" lon="6.81293">
        <ele>2010.8</ele>
        <time>2022-07-10T12:27:55.000Z</time>
      </trkpt>
      <trkpt lat="44.15636" lon="6.81293">
        <ele>2011</ele>
        <time>2022-07-10T12:27:56.000Z</time>
      </trkpt>
      <trkpt lat="44.15636" lon="6.81293">
        <ele>2010.6</ele>
        <time>2022-07-10T12:28:00.000Z</time>
      </trkpt>
      <trkpt lat="44.15636" lon="6.81293">
        <ele>2011.4</ele>
        <time>2022-07-10T12:28:12.000Z</time>
      </trkpt>
      <trkpt lat="44.15636" lon="6.81293">
        <ele>2011.6</ele>
        <time>2022-07-10T12:28:15.000Z</time>
      </trkpt>
      <trkpt lat="44.15636" lon="6.81293">
        <ele>2011.4</ele>
        <time>2022-07-10T12:28:18.000Z</time>
      </trkpt>
      <trkpt lat="44.15636" lon="6.81287">
        <ele>2010.2</ele>
        <time>2022-07-10T12:28:23.000Z</time>
      </trkpt>
      <trkpt lat="44.15636" lon="6.81285">
        <ele>2009.8</ele>
        <time>2022-07-10T12:28:24.000Z</time>
      </trkpt>
      <trkpt lat="44.15636" lon="6.8128">
        <ele>2008.4</ele>
        <time>2022-07-10T12:28:26.000Z</time>
      </trkpt>
      <trkpt lat="44.15635" lon="6.81277">
        <ele>2006.8</ele>
        <time>2022-07-10T12:28:28.000Z</time>
      </trkpt>
      <trkpt lat="44.15634" lon="6.81274">
        <ele>2005.4</ele>
        <time>2022-07-10T12:28:30.000Z</time>
      </trkpt>
      <trkpt lat="44.15634" lon="6.8127">
        <ele>2004.4</ele>
        <time>2022-07-10T12:28:35.000Z</time>
      </trkpt>
      <trkpt lat="44.15635" lon="6.81266">
        <ele>2004.2</ele>
        <time>2022-07-10T12:28:38.000Z</time>
      </trkpt>
      <trkpt lat="44.15637" lon="6.81258">
        <ele>2003.2</ele>
        <time>2022-07-10T12:28:40.000Z</time>
      </trkpt>
      <trkpt lat="44.15638" lon="6.81246">
        <ele>2001.8</ele>
        <time>2022-07-10T12:28:42.000Z</time>
      </trkpt>
      <trkpt lat="44.15639" lon="6.81239">
        <ele>2000.8</ele>
        <time>2022-07-10T12:28:43.000Z</time>
      </trkpt>
      <trkpt lat="44.1564" lon="6.81231">
        <ele>1999.4</ele>
        <time>2022-07-10T12:28:44.000Z</time>
      </trkpt>
      <trkpt lat="44.1564" lon="6.81223">
        <ele>1998.2</ele>
        <time>2022-07-10T12:28:45.000Z</time>
      </trkpt>
      <trkpt lat="44.15638" lon="6.8121">
        <ele>1997</ele>
        <time>2022-07-10T12:28:47.000Z</time>
      </trkpt>
      <trkpt lat="44.15637" lon="6.81197">
        <ele>1996</ele>
        <time>2022-07-10T12:28:50.000Z</time>
      </trkpt>
      <trkpt lat="44.15636" lon="6.81188">
        <ele>1994.8</ele>
        <time>2022-07-10T12:28:52.000Z</time>
      </trkpt>
      <trkpt lat="44.15634" lon="6.81181">
        <ele>1993.4</ele>
        <time>2022-07-10T12:28:54.000Z</time>
      </trkpt>
      <trkpt lat="44.15631" lon="6.81172">
        <ele>1992.4</ele>
        <time>2022-07-10T12:28:57.000Z</time>
      </trkpt>
      <trkpt lat="44.1563" lon="6.81167">
        <ele>1990.8</ele>
        <time>2022-07-10T12:28:59.000Z</time>
      </trkpt>
      <trkpt lat="44.15629" lon="6.81164">
        <ele>1989.6</ele>
        <time>2022-07-10T12:29:00.000Z</time>
      </trkpt>
      <trkpt lat="44.15628" lon="6.81161">
        <ele>1988.4</ele>
        <time>2022-07-10T12:29:01.000Z</time>
      </trkpt>
      <trkpt lat="44.15627" lon="6.81159">
        <ele>1987.4</ele>
        <time>2022-07-10T12:29:02.000Z</time>
      </trkpt>
      <trkpt lat="44.15625" lon="6.81153">
        <ele>1985.6</ele>
        <time>2022-07-10T12:29:04.000Z</time>
      </trkpt>
      <trkpt lat="44.15624" lon="6.81147">
        <ele>1983.6</ele>
        <time>2022-07-10T12:29:06.000Z</time>
      </trkpt>
      <trkpt lat="44.15624" lon="6.81143">
        <ele>1982.2</ele>
        <time>2022-07-10T12:29:07.000Z</time>
      </trkpt>
      <trkpt lat="44.15623" lon="6.8114">
        <ele>1980.8</ele>
        <time>2022-07-10T12:29:08.000Z</time>
      </trkpt>
      <trkpt lat="44.15623" lon="6.81136">
        <ele>1979.6</ele>
        <time>2022-07-10T12:29:09.000Z</time>
      </trkpt>
      <trkpt lat="44.15622" lon="6.81133">
        <ele>1978.6</ele>
        <time>2022-07-10T12:29:10.000Z</time>
      </trkpt>
      <trkpt lat="44.15622" lon="6.8113">
        <ele>1977.4</ele>
        <time>2022-07-10T12:29:11.000Z</time>
      </trkpt>
      <trkpt lat="44.15621" lon="6.81126">
        <ele>1976.2</ele>
        <time>2022-07-10T12:29:12.000Z</time>
      </trkpt>
      <trkpt lat="44.1562" lon="6.81123">
        <ele>1975</ele>
        <time>2022-07-10T12:29:13.000Z</time>
      </trkpt>
      <trkpt lat="44.15619" lon="6.81115">
        <ele>1972.8</ele>
        <time>2022-07-10T12:29:15.000Z</time>
      </trkpt>
      <trkpt lat="44.15619" lon="6.81111">
        <ele>1971.6</ele>
        <time>2022-07-10T12:29:16.000Z</time>
      </trkpt>
      <trkpt lat="44.15618" lon="6.81105">
        <ele>1970</ele>
        <time>2022-07-10T12:29:17.000Z</time>
      </trkpt>
      <trkpt lat="44.15617" lon="6.81097">
        <ele>1968</ele>
        <time>2022-07-10T12:29:18.000Z</time>
      </trkpt>
      <trkpt lat="44.15616" lon="6.81088">
        <ele>1966</ele>
        <time>2022-07-10T12:29:19.000Z</time>
      </trkpt>
      <trkpt lat="44.15614" lon="6.81081">
        <ele>1964.8</ele>
        <time>2022-07-10T12:29:20.000Z</time>
      </trkpt>
      <trkpt lat="44.1561" lon="6.81066">
        <ele>1964.6</ele>
        <time>2022-07-10T12:29:24.000Z</time>
      </trkpt>
      <trkpt lat="44.15605" lon="6.81057">
        <ele>1965.4</ele>
        <time>2022-07-10T12:29:29.000Z</time>
      </trkpt>
      <trkpt lat="44.15606" lon="6.8106">
        <ele>1965</ele>
        <time>2022-07-10T12:29:37.000Z</time>
      </trkpt>
      <trkpt lat="44.15608" lon="6.81062">
        <ele>1964.6</ele>
        <time>2022-07-10T12:29:39.000Z</time>
      </trkpt>
      <trkpt lat="44.15608" lon="6.81066">
        <ele>1964.2</ele>
        <time>2022-07-10T12:29:47.000Z</time>
      </trkpt>
      <trkpt lat="44.15607" lon="6.81058">
        <ele>1964.2</ele>
        <time>2022-07-10T12:29:52.000Z</time>
      </trkpt>
      <trkpt lat="44.15605" lon="6.81056">
        <ele>1964.8</ele>
        <time>2022-07-10T12:30:06.000Z</time>
      </trkpt>
      <trkpt lat="44.15605" lon="6.81049">
        <ele>1964.8</ele>
        <time>2022-07-10T12:30:08.000Z</time>
      </trkpt>
      <trkpt lat="44.15602" lon="6.81033">
        <ele>1963.8</ele>
        <time>2022-07-10T12:30:13.000Z</time>
      </trkpt>
      <trkpt lat="44.15595" lon="6.8101">
        <ele>1962.8</ele>
        <time>2022-07-10T12:30:17.000Z</time>
      </trkpt>
      <trkpt lat="44.15593" lon="6.81001">
        <ele>1963.6</ele>
        <time>2022-07-10T12:30:22.000Z</time>
      </trkpt>
      <trkpt lat="44.15591" lon="6.80987">
        <ele>1963.2</ele>
        <time>2022-07-10T12:30:34.000Z</time>
      </trkpt>
      <trkpt lat="44.15591" lon="6.80969">
        <ele>1961.8</ele>
        <time>2022-07-10T12:30:38.000Z</time>
      </trkpt>
      <trkpt lat="44.1559" lon="6.80958">
        <ele>1960.4</ele>
        <time>2022-07-10T12:30:40.000Z</time>
      </trkpt>
      <trkpt lat="44.15589" lon="6.80945">
        <ele>1958</ele>
        <time>2022-07-10T12:30:42.000Z</time>
      </trkpt>
      <trkpt lat="44.15588" lon="6.80938">
        <ele>1956.6</ele>
        <time>2022-07-10T12:30:43.000Z</time>
      </trkpt>
      <trkpt lat="44.15587" lon="6.80932">
        <ele>1955</ele>
        <time>2022-07-10T12:30:44.000Z</time>
      </trkpt>
      <trkpt lat="44.15586" lon="6.80926">
        <ele>1954</ele>
        <time>2022-07-10T12:30:45.000Z</time>
      </trkpt>
      <trkpt lat="44.15585" lon="6.8092">
        <ele>1953</ele>
        <time>2022-07-10T12:30:46.000Z</time>
      </trkpt>
      <trkpt lat="44.15581" lon="6.80909">
        <ele>1950.8</ele>
        <time>2022-07-10T12:30:48.000Z</time>
      </trkpt>
      <trkpt lat="44.15577" lon="6.80904">
        <ele>1949.8</ele>
        <time>2022-07-10T12:30:49.000Z</time>
      </trkpt>
      <trkpt lat="44.15574" lon="6.80899">
        <ele>1948.4</ele>
        <time>2022-07-10T12:30:50.000Z</time>
      </trkpt>
      <trkpt lat="44.15572" lon="6.80893">
        <ele>1947</ele>
        <time>2022-07-10T12:30:51.000Z</time>
      </trkpt>
      <trkpt lat="44.1557" lon="6.80889">
        <ele>1945.8</ele>
        <time>2022-07-10T12:30:52.000Z</time>
      </trkpt>
      <trkpt lat="44.15568" lon="6.80883">
        <ele>1944.2</ele>
        <time>2022-07-10T12:30:54.000Z</time>
      </trkpt>
      <trkpt lat="44.15565" lon="6.80871">
        <ele>1942.6</ele>
        <time>2022-07-10T12:30:56.000Z</time>
      </trkpt>
      <trkpt lat="44.15558" lon="6.80852">
        <ele>1939.4</ele>
        <time>2022-07-10T12:30:58.000Z</time>
      </trkpt>
      <trkpt lat="44.15554" lon="6.80843">
        <ele>1937.2</ele>
        <time>2022-07-10T12:30:59.000Z</time>
      </trkpt>
      <trkpt lat="44.15549" lon="6.80835">
        <ele>1935.6</ele>
        <time>2022-07-10T12:31:00.000Z</time>
      </trkpt>
      <trkpt lat="44.15547" lon="6.80827">
        <ele>1934.8</ele>
        <time>2022-07-10T12:31:01.000Z</time>
      </trkpt>
      <trkpt lat="44.15546" lon="6.80821">
        <ele>1934.2</ele>
        <time>2022-07-10T12:31:02.000Z</time>
      </trkpt>
      <trkpt lat="44.15545" lon="6.80816">
        <ele>1934.8</ele>
        <time>2022-07-10T12:31:03.000Z</time>
      </trkpt>
      <trkpt lat="44.15542" lon="6.8081">
        <ele>1935.6</ele>
        <time>2022-07-10T12:31:05.000Z</time>
      </trkpt>
      <trkpt lat="44.15539" lon="6.80806">
        <ele>1936.2</ele>
        <time>2022-07-10T12:31:08.000Z</time>
      </trkpt>
      <trkpt lat="44.15538" lon="6.80806">
        <ele>1936.8</ele>
        <time>2022-07-10T12:31:09.000Z</time>
      </trkpt>
      <trkpt lat="44.15539" lon="6.8081">
        <ele>1937.8</ele>
        <time>2022-07-10T12:31:14.000Z</time>
      </trkpt>
      <trkpt lat="44.1554" lon="6.80811">
        <ele>1937.6</ele>
        <time>2022-07-10T12:31:18.000Z</time>
      </trkpt>
      <trkpt lat="44.15541" lon="6.80814">
        <ele>1937.4</ele>
        <time>2022-07-10T12:31:20.000Z</time>
      </trkpt>
      <trkpt lat="44.15543" lon="6.80818">
        <ele>1937</ele>
        <time>2022-07-10T12:31:22.000Z</time>
      </trkpt>
      <trkpt lat="44.15544" lon="6.80821">
        <ele>1936.8</ele>
        <time>2022-07-10T12:31:23.000Z</time>
      </trkpt>
      <trkpt lat="44.15544" lon="6.80832">
        <ele>1936.6</ele>
        <time>2022-07-10T12:31:31.000Z</time>
      </trkpt>
      <trkpt lat="44.15544" lon="6.80832">
        <ele>1935.6</ele>
        <time>2022-07-10T12:31:50.000Z</time>
      </trkpt>
      <trkpt lat="44.15545" lon="6.80828">
        <ele>1934.8</ele>
        <time>2022-07-10T12:31:57.000Z</time>
      </trkpt>
      <trkpt lat="44.15544" lon="6.8082">
        <ele>1934.6</ele>
        <time>2022-07-10T12:32:02.000Z</time>
      </trkpt>
      <trkpt lat="44.15543" lon="6.80816">
        <ele>1935.2</ele>
        <time>2022-07-10T12:32:05.000Z</time>
      </trkpt>
      <trkpt lat="44.1554" lon="6.8081">
        <ele>1936.8</ele>
        <time>2022-07-10T12:32:14.000Z</time>
      </trkpt>
      <trkpt lat="44.1554" lon="6.8081">
        <ele>1936.6</ele>
        <time>2022-07-10T12:32:18.000Z</time>
      </trkpt>
      <trkpt lat="44.15541" lon="6.80806">
        <ele>1936.2</ele>
        <time>2022-07-10T12:32:21.000Z</time>
      </trkpt>
      <trkpt lat="44.15541" lon="6.80799">
        <ele>1935.4</ele>
        <time>2022-07-10T12:32:24.000Z</time>
      </trkpt>
      <trkpt lat="44.1554" lon="6.80795">
        <ele>1934.2</ele>
        <time>2022-07-10T12:32:26.000Z</time>
      </trkpt>
      <trkpt lat="44.15538" lon="6.80788">
        <ele>1932.8</ele>
        <time>2022-07-10T12:32:29.000Z</time>
      </trkpt>
      <trkpt lat="44.15535" lon="6.80783">
        <ele>1930.6</ele>
        <time>2022-07-10T12:32:31.000Z</time>
      </trkpt>
      <trkpt lat="44.15534" lon="6.80781">
        <ele>1929.2</ele>
        <time>2022-07-10T12:32:32.000Z</time>
      </trkpt>
      <trkpt lat="44.15532" lon="6.80776">
        <ele>1927.6</ele>
        <time>2022-07-10T12:32:34.000Z</time>
      </trkpt>
      <trkpt lat="44.15526" lon="6.80765">
        <ele>1925.8</ele>
        <time>2022-07-10T12:32:36.000Z</time>
      </trkpt>
      <trkpt lat="44.15522" lon="6.80756">
        <ele>1924.8</ele>
        <time>2022-07-10T12:32:37.000Z</time>
      </trkpt>
      <trkpt lat="44.15518" lon="6.80747">
        <ele>1923.8</ele>
        <time>2022-07-10T12:32:38.000Z</time>
      </trkpt>
      <trkpt lat="44.15515" lon="6.80739">
        <ele>1923</ele>
        <time>2022-07-10T12:32:41.000Z</time>
      </trkpt>
      <trkpt lat="44.15515" lon="6.80738">
        <ele>1923.4</ele>
        <time>2022-07-10T12:32:43.000Z</time>
      </trkpt>
      <trkpt lat="44.15514" lon="6.80737">
        <ele>1923.8</ele>
        <time>2022-07-10T12:32:45.000Z</time>
      </trkpt>
      <trkpt lat="44.15513" lon="6.80735">
        <ele>1924</ele>
        <time>2022-07-10T12:32:48.000Z</time>
      </trkpt>
      <trkpt lat="44.15512" lon="6.80735">
        <ele>1924.8</ele>
        <time>2022-07-10T12:32:52.000Z</time>
      </trkpt>
      <trkpt lat="44.15513" lon="6.80733">
        <ele>1926</ele>
        <time>2022-07-10T12:33:14.000Z</time>
      </trkpt>
      <trkpt lat="44.15513" lon="6.80731">
        <ele>1926.8</ele>
        <time>2022-07-10T12:33:22.000Z</time>
      </trkpt>
      <trkpt lat="44.1551" lon="6.80722">
        <ele>1926.4</ele>
        <time>2022-07-10T12:33:24.000Z</time>
      </trkpt>
      <trkpt lat="44.15507" lon="6.80715">
        <ele>1925</ele>
        <time>2022-07-10T12:33:25.000Z</time>
      </trkpt>
      <trkpt lat="44.15504" lon="6.80706">
        <ele>1923</ele>
        <time>2022-07-10T12:33:26.000Z</time>
      </trkpt>
      <trkpt lat="44.15502" lon="6.80696">
        <ele>1921.2</ele>
        <time>2022-07-10T12:33:27.000Z</time>
      </trkpt>
      <trkpt lat="44.15499" lon="6.80686">
        <ele>1920</ele>
        <time>2022-07-10T12:33:28.000Z</time>
      </trkpt>
      <trkpt lat="44.15497" lon="6.80677">
        <ele>1919</ele>
        <time>2022-07-10T12:33:29.000Z</time>
      </trkpt>
      <trkpt lat="44.15493" lon="6.80671">
        <ele>1918.2</ele>
        <time>2022-07-10T12:33:30.000Z</time>
      </trkpt>
      <trkpt lat="44.15489" lon="6.80666">
        <ele>1917.6</ele>
        <time>2022-07-10T12:33:31.000Z</time>
      </trkpt>
      <trkpt lat="44.15485" lon="6.80659">
        <ele>1917</ele>
        <time>2022-07-10T12:33:32.000Z</time>
      </trkpt>
      <trkpt lat="44.1548" lon="6.80653">
        <ele>1916.2</ele>
        <time>2022-07-10T12:33:33.000Z</time>
      </trkpt>
      <trkpt lat="44.15474" lon="6.80648">
        <ele>1915.6</ele>
        <time>2022-07-10T12:33:34.000Z</time>
      </trkpt>
      <trkpt lat="44.1547" lon="6.80644">
        <ele>1915.2</ele>
        <time>2022-07-10T12:33:35.000Z</time>
      </trkpt>
      <trkpt lat="44.15468" lon="6.80639">
        <ele>1914.6</ele>
        <time>2022-07-10T12:33:36.000Z</time>
      </trkpt>
      <trkpt lat="44.15466" lon="6.80633">
        <ele>1914</ele>
        <time>2022-07-10T12:33:37.000Z</time>
      </trkpt>
      <trkpt lat="44.1546" lon="6.8062">
        <ele>1913.6</ele>
        <time>2022-07-10T12:33:39.000Z</time>
      </trkpt>
      <trkpt lat="44.15451" lon="6.80601">
        <ele>1912.8</ele>
        <time>2022-07-10T12:33:42.000Z</time>
      </trkpt>
      <trkpt lat="44.15447" lon="6.80592">
        <ele>1912.4</ele>
        <time>2022-07-10T12:33:44.000Z</time>
      </trkpt>
      <trkpt lat="44.15436" lon="6.80588">
        <ele>1910.6</ele>
        <time>2022-07-10T12:33:47.000Z</time>
      </trkpt>
      <trkpt lat="44.15427" lon="6.80587">
        <ele>1908.6</ele>
        <time>2022-07-10T12:33:49.000Z</time>
      </trkpt>
      <trkpt lat="44.15418" lon="6.80584">
        <ele>1907.4</ele>
        <time>2022-07-10T12:33:51.000Z</time>
      </trkpt>
      <trkpt lat="44.15403" lon="6.80579">
        <ele>1906.6</ele>
        <time>2022-07-10T12:33:55.000Z</time>
      </trkpt>
      <trkpt lat="44.15396" lon="6.80575">
        <ele>1906.2</ele>
        <time>2022-07-10T12:33:57.000Z</time>
      </trkpt>
      <trkpt lat="44.15388" lon="6.80569">
        <ele>1906</ele>
        <time>2022-07-10T12:33:59.000Z</time>
      </trkpt>
      <trkpt lat="44.15369" lon="6.80548">
        <ele>1905.4</ele>
        <time>2022-07-10T12:34:05.000Z</time>
      </trkpt>
      <trkpt lat="44.15366" lon="6.80544">
        <ele>1905</ele>
        <time>2022-07-10T12:34:06.000Z</time>
      </trkpt>
      <trkpt lat="44.15358" lon="6.80534">
        <ele>1903.8</ele>
        <time>2022-07-10T12:34:08.000Z</time>
      </trkpt>
      <trkpt lat="44.15345" lon="6.80524">
        <ele>1902.6</ele>
        <time>2022-07-10T12:34:11.000Z</time>
      </trkpt>
      <trkpt lat="44.15325" lon="6.80513">
        <ele>1901.6</ele>
        <time>2022-07-10T12:34:16.000Z</time>
      </trkpt>
      <trkpt lat="44.15309" lon="6.80506">
        <ele>1900.2</ele>
        <time>2022-07-10T12:34:20.000Z</time>
      </trkpt>
      <trkpt lat="44.15304" lon="6.80505">
        <ele>1899.6</ele>
        <time>2022-07-10T12:34:21.000Z</time>
      </trkpt>
      <trkpt lat="44.153" lon="6.80504">
        <ele>1899.2</ele>
        <time>2022-07-10T12:34:22.000Z</time>
      </trkpt>
      <trkpt lat="44.15286" lon="6.80504">
        <ele>1898.2</ele>
        <time>2022-07-10T12:34:26.000Z</time>
      </trkpt>
      <trkpt lat="44.1528" lon="6.80504">
        <ele>1898.2</ele>
        <time>2022-07-10T12:34:30.000Z</time>
      </trkpt>
      <trkpt lat="44.15278" lon="6.80508">
        <ele>1897.6</ele>
        <time>2022-07-10T12:34:38.000Z</time>
      </trkpt>
      <trkpt lat="44.15277" lon="6.80508">
        <ele>1897.8</ele>
        <time>2022-07-10T12:34:41.000Z</time>
      </trkpt>
      <trkpt lat="44.15276" lon="6.80512">
        <ele>1898.6</ele>
        <time>2022-07-10T12:34:48.000Z</time>
      </trkpt>
      <trkpt lat="44.1527" lon="6.80518">
        <ele>1897.8</ele>
        <time>2022-07-10T12:34:52.000Z</time>
      </trkpt>
      <trkpt lat="44.15263" lon="6.80523">
        <ele>1896.8</ele>
        <time>2022-07-10T12:34:54.000Z</time>
      </trkpt>
      <trkpt lat="44.15252" lon="6.8053">
        <ele>1895.6</ele>
        <time>2022-07-10T12:34:57.000Z</time>
      </trkpt>
      <trkpt lat="44.15235" lon="6.80539">
        <ele>1895.8</ele>
        <time>2022-07-10T12:35:03.000Z</time>
      </trkpt>
      <trkpt lat="44.15222" lon="6.80542">
        <ele>1894.8</ele>
        <time>2022-07-10T12:35:07.000Z</time>
      </trkpt>
      <trkpt lat="44.15219" lon="6.80542">
        <ele>1894.2</ele>
        <time>2022-07-10T12:35:08.000Z</time>
      </trkpt>
      <trkpt lat="44.1521" lon="6.80543">
        <ele>1893.2</ele>
        <time>2022-07-10T12:35:10.000Z</time>
      </trkpt>
      <trkpt lat="44.152" lon="6.80543">
        <ele>1892</ele>
        <time>2022-07-10T12:35:12.000Z</time>
      </trkpt>
      <trkpt lat="44.1519" lon="6.80543">
        <ele>1890.8</ele>
        <time>2022-07-10T12:35:14.000Z</time>
      </trkpt>
      <trkpt lat="44.1518" lon="6.80542">
        <ele>1889.8</ele>
        <time>2022-07-10T12:35:16.000Z</time>
      </trkpt>
      <trkpt lat="44.1517" lon="6.80538">
        <ele>1888.6</ele>
        <time>2022-07-10T12:35:18.000Z</time>
      </trkpt>
      <trkpt lat="44.15161" lon="6.80538">
        <ele>1888.4</ele>
        <time>2022-07-10T12:35:20.000Z</time>
      </trkpt>
      <trkpt lat="44.15151" lon="6.80538">
        <ele>1889.6</ele>
        <time>2022-07-10T12:35:25.000Z</time>
      </trkpt>
      <trkpt lat="44.15138" lon="6.80539">
        <ele>1890.8</ele>
        <time>2022-07-10T12:35:31.000Z</time>
      </trkpt>
      <trkpt lat="44.15133" lon="6.80539">
        <ele>1891.8</ele>
        <time>2022-07-10T12:35:35.000Z</time>
      </trkpt>
      <trkpt lat="44.15129" lon="6.80538">
        <ele>1892.4</ele>
        <time>2022-07-10T12:35:39.000Z</time>
      </trkpt>
      <trkpt lat="44.15125" lon="6.80537">
        <ele>1892.6</ele>
        <time>2022-07-10T12:35:43.000Z</time>
      </trkpt>
      <trkpt lat="44.1512" lon="6.80533">
        <ele>1892.2</ele>
        <time>2022-07-10T12:35:47.000Z</time>
      </trkpt>
      <trkpt lat="44.15111" lon="6.80527">
        <ele>1890.4</ele>
        <time>2022-07-10T12:35:51.000Z</time>
      </trkpt>
      <trkpt lat="44.15106" lon="6.80522">
        <ele>1888.6</ele>
        <time>2022-07-10T12:35:53.000Z</time>
      </trkpt>
      <trkpt lat="44.15097" lon="6.80517">
        <ele>1886.6</ele>
        <time>2022-07-10T12:35:55.000Z</time>
      </trkpt>
      <trkpt lat="44.15093" lon="6.80514">
        <ele>1885.6</ele>
        <time>2022-07-10T12:35:56.000Z</time>
      </trkpt>
      <trkpt lat="44.15088" lon="6.80511">
        <ele>1884.6</ele>
        <time>2022-07-10T12:35:57.000Z</time>
      </trkpt>
      <trkpt lat="44.15078" lon="6.80505">
        <ele>1883.4</ele>
        <time>2022-07-10T12:35:59.000Z</time>
      </trkpt>
      <trkpt lat="44.15069" lon="6.80501">
        <ele>1882.8</ele>
        <time>2022-07-10T12:36:02.000Z</time>
      </trkpt>
      <trkpt lat="44.15016" lon="6.80483">
        <ele>1882.8</ele>
        <time>2022-07-10T12:36:21.000Z</time>
      </trkpt>
      <trkpt lat="44.15007" lon="6.8048">
        <ele>1882.2</ele>
        <time>2022-07-10T12:36:24.000Z</time>
      </trkpt>
      <trkpt lat="44.14993" lon="6.80478">
        <ele>1883</ele>
        <time>2022-07-10T12:36:32.000Z</time>
      </trkpt>
      <trkpt lat="44.14988" lon="6.80477">
        <ele>1883.4</ele>
        <time>2022-07-10T12:36:35.000Z</time>
      </trkpt>
      <trkpt lat="44.14968" lon="6.80451">
        <ele>1881.8</ele>
        <time>2022-07-10T12:36:45.000Z</time>
      </trkpt>
      <trkpt lat="44.14961" lon="6.80437">
        <ele>1880.6</ele>
        <time>2022-07-10T12:36:47.000Z</time>
      </trkpt>
      <trkpt lat="44.14942" lon="6.80408">
        <ele>1879.6</ele>
        <time>2022-07-10T12:36:51.000Z</time>
      </trkpt>
      <trkpt lat="44.14935" lon="6.80394">
        <ele>1879.4</ele>
        <time>2022-07-10T12:36:53.000Z</time>
      </trkpt>
      <trkpt lat="44.14932" lon="6.80383">
        <ele>1879.2</ele>
        <time>2022-07-10T12:36:55.000Z</time>
      </trkpt>
      <trkpt lat="44.14932" lon="6.80371">
        <ele>1879.2</ele>
        <time>2022-07-10T12:36:59.000Z</time>
      </trkpt>
      <trkpt lat="44.14932" lon="6.8037">
        <ele>1879</ele>
        <time>2022-07-10T12:37:01.000Z</time>
      </trkpt>
      <trkpt lat="44.14931" lon="6.80368">
        <ele>1878.6</ele>
        <time>2022-07-10T12:37:04.000Z</time>
      </trkpt>
      <trkpt lat="44.14931" lon="6.80368">
        <ele>1878.6</ele>
        <time>2022-07-10T12:37:08.000Z</time>
      </trkpt>
      <trkpt lat="44.14931" lon="6.80368">
        <ele>1878.8</ele>
        <time>2022-07-10T12:37:14.000Z</time>
      </trkpt>
      <trkpt lat="44.1493" lon="6.80363">
        <ele>1879</ele>
        <time>2022-07-10T12:37:18.000Z</time>
      </trkpt>
      <trkpt lat="44.14929" lon="6.80357">
        <ele>1878.8</ele>
        <time>2022-07-10T12:37:20.000Z</time>
      </trkpt>
      <trkpt lat="44.14925" lon="6.80339">
        <ele>1877.6</ele>
        <time>2022-07-10T12:37:25.000Z</time>
      </trkpt>
      <trkpt lat="44.14922" lon="6.80333">
        <ele>1876.4</ele>
        <time>2022-07-10T12:37:28.000Z</time>
      </trkpt>
      <trkpt lat="44.14921" lon="6.80333">
        <ele>1876.2</ele>
        <time>2022-07-10T12:37:29.000Z</time>
      </trkpt>
      <trkpt lat="44.14922" lon="6.80333">
        <ele>1876</ele>
        <time>2022-07-10T12:37:35.000Z</time>
      </trkpt>
      <trkpt lat="44.14921" lon="6.80332">
        <ele>1876.2</ele>
        <time>2022-07-10T12:37:48.000Z</time>
      </trkpt>
      <trkpt lat="44.1492" lon="6.8033">
        <ele>1875.8</ele>
        <time>2022-07-10T12:37:58.000Z</time>
      </trkpt>
      <trkpt lat="44.14917" lon="6.80314">
        <ele>1874.8</ele>
        <time>2022-07-10T12:38:02.000Z</time>
      </trkpt>
      <trkpt lat="44.14915" lon="6.80303">
        <ele>1873.2</ele>
        <time>2022-07-10T12:38:04.000Z</time>
      </trkpt>
      <trkpt lat="44.14913" lon="6.8029">
        <ele>1872</ele>
        <time>2022-07-10T12:38:06.000Z</time>
      </trkpt>
      <trkpt lat="44.14909" lon="6.80274">
        <ele>1871</ele>
        <time>2022-07-10T12:38:09.000Z</time>
      </trkpt>
      <trkpt lat="44.14909" lon="6.80271">
        <ele>1870.8</ele>
        <time>2022-07-10T12:38:10.000Z</time>
      </trkpt>
      <trkpt lat="44.14908" lon="6.80269">
        <ele>1870.6</ele>
        <time>2022-07-10T12:38:12.000Z</time>
      </trkpt>
      <trkpt lat="44.14908" lon="6.80268">
        <ele>1871.2</ele>
        <time>2022-07-10T12:38:25.000Z</time>
      </trkpt>
      <trkpt lat="44.14907" lon="6.80265">
        <ele>1870.8</ele>
        <time>2022-07-10T12:38:33.000Z</time>
      </trkpt>
      <trkpt lat="44.14907" lon="6.80263">
        <ele>1870.6</ele>
        <time>2022-07-10T12:38:34.000Z</time>
      </trkpt>
      <trkpt lat="44.14904" lon="6.80256">
        <ele>1869.4</ele>
        <time>2022-07-10T12:38:36.000Z</time>
      </trkpt>
      <trkpt lat="44.14901" lon="6.80246">
        <ele>1867.6</ele>
        <time>2022-07-10T12:38:38.000Z</time>
      </trkpt>
      <trkpt lat="44.14898" lon="6.80235">
        <ele>1866.2</ele>
        <time>2022-07-10T12:38:40.000Z</time>
      </trkpt>
      <trkpt lat="44.14895" lon="6.8023">
        <ele>1865.2</ele>
        <time>2022-07-10T12:38:41.000Z</time>
      </trkpt>
      <trkpt lat="44.14893" lon="6.80225">
        <ele>1863.8</ele>
        <time>2022-07-10T12:38:42.000Z</time>
      </trkpt>
      <trkpt lat="44.14892" lon="6.8022">
        <ele>1862.4</ele>
        <time>2022-07-10T12:38:43.000Z</time>
      </trkpt>
      <trkpt lat="44.1489" lon="6.80215">
        <ele>1861</ele>
        <time>2022-07-10T12:38:44.000Z</time>
      </trkpt>
      <trkpt lat="44.14888" lon="6.80212">
        <ele>1859.8</ele>
        <time>2022-07-10T12:38:45.000Z</time>
      </trkpt>
      <trkpt lat="44.14883" lon="6.80207">
        <ele>1858.4</ele>
        <time>2022-07-10T12:38:47.000Z</time>
      </trkpt>
      <trkpt lat="44.14873" lon="6.80199">
        <ele>1857</ele>
        <time>2022-07-10T12:38:50.000Z</time>
      </trkpt>
      <trkpt lat="44.14868" lon="6.80196">
        <ele>1855.6</ele>
        <time>2022-07-10T12:38:52.000Z</time>
      </trkpt>
      <trkpt lat="44.14861" lon="6.80193">
        <ele>1854.4</ele>
        <time>2022-07-10T12:38:55.000Z</time>
      </trkpt>
      <trkpt lat="44.14856" lon="6.80192">
        <ele>1854.6</ele>
        <time>2022-07-10T12:38:57.000Z</time>
      </trkpt>
      <trkpt lat="44.14853" lon="6.80193">
        <ele>1854</ele>
        <time>2022-07-10T12:38:59.000Z</time>
      </trkpt>
      <trkpt lat="44.14848" lon="6.80194">
        <ele>1853.4</ele>
        <time>2022-07-10T12:39:01.000Z</time>
      </trkpt>
      <trkpt lat="44.14846" lon="6.80194">
        <ele>1853.2</ele>
        <time>2022-07-10T12:39:02.000Z</time>
      </trkpt>
      <trkpt lat="44.14844" lon="6.80195">
        <ele>1852.2</ele>
        <time>2022-07-10T12:39:04.000Z</time>
      </trkpt>
      <trkpt lat="44.14843" lon="6.80196">
        <ele>1852</ele>
        <time>2022-07-10T12:39:05.000Z</time>
      </trkpt>
      <trkpt lat="44.14842" lon="6.80195">
        <ele>1851</ele>
        <time>2022-07-10T12:39:07.000Z</time>
      </trkpt>
      <trkpt lat="44.14836" lon="6.80195">
        <ele>1849.6</ele>
        <time>2022-07-10T12:39:11.000Z</time>
      </trkpt>
      <trkpt lat="44.14832" lon="6.80196">
        <ele>1848.6</ele>
        <time>2022-07-10T12:39:13.000Z</time>
      </trkpt>
      <trkpt lat="44.14827" lon="6.80197">
        <ele>1847.2</ele>
        <time>2022-07-10T12:39:15.000Z</time>
      </trkpt>
      <trkpt lat="44.14824" lon="6.80197">
        <ele>1845.8</ele>
        <time>2022-07-10T12:39:17.000Z</time>
      </trkpt>
      <trkpt lat="44.1482" lon="6.80195">
        <ele>1844.8</ele>
        <time>2022-07-10T12:39:19.000Z</time>
      </trkpt>
      <trkpt lat="44.14814" lon="6.80194">
        <ele>1843.6</ele>
        <time>2022-07-10T12:39:21.000Z</time>
      </trkpt>
      <trkpt lat="44.14807" lon="6.80194">
        <ele>1842.6</ele>
        <time>2022-07-10T12:39:23.000Z</time>
      </trkpt>
      <trkpt lat="44.148" lon="6.80194">
        <ele>1841.6</ele>
        <time>2022-07-10T12:39:25.000Z</time>
      </trkpt>
      <trkpt lat="44.14792" lon="6.80195">
        <ele>1840.4</ele>
        <time>2022-07-10T12:39:27.000Z</time>
      </trkpt>
      <trkpt lat="44.14785" lon="6.80196">
        <ele>1839.2</ele>
        <time>2022-07-10T12:39:29.000Z</time>
      </trkpt>
      <trkpt lat="44.14778" lon="6.80197">
        <ele>1838</ele>
        <time>2022-07-10T12:39:31.000Z</time>
      </trkpt>
      <trkpt lat="44.14772" lon="6.80197">
        <ele>1836.8</ele>
        <time>2022-07-10T12:39:33.000Z</time>
      </trkpt>
      <trkpt lat="44.14766" lon="6.80199">
        <ele>1835</ele>
        <time>2022-07-10T12:39:35.000Z</time>
      </trkpt>
      <trkpt lat="44.14759" lon="6.80201">
        <ele>1833.8</ele>
        <time>2022-07-10T12:39:37.000Z</time>
      </trkpt>
      <trkpt lat="44.14752" lon="6.80202">
        <ele>1832.8</ele>
        <time>2022-07-10T12:39:40.000Z</time>
      </trkpt>
      <trkpt lat="44.14751" lon="6.80202">
        <ele>1831.8</ele>
        <time>2022-07-10T12:39:41.000Z</time>
      </trkpt>
      <trkpt lat="44.14749" lon="6.80201">
        <ele>1831</ele>
        <time>2022-07-10T12:39:42.000Z</time>
      </trkpt>
      <trkpt lat="44.14749" lon="6.80201">
        <ele>1830.2</ele>
        <time>2022-07-10T12:39:43.000Z</time>
      </trkpt>
      <trkpt lat="44.14749" lon="6.80201">
        <ele>1829.6</ele>
        <time>2022-07-10T12:39:44.000Z</time>
      </trkpt>
      <trkpt lat="44.14752" lon="6.80201">
        <ele>1829.2</ele>
        <time>2022-07-10T12:39:51.000Z</time>
      </trkpt>
      <trkpt lat="44.14742" lon="6.80201">
        <ele>1828.4</ele>
        <time>2022-07-10T12:39:58.000Z</time>
      </trkpt>
      <trkpt lat="44.14739" lon="6.80198">
        <ele>1828.2</ele>
        <time>2022-07-10T12:40:00.000Z</time>
      </trkpt>
      <trkpt lat="44.14728" lon="6.8019">
        <ele>1827.6</ele>
        <time>2022-07-10T12:40:05.000Z</time>
      </trkpt>
      <trkpt lat="44.14725" lon="6.80188">
        <ele>1827.2</ele>
        <time>2022-07-10T12:40:06.000Z</time>
      </trkpt>
      <trkpt lat="44.1472" lon="6.80182">
        <ele>1825.6</ele>
        <time>2022-07-10T12:40:08.000Z</time>
      </trkpt>
      <trkpt lat="44.14717" lon="6.80173">
        <ele>1824</ele>
        <time>2022-07-10T12:40:10.000Z</time>
      </trkpt>
      <trkpt lat="44.14709" lon="6.8016">
        <ele>1822.8</ele>
        <time>2022-07-10T12:40:13.000Z</time>
      </trkpt>
      <trkpt lat="44.14703" lon="6.80155">
        <ele>1821</ele>
        <time>2022-07-10T12:40:15.000Z</time>
      </trkpt>
      <trkpt lat="44.14701" lon="6.80152">
        <ele>1819.8</ele>
        <time>2022-07-10T12:40:16.000Z</time>
      </trkpt>
      <trkpt lat="44.14699" lon="6.80149">
        <ele>1818.6</ele>
        <time>2022-07-10T12:40:17.000Z</time>
      </trkpt>
      <trkpt lat="44.14696" lon="6.80144">
        <ele>1817</ele>
        <time>2022-07-10T12:40:19.000Z</time>
      </trkpt>
      <trkpt lat="44.14692" lon="6.80137">
        <ele>1815.6</ele>
        <time>2022-07-10T12:40:22.000Z</time>
      </trkpt>
      <trkpt lat="44.14689" lon="6.80134">
        <ele>1814.4</ele>
        <time>2022-07-10T12:40:23.000Z</time>
      </trkpt>
      <trkpt lat="44.14686" lon="6.8013">
        <ele>1813.2</ele>
        <time>2022-07-10T12:40:24.000Z</time>
      </trkpt>
      <trkpt lat="44.14679" lon="6.80122">
        <ele>1812</ele>
        <time>2022-07-10T12:40:26.000Z</time>
      </trkpt>
      <trkpt lat="44.14665" lon="6.80103">
        <ele>1810.8</ele>
        <time>2022-07-10T12:40:30.000Z</time>
      </trkpt>
      <trkpt lat="44.14653" lon="6.80087">
        <ele>1809.2</ele>
        <time>2022-07-10T12:40:33.000Z</time>
      </trkpt>
      <trkpt lat="44.14649" lon="6.80082">
        <ele>1808.2</ele>
        <time>2022-07-10T12:40:34.000Z</time>
      </trkpt>
      <trkpt lat="44.14645" lon="6.80077">
        <ele>1807</ele>
        <time>2022-07-10T12:40:35.000Z</time>
      </trkpt>
      <trkpt lat="44.14636" lon="6.80069">
        <ele>1806</ele>
        <time>2022-07-10T12:40:37.000Z</time>
      </trkpt>
      <trkpt lat="44.14623" lon="6.80055">
        <ele>1804.4</ele>
        <time>2022-07-10T12:40:40.000Z</time>
      </trkpt>
      <trkpt lat="44.14612" lon="6.80034">
        <ele>1803</ele>
        <time>2022-07-10T12:40:43.000Z</time>
      </trkpt>
      <trkpt lat="44.14605" lon="6.80022">
        <ele>1802.4</ele>
        <time>2022-07-10T12:40:45.000Z</time>
      </trkpt>
      <trkpt lat="44.14602" lon="6.80016">
        <ele>1802</ele>
        <time>2022-07-10T12:40:46.000Z</time>
      </trkpt>
      <trkpt lat="44.14595" lon="6.80006">
        <ele>1800.8</ele>
        <time>2022-07-10T12:40:48.000Z</time>
      </trkpt>
      <trkpt lat="44.14589" lon="6.79991">
        <ele>1800.4</ele>
        <time>2022-07-10T12:40:51.000Z</time>
      </trkpt>
      <trkpt lat="44.14584" lon="6.7998">
        <ele>1799</ele>
        <time>2022-07-10T12:40:53.000Z</time>
      </trkpt>
      <trkpt lat="44.14581" lon="6.79974">
        <ele>1797.6</ele>
        <time>2022-07-10T12:40:54.000Z</time>
      </trkpt>
      <trkpt lat="44.14578" lon="6.79967">
        <ele>1796.2</ele>
        <time>2022-07-10T12:40:55.000Z</time>
      </trkpt>
      <trkpt lat="44.14577" lon="6.7996">
        <ele>1794.8</ele>
        <time>2022-07-10T12:40:56.000Z</time>
      </trkpt>
      <trkpt lat="44.14578" lon="6.79954">
        <ele>1793.4</ele>
        <time>2022-07-10T12:40:57.000Z</time>
      </trkpt>
      <trkpt lat="44.1458" lon="6.79942">
        <ele>1792.2</ele>
        <time>2022-07-10T12:40:59.000Z</time>
      </trkpt>
      <trkpt lat="44.14581" lon="6.79936">
        <ele>1791.8</ele>
        <time>2022-07-10T12:41:00.000Z</time>
      </trkpt>
      <trkpt lat="44.14579" lon="6.79906">
        <ele>1790.8</ele>
        <time>2022-07-10T12:41:02.000Z</time>
      </trkpt>
      <trkpt lat="44.14575" lon="6.79887">
        <ele>1788.8</ele>
        <time>2022-07-10T12:41:04.000Z</time>
      </trkpt>
      <trkpt lat="44.14573" lon="6.79871">
        <ele>1787.4</ele>
        <time>2022-07-10T12:41:06.000Z</time>
      </trkpt>
      <trkpt lat="44.14572" lon="6.79858">
        <ele>1786.2</ele>
        <time>2022-07-10T12:41:08.000Z</time>
      </trkpt>
      <trkpt lat="44.14569" lon="6.79848">
        <ele>1784.4</ele>
        <time>2022-07-10T12:41:10.000Z</time>
      </trkpt>
      <trkpt lat="44.14567" lon="6.79843">
        <ele>1783.2</ele>
        <time>2022-07-10T12:41:11.000Z</time>
      </trkpt>
      <trkpt lat="44.14564" lon="6.79837">
        <ele>1782.2</ele>
        <time>2022-07-10T12:41:12.000Z</time>
      </trkpt>
      <trkpt lat="44.14557" lon="6.79827">
        <ele>1780.6</ele>
        <time>2022-07-10T12:41:14.000Z</time>
      </trkpt>
      <trkpt lat="44.1455" lon="6.79817">
        <ele>1779.4</ele>
        <time>2022-07-10T12:41:16.000Z</time>
      </trkpt>
      <trkpt lat="44.14546" lon="6.79808">
        <ele>1778.6</ele>
        <time>2022-07-10T12:41:18.000Z</time>
      </trkpt>
      <trkpt lat="44.14545" lon="6.79803">
        <ele>1777.8</ele>
        <time>2022-07-10T12:41:19.000Z</time>
      </trkpt>
      <trkpt lat="44.14543" lon="6.79794">
        <ele>1775.2</ele>
        <time>2022-07-10T12:41:21.000Z</time>
      </trkpt>
      <trkpt lat="44.14542" lon="6.79789">
        <ele>1773.2</ele>
        <time>2022-07-10T12:41:22.000Z</time>
      </trkpt>
      <trkpt lat="44.14542" lon="6.79783">
        <ele>1771.2</ele>
        <time>2022-07-10T12:41:23.000Z</time>
      </trkpt>
      <trkpt lat="44.14542" lon="6.79776">
        <ele>1769.2</ele>
        <time>2022-07-10T12:41:24.000Z</time>
      </trkpt>
      <trkpt lat="44.14542" lon="6.79769">
        <ele>1767.4</ele>
        <time>2022-07-10T12:41:25.000Z</time>
      </trkpt>
      <trkpt lat="44.14543" lon="6.79754">
        <ele>1766</ele>
        <time>2022-07-10T12:41:27.000Z</time>
      </trkpt>
      <trkpt lat="44.14543" lon="6.79734">
        <ele>1765</ele>
        <time>2022-07-10T12:41:29.000Z</time>
      </trkpt>
      <trkpt lat="44.14543" lon="6.79717">
        <ele>1763.6</ele>
        <time>2022-07-10T12:41:31.000Z</time>
      </trkpt>
      <trkpt lat="44.14542" lon="6.79707">
        <ele>1763</ele>
        <time>2022-07-10T12:41:32.000Z</time>
      </trkpt>
      <trkpt lat="44.14542" lon="6.79699">
        <ele>1762</ele>
        <time>2022-07-10T12:41:33.000Z</time>
      </trkpt>
      <trkpt lat="44.14542" lon="6.79691">
        <ele>1761</ele>
        <time>2022-07-10T12:41:34.000Z</time>
      </trkpt>
      <trkpt lat="44.14542" lon="6.79683">
        <ele>1759.8</ele>
        <time>2022-07-10T12:41:35.000Z</time>
      </trkpt>
      <trkpt lat="44.14541" lon="6.79676">
        <ele>1758.6</ele>
        <time>2022-07-10T12:41:36.000Z</time>
      </trkpt>
      <trkpt lat="44.14541" lon="6.79669">
        <ele>1757.4</ele>
        <time>2022-07-10T12:41:37.000Z</time>
      </trkpt>
      <trkpt lat="44.1454" lon="6.79656">
        <ele>1755.2</ele>
        <time>2022-07-10T12:41:39.000Z</time>
      </trkpt>
      <trkpt lat="44.1454" lon="6.7965">
        <ele>1754.4</ele>
        <time>2022-07-10T12:41:40.000Z</time>
      </trkpt>
      <trkpt lat="44.14539" lon="6.79644">
        <ele>1754</ele>
        <time>2022-07-10T12:41:41.000Z</time>
      </trkpt>
      <trkpt lat="44.14537" lon="6.79631">
        <ele>1752.6</ele>
        <time>2022-07-10T12:41:43.000Z</time>
      </trkpt>
      <trkpt lat="44.14538" lon="6.79625">
        <ele>1751.4</ele>
        <time>2022-07-10T12:41:44.000Z</time>
      </trkpt>
      <trkpt lat="44.14539" lon="6.79619">
        <ele>1749.6</ele>
        <time>2022-07-10T12:41:45.000Z</time>
      </trkpt>
      <trkpt lat="44.14541" lon="6.79612">
        <ele>1747.8</ele>
        <time>2022-07-10T12:41:46.000Z</time>
      </trkpt>
      <trkpt lat="44.14542" lon="6.79605">
        <ele>1746.2</ele>
        <time>2022-07-10T12:41:47.000Z</time>
      </trkpt>
      <trkpt lat="44.14544" lon="6.79597">
        <ele>1745</ele>
        <time>2022-07-10T12:41:48.000Z</time>
      </trkpt>
      <trkpt lat="44.14546" lon="6.79591">
        <ele>1743.8</ele>
        <time>2022-07-10T12:41:49.000Z</time>
      </trkpt>
      <trkpt lat="44.14547" lon="6.79585">
        <ele>1742.8</ele>
        <time>2022-07-10T12:41:50.000Z</time>
      </trkpt>
      <trkpt lat="44.14549" lon="6.79582">
        <ele>1741.2</ele>
        <time>2022-07-10T12:41:51.000Z</time>
      </trkpt>
      <trkpt lat="44.14551" lon="6.79579">
        <ele>1739.6</ele>
        <time>2022-07-10T12:41:52.000Z</time>
      </trkpt>
      <trkpt lat="44.14553" lon="6.79573">
        <ele>1738.4</ele>
        <time>2022-07-10T12:41:53.000Z</time>
      </trkpt>
      <trkpt lat="44.14555" lon="6.79567">
        <ele>1737.4</ele>
        <time>2022-07-10T12:41:54.000Z</time>
      </trkpt>
      <trkpt lat="44.14556" lon="6.79561">
        <ele>1736.4</ele>
        <time>2022-07-10T12:41:55.000Z</time>
      </trkpt>
      <trkpt lat="44.14558" lon="6.79554">
        <ele>1735</ele>
        <time>2022-07-10T12:41:56.000Z</time>
      </trkpt>
      <trkpt lat="44.14559" lon="6.79547">
        <ele>1733.6</ele>
        <time>2022-07-10T12:41:57.000Z</time>
      </trkpt>
      <trkpt lat="44.14559" lon="6.7954">
        <ele>1732.4</ele>
        <time>2022-07-10T12:41:58.000Z</time>
      </trkpt>
      <trkpt lat="44.14561" lon="6.79535">
        <ele>1731.6</ele>
        <time>2022-07-10T12:41:59.000Z</time>
      </trkpt>
      <trkpt lat="44.14562" lon="6.79527">
        <ele>1730.6</ele>
        <time>2022-07-10T12:42:00.000Z</time>
      </trkpt>
      <trkpt lat="44.14564" lon="6.79519">
        <ele>1729.4</ele>
        <time>2022-07-10T12:42:01.000Z</time>
      </trkpt>
      <trkpt lat="44.14566" lon="6.79511">
        <ele>1728.2</ele>
        <time>2022-07-10T12:42:02.000Z</time>
      </trkpt>
      <trkpt lat="44.14568" lon="6.79496">
        <ele>1726.4</ele>
        <time>2022-07-10T12:42:04.000Z</time>
      </trkpt>
      <trkpt lat="44.14569" lon="6.79489">
        <ele>1725.8</ele>
        <time>2022-07-10T12:42:05.000Z</time>
      </trkpt>
      <trkpt lat="44.14568" lon="6.79477">
        <ele>1725.4</ele>
        <time>2022-07-10T12:42:06.000Z</time>
      </trkpt>
      <trkpt lat="44.14566" lon="6.79467">
        <ele>1724.8</ele>
        <time>2022-07-10T12:42:07.000Z</time>
      </trkpt>
      <trkpt lat="44.14565" lon="6.79459">
        <ele>1724.4</ele>
        <time>2022-07-10T12:42:08.000Z</time>
      </trkpt>
      <trkpt lat="44.14563" lon="6.7945">
        <ele>1723.6</ele>
        <time>2022-07-10T12:42:09.000Z</time>
      </trkpt>
      <trkpt lat="44.14559" lon="6.79442">
        <ele>1722.8</ele>
        <time>2022-07-10T12:42:10.000Z</time>
      </trkpt>
      <trkpt lat="44.14553" lon="6.79421">
        <ele>1721.6</ele>
        <time>2022-07-10T12:42:12.000Z</time>
      </trkpt>
      <trkpt lat="44.14548" lon="6.79392">
        <ele>1720.2</ele>
        <time>2022-07-10T12:42:15.000Z</time>
      </trkpt>
      <trkpt lat="44.14546" lon="6.79373">
        <ele>1718.6</ele>
        <time>2022-07-10T12:42:17.000Z</time>
      </trkpt>
      <trkpt lat="44.14545" lon="6.79364">
        <ele>1718</ele>
        <time>2022-07-10T12:42:18.000Z</time>
      </trkpt>
      <trkpt lat="44.14544" lon="6.79356">
        <ele>1716.8</ele>
        <time>2022-07-10T12:42:19.000Z</time>
      </trkpt>
      <trkpt lat="44.14542" lon="6.79349">
        <ele>1715.6</ele>
        <time>2022-07-10T12:42:20.000Z</time>
      </trkpt>
      <trkpt lat="44.14537" lon="6.79335">
        <ele>1714.4</ele>
        <time>2022-07-10T12:42:22.000Z</time>
      </trkpt>
      <trkpt lat="44.14531" lon="6.79316">
        <ele>1712.8</ele>
        <time>2022-07-10T12:42:25.000Z</time>
      </trkpt>
      <trkpt lat="44.14527" lon="6.79304">
        <ele>1711.6</ele>
        <time>2022-07-10T12:42:27.000Z</time>
      </trkpt>
      <trkpt lat="44.14526" lon="6.79278">
        <ele>1710.2</ele>
        <time>2022-07-10T12:42:30.000Z</time>
      </trkpt>
      <trkpt lat="44.14527" lon="6.79269">
        <ele>1709.4</ele>
        <time>2022-07-10T12:42:31.000Z</time>
      </trkpt>
      <trkpt lat="44.14528" lon="6.7926">
        <ele>1707.8</ele>
        <time>2022-07-10T12:42:32.000Z</time>
      </trkpt>
      <trkpt lat="44.14529" lon="6.79252">
        <ele>1706.6</ele>
        <time>2022-07-10T12:42:33.000Z</time>
      </trkpt>
      <trkpt lat="44.1453" lon="6.79244">
        <ele>1705.4</ele>
        <time>2022-07-10T12:42:34.000Z</time>
      </trkpt>
      <trkpt lat="44.14532" lon="6.79231">
        <ele>1704.2</ele>
        <time>2022-07-10T12:42:36.000Z</time>
      </trkpt>
      <trkpt lat="44.14536" lon="6.79211">
        <ele>1702.8</ele>
        <time>2022-07-10T12:42:39.000Z</time>
      </trkpt>
      <trkpt lat="44.14536" lon="6.79206">
        <ele>1702.4</ele>
        <time>2022-07-10T12:42:40.000Z</time>
      </trkpt>
      <trkpt lat="44.14536" lon="6.79198">
        <ele>1701.6</ele>
        <time>2022-07-10T12:42:42.000Z</time>
      </trkpt>
      <trkpt lat="44.14534" lon="6.79177">
        <ele>1700.4</ele>
        <time>2022-07-10T12:42:45.000Z</time>
      </trkpt>
      <trkpt lat="44.14531" lon="6.79162">
        <ele>1698.8</ele>
        <time>2022-07-10T12:42:47.000Z</time>
      </trkpt>
      <trkpt lat="44.1453" lon="6.79154">
        <ele>1697.8</ele>
        <time>2022-07-10T12:42:48.000Z</time>
      </trkpt>
      <trkpt lat="44.14529" lon="6.79147">
        <ele>1696.6</ele>
        <time>2022-07-10T12:42:49.000Z</time>
      </trkpt>
      <trkpt lat="44.14529" lon="6.79139">
        <ele>1695.6</ele>
        <time>2022-07-10T12:42:50.000Z</time>
      </trkpt>
      <trkpt lat="44.14527" lon="6.79124">
        <ele>1693.8</ele>
        <time>2022-07-10T12:42:52.000Z</time>
      </trkpt>
      <trkpt lat="44.14526" lon="6.7911">
        <ele>1692.6</ele>
        <time>2022-07-10T12:42:54.000Z</time>
      </trkpt>
      <trkpt lat="44.14524" lon="6.79095">
        <ele>1690.8</ele>
        <time>2022-07-10T12:42:56.000Z</time>
      </trkpt>
      <trkpt lat="44.14523" lon="6.79087">
        <ele>1689.8</ele>
        <time>2022-07-10T12:42:57.000Z</time>
      </trkpt>
      <trkpt lat="44.14522" lon="6.79077">
        <ele>1688.8</ele>
        <time>2022-07-10T12:42:58.000Z</time>
      </trkpt>
      <trkpt lat="44.1452" lon="6.79054">
        <ele>1687</ele>
        <time>2022-07-10T12:43:00.000Z</time>
      </trkpt>
      <trkpt lat="44.14518" lon="6.79034">
        <ele>1685</ele>
        <time>2022-07-10T12:43:02.000Z</time>
      </trkpt>
      <trkpt lat="44.14518" lon="6.79026">
        <ele>1684</ele>
        <time>2022-07-10T12:43:03.000Z</time>
      </trkpt>
      <trkpt lat="44.14519" lon="6.7902">
        <ele>1683.2</ele>
        <time>2022-07-10T12:43:04.000Z</time>
      </trkpt>
      <trkpt lat="44.1452" lon="6.79014">
        <ele>1682.4</ele>
        <time>2022-07-10T12:43:05.000Z</time>
      </trkpt>
      <trkpt lat="44.14521" lon="6.79007">
        <ele>1681.6</ele>
        <time>2022-07-10T12:43:06.000Z</time>
      </trkpt>
      <trkpt lat="44.1452" lon="6.79002">
        <ele>1681</ele>
        <time>2022-07-10T12:43:07.000Z</time>
      </trkpt>
      <trkpt lat="44.14519" lon="6.78996">
        <ele>1680</ele>
        <time>2022-07-10T12:43:08.000Z</time>
      </trkpt>
      <trkpt lat="44.14517" lon="6.78991">
        <ele>1679</ele>
        <time>2022-07-10T12:43:09.000Z</time>
      </trkpt>
      <trkpt lat="44.14515" lon="6.78986">
        <ele>1677.6</ele>
        <time>2022-07-10T12:43:10.000Z</time>
      </trkpt>
      <trkpt lat="44.14513" lon="6.7898">
        <ele>1676.6</ele>
        <time>2022-07-10T12:43:11.000Z</time>
      </trkpt>
      <trkpt lat="44.14511" lon="6.78971">
        <ele>1675.4</ele>
        <time>2022-07-10T12:43:13.000Z</time>
      </trkpt>
      <trkpt lat="44.14501" lon="6.78958">
        <ele>1674.2</ele>
        <time>2022-07-10T12:43:16.000Z</time>
      </trkpt>
      <trkpt lat="44.14497" lon="6.78951">
        <ele>1673.6</ele>
        <time>2022-07-10T12:43:17.000Z</time>
      </trkpt>
      <trkpt lat="44.14494" lon="6.78946">
        <ele>1672.6</ele>
        <time>2022-07-10T12:43:18.000Z</time>
      </trkpt>
      <trkpt lat="44.14491" lon="6.78941">
        <ele>1671.8</ele>
        <time>2022-07-10T12:43:19.000Z</time>
      </trkpt>
      <trkpt lat="44.14488" lon="6.78935">
        <ele>1671.4</ele>
        <time>2022-07-10T12:43:20.000Z</time>
      </trkpt>
      <trkpt lat="44.14482" lon="6.78925">
        <ele>1670.6</ele>
        <time>2022-07-10T12:43:22.000Z</time>
      </trkpt>
      <trkpt lat="44.1448" lon="6.7892">
        <ele>1670.2</ele>
        <time>2022-07-10T12:43:23.000Z</time>
      </trkpt>
      <trkpt lat="44.14478" lon="6.78907">
        <ele>1668.6</ele>
        <time>2022-07-10T12:43:25.000Z</time>
      </trkpt>
      <trkpt lat="44.14477" lon="6.78899">
        <ele>1667.2</ele>
        <time>2022-07-10T12:43:26.000Z</time>
      </trkpt>
      <trkpt lat="44.14476" lon="6.78891">
        <ele>1665.8</ele>
        <time>2022-07-10T12:43:27.000Z</time>
      </trkpt>
      <trkpt lat="44.14474" lon="6.78883">
        <ele>1664.4</ele>
        <time>2022-07-10T12:43:28.000Z</time>
      </trkpt>
      <trkpt lat="44.14471" lon="6.78877">
        <ele>1663.4</ele>
        <time>2022-07-10T12:43:29.000Z</time>
      </trkpt>
      <trkpt lat="44.14464" lon="6.78863">
        <ele>1662.4</ele>
        <time>2022-07-10T12:43:31.000Z</time>
      </trkpt>
      <trkpt lat="44.14459" lon="6.7885">
        <ele>1661</ele>
        <time>2022-07-10T12:43:33.000Z</time>
      </trkpt>
      <trkpt lat="44.14457" lon="6.78844">
        <ele>1660.4</ele>
        <time>2022-07-10T12:43:34.000Z</time>
      </trkpt>
      <trkpt lat="44.14455" lon="6.78836">
        <ele>1659.6</ele>
        <time>2022-07-10T12:43:35.000Z</time>
      </trkpt>
      <trkpt lat="44.14454" lon="6.78826">
        <ele>1658.4</ele>
        <time>2022-07-10T12:43:36.000Z</time>
      </trkpt>
      <trkpt lat="44.14454" lon="6.78818">
        <ele>1657</ele>
        <time>2022-07-10T12:43:37.000Z</time>
      </trkpt>
      <trkpt lat="44.14452" lon="6.78809">
        <ele>1655.6</ele>
        <time>2022-07-10T12:43:38.000Z</time>
      </trkpt>
      <trkpt lat="44.1445" lon="6.78803">
        <ele>1654.6</ele>
        <time>2022-07-10T12:43:39.000Z</time>
      </trkpt>
      <trkpt lat="44.14447" lon="6.78791">
        <ele>1653</ele>
        <time>2022-07-10T12:43:41.000Z</time>
      </trkpt>
      <trkpt lat="44.14447" lon="6.78786">
        <ele>1652.6</ele>
        <time>2022-07-10T12:43:42.000Z</time>
      </trkpt>
      <trkpt lat="44.14451" lon="6.78775">
        <ele>1651.8</ele>
        <time>2022-07-10T12:43:44.000Z</time>
      </trkpt>
      <trkpt lat="44.14453" lon="6.78766">
        <ele>1651</ele>
        <time>2022-07-10T12:43:45.000Z</time>
      </trkpt>
      <trkpt lat="44.14454" lon="6.78759">
        <ele>1649.6</ele>
        <time>2022-07-10T12:43:46.000Z</time>
      </trkpt>
      <trkpt lat="44.14454" lon="6.7875">
        <ele>1648.4</ele>
        <time>2022-07-10T12:43:47.000Z</time>
      </trkpt>
      <trkpt lat="44.14451" lon="6.78743">
        <ele>1647.6</ele>
        <time>2022-07-10T12:43:48.000Z</time>
      </trkpt>
      <trkpt lat="44.14448" lon="6.78736">
        <ele>1647</ele>
        <time>2022-07-10T12:43:49.000Z</time>
      </trkpt>
      <trkpt lat="44.14444" lon="6.78729">
        <ele>1646.2</ele>
        <time>2022-07-10T12:43:50.000Z</time>
      </trkpt>
      <trkpt lat="44.14442" lon="6.78722">
        <ele>1645.4</ele>
        <time>2022-07-10T12:43:51.000Z</time>
      </trkpt>
      <trkpt lat="44.1444" lon="6.78715">
        <ele>1644.4</ele>
        <time>2022-07-10T12:43:52.000Z</time>
      </trkpt>
      <trkpt lat="44.14439" lon="6.78708">
        <ele>1643.2</ele>
        <time>2022-07-10T12:43:53.000Z</time>
      </trkpt>
      <trkpt lat="44.14439" lon="6.78702">
        <ele>1642</ele>
        <time>2022-07-10T12:43:54.000Z</time>
      </trkpt>
      <trkpt lat="44.14439" lon="6.78697">
        <ele>1641.2</ele>
        <time>2022-07-10T12:43:55.000Z</time>
      </trkpt>
      <trkpt lat="44.14439" lon="6.78691">
        <ele>1640.4</ele>
        <time>2022-07-10T12:43:56.000Z</time>
      </trkpt>
      <trkpt lat="44.14439" lon="6.78678">
        <ele>1638.8</ele>
        <time>2022-07-10T12:43:58.000Z</time>
      </trkpt>
      <trkpt lat="44.1444" lon="6.78664">
        <ele>1638</ele>
        <time>2022-07-10T12:44:00.000Z</time>
      </trkpt>
      <trkpt lat="44.14439" lon="6.78657">
        <ele>1637.4</ele>
        <time>2022-07-10T12:44:01.000Z</time>
      </trkpt>
      <trkpt lat="44.14438" lon="6.7865">
        <ele>1636.2</ele>
        <time>2022-07-10T12:44:02.000Z</time>
      </trkpt>
      <trkpt lat="44.14439" lon="6.78642">
        <ele>1635.2</ele>
        <time>2022-07-10T12:44:03.000Z</time>
      </trkpt>
      <trkpt lat="44.14441" lon="6.78633">
        <ele>1633.6</ele>
        <time>2022-07-10T12:44:05.000Z</time>
      </trkpt>
      <trkpt lat="44.14444" lon="6.78627">
        <ele>1632.4</ele>
        <time>2022-07-10T12:44:07.000Z</time>
      </trkpt>
      <trkpt lat="44.1445" lon="6.78618">
        <ele>1631.2</ele>
        <time>2022-07-10T12:44:09.000Z</time>
      </trkpt>
      <trkpt lat="44.14456" lon="6.78613">
        <ele>1629.6</ele>
        <time>2022-07-10T12:44:11.000Z</time>
      </trkpt>
      <trkpt lat="44.14461" lon="6.7861">
        <ele>1628.4</ele>
        <time>2022-07-10T12:44:13.000Z</time>
      </trkpt>
      <trkpt lat="44.14462" lon="6.78609">
        <ele>1628.2</ele>
        <time>2022-07-10T12:44:14.000Z</time>
      </trkpt>
      <trkpt lat="44.14464" lon="6.78605">
        <ele>1628.2</ele>
        <time>2022-07-10T12:44:21.000Z</time>
      </trkpt>
      <trkpt lat="44.14472" lon="6.78602">
        <ele>1628.4</ele>
        <time>2022-07-10T12:44:28.000Z</time>
      </trkpt>
      <trkpt lat="44.1448" lon="6.78601">
        <ele>1627.2</ele>
        <time>2022-07-10T12:44:51.000Z</time>
      </trkpt>
      <trkpt lat="44.14479" lon="6.78596">
        <ele>1625.8</ele>
        <time>2022-07-10T12:44:53.000Z</time>
      </trkpt>
      <trkpt lat="44.14472" lon="6.78589">
        <ele>1624.2</ele>
        <time>2022-07-10T12:44:55.000Z</time>
      </trkpt>
      <trkpt lat="44.14467" lon="6.78582">
        <ele>1622.6</ele>
        <time>2022-07-10T12:44:57.000Z</time>
      </trkpt>
      <trkpt lat="44.14462" lon="6.78575">
        <ele>1621.4</ele>
        <time>2022-07-10T12:44:59.000Z</time>
      </trkpt>
      <trkpt lat="44.14454" lon="6.78569">
        <ele>1620</ele>
        <time>2022-07-10T12:45:01.000Z</time>
      </trkpt>
      <trkpt lat="44.14449" lon="6.78567">
        <ele>1618.8</ele>
        <time>2022-07-10T12:45:02.000Z</time>
      </trkpt>
      <trkpt lat="44.14443" lon="6.78564">
        <ele>1617.6</ele>
        <time>2022-07-10T12:45:03.000Z</time>
      </trkpt>
      <trkpt lat="44.14438" lon="6.7856">
        <ele>1616.2</ele>
        <time>2022-07-10T12:45:04.000Z</time>
      </trkpt>
      <trkpt lat="44.14434" lon="6.78555">
        <ele>1615.4</ele>
        <time>2022-07-10T12:45:05.000Z</time>
      </trkpt>
      <trkpt lat="44.1443" lon="6.78551">
        <ele>1614.6</ele>
        <time>2022-07-10T12:45:06.000Z</time>
      </trkpt>
      <trkpt lat="44.14424" lon="6.78542">
        <ele>1613.6</ele>
        <time>2022-07-10T12:45:08.000Z</time>
      </trkpt>
      <trkpt lat="44.14417" lon="6.78527">
        <ele>1612.2</ele>
        <time>2022-07-10T12:45:11.000Z</time>
      </trkpt>
      <trkpt lat="44.14404" lon="6.7852">
        <ele>1610.6</ele>
        <time>2022-07-10T12:45:16.000Z</time>
      </trkpt>
      <trkpt lat="44.144" lon="6.78514">
        <ele>1608.8</ele>
        <time>2022-07-10T12:45:18.000Z</time>
      </trkpt>
      <trkpt lat="44.14396" lon="6.78506">
        <ele>1607.2</ele>
        <time>2022-07-10T12:45:20.000Z</time>
      </trkpt>
      <trkpt lat="44.14389" lon="6.78501">
        <ele>1605.4</ele>
        <time>2022-07-10T12:45:22.000Z</time>
      </trkpt>
      <trkpt lat="44.14383" lon="6.78498">
        <ele>1603.6</ele>
        <time>2022-07-10T12:45:24.000Z</time>
      </trkpt>
      <trkpt lat="44.14376" lon="6.78493">
        <ele>1602.6</ele>
        <time>2022-07-10T12:45:26.000Z</time>
      </trkpt>
      <trkpt lat="44.14369" lon="6.78485">
        <ele>1601.4</ele>
        <time>2022-07-10T12:45:28.000Z</time>
      </trkpt>
      <trkpt lat="44.14367" lon="6.78481">
        <ele>1600.4</ele>
        <time>2022-07-10T12:45:29.000Z</time>
      </trkpt>
      <trkpt lat="44.14363" lon="6.78477">
        <ele>1599</ele>
        <time>2022-07-10T12:45:30.000Z</time>
      </trkpt>
      <trkpt lat="44.1436" lon="6.78475">
        <ele>1597.8</ele>
        <time>2022-07-10T12:45:31.000Z</time>
      </trkpt>
      <trkpt lat="44.14357" lon="6.78471">
        <ele>1596.6</ele>
        <time>2022-07-10T12:45:32.000Z</time>
      </trkpt>
      <trkpt lat="44.1435" lon="6.78467">
        <ele>1594.8</ele>
        <time>2022-07-10T12:45:34.000Z</time>
      </trkpt>
      <trkpt lat="44.14342" lon="6.78464">
        <ele>1593</ele>
        <time>2022-07-10T12:45:36.000Z</time>
      </trkpt>
      <trkpt lat="44.14338" lon="6.78461">
        <ele>1591.2</ele>
        <time>2022-07-10T12:45:37.000Z</time>
      </trkpt>
      <trkpt lat="44.14334" lon="6.78459">
        <ele>1589.6</ele>
        <time>2022-07-10T12:45:38.000Z</time>
      </trkpt>
      <trkpt lat="44.14331" lon="6.78456">
        <ele>1588</ele>
        <time>2022-07-10T12:45:39.000Z</time>
      </trkpt>
      <trkpt lat="44.14324" lon="6.7845">
        <ele>1586.4</ele>
        <time>2022-07-10T12:45:41.000Z</time>
      </trkpt>
      <trkpt lat="44.14314" lon="6.78444">
        <ele>1584.6</ele>
        <time>2022-07-10T12:45:44.000Z</time>
      </trkpt>
      <trkpt lat="44.14311" lon="6.78442">
        <ele>1583.6</ele>
        <time>2022-07-10T12:45:45.000Z</time>
      </trkpt>
      <trkpt lat="44.14304" lon="6.78441">
        <ele>1582</ele>
        <time>2022-07-10T12:45:47.000Z</time>
      </trkpt>
      <trkpt lat="44.143" lon="6.78441">
        <ele>1580.8</ele>
        <time>2022-07-10T12:45:48.000Z</time>
      </trkpt>
      <trkpt lat="44.14292" lon="6.78444">
        <ele>1579</ele>
        <time>2022-07-10T12:45:50.000Z</time>
      </trkpt>
      <trkpt lat="44.14284" lon="6.78446">
        <ele>1578</ele>
        <time>2022-07-10T12:45:52.000Z</time>
      </trkpt>
      <trkpt lat="44.14275" lon="6.78445">
        <ele>1576.4</ele>
        <time>2022-07-10T12:45:54.000Z</time>
      </trkpt>
      <trkpt lat="44.14271" lon="6.78444">
        <ele>1575</ele>
        <time>2022-07-10T12:45:55.000Z</time>
      </trkpt>
      <trkpt lat="44.14267" lon="6.78443">
        <ele>1573.4</ele>
        <time>2022-07-10T12:45:56.000Z</time>
      </trkpt>
      <trkpt lat="44.14263" lon="6.78443">
        <ele>1572</ele>
        <time>2022-07-10T12:45:57.000Z</time>
      </trkpt>
      <trkpt lat="44.14259" lon="6.78443">
        <ele>1571</ele>
        <time>2022-07-10T12:45:58.000Z</time>
      </trkpt>
      <trkpt lat="44.14251" lon="6.78445">
        <ele>1569.8</ele>
        <time>2022-07-10T12:46:00.000Z</time>
      </trkpt>
      <trkpt lat="44.14247" lon="6.78445">
        <ele>1569.4</ele>
        <time>2022-07-10T12:46:01.000Z</time>
      </trkpt>
      <trkpt lat="44.14238" lon="6.78444">
        <ele>1568.2</ele>
        <time>2022-07-10T12:46:03.000Z</time>
      </trkpt>
      <trkpt lat="44.1423" lon="6.78442">
        <ele>1566.8</ele>
        <time>2022-07-10T12:46:05.000Z</time>
      </trkpt>
      <trkpt lat="44.14223" lon="6.7844">
        <ele>1565.4</ele>
        <time>2022-07-10T12:46:07.000Z</time>
      </trkpt>
      <trkpt lat="44.14214" lon="6.78437">
        <ele>1564</ele>
        <time>2022-07-10T12:46:10.000Z</time>
      </trkpt>
      <trkpt lat="44.14208" lon="6.78437">
        <ele>1562.8</ele>
        <time>2022-07-10T12:46:12.000Z</time>
      </trkpt>
      <trkpt lat="44.14203" lon="6.78438">
        <ele>1560.8</ele>
        <time>2022-07-10T12:46:14.000Z</time>
      </trkpt>
      <trkpt lat="44.14201" lon="6.7844">
        <ele>1559.8</ele>
        <time>2022-07-10T12:46:15.000Z</time>
      </trkpt>
      <trkpt lat="44.14199" lon="6.78441">
        <ele>1558.6</ele>
        <time>2022-07-10T12:46:16.000Z</time>
      </trkpt>
      <trkpt lat="44.14197" lon="6.78443">
        <ele>1557.4</ele>
        <time>2022-07-10T12:46:17.000Z</time>
      </trkpt>
      <trkpt lat="44.14191" lon="6.78445">
        <ele>1555.8</ele>
        <time>2022-07-10T12:46:19.000Z</time>
      </trkpt>
      <trkpt lat="44.14184" lon="6.78448">
        <ele>1554</ele>
        <time>2022-07-10T12:46:21.000Z</time>
      </trkpt>
      <trkpt lat="44.14177" lon="6.78452">
        <ele>1552.6</ele>
        <time>2022-07-10T12:46:23.000Z</time>
      </trkpt>
      <trkpt lat="44.14171" lon="6.78455">
        <ele>1551</ele>
        <time>2022-07-10T12:46:25.000Z</time>
      </trkpt>
      <trkpt lat="44.14163" lon="6.78456">
        <ele>1549.6</ele>
        <time>2022-07-10T12:46:27.000Z</time>
      </trkpt>
      <trkpt lat="44.14159" lon="6.78457">
        <ele>1549</ele>
        <time>2022-07-10T12:46:28.000Z</time>
      </trkpt>
      <trkpt lat="44.14156" lon="6.78457">
        <ele>1548.4</ele>
        <time>2022-07-10T12:46:29.000Z</time>
      </trkpt>
      <trkpt lat="44.14151" lon="6.78456">
        <ele>1546.8</ele>
        <time>2022-07-10T12:46:31.000Z</time>
      </trkpt>
      <trkpt lat="44.14145" lon="6.78457">
        <ele>1545.4</ele>
        <time>2022-07-10T12:46:33.000Z</time>
      </trkpt>
      <trkpt lat="44.14137" lon="6.78458">
        <ele>1543.8</ele>
        <time>2022-07-10T12:46:35.000Z</time>
      </trkpt>
      <trkpt lat="44.14128" lon="6.78459">
        <ele>1542.6</ele>
        <time>2022-07-10T12:46:37.000Z</time>
      </trkpt>
      <trkpt lat="44.14118" lon="6.78462">
        <ele>1541.6</ele>
        <time>2022-07-10T12:46:39.000Z</time>
      </trkpt>
      <trkpt lat="44.14113" lon="6.78462">
        <ele>1541.2</ele>
        <time>2022-07-10T12:46:40.000Z</time>
      </trkpt>
      <trkpt lat="44.14102" lon="6.78463">
        <ele>1540.4</ele>
        <time>2022-07-10T12:46:42.000Z</time>
      </trkpt>
      <trkpt lat="44.14091" lon="6.78463">
        <ele>1539.4</ele>
        <time>2022-07-10T12:46:44.000Z</time>
      </trkpt>
      <trkpt lat="44.14086" lon="6.78464">
        <ele>1538.8</ele>
        <time>2022-07-10T12:46:45.000Z</time>
      </trkpt>
      <trkpt lat="44.14075" lon="6.78466">
        <ele>1537.6</ele>
        <time>2022-07-10T12:46:47.000Z</time>
      </trkpt>
      <trkpt lat="44.14063" lon="6.78466">
        <ele>1536.6</ele>
        <time>2022-07-10T12:46:50.000Z</time>
      </trkpt>
      <trkpt lat="44.14053" lon="6.78465">
        <ele>1536</ele>
        <time>2022-07-10T12:46:53.000Z</time>
      </trkpt>
      <trkpt lat="44.14031" lon="6.78466">
        <ele>1537.2</ele>
        <time>2022-07-10T12:47:02.000Z</time>
      </trkpt>
      <trkpt lat="44.14006" lon="6.78464">
        <ele>1537.4</ele>
        <time>2022-07-10T12:47:14.000Z</time>
      </trkpt>
      <trkpt lat="44.14004" lon="6.7846">
        <ele>1537.4</ele>
        <time>2022-07-10T12:47:16.000Z</time>
      </trkpt>
      <trkpt lat="44.14006" lon="6.78444">
        <ele>1535.2</ele>
        <time>2022-07-10T12:47:20.000Z</time>
      </trkpt>
      <trkpt lat="44.14007" lon="6.78438">
        <ele>1534.2</ele>
        <time>2022-07-10T12:47:21.000Z</time>
      </trkpt>
      <trkpt lat="44.14009" lon="6.78426">
        <ele>1533</ele>
        <time>2022-07-10T12:47:23.000Z</time>
      </trkpt>
      <trkpt lat="44.1401" lon="6.7842">
        <ele>1532.6</ele>
        <time>2022-07-10T12:47:24.000Z</time>
      </trkpt>
      <trkpt lat="44.14012" lon="6.78415">
        <ele>1531.8</ele>
        <time>2022-07-10T12:47:25.000Z</time>
      </trkpt>
      <trkpt lat="44.14016" lon="6.78412">
        <ele>1531</ele>
        <time>2022-07-10T12:47:26.000Z</time>
      </trkpt>
      <trkpt lat="44.1402" lon="6.7841">
        <ele>1530.2</ele>
        <time>2022-07-10T12:47:27.000Z</time>
      </trkpt>
      <trkpt lat="44.14027" lon="6.78407">
        <ele>1528.6</ele>
        <time>2022-07-10T12:47:29.000Z</time>
      </trkpt>
      <trkpt lat="44.14031" lon="6.78406">
        <ele>1527.6</ele>
        <time>2022-07-10T12:47:30.000Z</time>
      </trkpt>
      <trkpt lat="44.14037" lon="6.78402">
        <ele>1525.8</ele>
        <time>2022-07-10T12:47:32.000Z</time>
      </trkpt>
      <trkpt lat="44.14041" lon="6.78388">
        <ele>1524.2</ele>
        <time>2022-07-10T12:47:35.000Z</time>
      </trkpt>
      <trkpt lat="44.14041" lon="6.78382">
        <ele>1523</ele>
        <time>2022-07-10T12:47:36.000Z</time>
      </trkpt>
      <trkpt lat="44.14045" lon="6.78372">
        <ele>1521.6</ele>
        <time>2022-07-10T12:47:38.000Z</time>
      </trkpt>
      <trkpt lat="44.14048" lon="6.78367">
        <ele>1521</ele>
        <time>2022-07-10T12:47:39.000Z</time>
      </trkpt>
      <trkpt lat="44.1405" lon="6.78362">
        <ele>1520.4</ele>
        <time>2022-07-10T12:47:40.000Z</time>
      </trkpt>
      <trkpt lat="44.14054" lon="6.78354">
        <ele>1518.6</ele>
        <time>2022-07-10T12:47:42.000Z</time>
      </trkpt>
      <trkpt lat="44.14056" lon="6.78353">
        <ele>1517.6</ele>
        <time>2022-07-10T12:47:43.000Z</time>
      </trkpt>
      <trkpt lat="44.14057" lon="6.7835">
        <ele>1517</ele>
        <time>2022-07-10T12:47:44.000Z</time>
      </trkpt>
      <trkpt lat="44.14056" lon="6.78342">
        <ele>1515.6</ele>
        <time>2022-07-10T12:47:46.000Z</time>
      </trkpt>
      <trkpt lat="44.1405" lon="6.78336">
        <ele>1513.6</ele>
        <time>2022-07-10T12:47:48.000Z</time>
      </trkpt>
      <trkpt lat="44.14042" lon="6.78336">
        <ele>1512.2</ele>
        <time>2022-07-10T12:47:50.000Z</time>
      </trkpt>
      <trkpt lat="44.14033" lon="6.78337">
        <ele>1510.6</ele>
        <time>2022-07-10T12:47:52.000Z</time>
      </trkpt>
      <trkpt lat="44.14027" lon="6.78336">
        <ele>1509</ele>
        <time>2022-07-10T12:47:54.000Z</time>
      </trkpt>
      <trkpt lat="44.14022" lon="6.78337">
        <ele>1507.6</ele>
        <time>2022-07-10T12:47:56.000Z</time>
      </trkpt>
      <trkpt lat="44.14018" lon="6.78336">
        <ele>1506.4</ele>
        <time>2022-07-10T12:47:58.000Z</time>
      </trkpt>
      <trkpt lat="44.1402" lon="6.78331">
        <ele>1504.8</ele>
        <time>2022-07-10T12:48:02.000Z</time>
      </trkpt>
      <trkpt lat="44.14021" lon="6.7833">
        <ele>1504</ele>
        <time>2022-07-10T12:48:03.000Z</time>
      </trkpt>
      <trkpt lat="44.14021" lon="6.7833">
        <ele>1503.6</ele>
        <time>2022-07-10T12:48:04.000Z</time>
      </trkpt>
      <trkpt lat="44.14021" lon="6.78322">
        <ele>1502.6</ele>
        <time>2022-07-10T12:48:20.000Z</time>
      </trkpt>
      <trkpt lat="44.14027" lon="6.78314">
        <ele>1501.4</ele>
        <time>2022-07-10T12:48:37.000Z</time>
      </trkpt>
      <trkpt lat="44.14029" lon="6.78311">
        <ele>1501.2</ele>
        <time>2022-07-10T12:48:38.000Z</time>
      </trkpt>
      <trkpt lat="44.14032" lon="6.78307">
        <ele>1501</ele>
        <time>2022-07-10T12:48:39.000Z</time>
      </trkpt>
      <trkpt lat="44.14037" lon="6.783">
        <ele>1500.4</ele>
        <time>2022-07-10T12:48:41.000Z</time>
      </trkpt>
      <trkpt lat="44.14041" lon="6.78293">
        <ele>1499</ele>
        <time>2022-07-10T12:48:43.000Z</time>
      </trkpt>
      <trkpt lat="44.14046" lon="6.78287">
        <ele>1497.4</ele>
        <time>2022-07-10T12:48:45.000Z</time>
      </trkpt>
      <trkpt lat="44.14046" lon="6.78285">
        <ele>1496.2</ele>
        <time>2022-07-10T12:48:46.000Z</time>
      </trkpt>
      <trkpt lat="44.14045" lon="6.78286">
        <ele>1494.8</ele>
        <time>2022-07-10T12:48:47.000Z</time>
      </trkpt>
      <trkpt lat="44.14043" lon="6.78287">
        <ele>1493.8</ele>
        <time>2022-07-10T12:48:48.000Z</time>
      </trkpt>
      <trkpt lat="44.14037" lon="6.78288">
        <ele>1492.6</ele>
        <time>2022-07-10T12:48:50.000Z</time>
      </trkpt>
      <trkpt lat="44.14028" lon="6.78286">
        <ele>1491.4</ele>
        <time>2022-07-10T12:48:52.000Z</time>
      </trkpt>
      <trkpt lat="44.14023" lon="6.78284">
        <ele>1490.6</ele>
        <time>2022-07-10T12:48:53.000Z</time>
      </trkpt>
      <trkpt lat="44.14019" lon="6.78281">
        <ele>1489.6</ele>
        <time>2022-07-10T12:48:54.000Z</time>
      </trkpt>
      <trkpt lat="44.14011" lon="6.78275">
        <ele>1488.4</ele>
        <time>2022-07-10T12:48:56.000Z</time>
      </trkpt>
      <trkpt lat="44.14007" lon="6.78273">
        <ele>1487.2</ele>
        <time>2022-07-10T12:48:57.000Z</time>
      </trkpt>
      <trkpt lat="44.14002" lon="6.78272">
        <ele>1486</ele>
        <time>2022-07-10T12:48:58.000Z</time>
      </trkpt>
      <trkpt lat="44.13998" lon="6.78271">
        <ele>1485</ele>
        <time>2022-07-10T12:48:59.000Z</time>
      </trkpt>
      <trkpt lat="44.13991" lon="6.78269">
        <ele>1483.8</ele>
        <time>2022-07-10T12:49:01.000Z</time>
      </trkpt>
      <trkpt lat="44.13987" lon="6.78267">
        <ele>1482.6</ele>
        <time>2022-07-10T12:49:02.000Z</time>
      </trkpt>
      <trkpt lat="44.13984" lon="6.78266">
        <ele>1481.6</ele>
        <time>2022-07-10T12:49:03.000Z</time>
      </trkpt>
      <trkpt lat="44.13977" lon="6.78263">
        <ele>1479.8</ele>
        <time>2022-07-10T12:49:05.000Z</time>
      </trkpt>
      <trkpt lat="44.13968" lon="6.78261">
        <ele>1477.8</ele>
        <time>2022-07-10T12:49:07.000Z</time>
      </trkpt>
      <trkpt lat="44.13958" lon="6.78259">
        <ele>1475.6</ele>
        <time>2022-07-10T12:49:09.000Z</time>
      </trkpt>
      <trkpt lat="44.13954" lon="6.78259">
        <ele>1474.6</ele>
        <time>2022-07-10T12:49:10.000Z</time>
      </trkpt>
      <trkpt lat="44.13946" lon="6.78259">
        <ele>1472.8</ele>
        <time>2022-07-10T12:49:12.000Z</time>
      </trkpt>
      <trkpt lat="44.13939" lon="6.78258">
        <ele>1471</ele>
        <time>2022-07-10T12:49:14.000Z</time>
      </trkpt>
      <trkpt lat="44.13931" lon="6.78256">
        <ele>1469.4</ele>
        <time>2022-07-10T12:49:16.000Z</time>
      </trkpt>
      <trkpt lat="44.13926" lon="6.78255">
        <ele>1468.4</ele>
        <time>2022-07-10T12:49:17.000Z</time>
      </trkpt>
      <trkpt lat="44.13921" lon="6.78254">
        <ele>1467</ele>
        <time>2022-07-10T12:49:18.000Z</time>
      </trkpt>
      <trkpt lat="44.13915" lon="6.78253">
        <ele>1465.6</ele>
        <time>2022-07-10T12:49:19.000Z</time>
      </trkpt>
      <trkpt lat="44.13909" lon="6.78252">
        <ele>1464.2</ele>
        <time>2022-07-10T12:49:20.000Z</time>
      </trkpt>
      <trkpt lat="44.13904" lon="6.78252">
        <ele>1463.2</ele>
        <time>2022-07-10T12:49:21.000Z</time>
      </trkpt>
      <trkpt lat="44.13893" lon="6.78254">
        <ele>1461.4</ele>
        <time>2022-07-10T12:49:23.000Z</time>
      </trkpt>
      <trkpt lat="44.13882" lon="6.78255">
        <ele>1459.8</ele>
        <time>2022-07-10T12:49:25.000Z</time>
      </trkpt>
      <trkpt lat="44.13869" lon="6.78258">
        <ele>1459</ele>
        <time>2022-07-10T12:49:28.000Z</time>
      </trkpt>
      <trkpt lat="44.13857" lon="6.78264">
        <ele>1459</ele>
        <time>2022-07-10T12:49:31.000Z</time>
      </trkpt>
      <trkpt lat="44.13844" lon="6.78269">
        <ele>1458.8</ele>
        <time>2022-07-10T12:49:35.000Z</time>
      </trkpt>
      <trkpt lat="44.13841" lon="6.7827">
        <ele>1458.6</ele>
        <time>2022-07-10T12:49:36.000Z</time>
      </trkpt>
      <trkpt lat="44.13834" lon="6.78269">
        <ele>1457.8</ele>
        <time>2022-07-10T12:49:38.000Z</time>
      </trkpt>
      <trkpt lat="44.13828" lon="6.78266">
        <ele>1456.6</ele>
        <time>2022-07-10T12:49:40.000Z</time>
      </trkpt>
      <trkpt lat="44.13826" lon="6.78257">
        <ele>1455.2</ele>
        <time>2022-07-10T12:49:43.000Z</time>
      </trkpt>
      <trkpt lat="44.13825" lon="6.78254">
        <ele>1454</ele>
        <time>2022-07-10T12:49:45.000Z</time>
      </trkpt>
      <trkpt lat="44.13824" lon="6.78253">
        <ele>1453</ele>
        <time>2022-07-10T12:49:52.000Z</time>
      </trkpt>
      <trkpt lat="44.13823" lon="6.78246">
        <ele>1452.4</ele>
        <time>2022-07-10T12:50:07.000Z</time>
      </trkpt>
      <trkpt lat="44.13825" lon="6.7824">
        <ele>1452.6</ele>
        <time>2022-07-10T12:50:16.000Z</time>
      </trkpt>
      <trkpt lat="44.13825" lon="6.78231">
        <ele>1451.4</ele>
        <time>2022-07-10T12:50:19.000Z</time>
      </trkpt>
      <trkpt lat="44.13821" lon="6.78228">
        <ele>1449</ele>
        <time>2022-07-10T12:50:21.000Z</time>
      </trkpt>
      <trkpt lat="44.1382" lon="6.78226">
        <ele>1447.6</ele>
        <time>2022-07-10T12:50:22.000Z</time>
      </trkpt>
      <trkpt lat="44.13819" lon="6.78223">
        <ele>1446.6</ele>
        <time>2022-07-10T12:50:23.000Z</time>
      </trkpt>
      <trkpt lat="44.13816" lon="6.78219">
        <ele>1445.4</ele>
        <time>2022-07-10T12:50:25.000Z</time>
      </trkpt>
      <trkpt lat="44.13813" lon="6.78212">
        <ele>1443.8</ele>
        <time>2022-07-10T12:50:27.000Z</time>
      </trkpt>
      <trkpt lat="44.13811" lon="6.78207">
        <ele>1442.6</ele>
        <time>2022-07-10T12:50:28.000Z</time>
      </trkpt>
      <trkpt lat="44.1381" lon="6.78201">
        <ele>1441.2</ele>
        <time>2022-07-10T12:50:29.000Z</time>
      </trkpt>
      <trkpt lat="44.13807" lon="6.78192">
        <ele>1439.6</ele>
        <time>2022-07-10T12:50:31.000Z</time>
      </trkpt>
      <trkpt lat="44.13807" lon="6.78185">
        <ele>1438.2</ele>
        <time>2022-07-10T12:50:33.000Z</time>
      </trkpt>
      <trkpt lat="44.13807" lon="6.78179">
        <ele>1437.6</ele>
        <time>2022-07-10T12:50:34.000Z</time>
      </trkpt>
      <trkpt lat="44.13805" lon="6.78177">
        <ele>1437</ele>
        <time>2022-07-10T12:50:35.000Z</time>
      </trkpt>
      <trkpt lat="44.13803" lon="6.78172">
        <ele>1435.4</ele>
        <time>2022-07-10T12:50:37.000Z</time>
      </trkpt>
      <trkpt lat="44.13804" lon="6.78167">
        <ele>1434.4</ele>
        <time>2022-07-10T12:50:39.000Z</time>
      </trkpt>
      <trkpt lat="44.13804" lon="6.7816">
        <ele>1433</ele>
        <time>2022-07-10T12:50:41.000Z</time>
      </trkpt>
      <trkpt lat="44.13806" lon="6.78157">
        <ele>1432.2</ele>
        <time>2022-07-10T12:50:42.000Z</time>
      </trkpt>
      <trkpt lat="44.13806" lon="6.78154">
        <ele>1431.4</ele>
        <time>2022-07-10T12:50:43.000Z</time>
      </trkpt>
      <trkpt lat="44.13806" lon="6.78142">
        <ele>1429.8</ele>
        <time>2022-07-10T12:50:45.000Z</time>
      </trkpt>
      <trkpt lat="44.13806" lon="6.78136">
        <ele>1428.6</ele>
        <time>2022-07-10T12:50:46.000Z</time>
      </trkpt>
      <trkpt lat="44.13805" lon="6.78129">
        <ele>1427.6</ele>
        <time>2022-07-10T12:50:47.000Z</time>
      </trkpt>
      <trkpt lat="44.13809" lon="6.7812">
        <ele>1425.8</ele>
        <time>2022-07-10T12:50:49.000Z</time>
      </trkpt>
      <trkpt lat="44.13816" lon="6.78114">
        <ele>1424.2</ele>
        <time>2022-07-10T12:50:51.000Z</time>
      </trkpt>
      <trkpt lat="44.13825" lon="6.78103">
        <ele>1422.6</ele>
        <time>2022-07-10T12:50:53.000Z</time>
      </trkpt>
      <trkpt lat="44.13829" lon="6.78096">
        <ele>1421.6</ele>
        <time>2022-07-10T12:50:54.000Z</time>
      </trkpt>
      <trkpt lat="44.13834" lon="6.78087">
        <ele>1420.8</ele>
        <time>2022-07-10T12:50:55.000Z</time>
      </trkpt>
      <trkpt lat="44.13838" lon="6.78078">
        <ele>1419.6</ele>
        <time>2022-07-10T12:50:56.000Z</time>
      </trkpt>
      <trkpt lat="44.13843" lon="6.78069">
        <ele>1418.6</ele>
        <time>2022-07-10T12:50:57.000Z</time>
      </trkpt>
      <trkpt lat="44.13844" lon="6.78055">
        <ele>1417.4</ele>
        <time>2022-07-10T12:50:58.000Z</time>
      </trkpt>
      <trkpt lat="44.13845" lon="6.78038">
        <ele>1415.6</ele>
        <time>2022-07-10T12:51:00.000Z</time>
      </trkpt>
      <trkpt lat="44.13849" lon="6.78022">
        <ele>1413.6</ele>
        <time>2022-07-10T12:51:02.000Z</time>
      </trkpt>
      <trkpt lat="44.13851" lon="6.78015">
        <ele>1412.4</ele>
        <time>2022-07-10T12:51:03.000Z</time>
      </trkpt>
      <trkpt lat="44.13854" lon="6.78008">
        <ele>1411.4</ele>
        <time>2022-07-10T12:51:04.000Z</time>
      </trkpt>
      <trkpt lat="44.13856" lon="6.78001">
        <ele>1410.2</ele>
        <time>2022-07-10T12:51:05.000Z</time>
      </trkpt>
      <trkpt lat="44.13859" lon="6.77984">
        <ele>1408.4</ele>
        <time>2022-07-10T12:51:07.000Z</time>
      </trkpt>
      <trkpt lat="44.1386" lon="6.77976">
        <ele>1407.4</ele>
        <time>2022-07-10T12:51:08.000Z</time>
      </trkpt>
      <trkpt lat="44.13864" lon="6.77971">
        <ele>1405.6</ele>
        <time>2022-07-10T12:51:09.000Z</time>
      </trkpt>
      <trkpt lat="44.13867" lon="6.77966">
        <ele>1403.4</ele>
        <time>2022-07-10T12:51:10.000Z</time>
      </trkpt>
      <trkpt lat="44.1387" lon="6.77963">
        <ele>1401.4</ele>
        <time>2022-07-10T12:51:11.000Z</time>
      </trkpt>
      <trkpt lat="44.13873" lon="6.77962">
        <ele>1400.2</ele>
        <time>2022-07-10T12:51:12.000Z</time>
      </trkpt>
      <trkpt lat="44.13876" lon="6.77957">
        <ele>1398.8</ele>
        <time>2022-07-10T12:51:14.000Z</time>
      </trkpt>
      <trkpt lat="44.1388" lon="6.77953">
        <ele>1397.4</ele>
        <time>2022-07-10T12:51:16.000Z</time>
      </trkpt>
      <trkpt lat="44.13884" lon="6.77949">
        <ele>1395.6</ele>
        <time>2022-07-10T12:51:18.000Z</time>
      </trkpt>
      <trkpt lat="44.13887" lon="6.77948">
        <ele>1394.2</ele>
        <time>2022-07-10T12:51:19.000Z</time>
      </trkpt>
      <trkpt lat="44.13889" lon="6.77945">
        <ele>1392.4</ele>
        <time>2022-07-10T12:51:20.000Z</time>
      </trkpt>
      <trkpt lat="44.13894" lon="6.77942">
        <ele>1391</ele>
        <time>2022-07-10T12:51:21.000Z</time>
      </trkpt>
      <trkpt lat="44.139" lon="6.7794">
        <ele>1389.8</ele>
        <time>2022-07-10T12:51:22.000Z</time>
      </trkpt>
      <trkpt lat="44.13906" lon="6.77938">
        <ele>1388.6</ele>
        <time>2022-07-10T12:51:23.000Z</time>
      </trkpt>
      <trkpt lat="44.13911" lon="6.77934">
        <ele>1387.6</ele>
        <time>2022-07-10T12:51:24.000Z</time>
      </trkpt>
      <trkpt lat="44.13917" lon="6.77928">
        <ele>1385.8</ele>
        <time>2022-07-10T12:51:25.000Z</time>
      </trkpt>
      <trkpt lat="44.13923" lon="6.7792">
        <ele>1384</ele>
        <time>2022-07-10T12:51:26.000Z</time>
      </trkpt>
      <trkpt lat="44.13928" lon="6.77914">
        <ele>1382.2</ele>
        <time>2022-07-10T12:51:27.000Z</time>
      </trkpt>
      <trkpt lat="44.13933" lon="6.77907">
        <ele>1381.2</ele>
        <time>2022-07-10T12:51:28.000Z</time>
      </trkpt>
      <trkpt lat="44.13937" lon="6.77902">
        <ele>1380</ele>
        <time>2022-07-10T12:51:29.000Z</time>
      </trkpt>
      <trkpt lat="44.13945" lon="6.7789">
        <ele>1378.6</ele>
        <time>2022-07-10T12:51:31.000Z</time>
      </trkpt>
      <trkpt lat="44.13946" lon="6.77883">
        <ele>1377.2</ele>
        <time>2022-07-10T12:51:32.000Z</time>
      </trkpt>
      <trkpt lat="44.13945" lon="6.7787">
        <ele>1376.2</ele>
        <time>2022-07-10T12:51:33.000Z</time>
      </trkpt>
      <trkpt lat="44.13943" lon="6.77861">
        <ele>1375</ele>
        <time>2022-07-10T12:51:34.000Z</time>
      </trkpt>
      <trkpt lat="44.13941" lon="6.77852">
        <ele>1374.2</ele>
        <time>2022-07-10T12:51:35.000Z</time>
      </trkpt>
      <trkpt lat="44.1394" lon="6.77844">
        <ele>1373.6</ele>
        <time>2022-07-10T12:51:36.000Z</time>
      </trkpt>
      <trkpt lat="44.13939" lon="6.77823">
        <ele>1371.8</ele>
        <time>2022-07-10T12:51:39.000Z</time>
      </trkpt>
      <trkpt lat="44.1394" lon="6.77818">
        <ele>1370.8</ele>
        <time>2022-07-10T12:51:40.000Z</time>
      </trkpt>
      <trkpt lat="44.13941" lon="6.77813">
        <ele>1369.8</ele>
        <time>2022-07-10T12:51:41.000Z</time>
      </trkpt>
      <trkpt lat="44.13943" lon="6.77808">
        <ele>1368.6</ele>
        <time>2022-07-10T12:51:42.000Z</time>
      </trkpt>
      <trkpt lat="44.13945" lon="6.77804">
        <ele>1367.4</ele>
        <time>2022-07-10T12:51:43.000Z</time>
      </trkpt>
      <trkpt lat="44.13948" lon="6.77801">
        <ele>1366</ele>
        <time>2022-07-10T12:51:44.000Z</time>
      </trkpt>
      <trkpt lat="44.13951" lon="6.77798">
        <ele>1364.6</ele>
        <time>2022-07-10T12:51:45.000Z</time>
      </trkpt>
      <trkpt lat="44.13952" lon="6.77795">
        <ele>1363.2</ele>
        <time>2022-07-10T12:51:46.000Z</time>
      </trkpt>
      <trkpt lat="44.13954" lon="6.77792">
        <ele>1362</ele>
        <time>2022-07-10T12:51:47.000Z</time>
      </trkpt>
      <trkpt lat="44.13954" lon="6.77789">
        <ele>1360.8</ele>
        <time>2022-07-10T12:51:48.000Z</time>
      </trkpt>
      <trkpt lat="44.13953" lon="6.77787">
        <ele>1359.6</ele>
        <time>2022-07-10T12:51:49.000Z</time>
      </trkpt>
      <trkpt lat="44.13951" lon="6.77782">
        <ele>1358.4</ele>
        <time>2022-07-10T12:51:50.000Z</time>
      </trkpt>
      <trkpt lat="44.13949" lon="6.77779">
        <ele>1357.2</ele>
        <time>2022-07-10T12:51:51.000Z</time>
      </trkpt>
      <trkpt lat="44.13947" lon="6.77776">
        <ele>1355.8</ele>
        <time>2022-07-10T12:51:52.000Z</time>
      </trkpt>
      <trkpt lat="44.13945" lon="6.77773">
        <ele>1354.6</ele>
        <time>2022-07-10T12:51:53.000Z</time>
      </trkpt>
      <trkpt lat="44.13942" lon="6.77772">
        <ele>1353.2</ele>
        <time>2022-07-10T12:51:54.000Z</time>
      </trkpt>
      <trkpt lat="44.13932" lon="6.77771">
        <ele>1351</ele>
        <time>2022-07-10T12:51:56.000Z</time>
      </trkpt>
      <trkpt lat="44.13926" lon="6.77772">
        <ele>1349</ele>
        <time>2022-07-10T12:51:57.000Z</time>
      </trkpt>
      <trkpt lat="44.1392" lon="6.77772">
        <ele>1346.8</ele>
        <time>2022-07-10T12:51:58.000Z</time>
      </trkpt>
      <trkpt lat="44.13913" lon="6.77772">
        <ele>1345.4</ele>
        <time>2022-07-10T12:51:59.000Z</time>
      </trkpt>
      <trkpt lat="44.13902" lon="6.77772">
        <ele>1344</ele>
        <time>2022-07-10T12:52:01.000Z</time>
      </trkpt>
      <trkpt lat="44.13893" lon="6.77769">
        <ele>1342</ele>
        <time>2022-07-10T12:52:03.000Z</time>
      </trkpt>
      <trkpt lat="44.13887" lon="6.77767">
        <ele>1340.4</ele>
        <time>2022-07-10T12:52:04.000Z</time>
      </trkpt>
      <trkpt lat="44.13883" lon="6.77766">
        <ele>1339.2</ele>
        <time>2022-07-10T12:52:05.000Z</time>
      </trkpt>
      <trkpt lat="44.1388" lon="6.77765">
        <ele>1337.8</ele>
        <time>2022-07-10T12:52:06.000Z</time>
      </trkpt>
      <trkpt lat="44.13873" lon="6.77763">
        <ele>1336</ele>
        <time>2022-07-10T12:52:08.000Z</time>
      </trkpt>
      <trkpt lat="44.13869" lon="6.77763">
        <ele>1334.6</ele>
        <time>2022-07-10T12:52:09.000Z</time>
      </trkpt>
      <trkpt lat="44.13863" lon="6.77763">
        <ele>1332.8</ele>
        <time>2022-07-10T12:52:10.000Z</time>
      </trkpt>
      <trkpt lat="44.13857" lon="6.77763">
        <ele>1331.4</ele>
        <time>2022-07-10T12:52:11.000Z</time>
      </trkpt>
      <trkpt lat="44.13846" lon="6.77761">
        <ele>1329.4</ele>
        <time>2022-07-10T12:52:13.000Z</time>
      </trkpt>
      <trkpt lat="44.13834" lon="6.7776">
        <ele>1327.8</ele>
        <time>2022-07-10T12:52:15.000Z</time>
      </trkpt>
      <trkpt lat="44.13828" lon="6.77759">
        <ele>1326.2</ele>
        <time>2022-07-10T12:52:16.000Z</time>
      </trkpt>
      <trkpt lat="44.13822" lon="6.77758">
        <ele>1325.2</ele>
        <time>2022-07-10T12:52:17.000Z</time>
      </trkpt>
      <trkpt lat="44.13811" lon="6.77758">
        <ele>1323.6</ele>
        <time>2022-07-10T12:52:19.000Z</time>
      </trkpt>
      <trkpt lat="44.13805" lon="6.77757">
        <ele>1322.8</ele>
        <time>2022-07-10T12:52:20.000Z</time>
      </trkpt>
      <trkpt lat="44.13799" lon="6.77756">
        <ele>1322.2</ele>
        <time>2022-07-10T12:52:21.000Z</time>
      </trkpt>
      <trkpt lat="44.13789" lon="6.77753">
        <ele>1320.2</ele>
        <time>2022-07-10T12:52:23.000Z</time>
      </trkpt>
      <trkpt lat="44.13785" lon="6.77751">
        <ele>1319.2</ele>
        <time>2022-07-10T12:52:24.000Z</time>
      </trkpt>
      <trkpt lat="44.13778" lon="6.77748">
        <ele>1317.6</ele>
        <time>2022-07-10T12:52:26.000Z</time>
      </trkpt>
      <trkpt lat="44.13771" lon="6.77743">
        <ele>1316.2</ele>
        <time>2022-07-10T12:52:28.000Z</time>
      </trkpt>
      <trkpt lat="44.13767" lon="6.77738">
        <ele>1314.6</ele>
        <time>2022-07-10T12:52:30.000Z</time>
      </trkpt>
      <trkpt lat="44.13763" lon="6.77735">
        <ele>1313.2</ele>
        <time>2022-07-10T12:52:32.000Z</time>
      </trkpt>
      <trkpt lat="44.13759" lon="6.77734">
        <ele>1311.6</ele>
        <time>2022-07-10T12:52:34.000Z</time>
      </trkpt>
      <trkpt lat="44.13757" lon="6.77735">
        <ele>1310.6</ele>
        <time>2022-07-10T12:52:35.000Z</time>
      </trkpt>
      <trkpt lat="44.13751" lon="6.77737">
        <ele>1308.6</ele>
        <time>2022-07-10T12:52:37.000Z</time>
      </trkpt>
      <trkpt lat="44.13746" lon="6.7774">
        <ele>1307</ele>
        <time>2022-07-10T12:52:39.000Z</time>
      </trkpt>
      <trkpt lat="44.13743" lon="6.7774">
        <ele>1306.4</ele>
        <time>2022-07-10T12:52:40.000Z</time>
      </trkpt>
      <trkpt lat="44.1374" lon="6.7774">
        <ele>1305.6</ele>
        <time>2022-07-10T12:52:41.000Z</time>
      </trkpt>
      <trkpt lat="44.13733" lon="6.77742">
        <ele>1303.6</ele>
        <time>2022-07-10T12:52:43.000Z</time>
      </trkpt>
      <trkpt lat="44.13728" lon="6.77747">
        <ele>1302.2</ele>
        <time>2022-07-10T12:52:45.000Z</time>
      </trkpt>
      <trkpt lat="44.13723" lon="6.77755">
        <ele>1301</ele>
        <time>2022-07-10T12:52:47.000Z</time>
      </trkpt>
      <trkpt lat="44.13714" lon="6.77766">
        <ele>1299.8</ele>
        <time>2022-07-10T12:52:50.000Z</time>
      </trkpt>
      <trkpt lat="44.13709" lon="6.77773">
        <ele>1298.4</ele>
        <time>2022-07-10T12:52:52.000Z</time>
      </trkpt>
      <trkpt lat="44.13703" lon="6.7778">
        <ele>1297.2</ele>
        <time>2022-07-10T12:52:54.000Z</time>
      </trkpt>
      <trkpt lat="44.13695" lon="6.77786">
        <ele>1295.4</ele>
        <time>2022-07-10T12:52:57.000Z</time>
      </trkpt>
      <trkpt lat="44.13687" lon="6.77791">
        <ele>1294.2</ele>
        <time>2022-07-10T12:52:59.000Z</time>
      </trkpt>
      <trkpt lat="44.13675" lon="6.778">
        <ele>1293</ele>
        <time>2022-07-10T12:53:03.000Z</time>
      </trkpt>
      <trkpt lat="44.13671" lon="6.77804">
        <ele>1291.6</ele>
        <time>2022-07-10T12:53:05.000Z</time>
      </trkpt>
      <trkpt lat="44.13667" lon="6.77807">
        <ele>1290.6</ele>
        <time>2022-07-10T12:53:07.000Z</time>
      </trkpt>
      <trkpt lat="44.13666" lon="6.77811">
        <ele>1290.2</ele>
        <time>2022-07-10T12:53:08.000Z</time>
      </trkpt>
      <trkpt lat="44.13665" lon="6.77815">
        <ele>1290</ele>
        <time>2022-07-10T12:53:09.000Z</time>
      </trkpt>
      <trkpt lat="44.13661" lon="6.77821">
        <ele>1289</ele>
        <time>2022-07-10T12:53:11.000Z</time>
      </trkpt>
      <trkpt lat="44.13653" lon="6.77826">
        <ele>1287.2</ele>
        <time>2022-07-10T12:53:14.000Z</time>
      </trkpt>
      <trkpt lat="44.1365" lon="6.77828">
        <ele>1286</ele>
        <time>2022-07-10T12:53:15.000Z</time>
      </trkpt>
      <trkpt lat="44.13646" lon="6.77831">
        <ele>1284.8</ele>
        <time>2022-07-10T12:53:16.000Z</time>
      </trkpt>
      <trkpt lat="44.13642" lon="6.77834">
        <ele>1283.8</ele>
        <time>2022-07-10T12:53:17.000Z</time>
      </trkpt>
      <trkpt lat="44.13638" lon="6.77839">
        <ele>1283</ele>
        <time>2022-07-10T12:53:18.000Z</time>
      </trkpt>
      <trkpt lat="44.13631" lon="6.77846">
        <ele>1281.8</ele>
        <time>2022-07-10T12:53:20.000Z</time>
      </trkpt>
      <trkpt lat="44.13624" lon="6.77848">
        <ele>1280.4</ele>
        <time>2022-07-10T12:53:23.000Z</time>
      </trkpt>
      <trkpt lat="44.13617" lon="6.77849">
        <ele>1279.2</ele>
        <time>2022-07-10T12:53:26.000Z</time>
      </trkpt>
      <trkpt lat="44.13612" lon="6.77851">
        <ele>1278.4</ele>
        <time>2022-07-10T12:53:28.000Z</time>
      </trkpt>
      <trkpt lat="44.1361" lon="6.7785">
        <ele>1278.2</ele>
        <time>2022-07-10T12:53:29.000Z</time>
      </trkpt>
      <trkpt lat="44.13607" lon="6.77849">
        <ele>1277.6</ele>
        <time>2022-07-10T12:53:31.000Z</time>
      </trkpt>
      <trkpt lat="44.13604" lon="6.77847">
        <ele>1276.6</ele>
        <time>2022-07-10T12:53:33.000Z</time>
      </trkpt>
      <trkpt lat="44.13603" lon="6.77846">
        <ele>1275.6</ele>
        <time>2022-07-10T12:53:34.000Z</time>
      </trkpt>
      <trkpt lat="44.13601" lon="6.77845">
        <ele>1274.2</ele>
        <time>2022-07-10T12:53:35.000Z</time>
      </trkpt>
      <trkpt lat="44.13598" lon="6.77844">
        <ele>1273.2</ele>
        <time>2022-07-10T12:53:36.000Z</time>
      </trkpt>
      <trkpt lat="44.13595" lon="6.77842">
        <ele>1271.4</ele>
        <time>2022-07-10T12:53:38.000Z</time>
      </trkpt>
      <trkpt lat="44.1359" lon="6.77841">
        <ele>1269.8</ele>
        <time>2022-07-10T12:53:40.000Z</time>
      </trkpt>
      <trkpt lat="44.13585" lon="6.77838">
        <ele>1268.4</ele>
        <time>2022-07-10T12:53:43.000Z</time>
      </trkpt>
      <trkpt lat="44.13582" lon="6.77834">
        <ele>1267</ele>
        <time>2022-07-10T12:53:45.000Z</time>
      </trkpt>
      <trkpt lat="44.13576" lon="6.7783">
        <ele>1265</ele>
        <time>2022-07-10T12:53:47.000Z</time>
      </trkpt>
      <trkpt lat="44.13572" lon="6.77826">
        <ele>1263.4</ele>
        <time>2022-07-10T12:53:49.000Z</time>
      </trkpt>
      <trkpt lat="44.13568" lon="6.77822">
        <ele>1262</ele>
        <time>2022-07-10T12:53:51.000Z</time>
      </trkpt>
      <trkpt lat="44.13563" lon="6.77821">
        <ele>1260.8</ele>
        <time>2022-07-10T12:53:53.000Z</time>
      </trkpt>
      <trkpt lat="44.1356" lon="6.7782">
        <ele>1259.6</ele>
        <time>2022-07-10T12:53:56.000Z</time>
      </trkpt>
      <trkpt lat="44.13554" lon="6.77812">
        <ele>1259.2</ele>
        <time>2022-07-10T12:54:09.000Z</time>
      </trkpt>
      <trkpt lat="44.13553" lon="6.77805">
        <ele>1258.8</ele>
        <time>2022-07-10T12:54:18.000Z</time>
      </trkpt>
      <trkpt lat="44.13553" lon="6.77801">
        <ele>1258.4</ele>
        <time>2022-07-10T12:54:20.000Z</time>
      </trkpt>
      <trkpt lat="44.13553" lon="6.77798">
        <ele>1257.8</ele>
        <time>2022-07-10T12:54:21.000Z</time>
      </trkpt>
      <trkpt lat="44.13553" lon="6.77795">
        <ele>1257.2</ele>
        <time>2022-07-10T12:54:22.000Z</time>
      </trkpt>
      <trkpt lat="44.13556" lon="6.77788">
        <ele>1256</ele>
        <time>2022-07-10T12:54:25.000Z</time>
      </trkpt>
      <trkpt lat="44.13562" lon="6.77777">
        <ele>1254.6</ele>
        <time>2022-07-10T12:54:29.000Z</time>
      </trkpt>
      <trkpt lat="44.13569" lon="6.77769">
        <ele>1253.2</ele>
        <time>2022-07-10T12:54:32.000Z</time>
      </trkpt>
      <trkpt lat="44.1357" lon="6.77741">
        <ele>1252.2</ele>
        <time>2022-07-10T12:54:39.000Z</time>
      </trkpt>
      <trkpt lat="44.13574" lon="6.77733">
        <ele>1251.2</ele>
        <time>2022-07-10T12:54:41.000Z</time>
      </trkpt>
      <trkpt lat="44.13578" lon="6.77727">
        <ele>1250</ele>
        <time>2022-07-10T12:54:43.000Z</time>
      </trkpt>
      <trkpt lat="44.13581" lon="6.77724">
        <ele>1248.8</ele>
        <time>2022-07-10T12:54:45.000Z</time>
      </trkpt>
      <trkpt lat="44.13583" lon="6.77716">
        <ele>1247.8</ele>
        <time>2022-07-10T12:54:47.000Z</time>
      </trkpt>
      <trkpt lat="44.13583" lon="6.77709">
        <ele>1246.6</ele>
        <time>2022-07-10T12:54:49.000Z</time>
      </trkpt>
      <trkpt lat="44.13584" lon="6.77697">
        <ele>1245</ele>
        <time>2022-07-10T12:54:51.000Z</time>
      </trkpt>
      <trkpt lat="44.13582" lon="6.77687">
        <ele>1244</ele>
        <time>2022-07-10T12:54:53.000Z</time>
      </trkpt>
      <trkpt lat="44.1358" lon="6.7769">
        <ele>1242.8</ele>
        <time>2022-07-10T12:54:55.000Z</time>
      </trkpt>
      <trkpt lat="44.13578" lon="6.77682">
        <ele>1241.4</ele>
        <time>2022-07-10T12:54:58.000Z</time>
      </trkpt>
      <trkpt lat="44.1358" lon="6.77664">
        <ele>1239.4</ele>
        <time>2022-07-10T12:55:01.000Z</time>
      </trkpt>
      <trkpt lat="44.13581" lon="6.77659">
        <ele>1238.2</ele>
        <time>2022-07-10T12:55:02.000Z</time>
      </trkpt>
      <trkpt lat="44.13582" lon="6.77655">
        <ele>1237</ele>
        <time>2022-07-10T12:55:03.000Z</time>
      </trkpt>
      <trkpt lat="44.13582" lon="6.77643">
        <ele>1235.4</ele>
        <time>2022-07-10T12:55:05.000Z</time>
      </trkpt>
      <trkpt lat="44.13582" lon="6.7763">
        <ele>1234</ele>
        <time>2022-07-10T12:55:07.000Z</time>
      </trkpt>
      <trkpt lat="44.13583" lon="6.77621">
        <ele>1232.4</ele>
        <time>2022-07-10T12:55:09.000Z</time>
      </trkpt>
      <trkpt lat="44.13586" lon="6.77614">
        <ele>1230.8</ele>
        <time>2022-07-10T12:55:11.000Z</time>
      </trkpt>
      <trkpt lat="44.13585" lon="6.77611">
        <ele>1229.8</ele>
        <time>2022-07-10T12:55:12.000Z</time>
      </trkpt>
      <trkpt lat="44.13583" lon="6.77608">
        <ele>1228</ele>
        <time>2022-07-10T12:55:14.000Z</time>
      </trkpt>
      <trkpt lat="44.13582" lon="6.7761">
        <ele>1227.4</ele>
        <time>2022-07-10T12:55:15.000Z</time>
      </trkpt>
      <trkpt lat="44.1358" lon="6.77612">
        <ele>1226.8</ele>
        <time>2022-07-10T12:55:16.000Z</time>
      </trkpt>
      <trkpt lat="44.13578" lon="6.77612">
        <ele>1226.4</ele>
        <time>2022-07-10T12:55:17.000Z</time>
      </trkpt>
      <trkpt lat="44.13578" lon="6.77608">
        <ele>1225.4</ele>
        <time>2022-07-10T12:55:19.000Z</time>
      </trkpt>
      <trkpt lat="44.13579" lon="6.77603">
        <ele>1224.2</ele>
        <time>2022-07-10T12:55:21.000Z</time>
      </trkpt>
      <trkpt lat="44.13583" lon="6.77599">
        <ele>1223</ele>
        <time>2022-07-10T12:55:24.000Z</time>
      </trkpt>
      <trkpt lat="44.1359" lon="6.77593">
        <ele>1222</ele>
        <time>2022-07-10T12:55:27.000Z</time>
      </trkpt>
      <trkpt lat="44.13591" lon="6.7759">
        <ele>1221.4</ele>
        <time>2022-07-10T12:55:28.000Z</time>
      </trkpt>
      <trkpt lat="44.13591" lon="6.7759">
        <ele>1220.8</ele>
        <time>2022-07-10T12:55:29.000Z</time>
      </trkpt>
      <trkpt lat="44.13587" lon="6.77589">
        <ele>1219.4</ele>
        <time>2022-07-10T12:55:31.000Z</time>
      </trkpt>
      <trkpt lat="44.13587" lon="6.77587">
        <ele>1219.2</ele>
        <time>2022-07-10T12:55:32.000Z</time>
      </trkpt>
      <trkpt lat="44.13589" lon="6.77586">
        <ele>1218.8</ele>
        <time>2022-07-10T12:55:33.000Z</time>
      </trkpt>
      <trkpt lat="44.13589" lon="6.77585">
        <ele>1218.4</ele>
        <time>2022-07-10T12:55:34.000Z</time>
      </trkpt>
      <trkpt lat="44.13588" lon="6.77582">
        <ele>1217.4</ele>
        <time>2022-07-10T12:55:36.000Z</time>
      </trkpt>
      <trkpt lat="44.13589" lon="6.7758">
        <ele>1216.8</ele>
        <time>2022-07-10T12:55:37.000Z</time>
      </trkpt>
      <trkpt lat="44.13591" lon="6.7758">
        <ele>1216.6</ele>
        <time>2022-07-10T12:55:38.000Z</time>
      </trkpt>
      <trkpt lat="44.13592" lon="6.77576">
        <ele>1215.6</ele>
        <time>2022-07-10T12:55:40.000Z</time>
      </trkpt>
      <trkpt lat="44.13591" lon="6.77575">
        <ele>1215</ele>
        <time>2022-07-10T12:55:41.000Z</time>
      </trkpt>
      <trkpt lat="44.1359" lon="6.77574">
        <ele>1214.4</ele>
        <time>2022-07-10T12:55:42.000Z</time>
      </trkpt>
      <trkpt lat="44.13591" lon="6.77571">
        <ele>1213.4</ele>
        <time>2022-07-10T12:55:44.000Z</time>
      </trkpt>
      <trkpt lat="44.13591" lon="6.77568">
        <ele>1212.6</ele>
        <time>2022-07-10T12:55:45.000Z</time>
      </trkpt>
      <trkpt lat="44.13592" lon="6.77567">
        <ele>1212</ele>
        <time>2022-07-10T12:55:46.000Z</time>
      </trkpt>
      <trkpt lat="44.13594" lon="6.77566">
        <ele>1211.4</ele>
        <time>2022-07-10T12:55:47.000Z</time>
      </trkpt>
      <trkpt lat="44.13596" lon="6.77563">
        <ele>1210.8</ele>
        <time>2022-07-10T12:55:48.000Z</time>
      </trkpt>
      <trkpt lat="44.13596" lon="6.77557">
        <ele>1209.4</ele>
        <time>2022-07-10T12:55:50.000Z</time>
      </trkpt>
      <trkpt lat="44.13597" lon="6.77555">
        <ele>1208</ele>
        <time>2022-07-10T12:55:52.000Z</time>
      </trkpt>
      <trkpt lat="44.13596" lon="6.77541">
        <ele>1207.8</ele>
        <time>2022-07-10T12:56:06.000Z</time>
      </trkpt>
      <trkpt lat="44.13594" lon="6.77536">
        <ele>1207.2</ele>
        <time>2022-07-10T12:56:17.000Z</time>
      </trkpt>
      <trkpt lat="44.13594" lon="6.77537">
        <ele>1207</ele>
        <time>2022-07-10T12:56:19.000Z</time>
      </trkpt>
      <trkpt lat="44.13591" lon="6.77535">
        <ele>1206.2</ele>
        <time>2022-07-10T12:56:23.000Z</time>
      </trkpt>
      <trkpt lat="44.13592" lon="6.77534">
        <ele>1205.8</ele>
        <time>2022-07-10T12:56:24.000Z</time>
      </trkpt>
      <trkpt lat="44.13594" lon="6.77529">
        <ele>1204.2</ele>
        <time>2022-07-10T12:56:26.000Z</time>
      </trkpt>
      <trkpt lat="44.13597" lon="6.77527">
        <ele>1203</ele>
        <time>2022-07-10T12:56:27.000Z</time>
      </trkpt>
      <trkpt lat="44.13599" lon="6.77524">
        <ele>1202</ele>
        <time>2022-07-10T12:56:28.000Z</time>
      </trkpt>
      <trkpt lat="44.13603" lon="6.7752">
        <ele>1200.8</ele>
        <time>2022-07-10T12:56:30.000Z</time>
      </trkpt>
      <trkpt lat="44.13612" lon="6.77515">
        <ele>1199.4</ele>
        <time>2022-07-10T12:56:33.000Z</time>
      </trkpt>
      <trkpt lat="44.13623" lon="6.77513">
        <ele>1198</ele>
        <time>2022-07-10T12:56:35.000Z</time>
      </trkpt>
      <trkpt lat="44.13623" lon="6.77511">
        <ele>1196.6</ele>
        <time>2022-07-10T12:56:37.000Z</time>
      </trkpt>
      <trkpt lat="44.13618" lon="6.77508">
        <ele>1195.4</ele>
        <time>2022-07-10T12:56:39.000Z</time>
      </trkpt>
      <trkpt lat="44.13612" lon="6.77505">
        <ele>1193.6</ele>
        <time>2022-07-10T12:56:41.000Z</time>
      </trkpt>
      <trkpt lat="44.13607" lon="6.77504">
        <ele>1192</ele>
        <time>2022-07-10T12:56:43.000Z</time>
      </trkpt>
      <trkpt lat="44.13603" lon="6.77498">
        <ele>1190.4</ele>
        <time>2022-07-10T12:56:45.000Z</time>
      </trkpt>
      <trkpt lat="44.13601" lon="6.77499">
        <ele>1190.2</ele>
        <time>2022-07-10T12:56:46.000Z</time>
      </trkpt>
      <trkpt lat="44.136" lon="6.77498">
        <ele>1189</ele>
        <time>2022-07-10T12:56:48.000Z</time>
      </trkpt>
      <trkpt lat="44.13602" lon="6.77494">
        <ele>1187.8</ele>
        <time>2022-07-10T12:56:50.000Z</time>
      </trkpt>
      <trkpt lat="44.13606" lon="6.77492">
        <ele>1186.4</ele>
        <time>2022-07-10T12:56:52.000Z</time>
      </trkpt>
      <trkpt lat="44.13609" lon="6.77491">
        <ele>1185.8</ele>
        <time>2022-07-10T12:56:53.000Z</time>
      </trkpt>
      <trkpt lat="44.13611" lon="6.77489">
        <ele>1185.4</ele>
        <time>2022-07-10T12:56:54.000Z</time>
      </trkpt>
      <trkpt lat="44.13615" lon="6.77483">
        <ele>1184.2</ele>
        <time>2022-07-10T12:56:56.000Z</time>
      </trkpt>
      <trkpt lat="44.13615" lon="6.77477">
        <ele>1183.6</ele>
        <time>2022-07-10T12:56:57.000Z</time>
      </trkpt>
      <trkpt lat="44.13614" lon="6.77475">
        <ele>1183</ele>
        <time>2022-07-10T12:56:58.000Z</time>
      </trkpt>
      <trkpt lat="44.13609" lon="6.77469">
        <ele>1181.6</ele>
        <time>2022-07-10T12:57:00.000Z</time>
      </trkpt>
      <trkpt lat="44.13608" lon="6.77466">
        <ele>1180.8</ele>
        <time>2022-07-10T12:57:01.000Z</time>
      </trkpt>
      <trkpt lat="44.13608" lon="6.77464">
        <ele>1180</ele>
        <time>2022-07-10T12:57:02.000Z</time>
      </trkpt>
      <trkpt lat="44.13611" lon="6.77459">
        <ele>1178.8</ele>
        <time>2022-07-10T12:57:04.000Z</time>
      </trkpt>
      <trkpt lat="44.13617" lon="6.77451">
        <ele>1177.2</ele>
        <time>2022-07-10T12:57:07.000Z</time>
      </trkpt>
      <trkpt lat="44.1362" lon="6.77446">
        <ele>1176.2</ele>
        <time>2022-07-10T12:57:09.000Z</time>
      </trkpt>
      <trkpt lat="44.1362" lon="6.77442">
        <ele>1175.6</ele>
        <time>2022-07-10T12:57:10.000Z</time>
      </trkpt>
      <trkpt lat="44.13618" lon="6.77437">
        <ele>1174.8</ele>
        <time>2022-07-10T12:57:12.000Z</time>
      </trkpt>
      <trkpt lat="44.13614" lon="6.77433">
        <ele>1174</ele>
        <time>2022-07-10T12:57:14.000Z</time>
      </trkpt>
      <trkpt lat="44.13614" lon="6.77431">
        <ele>1173.6</ele>
        <time>2022-07-10T12:57:15.000Z</time>
      </trkpt>
      <trkpt lat="44.13615" lon="6.77424">
        <ele>1173</ele>
        <time>2022-07-10T12:57:17.000Z</time>
      </trkpt>
      <trkpt lat="44.13616" lon="6.77418">
        <ele>1172.4</ele>
        <time>2022-07-10T12:57:18.000Z</time>
      </trkpt>
      <trkpt lat="44.13615" lon="6.77415">
        <ele>1171.8</ele>
        <time>2022-07-10T12:57:19.000Z</time>
      </trkpt>
      <trkpt lat="44.13613" lon="6.77414">
        <ele>1171.2</ele>
        <time>2022-07-10T12:57:20.000Z</time>
      </trkpt>
      <trkpt lat="44.13605" lon="6.77408">
        <ele>1170</ele>
        <time>2022-07-10T12:57:23.000Z</time>
      </trkpt>
      <trkpt lat="44.13603" lon="6.77407">
        <ele>1168.8</ele>
        <time>2022-07-10T12:57:27.000Z</time>
      </trkpt>
      <trkpt lat="44.13602" lon="6.77402">
        <ele>1169</ele>
        <time>2022-07-10T12:57:44.000Z</time>
      </trkpt>
      <trkpt lat="44.13601" lon="6.77401">
        <ele>1168.8</ele>
        <time>2022-07-10T12:57:45.000Z</time>
      </trkpt>
      <trkpt lat="44.136" lon="6.77389">
        <ele>1168.6</ele>
        <time>2022-07-10T12:57:58.000Z</time>
      </trkpt>
      <trkpt lat="44.13602" lon="6.77385">
        <ele>1168.4</ele>
        <time>2022-07-10T12:58:01.000Z</time>
      </trkpt>
      <trkpt lat="44.13605" lon="6.7738">
        <ele>1167.8</ele>
        <time>2022-07-10T12:58:03.000Z</time>
      </trkpt>
      <trkpt lat="44.13609" lon="6.77374">
        <ele>1166.6</ele>
        <time>2022-07-10T12:58:05.000Z</time>
      </trkpt>
      <trkpt lat="44.13614" lon="6.77366">
        <ele>1165</ele>
        <time>2022-07-10T12:58:08.000Z</time>
      </trkpt>
      <trkpt lat="44.13616" lon="6.77359">
        <ele>1163.6</ele>
        <time>2022-07-10T12:58:10.000Z</time>
      </trkpt>
      <trkpt lat="44.1362" lon="6.77358">
        <ele>1162.4</ele>
        <time>2022-07-10T12:58:12.000Z</time>
      </trkpt>
      <trkpt lat="44.13629" lon="6.77348">
        <ele>1161.2</ele>
        <time>2022-07-10T12:58:16.000Z</time>
      </trkpt>
      <trkpt lat="44.13632" lon="6.77343">
        <ele>1160</ele>
        <time>2022-07-10T12:58:18.000Z</time>
      </trkpt>
      <trkpt lat="44.13634" lon="6.77343">
        <ele>1159.4</ele>
        <time>2022-07-10T12:58:19.000Z</time>
      </trkpt>
      <trkpt lat="44.13637" lon="6.77342">
        <ele>1158.8</ele>
        <time>2022-07-10T12:58:20.000Z</time>
      </trkpt>
      <trkpt lat="44.13647" lon="6.77342">
        <ele>1157.2</ele>
        <time>2022-07-10T12:58:23.000Z</time>
      </trkpt>
      <trkpt lat="44.13651" lon="6.77336">
        <ele>1156</ele>
        <time>2022-07-10T12:58:25.000Z</time>
      </trkpt>
      <trkpt lat="44.13654" lon="6.77329">
        <ele>1154.4</ele>
        <time>2022-07-10T12:58:27.000Z</time>
      </trkpt>
      <trkpt lat="44.13655" lon="6.77325">
        <ele>1153.2</ele>
        <time>2022-07-10T12:58:28.000Z</time>
      </trkpt>
      <trkpt lat="44.13656" lon="6.77322">
        <ele>1152.2</ele>
        <time>2022-07-10T12:58:29.000Z</time>
      </trkpt>
      <trkpt lat="44.13658" lon="6.77318">
        <ele>1150.8</ele>
        <time>2022-07-10T12:58:31.000Z</time>
      </trkpt>
      <trkpt lat="44.13663" lon="6.77315">
        <ele>1150</ele>
        <time>2022-07-10T12:58:33.000Z</time>
      </trkpt>
      <trkpt lat="44.13663" lon="6.77311">
        <ele>1149.4</ele>
        <time>2022-07-10T12:58:34.000Z</time>
      </trkpt>
      <trkpt lat="44.13661" lon="6.77305">
        <ele>1148.4</ele>
        <time>2022-07-10T12:58:36.000Z</time>
      </trkpt>
      <trkpt lat="44.13658" lon="6.77304">
        <ele>1147.6</ele>
        <time>2022-07-10T12:58:38.000Z</time>
      </trkpt>
      <trkpt lat="44.13658" lon="6.77304">
        <ele>1147</ele>
        <time>2022-07-10T12:58:39.000Z</time>
      </trkpt>
      <trkpt lat="44.13653" lon="6.77302">
        <ele>1146</ele>
        <time>2022-07-10T12:58:41.000Z</time>
      </trkpt>
      <trkpt lat="44.13653" lon="6.773">
        <ele>1145.4</ele>
        <time>2022-07-10T12:58:42.000Z</time>
      </trkpt>
      <trkpt lat="44.13654" lon="6.77293">
        <ele>1144.6</ele>
        <time>2022-07-10T12:58:44.000Z</time>
      </trkpt>
      <trkpt lat="44.13651" lon="6.77294">
        <ele>1143.4</ele>
        <time>2022-07-10T12:58:47.000Z</time>
      </trkpt>
      <trkpt lat="44.13646" lon="6.77294">
        <ele>1142.6</ele>
        <time>2022-07-10T12:58:50.000Z</time>
      </trkpt>
      <trkpt lat="44.13643" lon="6.77293">
        <ele>1142</ele>
        <time>2022-07-10T12:58:51.000Z</time>
      </trkpt>
      <trkpt lat="44.13639" lon="6.77294">
        <ele>1140.4</ele>
        <time>2022-07-10T12:58:53.000Z</time>
      </trkpt>
      <trkpt lat="44.13637" lon="6.77295">
        <ele>1139.2</ele>
        <time>2022-07-10T12:58:54.000Z</time>
      </trkpt>
      <trkpt lat="44.13635" lon="6.77296">
        <ele>1138</ele>
        <time>2022-07-10T12:58:55.000Z</time>
      </trkpt>
      <trkpt lat="44.13633" lon="6.77296">
        <ele>1136.8</ele>
        <time>2022-07-10T12:58:56.000Z</time>
      </trkpt>
      <trkpt lat="44.13629" lon="6.77297">
        <ele>1135.6</ele>
        <time>2022-07-10T12:58:57.000Z</time>
      </trkpt>
      <trkpt lat="44.13624" lon="6.77298">
        <ele>1133.8</ele>
        <time>2022-07-10T12:58:59.000Z</time>
      </trkpt>
      <trkpt lat="44.13619" lon="6.773">
        <ele>1132.6</ele>
        <time>2022-07-10T12:59:01.000Z</time>
      </trkpt>
      <trkpt lat="44.13612" lon="6.77301">
        <ele>1130.8</ele>
        <time>2022-07-10T12:59:03.000Z</time>
      </trkpt>
      <trkpt lat="44.13604" lon="6.773">
        <ele>1129</ele>
        <time>2022-07-10T12:59:05.000Z</time>
      </trkpt>
      <trkpt lat="44.13596" lon="6.77304">
        <ele>1127.6</ele>
        <time>2022-07-10T12:59:07.000Z</time>
      </trkpt>
      <trkpt lat="44.13586" lon="6.77311">
        <ele>1126</ele>
        <time>2022-07-10T12:59:09.000Z</time>
      </trkpt>
      <trkpt lat="44.13582" lon="6.77311">
        <ele>1125</ele>
        <time>2022-07-10T12:59:10.000Z</time>
      </trkpt>
      <trkpt lat="44.13575" lon="6.77307">
        <ele>1123.4</ele>
        <time>2022-07-10T12:59:12.000Z</time>
      </trkpt>
      <trkpt lat="44.13572" lon="6.77307">
        <ele>1122.8</ele>
        <time>2022-07-10T12:59:13.000Z</time>
      </trkpt>
      <trkpt lat="44.13569" lon="6.77307">
        <ele>1122.2</ele>
        <time>2022-07-10T12:59:14.000Z</time>
      </trkpt>
      <trkpt lat="44.13564" lon="6.77309">
        <ele>1120.8</ele>
        <time>2022-07-10T12:59:16.000Z</time>
      </trkpt>
      <trkpt lat="44.13561" lon="6.77309">
        <ele>1120.2</ele>
        <time>2022-07-10T12:59:17.000Z</time>
      </trkpt>
      <trkpt lat="44.13558" lon="6.77305">
        <ele>1119.4</ele>
        <time>2022-07-10T12:59:19.000Z</time>
      </trkpt>
      <trkpt lat="44.13558" lon="6.77297">
        <ele>1118.2</ele>
        <time>2022-07-10T12:59:22.000Z</time>
      </trkpt>
      <trkpt lat="44.13557" lon="6.77294">
        <ele>1117.8</ele>
        <time>2022-07-10T12:59:23.000Z</time>
      </trkpt>
      <trkpt lat="44.13558" lon="6.77291">
        <ele>1117.4</ele>
        <time>2022-07-10T12:59:24.000Z</time>
      </trkpt>
      <trkpt lat="44.1356" lon="6.77289">
        <ele>1116.8</ele>
        <time>2022-07-10T12:59:25.000Z</time>
      </trkpt>
      <trkpt lat="44.13567" lon="6.77285">
        <ele>1114.8</ele>
        <time>2022-07-10T12:59:27.000Z</time>
      </trkpt>
      <trkpt lat="44.13572" lon="6.77284">
        <ele>1113.6</ele>
        <time>2022-07-10T12:59:28.000Z</time>
      </trkpt>
      <trkpt lat="44.13575" lon="6.77282">
        <ele>1112</ele>
        <time>2022-07-10T12:59:29.000Z</time>
      </trkpt>
      <trkpt lat="44.13578" lon="6.77276">
        <ele>1110.6</ele>
        <time>2022-07-10T12:59:31.000Z</time>
      </trkpt>
      <trkpt lat="44.13579" lon="6.77272">
        <ele>1109.2</ele>
        <time>2022-07-10T12:59:33.000Z</time>
      </trkpt>
      <trkpt lat="44.1358" lon="6.7727">
        <ele>1109</ele>
        <time>2022-07-10T12:59:34.000Z</time>
      </trkpt>
      <trkpt lat="44.13578" lon="6.77266">
        <ele>1108</ele>
        <time>2022-07-10T12:59:36.000Z</time>
      </trkpt>
      <trkpt lat="44.13577" lon="6.77265">
        <ele>1107.8</ele>
        <time>2022-07-10T12:59:37.000Z</time>
      </trkpt>
      <trkpt lat="44.13571" lon="6.77265">
        <ele>1106.4</ele>
        <time>2022-07-10T12:59:40.000Z</time>
      </trkpt>
      <trkpt lat="44.1357" lon="6.77262">
        <ele>1105.8</ele>
        <time>2022-07-10T12:59:41.000Z</time>
      </trkpt>
      <trkpt lat="44.13571" lon="6.7726">
        <ele>1105.6</ele>
        <time>2022-07-10T12:59:42.000Z</time>
      </trkpt>
      <trkpt lat="44.13572" lon="6.77257">
        <ele>1105.2</ele>
        <time>2022-07-10T12:59:43.000Z</time>
      </trkpt>
      <trkpt lat="44.13575" lon="6.7725">
        <ele>1103.8</ele>
        <time>2022-07-10T12:59:45.000Z</time>
      </trkpt>
      <trkpt lat="44.13578" lon="6.77244">
        <ele>1102.8</ele>
        <time>2022-07-10T12:59:47.000Z</time>
      </trkpt>
      <trkpt lat="44.13582" lon="6.77239">
        <ele>1101.4</ele>
        <time>2022-07-10T12:59:49.000Z</time>
      </trkpt>
      <trkpt lat="44.13583" lon="6.77236">
        <ele>1100.2</ele>
        <time>2022-07-10T12:59:50.000Z</time>
      </trkpt>
      <trkpt lat="44.13586" lon="6.77232">
        <ele>1099.2</ele>
        <time>2022-07-10T12:59:51.000Z</time>
      </trkpt>
      <trkpt lat="44.13588" lon="6.77229">
        <ele>1098</ele>
        <time>2022-07-10T12:59:52.000Z</time>
      </trkpt>
      <trkpt lat="44.1359" lon="6.77225">
        <ele>1096.8</ele>
        <time>2022-07-10T12:59:53.000Z</time>
      </trkpt>
      <trkpt lat="44.13593" lon="6.77222">
        <ele>1095.4</ele>
        <time>2022-07-10T12:59:54.000Z</time>
      </trkpt>
      <trkpt lat="44.13595" lon="6.77215">
        <ele>1094</ele>
        <time>2022-07-10T12:59:55.000Z</time>
      </trkpt>
      <trkpt lat="44.13599" lon="6.77211">
        <ele>1093</ele>
        <time>2022-07-10T12:59:56.000Z</time>
      </trkpt>
      <trkpt lat="44.13602" lon="6.77206">
        <ele>1092.2</ele>
        <time>2022-07-10T12:59:57.000Z</time>
      </trkpt>
      <trkpt lat="44.13605" lon="6.77199">
        <ele>1091.6</ele>
        <time>2022-07-10T12:59:58.000Z</time>
      </trkpt>
      <trkpt lat="44.13609" lon="6.77194">
        <ele>1090.6</ele>
        <time>2022-07-10T12:59:59.000Z</time>
      </trkpt>
      <trkpt lat="44.13612" lon="6.7719">
        <ele>1089.8</ele>
        <time>2022-07-10T13:00:00.000Z</time>
      </trkpt>
      <trkpt lat="44.13627" lon="6.77181">
        <ele>1088.2</ele>
        <time>2022-07-10T13:00:03.000Z</time>
      </trkpt>
      <trkpt lat="44.13632" lon="6.77176">
        <ele>1087.6</ele>
        <time>2022-07-10T13:00:04.000Z</time>
      </trkpt>
      <trkpt lat="44.13638" lon="6.77163">
        <ele>1086.4</ele>
        <time>2022-07-10T13:00:06.000Z</time>
      </trkpt>
      <trkpt lat="44.13641" lon="6.77157">
        <ele>1085.4</ele>
        <time>2022-07-10T13:00:07.000Z</time>
      </trkpt>
      <trkpt lat="44.13646" lon="6.7715">
        <ele>1084.4</ele>
        <time>2022-07-10T13:00:08.000Z</time>
      </trkpt>
      <trkpt lat="44.13654" lon="6.77141">
        <ele>1083.2</ele>
        <time>2022-07-10T13:00:10.000Z</time>
      </trkpt>
      <trkpt lat="44.13661" lon="6.77131">
        <ele>1081.6</ele>
        <time>2022-07-10T13:00:12.000Z</time>
      </trkpt>
      <trkpt lat="44.13665" lon="6.77125">
        <ele>1080.4</ele>
        <time>2022-07-10T13:00:13.000Z</time>
      </trkpt>
      <trkpt lat="44.1367" lon="6.77119">
        <ele>1079</ele>
        <time>2022-07-10T13:00:14.000Z</time>
      </trkpt>
      <trkpt lat="44.13676" lon="6.77113">
        <ele>1077.2</ele>
        <time>2022-07-10T13:00:15.000Z</time>
      </trkpt>
      <trkpt lat="44.13681" lon="6.77108">
        <ele>1075.8</ele>
        <time>2022-07-10T13:00:16.000Z</time>
      </trkpt>
      <trkpt lat="44.13687" lon="6.77098">
        <ele>1074.4</ele>
        <time>2022-07-10T13:00:17.000Z</time>
      </trkpt>
      <trkpt lat="44.13692" lon="6.77091">
        <ele>1073.2</ele>
        <time>2022-07-10T13:00:18.000Z</time>
      </trkpt>
      <trkpt lat="44.13695" lon="6.77084">
        <ele>1071.8</ele>
        <time>2022-07-10T13:00:19.000Z</time>
      </trkpt>
      <trkpt lat="44.13697" lon="6.77079">
        <ele>1070.8</ele>
        <time>2022-07-10T13:00:20.000Z</time>
      </trkpt>
      <trkpt lat="44.13699" lon="6.77073">
        <ele>1070</ele>
        <time>2022-07-10T13:00:21.000Z</time>
      </trkpt>
      <trkpt lat="44.13701" lon="6.77065">
        <ele>1068.8</ele>
        <time>2022-07-10T13:00:22.000Z</time>
      </trkpt>
      <trkpt lat="44.13703" lon="6.77057">
        <ele>1067.8</ele>
        <time>2022-07-10T13:00:23.000Z</time>
      </trkpt>
      <trkpt lat="44.13707" lon="6.77043">
        <ele>1066.4</ele>
        <time>2022-07-10T13:00:25.000Z</time>
      </trkpt>
      <trkpt lat="44.13711" lon="6.77029">
        <ele>1064.8</ele>
        <time>2022-07-10T13:00:27.000Z</time>
      </trkpt>
      <trkpt lat="44.13711" lon="6.77021">
        <ele>1063.8</ele>
        <time>2022-07-10T13:00:28.000Z</time>
      </trkpt>
      <trkpt lat="44.13711" lon="6.77015">
        <ele>1062.8</ele>
        <time>2022-07-10T13:00:29.000Z</time>
      </trkpt>
      <trkpt lat="44.1371" lon="6.77011">
        <ele>1061.8</ele>
        <time>2022-07-10T13:00:30.000Z</time>
      </trkpt>
      <trkpt lat="44.13707" lon="6.77007">
        <ele>1060.6</ele>
        <time>2022-07-10T13:00:32.000Z</time>
      </trkpt>
      <trkpt lat="44.13702" lon="6.7701">
        <ele>1059.4</ele>
        <time>2022-07-10T13:00:34.000Z</time>
      </trkpt>
      <trkpt lat="44.13697" lon="6.77012">
        <ele>1058</ele>
        <time>2022-07-10T13:00:36.000Z</time>
      </trkpt>
      <trkpt lat="44.13695" lon="6.77012">
        <ele>1056.6</ele>
        <time>2022-07-10T13:00:38.000Z</time>
      </trkpt>
      <trkpt lat="44.13696" lon="6.77009">
        <ele>1055.4</ele>
        <time>2022-07-10T13:00:40.000Z</time>
      </trkpt>
      <trkpt lat="44.13696" lon="6.77003">
        <ele>1054</ele>
        <time>2022-07-10T13:00:42.000Z</time>
      </trkpt>
      <trkpt lat="44.13699" lon="6.76994">
        <ele>1052.4</ele>
        <time>2022-07-10T13:00:44.000Z</time>
      </trkpt>
      <trkpt lat="44.13701" lon="6.7699">
        <ele>1051.4</ele>
        <time>2022-07-10T13:00:45.000Z</time>
      </trkpt>
      <trkpt lat="44.13703" lon="6.76985">
        <ele>1050.2</ele>
        <time>2022-07-10T13:00:46.000Z</time>
      </trkpt>
      <trkpt lat="44.13705" lon="6.76981">
        <ele>1049</ele>
        <time>2022-07-10T13:00:47.000Z</time>
      </trkpt>
      <trkpt lat="44.13708" lon="6.76978">
        <ele>1047.6</ele>
        <time>2022-07-10T13:00:48.000Z</time>
      </trkpt>
      <trkpt lat="44.13712" lon="6.76974">
        <ele>1046.4</ele>
        <time>2022-07-10T13:00:49.000Z</time>
      </trkpt>
      <trkpt lat="44.13718" lon="6.76969">
        <ele>1044.6</ele>
        <time>2022-07-10T13:00:51.000Z</time>
      </trkpt>
      <trkpt lat="44.13722" lon="6.76965">
        <ele>1042.8</ele>
        <time>2022-07-10T13:00:53.000Z</time>
      </trkpt>
      <trkpt lat="44.13725" lon="6.7696">
        <ele>1041</ele>
        <time>2022-07-10T13:00:55.000Z</time>
      </trkpt>
      <trkpt lat="44.13729" lon="6.76958">
        <ele>1039.4</ele>
        <time>2022-07-10T13:00:57.000Z</time>
      </trkpt>
      <trkpt lat="44.13735" lon="6.76954">
        <ele>1038.2</ele>
        <time>2022-07-10T13:00:59.000Z</time>
      </trkpt>
      <trkpt lat="44.13731" lon="6.76941">
        <ele>1036.8</ele>
        <time>2022-07-10T13:01:02.000Z</time>
      </trkpt>
      <trkpt lat="44.13725" lon="6.76934">
        <ele>1035.4</ele>
        <time>2022-07-10T13:01:04.000Z</time>
      </trkpt>
      <trkpt lat="44.13719" lon="6.76927">
        <ele>1034</ele>
        <time>2022-07-10T13:01:06.000Z</time>
      </trkpt>
      <trkpt lat="44.13715" lon="6.76923">
        <ele>1032.8</ele>
        <time>2022-07-10T13:01:08.000Z</time>
      </trkpt>
      <trkpt lat="44.13714" lon="6.76921">
        <ele>1032.2</ele>
        <time>2022-07-10T13:01:09.000Z</time>
      </trkpt>
      <trkpt lat="44.13713" lon="6.76918">
        <ele>1031.2</ele>
        <time>2022-07-10T13:01:11.000Z</time>
      </trkpt>
      <trkpt lat="44.13711" lon="6.76911">
        <ele>1030</ele>
        <time>2022-07-10T13:01:13.000Z</time>
      </trkpt>
      <trkpt lat="44.13709" lon="6.76907">
        <ele>1028.6</ele>
        <time>2022-07-10T13:01:15.000Z</time>
      </trkpt>
      <trkpt lat="44.13709" lon="6.76907">
        <ele>1028.2</ele>
        <time>2022-07-10T13:01:16.000Z</time>
      </trkpt>
      <trkpt lat="44.13711" lon="6.76901">
        <ele>1027.2</ele>
        <time>2022-07-10T13:01:20.000Z</time>
      </trkpt>
      <trkpt lat="44.13712" lon="6.76897">
        <ele>1026.6</ele>
        <time>2022-07-10T13:01:21.000Z</time>
      </trkpt>
      <trkpt lat="44.13714" lon="6.76895">
        <ele>1026</ele>
        <time>2022-07-10T13:01:22.000Z</time>
      </trkpt>
      <trkpt lat="44.13719" lon="6.76892">
        <ele>1024.8</ele>
        <time>2022-07-10T13:01:24.000Z</time>
      </trkpt>
      <trkpt lat="44.13724" lon="6.76889">
        <ele>1023.4</ele>
        <time>2022-07-10T13:01:26.000Z</time>
      </trkpt>
      <trkpt lat="44.13728" lon="6.76888">
        <ele>1021.6</ele>
        <time>2022-07-10T13:01:28.000Z</time>
      </trkpt>
      <trkpt lat="44.13732" lon="6.76887">
        <ele>1020.2</ele>
        <time>2022-07-10T13:01:30.000Z</time>
      </trkpt>
      <trkpt lat="44.13745" lon="6.76885">
        <ele>1019.6</ele>
        <time>2022-07-10T13:01:32.000Z</time>
      </trkpt>
      <trkpt lat="44.13747" lon="6.7688">
        <ele>1019</ele>
        <time>2022-07-10T13:01:33.000Z</time>
      </trkpt>
      <trkpt lat="44.13747" lon="6.76872">
        <ele>1017</ele>
        <time>2022-07-10T13:01:35.000Z</time>
      </trkpt>
      <trkpt lat="44.1375" lon="6.76866">
        <ele>1016</ele>
        <time>2022-07-10T13:01:36.000Z</time>
      </trkpt>
      <trkpt lat="44.13752" lon="6.76859">
        <ele>1014.8</ele>
        <time>2022-07-10T13:01:38.000Z</time>
      </trkpt>
      <trkpt lat="44.13752" lon="6.76855">
        <ele>1014.4</ele>
        <time>2022-07-10T13:01:39.000Z</time>
      </trkpt>
      <trkpt lat="44.13746" lon="6.76851">
        <ele>1013.2</ele>
        <time>2022-07-10T13:01:42.000Z</time>
      </trkpt>
      <trkpt lat="44.13744" lon="6.76852">
        <ele>1012.2</ele>
        <time>2022-07-10T13:01:43.000Z</time>
      </trkpt>
      <trkpt lat="44.13742" lon="6.76854">
        <ele>1011</ele>
        <time>2022-07-10T13:01:44.000Z</time>
      </trkpt>
      <trkpt lat="44.13738" lon="6.76859">
        <ele>1009.8</ele>
        <time>2022-07-10T13:01:46.000Z</time>
      </trkpt>
      <trkpt lat="44.13736" lon="6.76861">
        <ele>1009.2</ele>
        <time>2022-07-10T13:01:47.000Z</time>
      </trkpt>
      <trkpt lat="44.13734" lon="6.76861">
        <ele>1008.6</ele>
        <time>2022-07-10T13:01:48.000Z</time>
      </trkpt>
      <trkpt lat="44.13734" lon="6.76859">
        <ele>1008.2</ele>
        <time>2022-07-10T13:01:49.000Z</time>
      </trkpt>
      <trkpt lat="44.13736" lon="6.76853">
        <ele>1007.4</ele>
        <time>2022-07-10T13:01:51.000Z</time>
      </trkpt>
      <trkpt lat="44.13739" lon="6.76842">
        <ele>1005.6</ele>
        <time>2022-07-10T13:01:53.000Z</time>
      </trkpt>
      <trkpt lat="44.13741" lon="6.76836">
        <ele>1004.8</ele>
        <time>2022-07-10T13:01:54.000Z</time>
      </trkpt>
      <trkpt lat="44.13743" lon="6.76832">
        <ele>1004.2</ele>
        <time>2022-07-10T13:01:55.000Z</time>
      </trkpt>
      <trkpt lat="44.13744" lon="6.76828">
        <ele>1003.8</ele>
        <time>2022-07-10T13:01:56.000Z</time>
      </trkpt>
      <trkpt lat="44.13746" lon="6.76819">
        <ele>1003</ele>
        <time>2022-07-10T13:01:58.000Z</time>
      </trkpt>
      <trkpt lat="44.13744" lon="6.76818">
        <ele>1001.8</ele>
        <time>2022-07-10T13:02:00.000Z</time>
      </trkpt>
      <trkpt lat="44.13737" lon="6.76825">
        <ele>1000.4</ele>
        <time>2022-07-10T13:02:03.000Z</time>
      </trkpt>
      <trkpt lat="44.13733" lon="6.76823">
        <ele>999.6</ele>
        <time>2022-07-10T13:02:05.000Z</time>
      </trkpt>
      <trkpt lat="44.13731" lon="6.76819">
        <ele>999</ele>
        <time>2022-07-10T13:02:06.000Z</time>
      </trkpt>
      <trkpt lat="44.13729" lon="6.76807">
        <ele>997.4</ele>
        <time>2022-07-10T13:02:08.000Z</time>
      </trkpt>
      <trkpt lat="44.13727" lon="6.768">
        <ele>996.4</ele>
        <time>2022-07-10T13:02:09.000Z</time>
      </trkpt>
      <trkpt lat="44.13723" lon="6.76793">
        <ele>995.6</ele>
        <time>2022-07-10T13:02:10.000Z</time>
      </trkpt>
      <trkpt lat="44.13718" lon="6.76786">
        <ele>994.6</ele>
        <time>2022-07-10T13:02:11.000Z</time>
      </trkpt>
      <trkpt lat="44.13707" lon="6.76773">
        <ele>992.6</ele>
        <time>2022-07-10T13:02:13.000Z</time>
      </trkpt>
      <trkpt lat="44.13702" lon="6.76756">
        <ele>991</ele>
        <time>2022-07-10T13:02:15.000Z</time>
      </trkpt>
      <trkpt lat="44.13695" lon="6.76735">
        <ele>990.2</ele>
        <time>2022-07-10T13:02:18.000Z</time>
      </trkpt>
      <trkpt lat="44.13694" lon="6.76729">
        <ele>989.8</ele>
        <time>2022-07-10T13:02:19.000Z</time>
      </trkpt>
      <trkpt lat="44.13693" lon="6.76719">
        <ele>988.6</ele>
        <time>2022-07-10T13:02:21.000Z</time>
      </trkpt>
      <trkpt lat="44.13694" lon="6.7671">
        <ele>987.4</ele>
        <time>2022-07-10T13:02:23.000Z</time>
      </trkpt>
      <trkpt lat="44.13694" lon="6.76701">
        <ele>986.6</ele>
        <time>2022-07-10T13:02:25.000Z</time>
      </trkpt>
      <trkpt lat="44.13693" lon="6.76696">
        <ele>986.2</ele>
        <time>2022-07-10T13:02:26.000Z</time>
      </trkpt>
      <trkpt lat="44.13685" lon="6.76702">
        <ele>984.8</ele>
        <time>2022-07-10T13:02:30.000Z</time>
      </trkpt>
      <trkpt lat="44.13678" lon="6.76714">
        <ele>983.6</ele>
        <time>2022-07-10T13:02:34.000Z</time>
      </trkpt>
      <trkpt lat="44.13677" lon="6.76718">
        <ele>983.6</ele>
        <time>2022-07-10T13:02:36.000Z</time>
      </trkpt>
      <trkpt lat="44.13676" lon="6.76719">
        <ele>983.8</ele>
        <time>2022-07-10T13:02:40.000Z</time>
      </trkpt>
    </trkseg>
  </trk>
</gpx>